<?xml version="1.0" encoding="UTF-8" standalone="no" ?>
<gpx xmlns="http://www.topografix.com/GPX/1/1" xmlns:xsi="http://www.w3.org/2001/XMLSchema-instance" xsi:schemaLocation="http://www.topografix.com/GPX/1/1 http://www.topografix.com/GPX/1/1/gpx.xsd" version="1.1" creator="VisuGPX - https://www.visugpx.com">
  <metadata>
    <name>Grand Est cycling tour J1</name>
    <desc><![CDATA[Raon l'étape à Saverne par le col du Donon]]></desc>
  </metadata>
  <trk>
    <name><![CDATA[OR-6294432--Raon-l'Étape:Grand est cycling tour 1ère journée]]></name>
    <trkseg>
      <trkpt lat="48.40714" lon="6.84368">
        <ele>283</ele>
        <time>2016-07-04T12:30:26Z</time>
      </trkpt>
      <trkpt lat="48.40705" lon="6.84399">
        <ele>284</ele>
        <time>2016-07-04T12:32:26Z</time>
      </trkpt>
      <trkpt lat="48.40705" lon="6.84399">
        <ele>284</ele>
        <time>2016-07-04T12:34:26Z</time>
      </trkpt>
      <trkpt lat="48.40713" lon="6.84405">
        <ele>283</ele>
        <time>2016-07-04T12:36:26Z</time>
      </trkpt>
      <trkpt lat="48.40746" lon="6.84435">
        <ele>283</ele>
        <time>2016-07-04T12:38:26Z</time>
      </trkpt>
      <trkpt lat="48.40746" lon="6.84435">
        <ele>283</ele>
        <time>2016-07-04T12:40:26Z</time>
      </trkpt>
      <trkpt lat="48.40741" lon="6.84451">
        <ele>283</ele>
        <time>2016-07-04T12:42:26Z</time>
      </trkpt>
      <trkpt lat="48.40734" lon="6.84479">
        <ele>285</ele>
        <time>2016-07-04T12:44:26Z</time>
      </trkpt>
      <trkpt lat="48.4073" lon="6.84504">
        <ele>285</ele>
        <time>2016-07-04T12:46:26Z</time>
      </trkpt>
      <trkpt lat="48.40729" lon="6.84537">
        <ele>285</ele>
        <time>2016-07-04T12:48:26Z</time>
      </trkpt>
      <trkpt lat="48.40728" lon="6.84554">
        <ele>285</ele>
        <time>2016-07-04T12:50:26Z</time>
      </trkpt>
      <trkpt lat="48.40728" lon="6.84554">
        <ele>285</ele>
        <time>2016-07-04T12:52:26Z</time>
      </trkpt>
      <trkpt lat="48.40731" lon="6.8463">
        <ele>284</ele>
        <time>2016-07-04T12:54:26Z</time>
      </trkpt>
      <trkpt lat="48.40731" lon="6.84639">
        <ele>284</ele>
        <time>2016-07-04T12:56:26Z</time>
      </trkpt>
      <trkpt lat="48.40731" lon="6.84643">
        <ele>284</ele>
        <time>2016-07-04T12:58:26Z</time>
      </trkpt>
      <trkpt lat="48.40731" lon="6.84646">
        <ele>284</ele>
        <time>2016-07-04T13:00:26Z</time>
      </trkpt>
      <trkpt lat="48.40726" lon="6.84664">
        <ele>284</ele>
        <time>2016-07-04T13:02:26Z</time>
      </trkpt>
      <trkpt lat="48.40722" lon="6.84678">
        <ele>284</ele>
        <time>2016-07-04T13:04:26Z</time>
      </trkpt>
      <trkpt lat="48.40722" lon="6.84678">
        <ele>284</ele>
        <time>2016-07-04T13:06:26Z</time>
      </trkpt>
      <trkpt lat="48.40737" lon="6.84736">
        <ele>282</ele>
        <time>2016-07-04T13:08:26Z</time>
      </trkpt>
      <trkpt lat="48.40756" lon="6.84815">
        <ele>282</ele>
        <time>2016-07-04T13:10:26Z</time>
      </trkpt>
      <trkpt lat="48.40771" lon="6.84869">
        <ele>283</ele>
        <time>2016-07-04T13:12:26Z</time>
      </trkpt>
      <trkpt lat="48.40778" lon="6.84893">
        <ele>283</ele>
        <time>2016-07-04T13:14:26Z</time>
      </trkpt>
      <trkpt lat="48.40778" lon="6.84894">
        <ele>283</ele>
        <time>2016-07-04T13:16:26Z</time>
      </trkpt>
      <trkpt lat="48.40781" lon="6.84908">
        <ele>284</ele>
        <time>2016-07-04T13:18:26Z</time>
      </trkpt>
      <trkpt lat="48.40781" lon="6.84908">
        <ele>284</ele>
        <time>2016-07-04T13:20:26Z</time>
      </trkpt>
      <trkpt lat="48.40786" lon="6.84908">
        <ele>284</ele>
        <time>2016-07-04T13:22:26Z</time>
      </trkpt>
      <trkpt lat="48.40791" lon="6.84908">
        <ele>284</ele>
        <time>2016-07-04T13:24:26Z</time>
      </trkpt>
      <trkpt lat="48.40798" lon="6.84911">
        <ele>284</ele>
        <time>2016-07-04T13:26:26Z</time>
      </trkpt>
      <trkpt lat="48.408" lon="6.84919">
        <ele>284</ele>
        <time>2016-07-04T13:28:26Z</time>
      </trkpt>
      <trkpt lat="48.40801" lon="6.84925">
        <ele>284</ele>
        <time>2016-07-04T13:30:26Z</time>
      </trkpt>
      <trkpt lat="48.40803" lon="6.84934">
        <ele>284</ele>
        <time>2016-07-04T13:32:26Z</time>
      </trkpt>
      <trkpt lat="48.40803" lon="6.84943">
        <ele>284</ele>
        <time>2016-07-04T13:34:26Z</time>
      </trkpt>
      <trkpt lat="48.40803" lon="6.84949">
        <ele>284</ele>
        <time>2016-07-04T13:36:26Z</time>
      </trkpt>
      <trkpt lat="48.40803" lon="6.84962">
        <ele>284</ele>
        <time>2016-07-04T13:38:26Z</time>
      </trkpt>
      <trkpt lat="48.40804" lon="6.84969">
        <ele>284</ele>
        <time>2016-07-04T13:40:26Z</time>
      </trkpt>
      <trkpt lat="48.40805" lon="6.84976">
        <ele>284</ele>
        <time>2016-07-04T13:42:26Z</time>
      </trkpt>
      <trkpt lat="48.40807" lon="6.84983">
        <ele>284</ele>
        <time>2016-07-04T13:44:26Z</time>
      </trkpt>
      <trkpt lat="48.40808" lon="6.84992">
        <ele>283</ele>
        <time>2016-07-04T13:46:26Z</time>
      </trkpt>
      <trkpt lat="48.40809" lon="6.85001">
        <ele>283</ele>
        <time>2016-07-04T13:48:26Z</time>
      </trkpt>
      <trkpt lat="48.40811" lon="6.8501">
        <ele>283</ele>
        <time>2016-07-04T13:50:26Z</time>
      </trkpt>
      <trkpt lat="48.40812" lon="6.8502">
        <ele>283</ele>
        <time>2016-07-04T13:52:26Z</time>
      </trkpt>
      <trkpt lat="48.40813" lon="6.8503">
        <ele>284</ele>
        <time>2016-07-04T13:54:26Z</time>
      </trkpt>
      <trkpt lat="48.40814" lon="6.8504">
        <ele>284</ele>
        <time>2016-07-04T13:56:26Z</time>
      </trkpt>
      <trkpt lat="48.40816" lon="6.8505">
        <ele>284</ele>
        <time>2016-07-04T13:58:26Z</time>
      </trkpt>
      <trkpt lat="48.40818" lon="6.85061">
        <ele>284</ele>
        <time>2016-07-04T14:00:26Z</time>
      </trkpt>
      <trkpt lat="48.4082" lon="6.85071">
        <ele>284</ele>
        <time>2016-07-04T14:02:26Z</time>
      </trkpt>
      <trkpt lat="48.40823" lon="6.8508">
        <ele>284</ele>
        <time>2016-07-04T14:04:26Z</time>
      </trkpt>
      <trkpt lat="48.40826" lon="6.85089">
        <ele>284</ele>
        <time>2016-07-04T14:06:26Z</time>
      </trkpt>
      <trkpt lat="48.40831" lon="6.85096">
        <ele>284</ele>
        <time>2016-07-04T14:08:26Z</time>
      </trkpt>
      <trkpt lat="48.40836" lon="6.85103">
        <ele>284</ele>
        <time>2016-07-04T14:10:26Z</time>
      </trkpt>
      <trkpt lat="48.4084" lon="6.8511">
        <ele>284</ele>
        <time>2016-07-04T14:12:26Z</time>
      </trkpt>
      <trkpt lat="48.40843" lon="6.85118">
        <ele>284</ele>
        <time>2016-07-04T14:14:26Z</time>
      </trkpt>
      <trkpt lat="48.40845" lon="6.85127">
        <ele>284</ele>
        <time>2016-07-04T14:16:26Z</time>
      </trkpt>
      <trkpt lat="48.40846" lon="6.85137">
        <ele>284</ele>
        <time>2016-07-04T14:18:26Z</time>
      </trkpt>
      <trkpt lat="48.40845" lon="6.85147">
        <ele>283</ele>
        <time>2016-07-04T14:20:26Z</time>
      </trkpt>
      <trkpt lat="48.40843" lon="6.85157">
        <ele>283</ele>
        <time>2016-07-04T14:22:26Z</time>
      </trkpt>
      <trkpt lat="48.40841" lon="6.85168">
        <ele>283</ele>
        <time>2016-07-04T14:24:26Z</time>
      </trkpt>
      <trkpt lat="48.40839" lon="6.85178">
        <ele>283</ele>
        <time>2016-07-04T14:26:26Z</time>
      </trkpt>
      <trkpt lat="48.40837" lon="6.8519">
        <ele>283</ele>
        <time>2016-07-04T14:28:26Z</time>
      </trkpt>
      <trkpt lat="48.40835" lon="6.85201">
        <ele>283</ele>
        <time>2016-07-04T14:30:26Z</time>
      </trkpt>
      <trkpt lat="48.40833" lon="6.85212">
        <ele>284</ele>
        <time>2016-07-04T14:32:26Z</time>
      </trkpt>
      <trkpt lat="48.4083" lon="6.85222">
        <ele>284</ele>
        <time>2016-07-04T14:34:26Z</time>
      </trkpt>
      <trkpt lat="48.40828" lon="6.85232">
        <ele>284</ele>
        <time>2016-07-04T14:36:26Z</time>
      </trkpt>
      <trkpt lat="48.40825" lon="6.85242">
        <ele>284</ele>
        <time>2016-07-04T14:38:26Z</time>
      </trkpt>
      <trkpt lat="48.40822" lon="6.85251">
        <ele>284</ele>
        <time>2016-07-04T14:40:26Z</time>
      </trkpt>
      <trkpt lat="48.40822" lon="6.85261">
        <ele>284</ele>
        <time>2016-07-04T14:42:26Z</time>
      </trkpt>
      <trkpt lat="48.40823" lon="6.85271">
        <ele>285</ele>
        <time>2016-07-04T14:44:26Z</time>
      </trkpt>
      <trkpt lat="48.40824" lon="6.8528">
        <ele>285</ele>
        <time>2016-07-04T14:46:26Z</time>
      </trkpt>
      <trkpt lat="48.40824" lon="6.85296">
        <ele>286</ele>
        <time>2016-07-04T14:48:26Z</time>
      </trkpt>
      <trkpt lat="48.40821" lon="6.85303">
        <ele>286</ele>
        <time>2016-07-04T14:50:26Z</time>
      </trkpt>
      <trkpt lat="48.40816" lon="6.85308">
        <ele>286</ele>
        <time>2016-07-04T14:52:26Z</time>
      </trkpt>
      <trkpt lat="48.4081" lon="6.85312">
        <ele>286</ele>
        <time>2016-07-04T14:54:26Z</time>
      </trkpt>
      <trkpt lat="48.40804" lon="6.85317">
        <ele>287</ele>
        <time>2016-07-04T14:56:26Z</time>
      </trkpt>
      <trkpt lat="48.40799" lon="6.85325">
        <ele>287</ele>
        <time>2016-07-04T14:58:26Z</time>
      </trkpt>
      <trkpt lat="48.40796" lon="6.85334">
        <ele>287</ele>
        <time>2016-07-04T15:00:26Z</time>
      </trkpt>
      <trkpt lat="48.40792" lon="6.85343">
        <ele>287</ele>
        <time>2016-07-04T15:02:26Z</time>
      </trkpt>
      <trkpt lat="48.4079" lon="6.85354">
        <ele>288</ele>
        <time>2016-07-04T15:04:26Z</time>
      </trkpt>
      <trkpt lat="48.40789" lon="6.85365">
        <ele>288</ele>
        <time>2016-07-04T15:06:26Z</time>
      </trkpt>
      <trkpt lat="48.4079" lon="6.85376">
        <ele>287</ele>
        <time>2016-07-04T15:08:26Z</time>
      </trkpt>
      <trkpt lat="48.4079" lon="6.85388">
        <ele>287</ele>
        <time>2016-07-04T15:10:26Z</time>
      </trkpt>
      <trkpt lat="48.4079" lon="6.85399">
        <ele>287</ele>
        <time>2016-07-04T15:12:26Z</time>
      </trkpt>
      <trkpt lat="48.40791" lon="6.85411">
        <ele>287</ele>
        <time>2016-07-04T15:14:26Z</time>
      </trkpt>
      <trkpt lat="48.40791" lon="6.85423">
        <ele>288</ele>
        <time>2016-07-04T15:16:26Z</time>
      </trkpt>
      <trkpt lat="48.40791" lon="6.85434">
        <ele>288</ele>
        <time>2016-07-04T15:18:26Z</time>
      </trkpt>
      <trkpt lat="48.40793" lon="6.85446">
        <ele>288</ele>
        <time>2016-07-04T15:20:26Z</time>
      </trkpt>
      <trkpt lat="48.40793" lon="6.85457">
        <ele>288</ele>
        <time>2016-07-04T15:22:26Z</time>
      </trkpt>
      <trkpt lat="48.40794" lon="6.85468">
        <ele>288</ele>
        <time>2016-07-04T15:24:26Z</time>
      </trkpt>
      <trkpt lat="48.40796" lon="6.85478">
        <ele>288</ele>
        <time>2016-07-04T15:26:26Z</time>
      </trkpt>
      <trkpt lat="48.40798" lon="6.85488">
        <ele>288</ele>
        <time>2016-07-04T15:28:26Z</time>
      </trkpt>
      <trkpt lat="48.408" lon="6.85497">
        <ele>289</ele>
        <time>2016-07-04T15:30:26Z</time>
      </trkpt>
      <trkpt lat="48.40803" lon="6.85505">
        <ele>289</ele>
        <time>2016-07-04T15:32:26Z</time>
      </trkpt>
      <trkpt lat="48.40807" lon="6.8551">
        <ele>289</ele>
        <time>2016-07-04T15:34:26Z</time>
      </trkpt>
      <trkpt lat="48.40812" lon="6.85513">
        <ele>289</ele>
        <time>2016-07-04T15:36:26Z</time>
      </trkpt>
      <trkpt lat="48.40818" lon="6.85515">
        <ele>289</ele>
        <time>2016-07-04T15:38:26Z</time>
      </trkpt>
      <trkpt lat="48.40824" lon="6.85514">
        <ele>289</ele>
        <time>2016-07-04T15:40:26Z</time>
      </trkpt>
      <trkpt lat="48.4083" lon="6.85511">
        <ele>289</ele>
        <time>2016-07-04T15:42:26Z</time>
      </trkpt>
      <trkpt lat="48.40837" lon="6.85507">
        <ele>289</ele>
        <time>2016-07-04T15:44:26Z</time>
      </trkpt>
      <trkpt lat="48.40851" lon="6.85497">
        <ele>288</ele>
        <time>2016-07-04T15:46:26Z</time>
      </trkpt>
      <trkpt lat="48.40855" lon="6.85492">
        <ele>288</ele>
        <time>2016-07-04T15:48:26Z</time>
      </trkpt>
      <trkpt lat="48.40861" lon="6.85488">
        <ele>288</ele>
        <time>2016-07-04T15:50:26Z</time>
      </trkpt>
      <trkpt lat="48.40866" lon="6.85487">
        <ele>288</ele>
        <time>2016-07-04T15:52:26Z</time>
      </trkpt>
      <trkpt lat="48.40873" lon="6.85492">
        <ele>288</ele>
        <time>2016-07-04T15:54:26Z</time>
      </trkpt>
      <trkpt lat="48.40877" lon="6.85503">
        <ele>287</ele>
        <time>2016-07-04T15:56:26Z</time>
      </trkpt>
      <trkpt lat="48.40878" lon="6.85516">
        <ele>287</ele>
        <time>2016-07-04T15:58:26Z</time>
      </trkpt>
      <trkpt lat="48.4088" lon="6.85528">
        <ele>288</ele>
        <time>2016-07-04T16:00:26Z</time>
      </trkpt>
      <trkpt lat="48.40881" lon="6.85535">
        <ele>288</ele>
        <time>2016-07-04T16:02:26Z</time>
      </trkpt>
      <trkpt lat="48.40882" lon="6.85542">
        <ele>288</ele>
        <time>2016-07-04T16:04:26Z</time>
      </trkpt>
      <trkpt lat="48.40883" lon="6.85549">
        <ele>288</ele>
        <time>2016-07-04T16:06:26Z</time>
      </trkpt>
      <trkpt lat="48.40884" lon="6.85557">
        <ele>288</ele>
        <time>2016-07-04T16:08:26Z</time>
      </trkpt>
      <trkpt lat="48.40885" lon="6.85565">
        <ele>288</ele>
        <time>2016-07-04T16:10:26Z</time>
      </trkpt>
      <trkpt lat="48.40886" lon="6.85573">
        <ele>288</ele>
        <time>2016-07-04T16:12:26Z</time>
      </trkpt>
      <trkpt lat="48.40886" lon="6.85582">
        <ele>288</ele>
        <time>2016-07-04T16:14:26Z</time>
      </trkpt>
      <trkpt lat="48.40887" lon="6.8559">
        <ele>288</ele>
        <time>2016-07-04T16:16:26Z</time>
      </trkpt>
      <trkpt lat="48.40887" lon="6.85599">
        <ele>288</ele>
        <time>2016-07-04T16:18:26Z</time>
      </trkpt>
      <trkpt lat="48.40889" lon="6.85607">
        <ele>288</ele>
        <time>2016-07-04T16:20:26Z</time>
      </trkpt>
      <trkpt lat="48.4089" lon="6.85616">
        <ele>288</ele>
        <time>2016-07-04T16:22:26Z</time>
      </trkpt>
      <trkpt lat="48.40891" lon="6.85625">
        <ele>289</ele>
        <time>2016-07-04T16:24:26Z</time>
      </trkpt>
      <trkpt lat="48.40893" lon="6.85634">
        <ele>289</ele>
        <time>2016-07-04T16:26:26Z</time>
      </trkpt>
      <trkpt lat="48.40894" lon="6.85644">
        <ele>289</ele>
        <time>2016-07-04T16:28:26Z</time>
      </trkpt>
      <trkpt lat="48.40895" lon="6.85654">
        <ele>289</ele>
        <time>2016-07-04T16:30:26Z</time>
      </trkpt>
      <trkpt lat="48.40894" lon="6.85664">
        <ele>289</ele>
        <time>2016-07-04T16:32:26Z</time>
      </trkpt>
      <trkpt lat="48.40892" lon="6.85674">
        <ele>290</ele>
        <time>2016-07-04T16:34:26Z</time>
      </trkpt>
      <trkpt lat="48.40889" lon="6.85683">
        <ele>290</ele>
        <time>2016-07-04T16:36:26Z</time>
      </trkpt>
      <trkpt lat="48.40885" lon="6.8569">
        <ele>290</ele>
        <time>2016-07-04T16:38:26Z</time>
      </trkpt>
      <trkpt lat="48.40881" lon="6.857">
        <ele>290</ele>
        <time>2016-07-04T16:40:26Z</time>
      </trkpt>
      <trkpt lat="48.40877" lon="6.85708">
        <ele>290</ele>
        <time>2016-07-04T16:42:26Z</time>
      </trkpt>
      <trkpt lat="48.40876" lon="6.85717">
        <ele>290</ele>
        <time>2016-07-04T16:44:26Z</time>
      </trkpt>
      <trkpt lat="48.40875" lon="6.85728">
        <ele>290</ele>
        <time>2016-07-04T16:46:26Z</time>
      </trkpt>
      <trkpt lat="48.40875" lon="6.85738">
        <ele>290</ele>
        <time>2016-07-04T16:48:26Z</time>
      </trkpt>
      <trkpt lat="48.40875" lon="6.85747">
        <ele>290</ele>
        <time>2016-07-04T16:50:26Z</time>
      </trkpt>
      <trkpt lat="48.40876" lon="6.85756">
        <ele>290</ele>
        <time>2016-07-04T16:52:26Z</time>
      </trkpt>
      <trkpt lat="48.40878" lon="6.85762">
        <ele>290</ele>
        <time>2016-07-04T16:54:26Z</time>
      </trkpt>
      <trkpt lat="48.40881" lon="6.85768">
        <ele>290</ele>
        <time>2016-07-04T16:56:26Z</time>
      </trkpt>
      <trkpt lat="48.40885" lon="6.85772">
        <ele>290</ele>
        <time>2016-07-04T16:58:26Z</time>
      </trkpt>
      <trkpt lat="48.4089" lon="6.85776">
        <ele>289</ele>
        <time>2016-07-04T17:00:26Z</time>
      </trkpt>
      <trkpt lat="48.40899" lon="6.85787">
        <ele>289</ele>
        <time>2016-07-04T17:02:26Z</time>
      </trkpt>
      <trkpt lat="48.40904" lon="6.85793">
        <ele>288</ele>
        <time>2016-07-04T17:04:26Z</time>
      </trkpt>
      <trkpt lat="48.40908" lon="6.85801">
        <ele>288</ele>
        <time>2016-07-04T17:06:26Z</time>
      </trkpt>
      <trkpt lat="48.40911" lon="6.85809">
        <ele>288</ele>
        <time>2016-07-04T17:08:26Z</time>
      </trkpt>
      <trkpt lat="48.40914" lon="6.85818">
        <ele>287</ele>
        <time>2016-07-04T17:10:26Z</time>
      </trkpt>
      <trkpt lat="48.40918" lon="6.85828">
        <ele>287</ele>
        <time>2016-07-04T17:12:26Z</time>
      </trkpt>
      <trkpt lat="48.40921" lon="6.85837">
        <ele>287</ele>
        <time>2016-07-04T17:14:26Z</time>
      </trkpt>
      <trkpt lat="48.40924" lon="6.85847">
        <ele>287</ele>
        <time>2016-07-04T17:16:26Z</time>
      </trkpt>
      <trkpt lat="48.40927" lon="6.85857">
        <ele>287</ele>
        <time>2016-07-04T17:18:26Z</time>
      </trkpt>
      <trkpt lat="48.40928" lon="6.85866">
        <ele>288</ele>
        <time>2016-07-04T17:20:26Z</time>
      </trkpt>
      <trkpt lat="48.40928" lon="6.85876">
        <ele>288</ele>
        <time>2016-07-04T17:22:26Z</time>
      </trkpt>
      <trkpt lat="48.40927" lon="6.85886">
        <ele>288</ele>
        <time>2016-07-04T17:24:26Z</time>
      </trkpt>
      <trkpt lat="48.40926" lon="6.85897">
        <ele>288</ele>
        <time>2016-07-04T17:26:26Z</time>
      </trkpt>
      <trkpt lat="48.40926" lon="6.85908">
        <ele>289</ele>
        <time>2016-07-04T17:28:26Z</time>
      </trkpt>
      <trkpt lat="48.40926" lon="6.85919">
        <ele>289</ele>
        <time>2016-07-04T17:30:26Z</time>
      </trkpt>
      <trkpt lat="48.40927" lon="6.8593">
        <ele>289</ele>
        <time>2016-07-04T17:32:26Z</time>
      </trkpt>
      <trkpt lat="48.40927" lon="6.85941">
        <ele>289</ele>
        <time>2016-07-04T17:34:26Z</time>
      </trkpt>
      <trkpt lat="48.40927" lon="6.85952">
        <ele>289</ele>
        <time>2016-07-04T17:36:26Z</time>
      </trkpt>
      <trkpt lat="48.40926" lon="6.85963">
        <ele>289</ele>
        <time>2016-07-04T17:38:26Z</time>
      </trkpt>
      <trkpt lat="48.40925" lon="6.85974">
        <ele>290</ele>
        <time>2016-07-04T17:40:26Z</time>
      </trkpt>
      <trkpt lat="48.40923" lon="6.85984">
        <ele>290</ele>
        <time>2016-07-04T17:42:26Z</time>
      </trkpt>
      <trkpt lat="48.40922" lon="6.85995">
        <ele>290</ele>
        <time>2016-07-04T17:44:26Z</time>
      </trkpt>
      <trkpt lat="48.4092" lon="6.86006">
        <ele>290</ele>
        <time>2016-07-04T17:46:26Z</time>
      </trkpt>
      <trkpt lat="48.40918" lon="6.86017">
        <ele>290</ele>
        <time>2016-07-04T17:48:26Z</time>
      </trkpt>
      <trkpt lat="48.40917" lon="6.86028">
        <ele>290</ele>
        <time>2016-07-04T17:50:26Z</time>
      </trkpt>
      <trkpt lat="48.40917" lon="6.8604">
        <ele>290</ele>
        <time>2016-07-04T17:52:26Z</time>
      </trkpt>
      <trkpt lat="48.40917" lon="6.86051">
        <ele>290</ele>
        <time>2016-07-04T17:54:26Z</time>
      </trkpt>
      <trkpt lat="48.40919" lon="6.86063">
        <ele>290</ele>
        <time>2016-07-04T17:56:26Z</time>
      </trkpt>
      <trkpt lat="48.4092" lon="6.86075">
        <ele>290</ele>
        <time>2016-07-04T17:58:26Z</time>
      </trkpt>
      <trkpt lat="48.40922" lon="6.86086">
        <ele>290</ele>
        <time>2016-07-04T18:00:26Z</time>
      </trkpt>
      <trkpt lat="48.40924" lon="6.86097">
        <ele>290</ele>
        <time>2016-07-04T18:02:26Z</time>
      </trkpt>
      <trkpt lat="48.40925" lon="6.86107">
        <ele>290</ele>
        <time>2016-07-04T18:04:26Z</time>
      </trkpt>
      <trkpt lat="48.40927" lon="6.86117">
        <ele>291</ele>
        <time>2016-07-04T18:06:26Z</time>
      </trkpt>
      <trkpt lat="48.4093" lon="6.86127">
        <ele>291</ele>
        <time>2016-07-04T18:08:26Z</time>
      </trkpt>
      <trkpt lat="48.40933" lon="6.86135">
        <ele>291</ele>
        <time>2016-07-04T18:10:26Z</time>
      </trkpt>
      <trkpt lat="48.40938" lon="6.86141">
        <ele>291</ele>
        <time>2016-07-04T18:12:26Z</time>
      </trkpt>
      <trkpt lat="48.40945" lon="6.86145">
        <ele>290</ele>
        <time>2016-07-04T18:14:26Z</time>
      </trkpt>
      <trkpt lat="48.40952" lon="6.86146">
        <ele>290</ele>
        <time>2016-07-04T18:16:26Z</time>
      </trkpt>
      <trkpt lat="48.40959" lon="6.86147">
        <ele>289</ele>
        <time>2016-07-04T18:18:26Z</time>
      </trkpt>
      <trkpt lat="48.40965" lon="6.86149">
        <ele>289</ele>
        <time>2016-07-04T18:20:26Z</time>
      </trkpt>
      <trkpt lat="48.40971" lon="6.86152">
        <ele>288</ele>
        <time>2016-07-04T18:22:26Z</time>
      </trkpt>
      <trkpt lat="48.40975" lon="6.86156">
        <ele>288</ele>
        <time>2016-07-04T18:24:26Z</time>
      </trkpt>
      <trkpt lat="48.40977" lon="6.86163">
        <ele>288</ele>
        <time>2016-07-04T18:26:26Z</time>
      </trkpt>
      <trkpt lat="48.40978" lon="6.86171">
        <ele>288</ele>
        <time>2016-07-04T18:28:26Z</time>
      </trkpt>
      <trkpt lat="48.40977" lon="6.8618">
        <ele>288</ele>
        <time>2016-07-04T18:30:26Z</time>
      </trkpt>
      <trkpt lat="48.40974" lon="6.86188">
        <ele>288</ele>
        <time>2016-07-04T18:32:26Z</time>
      </trkpt>
      <trkpt lat="48.40972" lon="6.86197">
        <ele>288</ele>
        <time>2016-07-04T18:34:26Z</time>
      </trkpt>
      <trkpt lat="48.40968" lon="6.86206">
        <ele>289</ele>
        <time>2016-07-04T18:36:26Z</time>
      </trkpt>
      <trkpt lat="48.40966" lon="6.86216">
        <ele>289</ele>
        <time>2016-07-04T18:38:26Z</time>
      </trkpt>
      <trkpt lat="48.40964" lon="6.86226">
        <ele>289</ele>
        <time>2016-07-04T18:40:26Z</time>
      </trkpt>
      <trkpt lat="48.40963" lon="6.86237">
        <ele>289</ele>
        <time>2016-07-04T18:42:26Z</time>
      </trkpt>
      <trkpt lat="48.40964" lon="6.86247">
        <ele>289</ele>
        <time>2016-07-04T18:44:26Z</time>
      </trkpt>
      <trkpt lat="48.40965" lon="6.86257">
        <ele>289</ele>
        <time>2016-07-04T18:46:26Z</time>
      </trkpt>
      <trkpt lat="48.40966" lon="6.86266">
        <ele>289</ele>
        <time>2016-07-04T18:48:26Z</time>
      </trkpt>
      <trkpt lat="48.4097" lon="6.86273">
        <ele>289</ele>
        <time>2016-07-04T18:50:26Z</time>
      </trkpt>
      <trkpt lat="48.40974" lon="6.8628">
        <ele>289</ele>
        <time>2016-07-04T18:52:26Z</time>
      </trkpt>
      <trkpt lat="48.4098" lon="6.86285">
        <ele>288</ele>
        <time>2016-07-04T18:54:26Z</time>
      </trkpt>
      <trkpt lat="48.40986" lon="6.86287">
        <ele>288</ele>
        <time>2016-07-04T18:56:26Z</time>
      </trkpt>
      <trkpt lat="48.40992" lon="6.86287">
        <ele>287</ele>
        <time>2016-07-04T18:58:26Z</time>
      </trkpt>
      <trkpt lat="48.40999" lon="6.86286">
        <ele>287</ele>
        <time>2016-07-04T19:00:26Z</time>
      </trkpt>
      <trkpt lat="48.41004" lon="6.86283">
        <ele>286</ele>
        <time>2016-07-04T19:02:26Z</time>
      </trkpt>
      <trkpt lat="48.4101" lon="6.86278">
        <ele>286</ele>
        <time>2016-07-04T19:04:26Z</time>
      </trkpt>
      <trkpt lat="48.41014" lon="6.86273">
        <ele>287</ele>
        <time>2016-07-04T19:06:26Z</time>
      </trkpt>
      <trkpt lat="48.41018" lon="6.86266">
        <ele>287</ele>
        <time>2016-07-04T19:08:26Z</time>
      </trkpt>
      <trkpt lat="48.41023" lon="6.86259">
        <ele>287</ele>
        <time>2016-07-04T19:10:26Z</time>
      </trkpt>
      <trkpt lat="48.41027" lon="6.86252">
        <ele>287</ele>
        <time>2016-07-04T19:12:26Z</time>
      </trkpt>
      <trkpt lat="48.41031" lon="6.86246">
        <ele>287</ele>
        <time>2016-07-04T19:14:26Z</time>
      </trkpt>
      <trkpt lat="48.4104" lon="6.8623">
        <ele>287</ele>
        <time>2016-07-04T19:16:26Z</time>
      </trkpt>
      <trkpt lat="48.41044" lon="6.86223">
        <ele>287</ele>
        <time>2016-07-04T19:18:26Z</time>
      </trkpt>
      <trkpt lat="48.41049" lon="6.86216">
        <ele>287</ele>
        <time>2016-07-04T19:20:26Z</time>
      </trkpt>
      <trkpt lat="48.41053" lon="6.86209">
        <ele>287</ele>
        <time>2016-07-04T19:22:26Z</time>
      </trkpt>
      <trkpt lat="48.41058" lon="6.86203">
        <ele>287</ele>
        <time>2016-07-04T19:24:26Z</time>
      </trkpt>
      <trkpt lat="48.41063" lon="6.86198">
        <ele>288</ele>
        <time>2016-07-04T19:26:26Z</time>
      </trkpt>
      <trkpt lat="48.41068" lon="6.86195">
        <ele>288</ele>
        <time>2016-07-04T19:28:26Z</time>
      </trkpt>
      <trkpt lat="48.41073" lon="6.86195">
        <ele>288</ele>
        <time>2016-07-04T19:30:26Z</time>
      </trkpt>
      <trkpt lat="48.41078" lon="6.86197">
        <ele>288</ele>
        <time>2016-07-04T19:32:26Z</time>
      </trkpt>
      <trkpt lat="48.41083" lon="6.862">
        <ele>288</ele>
        <time>2016-07-04T19:34:26Z</time>
      </trkpt>
      <trkpt lat="48.41087" lon="6.86204">
        <ele>288</ele>
        <time>2016-07-04T19:36:26Z</time>
      </trkpt>
      <trkpt lat="48.41091" lon="6.86209">
        <ele>288</ele>
        <time>2016-07-04T19:38:26Z</time>
      </trkpt>
      <trkpt lat="48.41095" lon="6.86215">
        <ele>288</ele>
        <time>2016-07-04T19:40:26Z</time>
      </trkpt>
      <trkpt lat="48.41096" lon="6.86222">
        <ele>288</ele>
        <time>2016-07-04T19:42:26Z</time>
      </trkpt>
      <trkpt lat="48.41097" lon="6.8623">
        <ele>288</ele>
        <time>2016-07-04T19:44:26Z</time>
      </trkpt>
      <trkpt lat="48.41096" lon="6.86239">
        <ele>288</ele>
        <time>2016-07-04T19:46:26Z</time>
      </trkpt>
      <trkpt lat="48.41095" lon="6.86247">
        <ele>288</ele>
        <time>2016-07-04T19:48:26Z</time>
      </trkpt>
      <trkpt lat="48.41092" lon="6.86255">
        <ele>288</ele>
        <time>2016-07-04T19:50:26Z</time>
      </trkpt>
      <trkpt lat="48.41089" lon="6.86263">
        <ele>288</ele>
        <time>2016-07-04T19:52:26Z</time>
      </trkpt>
      <trkpt lat="48.41086" lon="6.86271">
        <ele>288</ele>
        <time>2016-07-04T19:54:26Z</time>
      </trkpt>
      <trkpt lat="48.41078" lon="6.86281">
        <ele>288</ele>
        <time>2016-07-04T19:56:26Z</time>
      </trkpt>
      <trkpt lat="48.41072" lon="6.86282">
        <ele>287</ele>
        <time>2016-07-04T19:58:26Z</time>
      </trkpt>
      <trkpt lat="48.41067" lon="6.86286">
        <ele>287</ele>
        <time>2016-07-04T20:00:26Z</time>
      </trkpt>
      <trkpt lat="48.41061" lon="6.86289">
        <ele>287</ele>
        <time>2016-07-04T20:02:26Z</time>
      </trkpt>
      <trkpt lat="48.41057" lon="6.86294">
        <ele>287</ele>
        <time>2016-07-04T20:04:26Z</time>
      </trkpt>
      <trkpt lat="48.41055" lon="6.86301">
        <ele>287</ele>
        <time>2016-07-04T20:06:26Z</time>
      </trkpt>
      <trkpt lat="48.41054" lon="6.86309">
        <ele>287</ele>
        <time>2016-07-04T20:08:26Z</time>
      </trkpt>
      <trkpt lat="48.41054" lon="6.86318">
        <ele>287</ele>
        <time>2016-07-04T20:10:26Z</time>
      </trkpt>
      <trkpt lat="48.41055" lon="6.86327">
        <ele>287</ele>
        <time>2016-07-04T20:12:26Z</time>
      </trkpt>
      <trkpt lat="48.41056" lon="6.86336">
        <ele>287</ele>
        <time>2016-07-04T20:14:26Z</time>
      </trkpt>
      <trkpt lat="48.41057" lon="6.86345">
        <ele>287</ele>
        <time>2016-07-04T20:16:26Z</time>
      </trkpt>
      <trkpt lat="48.41057" lon="6.86354">
        <ele>287</ele>
        <time>2016-07-04T20:18:26Z</time>
      </trkpt>
      <trkpt lat="48.41056" lon="6.86362">
        <ele>287</ele>
        <time>2016-07-04T20:20:26Z</time>
      </trkpt>
      <trkpt lat="48.41054" lon="6.8637">
        <ele>287</ele>
        <time>2016-07-04T20:22:26Z</time>
      </trkpt>
      <trkpt lat="48.41051" lon="6.86379">
        <ele>287</ele>
        <time>2016-07-04T20:24:26Z</time>
      </trkpt>
      <trkpt lat="48.41048" lon="6.86387">
        <ele>287</ele>
        <time>2016-07-04T20:26:26Z</time>
      </trkpt>
      <trkpt lat="48.41047" lon="6.86396">
        <ele>287</ele>
        <time>2016-07-04T20:28:26Z</time>
      </trkpt>
      <trkpt lat="48.41047" lon="6.86405">
        <ele>287</ele>
        <time>2016-07-04T20:30:26Z</time>
      </trkpt>
      <trkpt lat="48.41047" lon="6.86414">
        <ele>287</ele>
        <time>2016-07-04T20:32:26Z</time>
      </trkpt>
      <trkpt lat="48.41048" lon="6.86422">
        <ele>287</ele>
        <time>2016-07-04T20:34:26Z</time>
      </trkpt>
      <trkpt lat="48.4105" lon="6.86436">
        <ele>288</ele>
        <time>2016-07-04T20:36:26Z</time>
      </trkpt>
      <trkpt lat="48.41054" lon="6.86447">
        <ele>288</ele>
        <time>2016-07-04T20:38:26Z</time>
      </trkpt>
      <trkpt lat="48.41056" lon="6.86453">
        <ele>288</ele>
        <time>2016-07-04T20:40:26Z</time>
      </trkpt>
      <trkpt lat="48.41058" lon="6.86461">
        <ele>288</ele>
        <time>2016-07-04T20:42:26Z</time>
      </trkpt>
      <trkpt lat="48.4106" lon="6.8647">
        <ele>288</ele>
        <time>2016-07-04T20:44:26Z</time>
      </trkpt>
      <trkpt lat="48.41063" lon="6.86479">
        <ele>288</ele>
        <time>2016-07-04T20:46:26Z</time>
      </trkpt>
      <trkpt lat="48.41065" lon="6.86489">
        <ele>288</ele>
        <time>2016-07-04T20:48:26Z</time>
      </trkpt>
      <trkpt lat="48.41067" lon="6.86498">
        <ele>288</ele>
        <time>2016-07-04T20:50:26Z</time>
      </trkpt>
      <trkpt lat="48.4107" lon="6.86507">
        <ele>288</ele>
        <time>2016-07-04T20:52:26Z</time>
      </trkpt>
      <trkpt lat="48.41073" lon="6.86515">
        <ele>287</ele>
        <time>2016-07-04T20:54:26Z</time>
      </trkpt>
      <trkpt lat="48.41078" lon="6.8652">
        <ele>287</ele>
        <time>2016-07-04T20:56:26Z</time>
      </trkpt>
      <trkpt lat="48.41083" lon="6.86524">
        <ele>287</ele>
        <time>2016-07-04T20:58:26Z</time>
      </trkpt>
      <trkpt lat="48.41089" lon="6.86525">
        <ele>287</ele>
        <time>2016-07-04T21:00:26Z</time>
      </trkpt>
      <trkpt lat="48.41096" lon="6.86525">
        <ele>287</ele>
        <time>2016-07-04T21:02:26Z</time>
      </trkpt>
      <trkpt lat="48.41108" lon="6.86524">
        <ele>288</ele>
        <time>2016-07-04T21:04:26Z</time>
      </trkpt>
      <trkpt lat="48.41113" lon="6.86521">
        <ele>288</ele>
        <time>2016-07-04T21:06:26Z</time>
      </trkpt>
      <trkpt lat="48.41117" lon="6.86516">
        <ele>288</ele>
        <time>2016-07-04T21:08:26Z</time>
      </trkpt>
      <trkpt lat="48.41122" lon="6.86502">
        <ele>288</ele>
        <time>2016-07-04T21:10:26Z</time>
      </trkpt>
      <trkpt lat="48.41124" lon="6.86495">
        <ele>288</ele>
        <time>2016-07-04T21:12:26Z</time>
      </trkpt>
      <trkpt lat="48.41126" lon="6.86487">
        <ele>288</ele>
        <time>2016-07-04T21:14:26Z</time>
      </trkpt>
      <trkpt lat="48.41128" lon="6.86479">
        <ele>288</ele>
        <time>2016-07-04T21:16:26Z</time>
      </trkpt>
      <trkpt lat="48.41129" lon="6.86471">
        <ele>288</ele>
        <time>2016-07-04T21:18:26Z</time>
      </trkpt>
      <trkpt lat="48.41132" lon="6.86463">
        <ele>288</ele>
        <time>2016-07-04T21:20:26Z</time>
      </trkpt>
      <trkpt lat="48.41136" lon="6.86457">
        <ele>288</ele>
        <time>2016-07-04T21:22:26Z</time>
      </trkpt>
      <trkpt lat="48.4114" lon="6.86453">
        <ele>288</ele>
        <time>2016-07-04T21:24:26Z</time>
      </trkpt>
      <trkpt lat="48.41144" lon="6.86451">
        <ele>289</ele>
        <time>2016-07-04T21:26:26Z</time>
      </trkpt>
      <trkpt lat="48.41151" lon="6.86454">
        <ele>289</ele>
        <time>2016-07-04T21:28:26Z</time>
      </trkpt>
      <trkpt lat="48.41155" lon="6.86466">
        <ele>289</ele>
        <time>2016-07-04T21:30:26Z</time>
      </trkpt>
      <trkpt lat="48.41155" lon="6.86474">
        <ele>289</ele>
        <time>2016-07-04T21:32:26Z</time>
      </trkpt>
      <trkpt lat="48.41155" lon="6.86482">
        <ele>289</ele>
        <time>2016-07-04T21:34:26Z</time>
      </trkpt>
      <trkpt lat="48.41155" lon="6.86491">
        <ele>289</ele>
        <time>2016-07-04T21:36:26Z</time>
      </trkpt>
      <trkpt lat="48.41155" lon="6.865">
        <ele>290</ele>
        <time>2016-07-04T21:38:26Z</time>
      </trkpt>
      <trkpt lat="48.41154" lon="6.86509">
        <ele>289</ele>
        <time>2016-07-04T21:40:26Z</time>
      </trkpt>
      <trkpt lat="48.41152" lon="6.86518">
        <ele>289</ele>
        <time>2016-07-04T21:42:26Z</time>
      </trkpt>
      <trkpt lat="48.41152" lon="6.86528">
        <ele>289</ele>
        <time>2016-07-04T21:44:26Z</time>
      </trkpt>
      <trkpt lat="48.41151" lon="6.86537">
        <ele>289</ele>
        <time>2016-07-04T21:46:26Z</time>
      </trkpt>
      <trkpt lat="48.4115" lon="6.86547">
        <ele>289</ele>
        <time>2016-07-04T21:48:26Z</time>
      </trkpt>
      <trkpt lat="48.4115" lon="6.86557">
        <ele>289</ele>
        <time>2016-07-04T21:50:26Z</time>
      </trkpt>
      <trkpt lat="48.4115" lon="6.86566">
        <ele>289</ele>
        <time>2016-07-04T21:52:26Z</time>
      </trkpt>
      <trkpt lat="48.4115" lon="6.86574">
        <ele>289</ele>
        <time>2016-07-04T21:54:26Z</time>
      </trkpt>
      <trkpt lat="48.4115" lon="6.86582">
        <ele>289</ele>
        <time>2016-07-04T21:56:26Z</time>
      </trkpt>
      <trkpt lat="48.41151" lon="6.86596">
        <ele>289</ele>
        <time>2016-07-04T21:58:26Z</time>
      </trkpt>
      <trkpt lat="48.41154" lon="6.86608">
        <ele>289</ele>
        <time>2016-07-04T22:00:26Z</time>
      </trkpt>
      <trkpt lat="48.41175" lon="6.86618">
        <ele>289</ele>
        <time>2016-07-04T22:02:26Z</time>
      </trkpt>
      <trkpt lat="48.41179" lon="6.8662">
        <ele>289</ele>
        <time>2016-07-04T22:04:26Z</time>
      </trkpt>
      <trkpt lat="48.41183" lon="6.86623">
        <ele>289</ele>
        <time>2016-07-04T22:06:26Z</time>
      </trkpt>
      <trkpt lat="48.4119" lon="6.86634">
        <ele>290</ele>
        <time>2016-07-04T22:08:26Z</time>
      </trkpt>
      <trkpt lat="48.41192" lon="6.86641">
        <ele>290</ele>
        <time>2016-07-04T22:10:26Z</time>
      </trkpt>
      <trkpt lat="48.41192" lon="6.86648">
        <ele>290</ele>
        <time>2016-07-04T22:12:26Z</time>
      </trkpt>
      <trkpt lat="48.41191" lon="6.86656">
        <ele>290</ele>
        <time>2016-07-04T22:14:26Z</time>
      </trkpt>
      <trkpt lat="48.41191" lon="6.86664">
        <ele>290</ele>
        <time>2016-07-04T22:16:26Z</time>
      </trkpt>
      <trkpt lat="48.4119" lon="6.86672">
        <ele>290</ele>
        <time>2016-07-04T22:18:26Z</time>
      </trkpt>
      <trkpt lat="48.4119" lon="6.8668">
        <ele>290</ele>
        <time>2016-07-04T22:20:26Z</time>
      </trkpt>
      <trkpt lat="48.4119" lon="6.86695">
        <ele>290</ele>
        <time>2016-07-04T22:22:26Z</time>
      </trkpt>
      <trkpt lat="48.41188" lon="6.86701">
        <ele>290</ele>
        <time>2016-07-04T22:24:26Z</time>
      </trkpt>
      <trkpt lat="48.41182" lon="6.86719">
        <ele>291</ele>
        <time>2016-07-04T22:26:26Z</time>
      </trkpt>
      <trkpt lat="48.4118" lon="6.86728">
        <ele>291</ele>
        <time>2016-07-04T22:28:26Z</time>
      </trkpt>
      <trkpt lat="48.41181" lon="6.86751">
        <ele>292</ele>
        <time>2016-07-04T22:30:26Z</time>
      </trkpt>
      <trkpt lat="48.41183" lon="6.86757">
        <ele>292</ele>
        <time>2016-07-04T22:32:26Z</time>
      </trkpt>
      <trkpt lat="48.41188" lon="6.86769">
        <ele>291</ele>
        <time>2016-07-04T22:34:26Z</time>
      </trkpt>
      <trkpt lat="48.41206" lon="6.8678">
        <ele>291</ele>
        <time>2016-07-04T22:36:26Z</time>
      </trkpt>
      <trkpt lat="48.41211" lon="6.86782">
        <ele>291</ele>
        <time>2016-07-04T22:38:26Z</time>
      </trkpt>
      <trkpt lat="48.41215" lon="6.86785">
        <ele>291</ele>
        <time>2016-07-04T22:40:26Z</time>
      </trkpt>
      <trkpt lat="48.41223" lon="6.86787">
        <ele>291</ele>
        <time>2016-07-04T22:42:26Z</time>
      </trkpt>
      <trkpt lat="48.41229" lon="6.86789">
        <ele>291</ele>
        <time>2016-07-04T22:44:26Z</time>
      </trkpt>
      <trkpt lat="48.41235" lon="6.86792">
        <ele>290</ele>
        <time>2016-07-04T22:46:26Z</time>
      </trkpt>
      <trkpt lat="48.4124" lon="6.86795">
        <ele>290</ele>
        <time>2016-07-04T22:48:26Z</time>
      </trkpt>
      <trkpt lat="48.41246" lon="6.86798">
        <ele>290</ele>
        <time>2016-07-04T22:50:26Z</time>
      </trkpt>
      <trkpt lat="48.41251" lon="6.86802">
        <ele>290</ele>
        <time>2016-07-04T22:52:26Z</time>
      </trkpt>
      <trkpt lat="48.41256" lon="6.86806">
        <ele>290</ele>
        <time>2016-07-04T22:54:26Z</time>
      </trkpt>
      <trkpt lat="48.41272" lon="6.86808">
        <ele>291</ele>
        <time>2016-07-04T22:56:26Z</time>
      </trkpt>
      <trkpt lat="48.41278" lon="6.86809">
        <ele>291</ele>
        <time>2016-07-04T22:58:26Z</time>
      </trkpt>
      <trkpt lat="48.41295" lon="6.86821">
        <ele>292</ele>
        <time>2016-07-04T23:00:26Z</time>
      </trkpt>
      <trkpt lat="48.413" lon="6.86826">
        <ele>292</ele>
        <time>2016-07-04T23:02:26Z</time>
      </trkpt>
      <trkpt lat="48.41304" lon="6.86833">
        <ele>292</ele>
        <time>2016-07-04T23:04:26Z</time>
      </trkpt>
      <trkpt lat="48.41307" lon="6.86841">
        <ele>292</ele>
        <time>2016-07-04T23:06:26Z</time>
      </trkpt>
      <trkpt lat="48.41311" lon="6.86849">
        <ele>292</ele>
        <time>2016-07-04T23:08:26Z</time>
      </trkpt>
      <trkpt lat="48.41316" lon="6.86856">
        <ele>292</ele>
        <time>2016-07-04T23:10:26Z</time>
      </trkpt>
      <trkpt lat="48.4132" lon="6.86863">
        <ele>292</ele>
        <time>2016-07-04T23:12:26Z</time>
      </trkpt>
      <trkpt lat="48.41324" lon="6.86871">
        <ele>292</ele>
        <time>2016-07-04T23:14:26Z</time>
      </trkpt>
      <trkpt lat="48.41329" lon="6.86878">
        <ele>292</ele>
        <time>2016-07-04T23:16:26Z</time>
      </trkpt>
      <trkpt lat="48.41332" lon="6.86886">
        <ele>292</ele>
        <time>2016-07-04T23:18:26Z</time>
      </trkpt>
      <trkpt lat="48.41335" lon="6.86895">
        <ele>292</ele>
        <time>2016-07-04T23:20:26Z</time>
      </trkpt>
      <trkpt lat="48.41336" lon="6.86904">
        <ele>291</ele>
        <time>2016-07-04T23:22:26Z</time>
      </trkpt>
      <trkpt lat="48.41337" lon="6.86914">
        <ele>291</ele>
        <time>2016-07-04T23:24:26Z</time>
      </trkpt>
      <trkpt lat="48.41338" lon="6.86923">
        <ele>291</ele>
        <time>2016-07-04T23:26:26Z</time>
      </trkpt>
      <trkpt lat="48.41339" lon="6.86932">
        <ele>291</ele>
        <time>2016-07-04T23:28:26Z</time>
      </trkpt>
      <trkpt lat="48.41341" lon="6.86941">
        <ele>290</ele>
        <time>2016-07-04T23:30:26Z</time>
      </trkpt>
      <trkpt lat="48.41343" lon="6.8695">
        <ele>290</ele>
        <time>2016-07-04T23:32:26Z</time>
      </trkpt>
      <trkpt lat="48.41345" lon="6.86958">
        <ele>290</ele>
        <time>2016-07-04T23:34:26Z</time>
      </trkpt>
      <trkpt lat="48.41348" lon="6.86966">
        <ele>290</ele>
        <time>2016-07-04T23:36:26Z</time>
      </trkpt>
      <trkpt lat="48.4135" lon="6.86975">
        <ele>289</ele>
        <time>2016-07-04T23:38:26Z</time>
      </trkpt>
      <trkpt lat="48.41353" lon="6.86983">
        <ele>289</ele>
        <time>2016-07-04T23:40:26Z</time>
      </trkpt>
      <trkpt lat="48.41355" lon="6.86991">
        <ele>289</ele>
        <time>2016-07-04T23:42:26Z</time>
      </trkpt>
      <trkpt lat="48.41356" lon="6.87">
        <ele>289</ele>
        <time>2016-07-04T23:44:26Z</time>
      </trkpt>
      <trkpt lat="48.41356" lon="6.87009">
        <ele>289</ele>
        <time>2016-07-04T23:46:26Z</time>
      </trkpt>
      <trkpt lat="48.41356" lon="6.87018">
        <ele>288</ele>
        <time>2016-07-04T23:48:26Z</time>
      </trkpt>
      <trkpt lat="48.41355" lon="6.87027">
        <ele>288</ele>
        <time>2016-07-04T23:50:26Z</time>
      </trkpt>
      <trkpt lat="48.41353" lon="6.87035">
        <ele>288</ele>
        <time>2016-07-04T23:52:26Z</time>
      </trkpt>
      <trkpt lat="48.4135" lon="6.87043">
        <ele>288</ele>
        <time>2016-07-04T23:54:26Z</time>
      </trkpt>
      <trkpt lat="48.41346" lon="6.87049">
        <ele>288</ele>
        <time>2016-07-04T23:56:26Z</time>
      </trkpt>
      <trkpt lat="48.41342" lon="6.87054">
        <ele>288</ele>
        <time>2016-07-04T23:58:26Z</time>
      </trkpt>
      <trkpt lat="48.41332" lon="6.87063">
        <ele>288</ele>
        <time>2016-07-05T00:00:26Z</time>
      </trkpt>
      <trkpt lat="48.41327" lon="6.87068">
        <ele>288</ele>
        <time>2016-07-05T00:02:26Z</time>
      </trkpt>
      <trkpt lat="48.41323" lon="6.87075">
        <ele>288</ele>
        <time>2016-07-05T00:04:26Z</time>
      </trkpt>
      <trkpt lat="48.41319" lon="6.87081">
        <ele>288</ele>
        <time>2016-07-05T00:06:26Z</time>
      </trkpt>
      <trkpt lat="48.41316" lon="6.87088">
        <ele>288</ele>
        <time>2016-07-05T00:08:26Z</time>
      </trkpt>
      <trkpt lat="48.41312" lon="6.87096">
        <ele>288</ele>
        <time>2016-07-05T00:10:26Z</time>
      </trkpt>
      <trkpt lat="48.4131" lon="6.87103">
        <ele>288</ele>
        <time>2016-07-05T00:12:26Z</time>
      </trkpt>
      <trkpt lat="48.4131" lon="6.8711">
        <ele>288</ele>
        <time>2016-07-05T00:14:26Z</time>
      </trkpt>
      <trkpt lat="48.41311" lon="6.87118">
        <ele>288</ele>
        <time>2016-07-05T00:16:26Z</time>
      </trkpt>
      <trkpt lat="48.41313" lon="6.87125">
        <ele>288</ele>
        <time>2016-07-05T00:18:26Z</time>
      </trkpt>
      <trkpt lat="48.41315" lon="6.87133">
        <ele>288</ele>
        <time>2016-07-05T00:20:26Z</time>
      </trkpt>
      <trkpt lat="48.41317" lon="6.87141">
        <ele>288</ele>
        <time>2016-07-05T00:22:26Z</time>
      </trkpt>
      <trkpt lat="48.4132" lon="6.87148">
        <ele>288</ele>
        <time>2016-07-05T00:24:26Z</time>
      </trkpt>
      <trkpt lat="48.41322" lon="6.87155">
        <ele>288</ele>
        <time>2016-07-05T00:26:26Z</time>
      </trkpt>
      <trkpt lat="48.41329" lon="6.87164">
        <ele>288</ele>
        <time>2016-07-05T00:28:26Z</time>
      </trkpt>
      <trkpt lat="48.41333" lon="6.87166">
        <ele>288</ele>
        <time>2016-07-05T00:30:26Z</time>
      </trkpt>
      <trkpt lat="48.41338" lon="6.87168">
        <ele>288</ele>
        <time>2016-07-05T00:32:26Z</time>
      </trkpt>
      <trkpt lat="48.41344" lon="6.87169">
        <ele>288</ele>
        <time>2016-07-05T00:34:26Z</time>
      </trkpt>
      <trkpt lat="48.4135" lon="6.87169">
        <ele>288</ele>
        <time>2016-07-05T00:36:26Z</time>
      </trkpt>
      <trkpt lat="48.41355" lon="6.87166">
        <ele>288</ele>
        <time>2016-07-05T00:38:26Z</time>
      </trkpt>
      <trkpt lat="48.41359" lon="6.87162">
        <ele>288</ele>
        <time>2016-07-05T00:40:26Z</time>
      </trkpt>
      <trkpt lat="48.41367" lon="6.87151">
        <ele>288</ele>
        <time>2016-07-05T00:42:26Z</time>
      </trkpt>
      <trkpt lat="48.4137" lon="6.87147">
        <ele>288</ele>
        <time>2016-07-05T00:44:26Z</time>
      </trkpt>
      <trkpt lat="48.41375" lon="6.87146">
        <ele>289</ele>
        <time>2016-07-05T00:46:26Z</time>
      </trkpt>
      <trkpt lat="48.4138" lon="6.87147">
        <ele>289</ele>
        <time>2016-07-05T00:48:26Z</time>
      </trkpt>
      <trkpt lat="48.41385" lon="6.87149">
        <ele>289</ele>
        <time>2016-07-05T00:50:26Z</time>
      </trkpt>
      <trkpt lat="48.41388" lon="6.87153">
        <ele>289</ele>
        <time>2016-07-05T00:52:26Z</time>
      </trkpt>
      <trkpt lat="48.4139" lon="6.87158">
        <ele>289</ele>
        <time>2016-07-05T00:54:26Z</time>
      </trkpt>
      <trkpt lat="48.41391" lon="6.87165">
        <ele>289</ele>
        <time>2016-07-05T00:56:26Z</time>
      </trkpt>
      <trkpt lat="48.41391" lon="6.87172">
        <ele>289</ele>
        <time>2016-07-05T00:58:26Z</time>
      </trkpt>
      <trkpt lat="48.4139" lon="6.87179">
        <ele>289</ele>
        <time>2016-07-05T01:00:26Z</time>
      </trkpt>
      <trkpt lat="48.41389" lon="6.87186">
        <ele>289</ele>
        <time>2016-07-05T01:02:26Z</time>
      </trkpt>
      <trkpt lat="48.41388" lon="6.87194">
        <ele>289</ele>
        <time>2016-07-05T01:04:26Z</time>
      </trkpt>
      <trkpt lat="48.41388" lon="6.87201">
        <ele>289</ele>
        <time>2016-07-05T01:06:26Z</time>
      </trkpt>
      <trkpt lat="48.41388" lon="6.8721">
        <ele>290</ele>
        <time>2016-07-05T01:08:26Z</time>
      </trkpt>
      <trkpt lat="48.41387" lon="6.87218">
        <ele>290</ele>
        <time>2016-07-05T01:10:26Z</time>
      </trkpt>
      <trkpt lat="48.41387" lon="6.87226">
        <ele>290</ele>
        <time>2016-07-05T01:12:26Z</time>
      </trkpt>
      <trkpt lat="48.41388" lon="6.87235">
        <ele>290</ele>
        <time>2016-07-05T01:14:26Z</time>
      </trkpt>
      <trkpt lat="48.41391" lon="6.87242">
        <ele>290</ele>
        <time>2016-07-05T01:16:26Z</time>
      </trkpt>
      <trkpt lat="48.41394" lon="6.87247">
        <ele>290</ele>
        <time>2016-07-05T01:18:26Z</time>
      </trkpt>
      <trkpt lat="48.41399" lon="6.87251">
        <ele>291</ele>
        <time>2016-07-05T01:20:26Z</time>
      </trkpt>
      <trkpt lat="48.41403" lon="6.87255">
        <ele>291</ele>
        <time>2016-07-05T01:22:26Z</time>
      </trkpt>
      <trkpt lat="48.41407" lon="6.87259">
        <ele>291</ele>
        <time>2016-07-05T01:24:26Z</time>
      </trkpt>
      <trkpt lat="48.4141" lon="6.87264">
        <ele>291</ele>
        <time>2016-07-05T01:26:26Z</time>
      </trkpt>
      <trkpt lat="48.41412" lon="6.87271">
        <ele>291</ele>
        <time>2016-07-05T01:28:26Z</time>
      </trkpt>
      <trkpt lat="48.41412" lon="6.87279">
        <ele>291</ele>
        <time>2016-07-05T01:30:26Z</time>
      </trkpt>
      <trkpt lat="48.41411" lon="6.87286">
        <ele>290</ele>
        <time>2016-07-05T01:32:26Z</time>
      </trkpt>
      <trkpt lat="48.4141" lon="6.87294">
        <ele>290</ele>
        <time>2016-07-05T01:34:26Z</time>
      </trkpt>
      <trkpt lat="48.41409" lon="6.87302">
        <ele>290</ele>
        <time>2016-07-05T01:36:26Z</time>
      </trkpt>
      <trkpt lat="48.41407" lon="6.87311">
        <ele>290</ele>
        <time>2016-07-05T01:38:26Z</time>
      </trkpt>
      <trkpt lat="48.41405" lon="6.8732">
        <ele>290</ele>
        <time>2016-07-05T01:40:26Z</time>
      </trkpt>
      <trkpt lat="48.41404" lon="6.87329">
        <ele>290</ele>
        <time>2016-07-05T01:42:26Z</time>
      </trkpt>
      <trkpt lat="48.41402" lon="6.87337">
        <ele>290</ele>
        <time>2016-07-05T01:44:26Z</time>
      </trkpt>
      <trkpt lat="48.41401" lon="6.87346">
        <ele>290</ele>
        <time>2016-07-05T01:46:26Z</time>
      </trkpt>
      <trkpt lat="48.41402" lon="6.87354">
        <ele>290</ele>
        <time>2016-07-05T01:48:26Z</time>
      </trkpt>
      <trkpt lat="48.41402" lon="6.87361">
        <ele>290</ele>
        <time>2016-07-05T01:50:26Z</time>
      </trkpt>
      <trkpt lat="48.41405" lon="6.87374">
        <ele>290</ele>
        <time>2016-07-05T01:52:26Z</time>
      </trkpt>
      <trkpt lat="48.41408" lon="6.87386">
        <ele>290</ele>
        <time>2016-07-05T01:54:26Z</time>
      </trkpt>
      <trkpt lat="48.4141" lon="6.87392">
        <ele>290</ele>
        <time>2016-07-05T01:56:26Z</time>
      </trkpt>
      <trkpt lat="48.41412" lon="6.874">
        <ele>290</ele>
        <time>2016-07-05T01:58:26Z</time>
      </trkpt>
      <trkpt lat="48.41415" lon="6.87407">
        <ele>290</ele>
        <time>2016-07-05T02:00:26Z</time>
      </trkpt>
      <trkpt lat="48.41419" lon="6.87414">
        <ele>290</ele>
        <time>2016-07-05T02:02:26Z</time>
      </trkpt>
      <trkpt lat="48.41423" lon="6.8742">
        <ele>290</ele>
        <time>2016-07-05T02:04:26Z</time>
      </trkpt>
      <trkpt lat="48.41428" lon="6.87425">
        <ele>290</ele>
        <time>2016-07-05T02:06:26Z</time>
      </trkpt>
      <trkpt lat="48.41433" lon="6.8743">
        <ele>290</ele>
        <time>2016-07-05T02:08:26Z</time>
      </trkpt>
      <trkpt lat="48.41438" lon="6.87434">
        <ele>290</ele>
        <time>2016-07-05T02:10:26Z</time>
      </trkpt>
      <trkpt lat="48.41442" lon="6.87439">
        <ele>291</ele>
        <time>2016-07-05T02:12:26Z</time>
      </trkpt>
      <trkpt lat="48.41446" lon="6.87446">
        <ele>291</ele>
        <time>2016-07-05T02:14:26Z</time>
      </trkpt>
      <trkpt lat="48.4145" lon="6.87452">
        <ele>291</ele>
        <time>2016-07-05T02:16:26Z</time>
      </trkpt>
      <trkpt lat="48.41452" lon="6.8746">
        <ele>291</ele>
        <time>2016-07-05T02:18:26Z</time>
      </trkpt>
      <trkpt lat="48.41453" lon="6.87469">
        <ele>292</ele>
        <time>2016-07-05T02:20:26Z</time>
      </trkpt>
      <trkpt lat="48.41455" lon="6.87477">
        <ele>292</ele>
        <time>2016-07-05T02:22:26Z</time>
      </trkpt>
      <trkpt lat="48.41455" lon="6.87486">
        <ele>292</ele>
        <time>2016-07-05T02:24:26Z</time>
      </trkpt>
      <trkpt lat="48.41456" lon="6.87494">
        <ele>292</ele>
        <time>2016-07-05T02:26:26Z</time>
      </trkpt>
      <trkpt lat="48.41456" lon="6.87502">
        <ele>292</ele>
        <time>2016-07-05T02:28:26Z</time>
      </trkpt>
      <trkpt lat="48.41456" lon="6.8751">
        <ele>292</ele>
        <time>2016-07-05T02:30:26Z</time>
      </trkpt>
      <trkpt lat="48.41458" lon="6.87518">
        <ele>292</ele>
        <time>2016-07-05T02:32:26Z</time>
      </trkpt>
      <trkpt lat="48.4146" lon="6.87526">
        <ele>292</ele>
        <time>2016-07-05T02:34:26Z</time>
      </trkpt>
      <trkpt lat="48.41462" lon="6.87534">
        <ele>292</ele>
        <time>2016-07-05T02:36:26Z</time>
      </trkpt>
      <trkpt lat="48.41465" lon="6.87541">
        <ele>292</ele>
        <time>2016-07-05T02:38:26Z</time>
      </trkpt>
      <trkpt lat="48.41468" lon="6.87547">
        <ele>292</ele>
        <time>2016-07-05T02:40:26Z</time>
      </trkpt>
      <trkpt lat="48.4147" lon="6.87554">
        <ele>292</ele>
        <time>2016-07-05T02:42:26Z</time>
      </trkpt>
      <trkpt lat="48.41472" lon="6.87562">
        <ele>292</ele>
        <time>2016-07-05T02:44:26Z</time>
      </trkpt>
      <trkpt lat="48.41471" lon="6.87569">
        <ele>292</ele>
        <time>2016-07-05T02:46:26Z</time>
      </trkpt>
      <trkpt lat="48.41471" lon="6.87578">
        <ele>292</ele>
        <time>2016-07-05T02:48:26Z</time>
      </trkpt>
      <trkpt lat="48.41469" lon="6.87585">
        <ele>292</ele>
        <time>2016-07-05T02:50:26Z</time>
      </trkpt>
      <trkpt lat="48.41466" lon="6.87592">
        <ele>292</ele>
        <time>2016-07-05T02:52:26Z</time>
      </trkpt>
      <trkpt lat="48.4146" lon="6.87606">
        <ele>292</ele>
        <time>2016-07-05T02:54:26Z</time>
      </trkpt>
      <trkpt lat="48.41455" lon="6.87619">
        <ele>292</ele>
        <time>2016-07-05T02:56:26Z</time>
      </trkpt>
      <trkpt lat="48.41454" lon="6.87633">
        <ele>291</ele>
        <time>2016-07-05T02:58:26Z</time>
      </trkpt>
      <trkpt lat="48.41457" lon="6.87644">
        <ele>291</ele>
        <time>2016-07-05T03:00:26Z</time>
      </trkpt>
      <trkpt lat="48.4146" lon="6.87656">
        <ele>291</ele>
        <time>2016-07-05T03:02:26Z</time>
      </trkpt>
      <trkpt lat="48.41462" lon="6.87662">
        <ele>291</ele>
        <time>2016-07-05T03:04:26Z</time>
      </trkpt>
      <trkpt lat="48.41464" lon="6.87669">
        <ele>291</ele>
        <time>2016-07-05T03:06:26Z</time>
      </trkpt>
      <trkpt lat="48.41466" lon="6.87676">
        <ele>291</ele>
        <time>2016-07-05T03:08:26Z</time>
      </trkpt>
      <trkpt lat="48.41469" lon="6.87685">
        <ele>291</ele>
        <time>2016-07-05T03:10:26Z</time>
      </trkpt>
      <trkpt lat="48.41471" lon="6.87693">
        <ele>291</ele>
        <time>2016-07-05T03:12:26Z</time>
      </trkpt>
      <trkpt lat="48.41474" lon="6.87701">
        <ele>291</ele>
        <time>2016-07-05T03:14:26Z</time>
      </trkpt>
      <trkpt lat="48.41477" lon="6.87709">
        <ele>290</ele>
        <time>2016-07-05T03:16:26Z</time>
      </trkpt>
      <trkpt lat="48.4148" lon="6.87717">
        <ele>290</ele>
        <time>2016-07-05T03:18:26Z</time>
      </trkpt>
      <trkpt lat="48.41482" lon="6.87724">
        <ele>290</ele>
        <time>2016-07-05T03:20:26Z</time>
      </trkpt>
      <trkpt lat="48.41482" lon="6.87732">
        <ele>290</ele>
        <time>2016-07-05T03:22:26Z</time>
      </trkpt>
      <trkpt lat="48.41481" lon="6.8774">
        <ele>290</ele>
        <time>2016-07-05T03:24:26Z</time>
      </trkpt>
      <trkpt lat="48.4148" lon="6.87748">
        <ele>290</ele>
        <time>2016-07-05T03:26:26Z</time>
      </trkpt>
      <trkpt lat="48.41481" lon="6.87757">
        <ele>290</ele>
        <time>2016-07-05T03:28:26Z</time>
      </trkpt>
      <trkpt lat="48.41483" lon="6.87764">
        <ele>291</ele>
        <time>2016-07-05T03:30:26Z</time>
      </trkpt>
      <trkpt lat="48.41486" lon="6.87771">
        <ele>291</ele>
        <time>2016-07-05T03:32:26Z</time>
      </trkpt>
      <trkpt lat="48.41489" lon="6.87776">
        <ele>291</ele>
        <time>2016-07-05T03:34:26Z</time>
      </trkpt>
      <trkpt lat="48.41494" lon="6.87779">
        <ele>291</ele>
        <time>2016-07-05T03:36:26Z</time>
      </trkpt>
      <trkpt lat="48.41498" lon="6.87781">
        <ele>291</ele>
        <time>2016-07-05T03:38:26Z</time>
      </trkpt>
      <trkpt lat="48.41503" lon="6.87782">
        <ele>291</ele>
        <time>2016-07-05T03:40:26Z</time>
      </trkpt>
      <trkpt lat="48.41509" lon="6.87783">
        <ele>291</ele>
        <time>2016-07-05T03:42:26Z</time>
      </trkpt>
      <trkpt lat="48.41514" lon="6.87783">
        <ele>291</ele>
        <time>2016-07-05T03:44:26Z</time>
      </trkpt>
      <trkpt lat="48.41519" lon="6.87784">
        <ele>291</ele>
        <time>2016-07-05T03:46:26Z</time>
      </trkpt>
      <trkpt lat="48.41524" lon="6.87784">
        <ele>291</ele>
        <time>2016-07-05T03:48:26Z</time>
      </trkpt>
      <trkpt lat="48.41529" lon="6.87784">
        <ele>291</ele>
        <time>2016-07-05T03:50:26Z</time>
      </trkpt>
      <trkpt lat="48.41534" lon="6.87784">
        <ele>291</ele>
        <time>2016-07-05T03:52:26Z</time>
      </trkpt>
      <trkpt lat="48.41539" lon="6.87783">
        <ele>291</ele>
        <time>2016-07-05T03:54:26Z</time>
      </trkpt>
      <trkpt lat="48.41544" lon="6.87782">
        <ele>291</ele>
        <time>2016-07-05T03:56:26Z</time>
      </trkpt>
      <trkpt lat="48.41549" lon="6.8778">
        <ele>291</ele>
        <time>2016-07-05T03:58:26Z</time>
      </trkpt>
      <trkpt lat="48.41554" lon="6.87779">
        <ele>291</ele>
        <time>2016-07-05T04:00:26Z</time>
      </trkpt>
      <trkpt lat="48.41559" lon="6.87778">
        <ele>291</ele>
        <time>2016-07-05T04:02:26Z</time>
      </trkpt>
      <trkpt lat="48.41564" lon="6.87776">
        <ele>291</ele>
        <time>2016-07-05T04:04:26Z</time>
      </trkpt>
      <trkpt lat="48.41569" lon="6.87776">
        <ele>291</ele>
        <time>2016-07-05T04:06:26Z</time>
      </trkpt>
      <trkpt lat="48.41574" lon="6.87775">
        <ele>291</ele>
        <time>2016-07-05T04:08:26Z</time>
      </trkpt>
      <trkpt lat="48.41582" lon="6.87776">
        <ele>291</ele>
        <time>2016-07-05T04:10:26Z</time>
      </trkpt>
      <trkpt lat="48.4159" lon="6.87778">
        <ele>291</ele>
        <time>2016-07-05T04:12:26Z</time>
      </trkpt>
      <trkpt lat="48.41598" lon="6.87781">
        <ele>292</ele>
        <time>2016-07-05T04:14:26Z</time>
      </trkpt>
      <trkpt lat="48.41605" lon="6.87785">
        <ele>292</ele>
        <time>2016-07-05T04:16:26Z</time>
      </trkpt>
      <trkpt lat="48.4161" lon="6.87789">
        <ele>292</ele>
        <time>2016-07-05T04:18:26Z</time>
      </trkpt>
      <trkpt lat="48.41614" lon="6.87792">
        <ele>293</ele>
        <time>2016-07-05T04:20:26Z</time>
      </trkpt>
      <trkpt lat="48.41618" lon="6.87796">
        <ele>293</ele>
        <time>2016-07-05T04:22:26Z</time>
      </trkpt>
      <trkpt lat="48.41623" lon="6.87801">
        <ele>293</ele>
        <time>2016-07-05T04:24:26Z</time>
      </trkpt>
      <trkpt lat="48.41636" lon="6.87806">
        <ele>294</ele>
        <time>2016-07-05T04:26:26Z</time>
      </trkpt>
      <trkpt lat="48.41636" lon="6.87806">
        <ele>294</ele>
        <time>2016-07-05T04:28:26Z</time>
      </trkpt>
      <trkpt lat="48.41636" lon="6.87798">
        <ele>294</ele>
        <time>2016-07-05T04:30:26Z</time>
      </trkpt>
      <trkpt lat="48.41637" lon="6.87783">
        <ele>294</ele>
        <time>2016-07-05T04:32:26Z</time>
      </trkpt>
      <trkpt lat="48.41636" lon="6.87776">
        <ele>294</ele>
        <time>2016-07-05T04:34:26Z</time>
      </trkpt>
      <trkpt lat="48.41636" lon="6.87776">
        <ele>294</ele>
        <time>2016-07-05T04:36:26Z</time>
      </trkpt>
      <trkpt lat="48.41642" lon="6.87779">
        <ele>294</ele>
        <time>2016-07-05T04:38:26Z</time>
      </trkpt>
      <trkpt lat="48.41648" lon="6.8778">
        <ele>295</ele>
        <time>2016-07-05T04:40:26Z</time>
      </trkpt>
      <trkpt lat="48.41654" lon="6.87783">
        <ele>295</ele>
        <time>2016-07-05T04:42:26Z</time>
      </trkpt>
      <trkpt lat="48.41662" lon="6.87788">
        <ele>295</ele>
        <time>2016-07-05T04:44:26Z</time>
      </trkpt>
      <trkpt lat="48.41672" lon="6.87792">
        <ele>296</ele>
        <time>2016-07-05T04:46:26Z</time>
      </trkpt>
      <trkpt lat="48.41678" lon="6.87793">
        <ele>296</ele>
        <time>2016-07-05T04:48:26Z</time>
      </trkpt>
      <trkpt lat="48.41692" lon="6.87793">
        <ele>298</ele>
        <time>2016-07-05T04:50:26Z</time>
      </trkpt>
      <trkpt lat="48.41701" lon="6.87797">
        <ele>298</ele>
        <time>2016-07-05T04:52:26Z</time>
      </trkpt>
      <trkpt lat="48.41708" lon="6.87809">
        <ele>298</ele>
        <time>2016-07-05T04:54:26Z</time>
      </trkpt>
      <trkpt lat="48.41714" lon="6.87826">
        <ele>298</ele>
        <time>2016-07-05T04:56:26Z</time>
      </trkpt>
      <trkpt lat="48.4172" lon="6.87846">
        <ele>298</ele>
        <time>2016-07-05T04:58:26Z</time>
      </trkpt>
      <trkpt lat="48.41727" lon="6.87879">
        <ele>300</ele>
        <time>2016-07-05T05:00:26Z</time>
      </trkpt>
      <trkpt lat="48.41733" lon="6.87912">
        <ele>301</ele>
        <time>2016-07-05T05:02:26Z</time>
      </trkpt>
      <trkpt lat="48.41739" lon="6.87946">
        <ele>302</ele>
        <time>2016-07-05T05:04:26Z</time>
      </trkpt>
      <trkpt lat="48.41747" lon="6.88008">
        <ele>303</ele>
        <time>2016-07-05T05:06:26Z</time>
      </trkpt>
      <trkpt lat="48.41749" lon="6.88031">
        <ele>303</ele>
        <time>2016-07-05T05:08:26Z</time>
      </trkpt>
      <trkpt lat="48.4175" lon="6.88068">
        <ele>302</ele>
        <time>2016-07-05T05:10:26Z</time>
      </trkpt>
      <trkpt lat="48.4175" lon="6.88079">
        <ele>302</ele>
        <time>2016-07-05T05:12:26Z</time>
      </trkpt>
      <trkpt lat="48.41745" lon="6.88102">
        <ele>302</ele>
        <time>2016-07-05T05:14:26Z</time>
      </trkpt>
      <trkpt lat="48.4174" lon="6.88126">
        <ele>302</ele>
        <time>2016-07-05T05:16:26Z</time>
      </trkpt>
      <trkpt lat="48.41738" lon="6.88137">
        <ele>302</ele>
        <time>2016-07-05T05:18:26Z</time>
      </trkpt>
      <trkpt lat="48.4173" lon="6.8819">
        <ele>302</ele>
        <time>2016-07-05T05:20:26Z</time>
      </trkpt>
      <trkpt lat="48.41731" lon="6.88217">
        <ele>301</ele>
        <time>2016-07-05T05:22:26Z</time>
      </trkpt>
      <trkpt lat="48.41735" lon="6.88262">
        <ele>301</ele>
        <time>2016-07-05T05:24:26Z</time>
      </trkpt>
      <trkpt lat="48.41736" lon="6.88285">
        <ele>301</ele>
        <time>2016-07-05T05:26:26Z</time>
      </trkpt>
      <trkpt lat="48.41737" lon="6.88318">
        <ele>300</ele>
        <time>2016-07-05T05:28:26Z</time>
      </trkpt>
      <trkpt lat="48.41741" lon="6.88348">
        <ele>300</ele>
        <time>2016-07-05T05:30:26Z</time>
      </trkpt>
      <trkpt lat="48.41744" lon="6.8838">
        <ele>298</ele>
        <time>2016-07-05T05:32:26Z</time>
      </trkpt>
      <trkpt lat="48.41749" lon="6.88412">
        <ele>297</ele>
        <time>2016-07-05T05:34:26Z</time>
      </trkpt>
      <trkpt lat="48.41757" lon="6.88446">
        <ele>297</ele>
        <time>2016-07-05T05:36:26Z</time>
      </trkpt>
      <trkpt lat="48.41767" lon="6.88479">
        <ele>298</ele>
        <time>2016-07-05T05:38:26Z</time>
      </trkpt>
      <trkpt lat="48.4178" lon="6.88512">
        <ele>299</ele>
        <time>2016-07-05T05:40:26Z</time>
      </trkpt>
      <trkpt lat="48.41793" lon="6.88544">
        <ele>299</ele>
        <time>2016-07-05T05:42:26Z</time>
      </trkpt>
      <trkpt lat="48.41809" lon="6.88573">
        <ele>298</ele>
        <time>2016-07-05T05:44:26Z</time>
      </trkpt>
      <trkpt lat="48.41824" lon="6.886">
        <ele>298</ele>
        <time>2016-07-05T05:46:26Z</time>
      </trkpt>
      <trkpt lat="48.41838" lon="6.88628">
        <ele>298</ele>
        <time>2016-07-05T05:48:26Z</time>
      </trkpt>
      <trkpt lat="48.41852" lon="6.88656">
        <ele>299</ele>
        <time>2016-07-05T05:50:26Z</time>
      </trkpt>
      <trkpt lat="48.41866" lon="6.88683">
        <ele>301</ele>
        <time>2016-07-05T05:52:26Z</time>
      </trkpt>
      <trkpt lat="48.41873" lon="6.88702">
        <ele>301</ele>
        <time>2016-07-05T05:54:26Z</time>
      </trkpt>
      <trkpt lat="48.41879" lon="6.88721">
        <ele>301</ele>
        <time>2016-07-05T05:56:26Z</time>
      </trkpt>
      <trkpt lat="48.41881" lon="6.88729">
        <ele>301</ele>
        <time>2016-07-05T05:58:26Z</time>
      </trkpt>
      <trkpt lat="48.41887" lon="6.88741">
        <ele>302</ele>
        <time>2016-07-05T06:00:26Z</time>
      </trkpt>
      <trkpt lat="48.41892" lon="6.8875">
        <ele>302</ele>
        <time>2016-07-05T06:02:26Z</time>
      </trkpt>
      <trkpt lat="48.41909" lon="6.88769">
        <ele>303</ele>
        <time>2016-07-05T06:04:26Z</time>
      </trkpt>
      <trkpt lat="48.41917" lon="6.88785">
        <ele>303</ele>
        <time>2016-07-05T06:06:26Z</time>
      </trkpt>
      <trkpt lat="48.41917" lon="6.88785">
        <ele>303</ele>
        <time>2016-07-05T06:08:26Z</time>
      </trkpt>
      <trkpt lat="48.41925" lon="6.88806">
        <ele>304</ele>
        <time>2016-07-05T06:10:26Z</time>
      </trkpt>
      <trkpt lat="48.41938" lon="6.88843">
        <ele>307</ele>
        <time>2016-07-05T06:12:26Z</time>
      </trkpt>
      <trkpt lat="48.41949" lon="6.88878">
        <ele>309</ele>
        <time>2016-07-05T06:14:26Z</time>
      </trkpt>
      <trkpt lat="48.41958" lon="6.8891">
        <ele>310</ele>
        <time>2016-07-05T06:16:26Z</time>
      </trkpt>
      <trkpt lat="48.41968" lon="6.88947">
        <ele>311</ele>
        <time>2016-07-05T06:18:26Z</time>
      </trkpt>
      <trkpt lat="48.41979" lon="6.88984">
        <ele>312</ele>
        <time>2016-07-05T06:20:26Z</time>
      </trkpt>
      <trkpt lat="48.41987" lon="6.89021">
        <ele>311</ele>
        <time>2016-07-05T06:22:26Z</time>
      </trkpt>
      <trkpt lat="48.41995" lon="6.89054">
        <ele>310</ele>
        <time>2016-07-05T06:24:26Z</time>
      </trkpt>
      <trkpt lat="48.42021" lon="6.89152">
        <ele>312</ele>
        <time>2016-07-05T06:26:26Z</time>
      </trkpt>
      <trkpt lat="48.42034" lon="6.89195">
        <ele>314</ele>
        <time>2016-07-05T06:28:26Z</time>
      </trkpt>
      <trkpt lat="48.42045" lon="6.89237">
        <ele>313</ele>
        <time>2016-07-05T06:30:26Z</time>
      </trkpt>
      <trkpt lat="48.42058" lon="6.89276">
        <ele>313</ele>
        <time>2016-07-05T06:32:26Z</time>
      </trkpt>
      <trkpt lat="48.42075" lon="6.8932">
        <ele>312</ele>
        <time>2016-07-05T06:34:26Z</time>
      </trkpt>
      <trkpt lat="48.42088" lon="6.89348">
        <ele>310</ele>
        <time>2016-07-05T06:36:26Z</time>
      </trkpt>
      <trkpt lat="48.42102" lon="6.89372">
        <ele>309</ele>
        <time>2016-07-05T06:38:26Z</time>
      </trkpt>
      <trkpt lat="48.4213" lon="6.89404">
        <ele>309</ele>
        <time>2016-07-05T06:40:26Z</time>
      </trkpt>
      <trkpt lat="48.42139" lon="6.89413">
        <ele>310</ele>
        <time>2016-07-05T06:42:26Z</time>
      </trkpt>
      <trkpt lat="48.42148" lon="6.89423">
        <ele>310</ele>
        <time>2016-07-05T06:44:26Z</time>
      </trkpt>
      <trkpt lat="48.42154" lon="6.8943">
        <ele>310</ele>
        <time>2016-07-05T06:46:26Z</time>
      </trkpt>
      <trkpt lat="48.42162" lon="6.89441">
        <ele>310</ele>
        <time>2016-07-05T06:48:26Z</time>
      </trkpt>
      <trkpt lat="48.4217" lon="6.89454">
        <ele>310</ele>
        <time>2016-07-05T06:50:26Z</time>
      </trkpt>
      <trkpt lat="48.42182" lon="6.89478">
        <ele>311</ele>
        <time>2016-07-05T06:52:26Z</time>
      </trkpt>
      <trkpt lat="48.42196" lon="6.89506">
        <ele>312</ele>
        <time>2016-07-05T06:54:26Z</time>
      </trkpt>
      <trkpt lat="48.42215" lon="6.89545">
        <ele>312</ele>
        <time>2016-07-05T06:56:26Z</time>
      </trkpt>
      <trkpt lat="48.42235" lon="6.89583">
        <ele>309</ele>
        <time>2016-07-05T06:58:26Z</time>
      </trkpt>
      <trkpt lat="48.42253" lon="6.89616">
        <ele>309</ele>
        <time>2016-07-05T07:00:26Z</time>
      </trkpt>
      <trkpt lat="48.42264" lon="6.89633">
        <ele>311</ele>
        <time>2016-07-05T07:02:26Z</time>
      </trkpt>
      <trkpt lat="48.42277" lon="6.89651">
        <ele>313</ele>
        <time>2016-07-05T07:04:26Z</time>
      </trkpt>
      <trkpt lat="48.42288" lon="6.89666">
        <ele>314</ele>
        <time>2016-07-05T07:06:26Z</time>
      </trkpt>
      <trkpt lat="48.42295" lon="6.89677">
        <ele>315</ele>
        <time>2016-07-05T07:08:26Z</time>
      </trkpt>
      <trkpt lat="48.423" lon="6.89687">
        <ele>316</ele>
        <time>2016-07-05T07:10:26Z</time>
      </trkpt>
      <trkpt lat="48.42304" lon="6.89699">
        <ele>316</ele>
        <time>2016-07-05T07:12:26Z</time>
      </trkpt>
      <trkpt lat="48.4231" lon="6.89715">
        <ele>317</ele>
        <time>2016-07-05T07:14:26Z</time>
      </trkpt>
      <trkpt lat="48.4232" lon="6.89737">
        <ele>317</ele>
        <time>2016-07-05T07:16:26Z</time>
      </trkpt>
      <trkpt lat="48.4233" lon="6.89758">
        <ele>317</ele>
        <time>2016-07-05T07:18:26Z</time>
      </trkpt>
      <trkpt lat="48.42351" lon="6.89798">
        <ele>316</ele>
        <time>2016-07-05T07:20:26Z</time>
      </trkpt>
      <trkpt lat="48.42376" lon="6.89841">
        <ele>316</ele>
        <time>2016-07-05T07:22:26Z</time>
      </trkpt>
      <trkpt lat="48.42411" lon="6.89897">
        <ele>312</ele>
        <time>2016-07-05T07:24:26Z</time>
      </trkpt>
      <trkpt lat="48.42477" lon="6.89995">
        <ele>312</ele>
        <time>2016-07-05T07:26:26Z</time>
      </trkpt>
      <trkpt lat="48.42524" lon="6.90056">
        <ele>313</ele>
        <time>2016-07-05T07:28:26Z</time>
      </trkpt>
      <trkpt lat="48.42541" lon="6.90075">
        <ele>314</ele>
        <time>2016-07-05T07:30:26Z</time>
      </trkpt>
      <trkpt lat="48.42559" lon="6.90092">
        <ele>315</ele>
        <time>2016-07-05T07:32:26Z</time>
      </trkpt>
      <trkpt lat="48.4258" lon="6.9011">
        <ele>316</ele>
        <time>2016-07-05T07:34:26Z</time>
      </trkpt>
      <trkpt lat="48.42605" lon="6.90129">
        <ele>317</ele>
        <time>2016-07-05T07:36:26Z</time>
      </trkpt>
      <trkpt lat="48.42645" lon="6.90153">
        <ele>318</ele>
        <time>2016-07-05T07:38:26Z</time>
      </trkpt>
      <trkpt lat="48.42699" lon="6.90191">
        <ele>316</ele>
        <time>2016-07-05T07:40:26Z</time>
      </trkpt>
      <trkpt lat="48.42721" lon="6.90204">
        <ele>316</ele>
        <time>2016-07-05T07:42:26Z</time>
      </trkpt>
      <trkpt lat="48.42739" lon="6.90214">
        <ele>316</ele>
        <time>2016-07-05T07:44:26Z</time>
      </trkpt>
      <trkpt lat="48.42762" lon="6.90225">
        <ele>315</ele>
        <time>2016-07-05T07:46:26Z</time>
      </trkpt>
      <trkpt lat="48.4278" lon="6.90234">
        <ele>314</ele>
        <time>2016-07-05T07:48:26Z</time>
      </trkpt>
      <trkpt lat="48.42787" lon="6.90236">
        <ele>314</ele>
        <time>2016-07-05T07:50:26Z</time>
      </trkpt>
      <trkpt lat="48.42792" lon="6.90237">
        <ele>314</ele>
        <time>2016-07-05T07:52:26Z</time>
      </trkpt>
      <trkpt lat="48.42796" lon="6.90237">
        <ele>314</ele>
        <time>2016-07-05T07:54:26Z</time>
      </trkpt>
      <trkpt lat="48.42802" lon="6.90235">
        <ele>316</ele>
        <time>2016-07-05T07:56:26Z</time>
      </trkpt>
      <trkpt lat="48.42805" lon="6.90234">
        <ele>316</ele>
        <time>2016-07-05T07:58:26Z</time>
      </trkpt>
      <trkpt lat="48.42808" lon="6.90232">
        <ele>317</ele>
        <time>2016-07-05T08:00:26Z</time>
      </trkpt>
      <trkpt lat="48.42814" lon="6.90227">
        <ele>319</ele>
        <time>2016-07-05T08:02:26Z</time>
      </trkpt>
      <trkpt lat="48.42819" lon="6.90221">
        <ele>321</ele>
        <time>2016-07-05T08:04:26Z</time>
      </trkpt>
      <trkpt lat="48.42831" lon="6.90205">
        <ele>325</ele>
        <time>2016-07-05T08:06:26Z</time>
      </trkpt>
      <trkpt lat="48.42867" lon="6.90151">
        <ele>335</ele>
        <time>2016-07-05T08:08:26Z</time>
      </trkpt>
      <trkpt lat="48.42884" lon="6.90124">
        <ele>337</ele>
        <time>2016-07-05T08:10:26Z</time>
      </trkpt>
      <trkpt lat="48.42898" lon="6.90106">
        <ele>337</ele>
        <time>2016-07-05T08:12:26Z</time>
      </trkpt>
      <trkpt lat="48.42917" lon="6.90087">
        <ele>335</ele>
        <time>2016-07-05T08:14:26Z</time>
      </trkpt>
      <trkpt lat="48.42923" lon="6.90082">
        <ele>336</ele>
        <time>2016-07-05T08:16:26Z</time>
      </trkpt>
      <trkpt lat="48.42928" lon="6.90081">
        <ele>337</ele>
        <time>2016-07-05T08:18:26Z</time>
      </trkpt>
      <trkpt lat="48.42932" lon="6.90084">
        <ele>337</ele>
        <time>2016-07-05T08:20:26Z</time>
      </trkpt>
      <trkpt lat="48.42932" lon="6.90084">
        <ele>337</ele>
        <time>2016-07-05T08:22:26Z</time>
      </trkpt>
      <trkpt lat="48.42932" lon="6.90085">
        <ele>337</ele>
        <time>2016-07-05T08:24:26Z</time>
      </trkpt>
      <trkpt lat="48.42934" lon="6.9009">
        <ele>337</ele>
        <time>2016-07-05T08:26:26Z</time>
      </trkpt>
      <trkpt lat="48.42934" lon="6.90097">
        <ele>336</ele>
        <time>2016-07-05T08:28:26Z</time>
      </trkpt>
      <trkpt lat="48.42932" lon="6.90103">
        <ele>336</ele>
        <time>2016-07-05T08:30:26Z</time>
      </trkpt>
      <trkpt lat="48.42928" lon="6.90112">
        <ele>335</ele>
        <time>2016-07-05T08:32:26Z</time>
      </trkpt>
      <trkpt lat="48.4292" lon="6.90128">
        <ele>332</ele>
        <time>2016-07-05T08:34:26Z</time>
      </trkpt>
      <trkpt lat="48.42902" lon="6.90155">
        <ele>331</ele>
        <time>2016-07-05T08:36:26Z</time>
      </trkpt>
      <trkpt lat="48.42893" lon="6.90172">
        <ele>330</ele>
        <time>2016-07-05T08:38:26Z</time>
      </trkpt>
      <trkpt lat="48.4288" lon="6.90201">
        <ele>329</ele>
        <time>2016-07-05T08:40:26Z</time>
      </trkpt>
      <trkpt lat="48.42872" lon="6.90227">
        <ele>326</ele>
        <time>2016-07-05T08:42:26Z</time>
      </trkpt>
      <trkpt lat="48.42864" lon="6.90251">
        <ele>323</ele>
        <time>2016-07-05T08:44:26Z</time>
      </trkpt>
      <trkpt lat="48.42855" lon="6.90282">
        <ele>320</ele>
        <time>2016-07-05T08:46:26Z</time>
      </trkpt>
      <trkpt lat="48.42852" lon="6.903">
        <ele>319</ele>
        <time>2016-07-05T08:48:26Z</time>
      </trkpt>
      <trkpt lat="48.42851" lon="6.90314">
        <ele>318</ele>
        <time>2016-07-05T08:50:26Z</time>
      </trkpt>
      <trkpt lat="48.42851" lon="6.90324">
        <ele>318</ele>
        <time>2016-07-05T08:52:26Z</time>
      </trkpt>
      <trkpt lat="48.42852" lon="6.90336">
        <ele>318</ele>
        <time>2016-07-05T08:54:26Z</time>
      </trkpt>
      <trkpt lat="48.42857" lon="6.90358">
        <ele>317</ele>
        <time>2016-07-05T08:56:26Z</time>
      </trkpt>
      <trkpt lat="48.4287" lon="6.90402">
        <ele>317</ele>
        <time>2016-07-05T08:58:26Z</time>
      </trkpt>
      <trkpt lat="48.42879" lon="6.90432">
        <ele>316</ele>
        <time>2016-07-05T09:00:26Z</time>
      </trkpt>
      <trkpt lat="48.42889" lon="6.90461">
        <ele>316</ele>
        <time>2016-07-05T09:02:26Z</time>
      </trkpt>
      <trkpt lat="48.42899" lon="6.90493">
        <ele>316</ele>
        <time>2016-07-05T09:04:26Z</time>
      </trkpt>
      <trkpt lat="48.42913" lon="6.9053">
        <ele>316</ele>
        <time>2016-07-05T09:06:26Z</time>
      </trkpt>
      <trkpt lat="48.42923" lon="6.90556">
        <ele>316</ele>
        <time>2016-07-05T09:08:26Z</time>
      </trkpt>
      <trkpt lat="48.42937" lon="6.90589">
        <ele>318</ele>
        <time>2016-07-05T09:10:26Z</time>
      </trkpt>
      <trkpt lat="48.42992" lon="6.90719">
        <ele>317</ele>
        <time>2016-07-05T09:12:26Z</time>
      </trkpt>
      <trkpt lat="48.43023" lon="6.90791">
        <ele>318</ele>
        <time>2016-07-05T09:14:26Z</time>
      </trkpt>
      <trkpt lat="48.43029" lon="6.90805">
        <ele>318</ele>
        <time>2016-07-05T09:16:26Z</time>
      </trkpt>
      <trkpt lat="48.43038" lon="6.90822">
        <ele>319</ele>
        <time>2016-07-05T09:18:26Z</time>
      </trkpt>
      <trkpt lat="48.43046" lon="6.90838">
        <ele>319</ele>
        <time>2016-07-05T09:20:26Z</time>
      </trkpt>
      <trkpt lat="48.43052" lon="6.90849">
        <ele>320</ele>
        <time>2016-07-05T09:22:26Z</time>
      </trkpt>
      <trkpt lat="48.43056" lon="6.90855">
        <ele>320</ele>
        <time>2016-07-05T09:24:26Z</time>
      </trkpt>
      <trkpt lat="48.43062" lon="6.90869">
        <ele>319</ele>
        <time>2016-07-05T09:26:26Z</time>
      </trkpt>
      <trkpt lat="48.43068" lon="6.90886">
        <ele>318</ele>
        <time>2016-07-05T09:28:26Z</time>
      </trkpt>
      <trkpt lat="48.43074" lon="6.90907">
        <ele>315</ele>
        <time>2016-07-05T09:30:26Z</time>
      </trkpt>
      <trkpt lat="48.4309" lon="6.90942">
        <ele>315</ele>
        <time>2016-07-05T09:32:26Z</time>
      </trkpt>
      <trkpt lat="48.43103" lon="6.90971">
        <ele>317</ele>
        <time>2016-07-05T09:34:26Z</time>
      </trkpt>
      <trkpt lat="48.43133" lon="6.91035">
        <ele>320</ele>
        <time>2016-07-05T09:36:26Z</time>
      </trkpt>
      <trkpt lat="48.43184" lon="6.91125">
        <ele>319</ele>
        <time>2016-07-05T09:38:26Z</time>
      </trkpt>
      <trkpt lat="48.43234" lon="6.91207">
        <ele>320</ele>
        <time>2016-07-05T09:40:26Z</time>
      </trkpt>
      <trkpt lat="48.43252" lon="6.91234">
        <ele>319</ele>
        <time>2016-07-05T09:42:26Z</time>
      </trkpt>
      <trkpt lat="48.43267" lon="6.91257">
        <ele>319</ele>
        <time>2016-07-05T09:44:26Z</time>
      </trkpt>
      <trkpt lat="48.43277" lon="6.91278">
        <ele>319</ele>
        <time>2016-07-05T09:46:26Z</time>
      </trkpt>
      <trkpt lat="48.43294" lon="6.91311">
        <ele>318</ele>
        <time>2016-07-05T09:48:26Z</time>
      </trkpt>
      <trkpt lat="48.43313" lon="6.91353">
        <ele>315</ele>
        <time>2016-07-05T09:50:26Z</time>
      </trkpt>
      <trkpt lat="48.4332" lon="6.91368">
        <ele>314</ele>
        <time>2016-07-05T09:52:26Z</time>
      </trkpt>
      <trkpt lat="48.43324" lon="6.91378">
        <ele>313</ele>
        <time>2016-07-05T09:54:26Z</time>
      </trkpt>
      <trkpt lat="48.43336" lon="6.91397">
        <ele>312</ele>
        <time>2016-07-05T09:56:26Z</time>
      </trkpt>
      <trkpt lat="48.43349" lon="6.91417">
        <ele>312</ele>
        <time>2016-07-05T09:58:26Z</time>
      </trkpt>
      <trkpt lat="48.43362" lon="6.91435">
        <ele>313</ele>
        <time>2016-07-05T10:00:26Z</time>
      </trkpt>
      <trkpt lat="48.43369" lon="6.91442">
        <ele>314</ele>
        <time>2016-07-05T10:02:26Z</time>
      </trkpt>
      <trkpt lat="48.4338" lon="6.91453">
        <ele>314</ele>
        <time>2016-07-05T10:04:26Z</time>
      </trkpt>
      <trkpt lat="48.43393" lon="6.91466">
        <ele>315</ele>
        <time>2016-07-05T10:06:26Z</time>
      </trkpt>
      <trkpt lat="48.43405" lon="6.91477">
        <ele>314</ele>
        <time>2016-07-05T10:08:26Z</time>
      </trkpt>
      <trkpt lat="48.43417" lon="6.91488">
        <ele>314</ele>
        <time>2016-07-05T10:10:26Z</time>
      </trkpt>
      <trkpt lat="48.43427" lon="6.91499">
        <ele>315</ele>
        <time>2016-07-05T10:12:26Z</time>
      </trkpt>
      <trkpt lat="48.43438" lon="6.91513">
        <ele>317</ele>
        <time>2016-07-05T10:14:26Z</time>
      </trkpt>
      <trkpt lat="48.43448" lon="6.91531">
        <ele>318</ele>
        <time>2016-07-05T10:16:26Z</time>
      </trkpt>
      <trkpt lat="48.43458" lon="6.91546">
        <ele>320</ele>
        <time>2016-07-05T10:18:26Z</time>
      </trkpt>
      <trkpt lat="48.43468" lon="6.91565">
        <ele>320</ele>
        <time>2016-07-05T10:20:26Z</time>
      </trkpt>
      <trkpt lat="48.43476" lon="6.9158">
        <ele>321</ele>
        <time>2016-07-05T10:22:26Z</time>
      </trkpt>
      <trkpt lat="48.43486" lon="6.91599">
        <ele>321</ele>
        <time>2016-07-05T10:24:26Z</time>
      </trkpt>
      <trkpt lat="48.43495" lon="6.9162">
        <ele>320</ele>
        <time>2016-07-05T10:26:26Z</time>
      </trkpt>
      <trkpt lat="48.43505" lon="6.91644">
        <ele>320</ele>
        <time>2016-07-05T10:28:26Z</time>
      </trkpt>
      <trkpt lat="48.43516" lon="6.91674">
        <ele>321</ele>
        <time>2016-07-05T10:30:26Z</time>
      </trkpt>
      <trkpt lat="48.43529" lon="6.91704">
        <ele>323</ele>
        <time>2016-07-05T10:32:26Z</time>
      </trkpt>
      <trkpt lat="48.4354" lon="6.91725">
        <ele>324</ele>
        <time>2016-07-05T10:34:26Z</time>
      </trkpt>
      <trkpt lat="48.43558" lon="6.91758">
        <ele>325</ele>
        <time>2016-07-05T10:36:26Z</time>
      </trkpt>
      <trkpt lat="48.43573" lon="6.91783">
        <ele>324</ele>
        <time>2016-07-05T10:38:26Z</time>
      </trkpt>
      <trkpt lat="48.43591" lon="6.9181">
        <ele>323</ele>
        <time>2016-07-05T10:40:26Z</time>
      </trkpt>
      <trkpt lat="48.43606" lon="6.9183">
        <ele>324</ele>
        <time>2016-07-05T10:42:26Z</time>
      </trkpt>
      <trkpt lat="48.43645" lon="6.91883">
        <ele>323</ele>
        <time>2016-07-05T10:44:26Z</time>
      </trkpt>
      <trkpt lat="48.43664" lon="6.91905">
        <ele>320</ele>
        <time>2016-07-05T10:46:26Z</time>
      </trkpt>
      <trkpt lat="48.43676" lon="6.91922">
        <ele>318</ele>
        <time>2016-07-05T10:48:26Z</time>
      </trkpt>
      <trkpt lat="48.4369" lon="6.91938">
        <ele>319</ele>
        <time>2016-07-05T10:50:26Z</time>
      </trkpt>
      <trkpt lat="48.43702" lon="6.9195">
        <ele>319</ele>
        <time>2016-07-05T10:52:26Z</time>
      </trkpt>
      <trkpt lat="48.43713" lon="6.91959">
        <ele>320</ele>
        <time>2016-07-05T10:54:26Z</time>
      </trkpt>
      <trkpt lat="48.43732" lon="6.91968">
        <ele>321</ele>
        <time>2016-07-05T10:56:26Z</time>
      </trkpt>
      <trkpt lat="48.43747" lon="6.91976">
        <ele>322</ele>
        <time>2016-07-05T10:58:26Z</time>
      </trkpt>
      <trkpt lat="48.43766" lon="6.91984">
        <ele>322</ele>
        <time>2016-07-05T11:00:26Z</time>
      </trkpt>
      <trkpt lat="48.43779" lon="6.91988">
        <ele>323</ele>
        <time>2016-07-05T11:02:26Z</time>
      </trkpt>
      <trkpt lat="48.43791" lon="6.9199">
        <ele>325</ele>
        <time>2016-07-05T11:04:26Z</time>
      </trkpt>
      <trkpt lat="48.43805" lon="6.91997">
        <ele>324</ele>
        <time>2016-07-05T11:06:26Z</time>
      </trkpt>
      <trkpt lat="48.43814" lon="6.92002">
        <ele>324</ele>
        <time>2016-07-05T11:08:26Z</time>
      </trkpt>
      <trkpt lat="48.43823" lon="6.92008">
        <ele>325</ele>
        <time>2016-07-05T11:10:26Z</time>
      </trkpt>
      <trkpt lat="48.43838" lon="6.92019">
        <ele>325</ele>
        <time>2016-07-05T11:12:26Z</time>
      </trkpt>
      <trkpt lat="48.43854" lon="6.92032">
        <ele>325</ele>
        <time>2016-07-05T11:14:26Z</time>
      </trkpt>
      <trkpt lat="48.43865" lon="6.92043">
        <ele>323</ele>
        <time>2016-07-05T11:16:26Z</time>
      </trkpt>
      <trkpt lat="48.43876" lon="6.92057">
        <ele>321</ele>
        <time>2016-07-05T11:18:26Z</time>
      </trkpt>
      <trkpt lat="48.43887" lon="6.92068">
        <ele>320</ele>
        <time>2016-07-05T11:20:26Z</time>
      </trkpt>
      <trkpt lat="48.43896" lon="6.92079">
        <ele>318</ele>
        <time>2016-07-05T11:22:26Z</time>
      </trkpt>
      <trkpt lat="48.43909" lon="6.92091">
        <ele>317</ele>
        <time>2016-07-05T11:24:26Z</time>
      </trkpt>
      <trkpt lat="48.43926" lon="6.92104">
        <ele>315</ele>
        <time>2016-07-05T11:26:26Z</time>
      </trkpt>
      <trkpt lat="48.43938" lon="6.92112">
        <ele>314</ele>
        <time>2016-07-05T11:28:26Z</time>
      </trkpt>
      <trkpt lat="48.43944" lon="6.92118">
        <ele>313</ele>
        <time>2016-07-05T11:30:26Z</time>
      </trkpt>
      <trkpt lat="48.43948" lon="6.92121">
        <ele>313</ele>
        <time>2016-07-05T11:32:26Z</time>
      </trkpt>
      <trkpt lat="48.4395" lon="6.92123">
        <ele>313</ele>
        <time>2016-07-05T11:34:26Z</time>
      </trkpt>
      <trkpt lat="48.43956" lon="6.92128">
        <ele>312</ele>
        <time>2016-07-05T11:36:26Z</time>
      </trkpt>
      <trkpt lat="48.43959" lon="6.92131">
        <ele>312</ele>
        <time>2016-07-05T11:38:26Z</time>
      </trkpt>
      <trkpt lat="48.43969" lon="6.92141">
        <ele>311</ele>
        <time>2016-07-05T11:40:26Z</time>
      </trkpt>
      <trkpt lat="48.43976" lon="6.92151">
        <ele>310</ele>
        <time>2016-07-05T11:42:26Z</time>
      </trkpt>
      <trkpt lat="48.4398" lon="6.92156">
        <ele>310</ele>
        <time>2016-07-05T11:44:26Z</time>
      </trkpt>
      <trkpt lat="48.4398" lon="6.92156">
        <ele>310</ele>
        <time>2016-07-05T11:46:26Z</time>
      </trkpt>
      <trkpt lat="48.43984" lon="6.92163">
        <ele>309</ele>
        <time>2016-07-05T11:48:26Z</time>
      </trkpt>
      <trkpt lat="48.43993" lon="6.92181">
        <ele>308</ele>
        <time>2016-07-05T11:50:26Z</time>
      </trkpt>
      <trkpt lat="48.44002" lon="6.92194">
        <ele>308</ele>
        <time>2016-07-05T11:52:26Z</time>
      </trkpt>
      <trkpt lat="48.44007" lon="6.92199">
        <ele>308</ele>
        <time>2016-07-05T11:54:26Z</time>
      </trkpt>
      <trkpt lat="48.44013" lon="6.92202">
        <ele>308</ele>
        <time>2016-07-05T11:56:26Z</time>
      </trkpt>
      <trkpt lat="48.4402" lon="6.92203">
        <ele>308</ele>
        <time>2016-07-05T11:58:26Z</time>
      </trkpt>
      <trkpt lat="48.44026" lon="6.92201">
        <ele>308</ele>
        <time>2016-07-05T12:00:26Z</time>
      </trkpt>
      <trkpt lat="48.44034" lon="6.92198">
        <ele>309</ele>
        <time>2016-07-05T12:02:26Z</time>
      </trkpt>
      <trkpt lat="48.44042" lon="6.92196">
        <ele>309</ele>
        <time>2016-07-05T12:04:26Z</time>
      </trkpt>
      <trkpt lat="48.44052" lon="6.92193">
        <ele>310</ele>
        <time>2016-07-05T12:06:26Z</time>
      </trkpt>
      <trkpt lat="48.44063" lon="6.9219">
        <ele>310</ele>
        <time>2016-07-05T12:08:26Z</time>
      </trkpt>
      <trkpt lat="48.44073" lon="6.92188">
        <ele>311</ele>
        <time>2016-07-05T12:10:26Z</time>
      </trkpt>
      <trkpt lat="48.44083" lon="6.92187">
        <ele>311</ele>
        <time>2016-07-05T12:12:26Z</time>
      </trkpt>
      <trkpt lat="48.44096" lon="6.92185">
        <ele>313</ele>
        <time>2016-07-05T12:14:26Z</time>
      </trkpt>
      <trkpt lat="48.44106" lon="6.92184">
        <ele>314</ele>
        <time>2016-07-05T12:16:26Z</time>
      </trkpt>
      <trkpt lat="48.44117" lon="6.92185">
        <ele>315</ele>
        <time>2016-07-05T12:18:26Z</time>
      </trkpt>
      <trkpt lat="48.44127" lon="6.92186">
        <ele>315</ele>
        <time>2016-07-05T12:20:26Z</time>
      </trkpt>
      <trkpt lat="48.44136" lon="6.92189">
        <ele>316</ele>
        <time>2016-07-05T12:22:26Z</time>
      </trkpt>
      <trkpt lat="48.44144" lon="6.92191">
        <ele>316</ele>
        <time>2016-07-05T12:24:26Z</time>
      </trkpt>
      <trkpt lat="48.44151" lon="6.92195">
        <ele>316</ele>
        <time>2016-07-05T12:26:26Z</time>
      </trkpt>
      <trkpt lat="48.44155" lon="6.92201">
        <ele>316</ele>
        <time>2016-07-05T12:28:26Z</time>
      </trkpt>
      <trkpt lat="48.44158" lon="6.9221">
        <ele>315</ele>
        <time>2016-07-05T12:30:26Z</time>
      </trkpt>
      <trkpt lat="48.44161" lon="6.92219">
        <ele>313</ele>
        <time>2016-07-05T12:32:26Z</time>
      </trkpt>
      <trkpt lat="48.44162" lon="6.92225">
        <ele>313</ele>
        <time>2016-07-05T12:34:26Z</time>
      </trkpt>
      <trkpt lat="48.44163" lon="6.92232">
        <ele>312</ele>
        <time>2016-07-05T12:36:26Z</time>
      </trkpt>
      <trkpt lat="48.44167" lon="6.92258">
        <ele>311</ele>
        <time>2016-07-05T12:38:26Z</time>
      </trkpt>
      <trkpt lat="48.44168" lon="6.9227">
        <ele>314</ele>
        <time>2016-07-05T12:40:26Z</time>
      </trkpt>
      <trkpt lat="48.44168" lon="6.9228">
        <ele>317</ele>
        <time>2016-07-05T12:42:26Z</time>
      </trkpt>
      <trkpt lat="48.44168" lon="6.9229">
        <ele>319</ele>
        <time>2016-07-05T12:44:26Z</time>
      </trkpt>
      <trkpt lat="48.44168" lon="6.9229">
        <ele>319</ele>
        <time>2016-07-05T12:46:26Z</time>
      </trkpt>
      <trkpt lat="48.44163" lon="6.9229">
        <ele>319</ele>
        <time>2016-07-05T12:48:26Z</time>
      </trkpt>
      <trkpt lat="48.44155" lon="6.92291">
        <ele>318</ele>
        <time>2016-07-05T12:50:26Z</time>
      </trkpt>
      <trkpt lat="48.44146" lon="6.92294">
        <ele>318</ele>
        <time>2016-07-05T12:52:26Z</time>
      </trkpt>
      <trkpt lat="48.44133" lon="6.923">
        <ele>317</ele>
        <time>2016-07-05T12:54:26Z</time>
      </trkpt>
      <trkpt lat="48.4412" lon="6.92308">
        <ele>317</ele>
        <time>2016-07-05T12:56:26Z</time>
      </trkpt>
      <trkpt lat="48.44103" lon="6.92324">
        <ele>317</ele>
        <time>2016-07-05T12:58:26Z</time>
      </trkpt>
      <trkpt lat="48.4409" lon="6.92339">
        <ele>317</ele>
        <time>2016-07-05T13:00:26Z</time>
      </trkpt>
      <trkpt lat="48.44077" lon="6.92354">
        <ele>316</ele>
        <time>2016-07-05T13:02:26Z</time>
      </trkpt>
      <trkpt lat="48.4407" lon="6.92363">
        <ele>316</ele>
        <time>2016-07-05T13:04:26Z</time>
      </trkpt>
      <trkpt lat="48.44064" lon="6.92377">
        <ele>316</ele>
        <time>2016-07-05T13:06:26Z</time>
      </trkpt>
      <trkpt lat="48.44061" lon="6.92392">
        <ele>317</ele>
        <time>2016-07-05T13:08:26Z</time>
      </trkpt>
      <trkpt lat="48.44058" lon="6.92408">
        <ele>318</ele>
        <time>2016-07-05T13:10:26Z</time>
      </trkpt>
      <trkpt lat="48.44058" lon="6.92427">
        <ele>318</ele>
        <time>2016-07-05T13:12:26Z</time>
      </trkpt>
      <trkpt lat="48.44058" lon="6.92446">
        <ele>318</ele>
        <time>2016-07-05T13:14:26Z</time>
      </trkpt>
      <trkpt lat="48.44059" lon="6.92461">
        <ele>318</ele>
        <time>2016-07-05T13:16:26Z</time>
      </trkpt>
      <trkpt lat="48.4406" lon="6.92473">
        <ele>318</ele>
        <time>2016-07-05T13:18:26Z</time>
      </trkpt>
      <trkpt lat="48.44061" lon="6.92482">
        <ele>318</ele>
        <time>2016-07-05T13:20:26Z</time>
      </trkpt>
      <trkpt lat="48.4406" lon="6.9249">
        <ele>318</ele>
        <time>2016-07-05T13:22:26Z</time>
      </trkpt>
      <trkpt lat="48.44061" lon="6.92499">
        <ele>318</ele>
        <time>2016-07-05T13:24:26Z</time>
      </trkpt>
      <trkpt lat="48.44061" lon="6.92499">
        <ele>318</ele>
        <time>2016-07-05T13:26:26Z</time>
      </trkpt>
      <trkpt lat="48.44064" lon="6.92505">
        <ele>318</ele>
        <time>2016-07-05T13:28:26Z</time>
      </trkpt>
      <trkpt lat="48.44066" lon="6.92511">
        <ele>318</ele>
        <time>2016-07-05T13:30:26Z</time>
      </trkpt>
      <trkpt lat="48.44072" lon="6.92533">
        <ele>317</ele>
        <time>2016-07-05T13:32:26Z</time>
      </trkpt>
      <trkpt lat="48.44082" lon="6.9256">
        <ele>315</ele>
        <time>2016-07-05T13:34:26Z</time>
      </trkpt>
      <trkpt lat="48.441" lon="6.92601">
        <ele>317</ele>
        <time>2016-07-05T13:36:26Z</time>
      </trkpt>
      <trkpt lat="48.44116" lon="6.92636">
        <ele>318</ele>
        <time>2016-07-05T13:38:26Z</time>
      </trkpt>
      <trkpt lat="48.44126" lon="6.92655">
        <ele>318</ele>
        <time>2016-07-05T13:40:26Z</time>
      </trkpt>
      <trkpt lat="48.44135" lon="6.9267">
        <ele>317</ele>
        <time>2016-07-05T13:42:26Z</time>
      </trkpt>
      <trkpt lat="48.44145" lon="6.92684">
        <ele>317</ele>
        <time>2016-07-05T13:44:26Z</time>
      </trkpt>
      <trkpt lat="48.44163" lon="6.92705">
        <ele>317</ele>
        <time>2016-07-05T13:46:26Z</time>
      </trkpt>
      <trkpt lat="48.44175" lon="6.9272">
        <ele>318</ele>
        <time>2016-07-05T13:48:26Z</time>
      </trkpt>
      <trkpt lat="48.44188" lon="6.92738">
        <ele>321</ele>
        <time>2016-07-05T13:50:26Z</time>
      </trkpt>
      <trkpt lat="48.44202" lon="6.92757">
        <ele>323</ele>
        <time>2016-07-05T13:52:26Z</time>
      </trkpt>
      <trkpt lat="48.44221" lon="6.92788">
        <ele>324</ele>
        <time>2016-07-05T13:54:26Z</time>
      </trkpt>
      <trkpt lat="48.4425" lon="6.92835">
        <ele>322</ele>
        <time>2016-07-05T13:56:26Z</time>
      </trkpt>
      <trkpt lat="48.4426" lon="6.92848">
        <ele>323</ele>
        <time>2016-07-05T13:58:26Z</time>
      </trkpt>
      <trkpt lat="48.4427" lon="6.92861">
        <ele>324</ele>
        <time>2016-07-05T14:00:26Z</time>
      </trkpt>
      <trkpt lat="48.44284" lon="6.92874">
        <ele>326</ele>
        <time>2016-07-05T14:02:26Z</time>
      </trkpt>
      <trkpt lat="48.44309" lon="6.92899">
        <ele>326</ele>
        <time>2016-07-05T14:04:26Z</time>
      </trkpt>
      <trkpt lat="48.44337" lon="6.92926">
        <ele>325</ele>
        <time>2016-07-05T14:06:26Z</time>
      </trkpt>
      <trkpt lat="48.44347" lon="6.92937">
        <ele>326</ele>
        <time>2016-07-05T14:08:26Z</time>
      </trkpt>
      <trkpt lat="48.44357" lon="6.92945">
        <ele>326</ele>
        <time>2016-07-05T14:10:26Z</time>
      </trkpt>
      <trkpt lat="48.44368" lon="6.92954">
        <ele>326</ele>
        <time>2016-07-05T14:12:26Z</time>
      </trkpt>
      <trkpt lat="48.44382" lon="6.92964">
        <ele>325</ele>
        <time>2016-07-05T14:14:26Z</time>
      </trkpt>
      <trkpt lat="48.44392" lon="6.9297">
        <ele>325</ele>
        <time>2016-07-05T14:16:26Z</time>
      </trkpt>
      <trkpt lat="48.44392" lon="6.9297">
        <ele>325</ele>
        <time>2016-07-05T14:18:26Z</time>
      </trkpt>
      <trkpt lat="48.44385" lon="6.92987">
        <ele>319</ele>
        <time>2016-07-05T14:20:26Z</time>
      </trkpt>
      <trkpt lat="48.4434" lon="6.93076">
        <ele>306</ele>
        <time>2016-07-05T14:22:26Z</time>
      </trkpt>
      <trkpt lat="48.44286" lon="6.93183">
        <ele>306</ele>
        <time>2016-07-05T14:24:26Z</time>
      </trkpt>
      <trkpt lat="48.44256" lon="6.93243">
        <ele>306</ele>
        <time>2016-07-05T14:26:26Z</time>
      </trkpt>
      <trkpt lat="48.44238" lon="6.93301">
        <ele>312</ele>
        <time>2016-07-05T14:28:26Z</time>
      </trkpt>
      <trkpt lat="48.44256" lon="6.93243">
        <ele>306</ele>
        <time>2016-07-05T14:30:26Z</time>
      </trkpt>
      <trkpt lat="48.44286" lon="6.93183">
        <ele>306</ele>
        <time>2016-07-05T14:32:26Z</time>
      </trkpt>
      <trkpt lat="48.4434" lon="6.93076">
        <ele>306</ele>
        <time>2016-07-05T14:34:26Z</time>
      </trkpt>
      <trkpt lat="48.44385" lon="6.92987">
        <ele>319</ele>
        <time>2016-07-05T14:36:26Z</time>
      </trkpt>
      <trkpt lat="48.44392" lon="6.9297">
        <ele>325</ele>
        <time>2016-07-05T14:38:26Z</time>
      </trkpt>
      <trkpt lat="48.44392" lon="6.9297">
        <ele>325</ele>
        <time>2016-07-05T14:40:26Z</time>
      </trkpt>
      <trkpt lat="48.44401" lon="6.92975">
        <ele>324</ele>
        <time>2016-07-05T14:42:26Z</time>
      </trkpt>
      <trkpt lat="48.44454" lon="6.93003">
        <ele>323</ele>
        <time>2016-07-05T14:44:26Z</time>
      </trkpt>
      <trkpt lat="48.44491" lon="6.9302">
        <ele>325</ele>
        <time>2016-07-05T14:46:26Z</time>
      </trkpt>
      <trkpt lat="48.44516" lon="6.93031">
        <ele>326</ele>
        <time>2016-07-05T14:48:26Z</time>
      </trkpt>
      <trkpt lat="48.44538" lon="6.9304">
        <ele>327</ele>
        <time>2016-07-05T14:50:26Z</time>
      </trkpt>
      <trkpt lat="48.44562" lon="6.93055">
        <ele>326</ele>
        <time>2016-07-05T14:52:26Z</time>
      </trkpt>
      <trkpt lat="48.44594" lon="6.93077">
        <ele>325</ele>
        <time>2016-07-05T14:54:26Z</time>
      </trkpt>
      <trkpt lat="48.44704" lon="6.93159">
        <ele>325</ele>
        <time>2016-07-05T14:56:26Z</time>
      </trkpt>
      <trkpt lat="48.44759" lon="6.93203">
        <ele>328</ele>
        <time>2016-07-05T14:58:26Z</time>
      </trkpt>
      <trkpt lat="48.44768" lon="6.93208">
        <ele>329</ele>
        <time>2016-07-05T15:00:26Z</time>
      </trkpt>
      <trkpt lat="48.44768" lon="6.93208">
        <ele>329</ele>
        <time>2016-07-05T15:02:26Z</time>
      </trkpt>
      <trkpt lat="48.44769" lon="6.93213">
        <ele>327</ele>
        <time>2016-07-05T15:04:26Z</time>
      </trkpt>
      <trkpt lat="48.44775" lon="6.9322">
        <ele>326</ele>
        <time>2016-07-05T15:06:26Z</time>
      </trkpt>
      <trkpt lat="48.44815" lon="6.93252">
        <ele>320</ele>
        <time>2016-07-05T15:08:26Z</time>
      </trkpt>
      <trkpt lat="48.44822" lon="6.93259">
        <ele>320</ele>
        <time>2016-07-05T15:10:26Z</time>
      </trkpt>
      <trkpt lat="48.44829" lon="6.93268">
        <ele>319</ele>
        <time>2016-07-05T15:12:26Z</time>
      </trkpt>
      <trkpt lat="48.44846" lon="6.93301">
        <ele>316</ele>
        <time>2016-07-05T15:14:26Z</time>
      </trkpt>
      <trkpt lat="48.44849" lon="6.93306">
        <ele>316</ele>
        <time>2016-07-05T15:16:26Z</time>
      </trkpt>
      <trkpt lat="48.44851" lon="6.93309">
        <ele>316</ele>
        <time>2016-07-05T15:18:26Z</time>
      </trkpt>
      <trkpt lat="48.44857" lon="6.93317">
        <ele>315</ele>
        <time>2016-07-05T15:20:26Z</time>
      </trkpt>
      <trkpt lat="48.44882" lon="6.93338">
        <ele>313</ele>
        <time>2016-07-05T15:22:26Z</time>
      </trkpt>
      <trkpt lat="48.44968" lon="6.93409">
        <ele>317</ele>
        <time>2016-07-05T15:24:26Z</time>
      </trkpt>
      <trkpt lat="48.44976" lon="6.93417">
        <ele>316</ele>
        <time>2016-07-05T15:26:26Z</time>
      </trkpt>
      <trkpt lat="48.44976" lon="6.93417">
        <ele>316</ele>
        <time>2016-07-05T15:28:26Z</time>
      </trkpt>
      <trkpt lat="48.44975" lon="6.93419">
        <ele>316</ele>
        <time>2016-07-05T15:30:26Z</time>
      </trkpt>
      <trkpt lat="48.44975" lon="6.93422">
        <ele>316</ele>
        <time>2016-07-05T15:32:26Z</time>
      </trkpt>
      <trkpt lat="48.44975" lon="6.93425">
        <ele>315</ele>
        <time>2016-07-05T15:34:26Z</time>
      </trkpt>
      <trkpt lat="48.44974" lon="6.93429">
        <ele>315</ele>
        <time>2016-07-05T15:36:26Z</time>
      </trkpt>
      <trkpt lat="48.44974" lon="6.93437">
        <ele>314</ele>
        <time>2016-07-05T15:38:26Z</time>
      </trkpt>
      <trkpt lat="48.44975" lon="6.93444">
        <ele>313</ele>
        <time>2016-07-05T15:40:26Z</time>
      </trkpt>
      <trkpt lat="48.44975" lon="6.93449">
        <ele>313</ele>
        <time>2016-07-05T15:42:26Z</time>
      </trkpt>
      <trkpt lat="48.44976" lon="6.93517">
        <ele>308</ele>
        <time>2016-07-05T15:44:26Z</time>
      </trkpt>
      <trkpt lat="48.44977" lon="6.93534">
        <ele>308</ele>
        <time>2016-07-05T15:46:26Z</time>
      </trkpt>
      <trkpt lat="48.44977" lon="6.93544">
        <ele>308</ele>
        <time>2016-07-05T15:48:26Z</time>
      </trkpt>
      <trkpt lat="48.44978" lon="6.93556">
        <ele>308</ele>
        <time>2016-07-05T15:50:26Z</time>
      </trkpt>
      <trkpt lat="48.44981" lon="6.9357">
        <ele>308</ele>
        <time>2016-07-05T15:52:26Z</time>
      </trkpt>
      <trkpt lat="48.44985" lon="6.93582">
        <ele>308</ele>
        <time>2016-07-05T15:54:26Z</time>
      </trkpt>
      <trkpt lat="48.45009" lon="6.93623">
        <ele>308</ele>
        <time>2016-07-05T15:56:26Z</time>
      </trkpt>
      <trkpt lat="48.45029" lon="6.93653">
        <ele>307</ele>
        <time>2016-07-05T15:58:26Z</time>
      </trkpt>
      <trkpt lat="48.45033" lon="6.93661">
        <ele>307</ele>
        <time>2016-07-05T16:00:26Z</time>
      </trkpt>
      <trkpt lat="48.45038" lon="6.93666">
        <ele>307</ele>
        <time>2016-07-05T16:02:26Z</time>
      </trkpt>
      <trkpt lat="48.4504" lon="6.93668">
        <ele>307</ele>
        <time>2016-07-05T16:04:26Z</time>
      </trkpt>
      <trkpt lat="48.45049" lon="6.93674">
        <ele>307</ele>
        <time>2016-07-05T16:06:26Z</time>
      </trkpt>
      <trkpt lat="48.45059" lon="6.93678">
        <ele>307</ele>
        <time>2016-07-05T16:08:26Z</time>
      </trkpt>
      <trkpt lat="48.45068" lon="6.93681">
        <ele>307</ele>
        <time>2016-07-05T16:10:26Z</time>
      </trkpt>
      <trkpt lat="48.4508" lon="6.93684">
        <ele>307</ele>
        <time>2016-07-05T16:12:26Z</time>
      </trkpt>
      <trkpt lat="48.45092" lon="6.93685">
        <ele>308</ele>
        <time>2016-07-05T16:14:26Z</time>
      </trkpt>
      <trkpt lat="48.45104" lon="6.93687">
        <ele>309</ele>
        <time>2016-07-05T16:16:26Z</time>
      </trkpt>
      <trkpt lat="48.45114" lon="6.9369">
        <ele>311</ele>
        <time>2016-07-05T16:18:26Z</time>
      </trkpt>
      <trkpt lat="48.45124" lon="6.93691">
        <ele>312</ele>
        <time>2016-07-05T16:20:26Z</time>
      </trkpt>
      <trkpt lat="48.45133" lon="6.93698">
        <ele>313</ele>
        <time>2016-07-05T16:22:26Z</time>
      </trkpt>
      <trkpt lat="48.45141" lon="6.93708">
        <ele>313</ele>
        <time>2016-07-05T16:24:26Z</time>
      </trkpt>
      <trkpt lat="48.45146" lon="6.93717">
        <ele>314</ele>
        <time>2016-07-05T16:26:26Z</time>
      </trkpt>
      <trkpt lat="48.4515" lon="6.93727">
        <ele>314</ele>
        <time>2016-07-05T16:28:26Z</time>
      </trkpt>
      <trkpt lat="48.45153" lon="6.93741">
        <ele>313</ele>
        <time>2016-07-05T16:30:26Z</time>
      </trkpt>
      <trkpt lat="48.45156" lon="6.93754">
        <ele>313</ele>
        <time>2016-07-05T16:32:26Z</time>
      </trkpt>
      <trkpt lat="48.45157" lon="6.9377">
        <ele>312</ele>
        <time>2016-07-05T16:34:26Z</time>
      </trkpt>
      <trkpt lat="48.45157" lon="6.93802">
        <ele>310</ele>
        <time>2016-07-05T16:36:26Z</time>
      </trkpt>
      <trkpt lat="48.45154" lon="6.93858">
        <ele>308</ele>
        <time>2016-07-05T16:38:26Z</time>
      </trkpt>
      <trkpt lat="48.45154" lon="6.93871">
        <ele>308</ele>
        <time>2016-07-05T16:40:26Z</time>
      </trkpt>
      <trkpt lat="48.45154" lon="6.93884">
        <ele>308</ele>
        <time>2016-07-05T16:42:26Z</time>
      </trkpt>
      <trkpt lat="48.45154" lon="6.93893">
        <ele>308</ele>
        <time>2016-07-05T16:44:26Z</time>
      </trkpt>
      <trkpt lat="48.45158" lon="6.93908">
        <ele>309</ele>
        <time>2016-07-05T16:46:26Z</time>
      </trkpt>
      <trkpt lat="48.45162" lon="6.93925">
        <ele>309</ele>
        <time>2016-07-05T16:48:26Z</time>
      </trkpt>
      <trkpt lat="48.45167" lon="6.9394">
        <ele>309</ele>
        <time>2016-07-05T16:50:26Z</time>
      </trkpt>
      <trkpt lat="48.45175" lon="6.93958">
        <ele>309</ele>
        <time>2016-07-05T16:52:26Z</time>
      </trkpt>
      <trkpt lat="48.45187" lon="6.93986">
        <ele>310</ele>
        <time>2016-07-05T16:54:26Z</time>
      </trkpt>
      <trkpt lat="48.45191" lon="6.93995">
        <ele>310</ele>
        <time>2016-07-05T16:56:26Z</time>
      </trkpt>
      <trkpt lat="48.45196" lon="6.94004">
        <ele>310</ele>
        <time>2016-07-05T16:58:26Z</time>
      </trkpt>
      <trkpt lat="48.45199" lon="6.94014">
        <ele>310</ele>
        <time>2016-07-05T17:00:26Z</time>
      </trkpt>
      <trkpt lat="48.45202" lon="6.94024">
        <ele>309</ele>
        <time>2016-07-05T17:02:26Z</time>
      </trkpt>
      <trkpt lat="48.45205" lon="6.94035">
        <ele>309</ele>
        <time>2016-07-05T17:04:26Z</time>
      </trkpt>
      <trkpt lat="48.45209" lon="6.9405">
        <ele>309</ele>
        <time>2016-07-05T17:06:26Z</time>
      </trkpt>
      <trkpt lat="48.45211" lon="6.94059">
        <ele>309</ele>
        <time>2016-07-05T17:08:26Z</time>
      </trkpt>
      <trkpt lat="48.45212" lon="6.9407">
        <ele>309</ele>
        <time>2016-07-05T17:10:26Z</time>
      </trkpt>
      <trkpt lat="48.45215" lon="6.9408">
        <ele>309</ele>
        <time>2016-07-05T17:12:26Z</time>
      </trkpt>
      <trkpt lat="48.45217" lon="6.94089">
        <ele>309</ele>
        <time>2016-07-05T17:14:26Z</time>
      </trkpt>
      <trkpt lat="48.4522" lon="6.94094">
        <ele>309</ele>
        <time>2016-07-05T17:16:26Z</time>
      </trkpt>
      <trkpt lat="48.45226" lon="6.94102">
        <ele>309</ele>
        <time>2016-07-05T17:18:26Z</time>
      </trkpt>
      <trkpt lat="48.45226" lon="6.94102">
        <ele>309</ele>
        <time>2016-07-05T17:20:26Z</time>
      </trkpt>
      <trkpt lat="48.45215" lon="6.94113">
        <ele>309</ele>
        <time>2016-07-05T17:22:26Z</time>
      </trkpt>
      <trkpt lat="48.45211" lon="6.94118">
        <ele>309</ele>
        <time>2016-07-05T17:24:26Z</time>
      </trkpt>
      <trkpt lat="48.45207" lon="6.94125">
        <ele>309</ele>
        <time>2016-07-05T17:26:26Z</time>
      </trkpt>
      <trkpt lat="48.45207" lon="6.94125">
        <ele>309</ele>
        <time>2016-07-05T17:28:26Z</time>
      </trkpt>
      <trkpt lat="48.45214" lon="6.94134">
        <ele>308</ele>
        <time>2016-07-05T17:30:26Z</time>
      </trkpt>
      <trkpt lat="48.45223" lon="6.94152">
        <ele>308</ele>
        <time>2016-07-05T17:32:26Z</time>
      </trkpt>
      <trkpt lat="48.45226" lon="6.94164">
        <ele>308</ele>
        <time>2016-07-05T17:34:26Z</time>
      </trkpt>
      <trkpt lat="48.45224" lon="6.94186">
        <ele>309</ele>
        <time>2016-07-05T17:36:26Z</time>
      </trkpt>
      <trkpt lat="48.45218" lon="6.94212">
        <ele>309</ele>
        <time>2016-07-05T17:38:26Z</time>
      </trkpt>
      <trkpt lat="48.45213" lon="6.94239">
        <ele>310</ele>
        <time>2016-07-05T17:40:26Z</time>
      </trkpt>
      <trkpt lat="48.45212" lon="6.94247">
        <ele>310</ele>
        <time>2016-07-05T17:42:26Z</time>
      </trkpt>
      <trkpt lat="48.45212" lon="6.94253">
        <ele>310</ele>
        <time>2016-07-05T17:44:26Z</time>
      </trkpt>
      <trkpt lat="48.45214" lon="6.94264">
        <ele>310</ele>
        <time>2016-07-05T17:46:26Z</time>
      </trkpt>
      <trkpt lat="48.45218" lon="6.94279">
        <ele>310</ele>
        <time>2016-07-05T17:48:26Z</time>
      </trkpt>
      <trkpt lat="48.45238" lon="6.94316">
        <ele>311</ele>
        <time>2016-07-05T17:50:26Z</time>
      </trkpt>
      <trkpt lat="48.45259" lon="6.94359">
        <ele>310</ele>
        <time>2016-07-05T17:52:26Z</time>
      </trkpt>
      <trkpt lat="48.4528" lon="6.94409">
        <ele>309</ele>
        <time>2016-07-05T17:54:26Z</time>
      </trkpt>
      <trkpt lat="48.45292" lon="6.94435">
        <ele>309</ele>
        <time>2016-07-05T17:56:26Z</time>
      </trkpt>
      <trkpt lat="48.45296" lon="6.94449">
        <ele>309</ele>
        <time>2016-07-05T17:58:26Z</time>
      </trkpt>
      <trkpt lat="48.45296" lon="6.94449">
        <ele>309</ele>
        <time>2016-07-05T18:00:26Z</time>
      </trkpt>
      <trkpt lat="48.45291" lon="6.94452">
        <ele>310</ele>
        <time>2016-07-05T18:02:26Z</time>
      </trkpt>
      <trkpt lat="48.45291" lon="6.94452">
        <ele>310</ele>
        <time>2016-07-05T18:04:26Z</time>
      </trkpt>
      <trkpt lat="48.45294" lon="6.94457">
        <ele>310</ele>
        <time>2016-07-05T18:06:26Z</time>
      </trkpt>
      <trkpt lat="48.45308" lon="6.94481">
        <ele>310</ele>
        <time>2016-07-05T18:08:26Z</time>
      </trkpt>
      <trkpt lat="48.45329" lon="6.94522">
        <ele>310</ele>
        <time>2016-07-05T18:10:26Z</time>
      </trkpt>
      <trkpt lat="48.45352" lon="6.94565">
        <ele>312</ele>
        <time>2016-07-05T18:12:26Z</time>
      </trkpt>
      <trkpt lat="48.45365" lon="6.94585">
        <ele>312</ele>
        <time>2016-07-05T18:14:26Z</time>
      </trkpt>
      <trkpt lat="48.45378" lon="6.94603">
        <ele>313</ele>
        <time>2016-07-05T18:16:26Z</time>
      </trkpt>
      <trkpt lat="48.45398" lon="6.94628">
        <ele>313</ele>
        <time>2016-07-05T18:18:26Z</time>
      </trkpt>
      <trkpt lat="48.45403" lon="6.94635">
        <ele>313</ele>
        <time>2016-07-05T18:20:26Z</time>
      </trkpt>
      <trkpt lat="48.45422" lon="6.94659">
        <ele>313</ele>
        <time>2016-07-05T18:22:26Z</time>
      </trkpt>
      <trkpt lat="48.45447" lon="6.94692">
        <ele>313</ele>
        <time>2016-07-05T18:24:26Z</time>
      </trkpt>
      <trkpt lat="48.45478" lon="6.94731">
        <ele>313</ele>
        <time>2016-07-05T18:26:26Z</time>
      </trkpt>
      <trkpt lat="48.45486" lon="6.94742">
        <ele>313</ele>
        <time>2016-07-05T18:28:26Z</time>
      </trkpt>
      <trkpt lat="48.45488" lon="6.94744">
        <ele>313</ele>
        <time>2016-07-05T18:30:26Z</time>
      </trkpt>
      <trkpt lat="48.45488" lon="6.94744">
        <ele>313</ele>
        <time>2016-07-05T18:32:26Z</time>
      </trkpt>
      <trkpt lat="48.45515" lon="6.94722">
        <ele>312</ele>
        <time>2016-07-05T18:34:26Z</time>
      </trkpt>
      <trkpt lat="48.45517" lon="6.94721">
        <ele>312</ele>
        <time>2016-07-05T18:36:26Z</time>
      </trkpt>
      <trkpt lat="48.45519" lon="6.9472">
        <ele>312</ele>
        <time>2016-07-05T18:38:26Z</time>
      </trkpt>
      <trkpt lat="48.45521" lon="6.9472">
        <ele>312</ele>
        <time>2016-07-05T18:40:26Z</time>
      </trkpt>
      <trkpt lat="48.45529" lon="6.94726">
        <ele>312</ele>
        <time>2016-07-05T18:42:26Z</time>
      </trkpt>
      <trkpt lat="48.45551" lon="6.94742">
        <ele>313</ele>
        <time>2016-07-05T18:44:26Z</time>
      </trkpt>
      <trkpt lat="48.4557" lon="6.94758">
        <ele>313</ele>
        <time>2016-07-05T18:46:26Z</time>
      </trkpt>
      <trkpt lat="48.4558" lon="6.94772">
        <ele>313</ele>
        <time>2016-07-05T18:48:26Z</time>
      </trkpt>
      <trkpt lat="48.45597" lon="6.94803">
        <ele>313</ele>
        <time>2016-07-05T18:50:26Z</time>
      </trkpt>
      <trkpt lat="48.45615" lon="6.94837">
        <ele>313</ele>
        <time>2016-07-05T18:52:26Z</time>
      </trkpt>
      <trkpt lat="48.45618" lon="6.94842">
        <ele>313</ele>
        <time>2016-07-05T18:54:26Z</time>
      </trkpt>
      <trkpt lat="48.4562" lon="6.94848">
        <ele>313</ele>
        <time>2016-07-05T18:56:26Z</time>
      </trkpt>
      <trkpt lat="48.45622" lon="6.94854">
        <ele>313</ele>
        <time>2016-07-05T18:58:26Z</time>
      </trkpt>
      <trkpt lat="48.4564" lon="6.94896">
        <ele>313</ele>
        <time>2016-07-05T19:00:26Z</time>
      </trkpt>
      <trkpt lat="48.45646" lon="6.94909">
        <ele>312</ele>
        <time>2016-07-05T19:02:26Z</time>
      </trkpt>
      <trkpt lat="48.45646" lon="6.94909">
        <ele>312</ele>
        <time>2016-07-05T19:04:26Z</time>
      </trkpt>
      <trkpt lat="48.45652" lon="6.94919">
        <ele>312</ele>
        <time>2016-07-05T19:06:26Z</time>
      </trkpt>
      <trkpt lat="48.45667" lon="6.9494">
        <ele>313</ele>
        <time>2016-07-05T19:08:26Z</time>
      </trkpt>
      <trkpt lat="48.45682" lon="6.94959">
        <ele>313</ele>
        <time>2016-07-05T19:10:26Z</time>
      </trkpt>
      <trkpt lat="48.45707" lon="6.94992">
        <ele>314</ele>
        <time>2016-07-05T19:12:26Z</time>
      </trkpt>
      <trkpt lat="48.45738" lon="6.95035">
        <ele>315</ele>
        <time>2016-07-05T19:14:26Z</time>
      </trkpt>
      <trkpt lat="48.45755" lon="6.95062">
        <ele>315</ele>
        <time>2016-07-05T19:16:26Z</time>
      </trkpt>
      <trkpt lat="48.45764" lon="6.95076">
        <ele>315</ele>
        <time>2016-07-05T19:18:26Z</time>
      </trkpt>
      <trkpt lat="48.45768" lon="6.95086">
        <ele>315</ele>
        <time>2016-07-05T19:20:26Z</time>
      </trkpt>
      <trkpt lat="48.45772" lon="6.95099">
        <ele>316</ele>
        <time>2016-07-05T19:22:26Z</time>
      </trkpt>
      <trkpt lat="48.45777" lon="6.95121">
        <ele>317</ele>
        <time>2016-07-05T19:24:26Z</time>
      </trkpt>
      <trkpt lat="48.45787" lon="6.95145">
        <ele>318</ele>
        <time>2016-07-05T19:26:26Z</time>
      </trkpt>
      <trkpt lat="48.45801" lon="6.95188">
        <ele>319</ele>
        <time>2016-07-05T19:28:26Z</time>
      </trkpt>
      <trkpt lat="48.45821" lon="6.95245">
        <ele>320</ele>
        <time>2016-07-05T19:30:26Z</time>
      </trkpt>
      <trkpt lat="48.4584" lon="6.95299">
        <ele>321</ele>
        <time>2016-07-05T19:32:26Z</time>
      </trkpt>
      <trkpt lat="48.45852" lon="6.95331">
        <ele>321</ele>
        <time>2016-07-05T19:34:26Z</time>
      </trkpt>
      <trkpt lat="48.45862" lon="6.95362">
        <ele>322</ele>
        <time>2016-07-05T19:36:26Z</time>
      </trkpt>
      <trkpt lat="48.45868" lon="6.95377">
        <ele>322</ele>
        <time>2016-07-05T19:38:26Z</time>
      </trkpt>
      <trkpt lat="48.45882" lon="6.95397">
        <ele>323</ele>
        <time>2016-07-05T19:40:26Z</time>
      </trkpt>
      <trkpt lat="48.45914" lon="6.95449">
        <ele>323</ele>
        <time>2016-07-05T19:42:26Z</time>
      </trkpt>
      <trkpt lat="48.45942" lon="6.95495">
        <ele>322</ele>
        <time>2016-07-05T19:44:26Z</time>
      </trkpt>
      <trkpt lat="48.45959" lon="6.95516">
        <ele>322</ele>
        <time>2016-07-05T19:46:26Z</time>
      </trkpt>
      <trkpt lat="48.45959" lon="6.95516">
        <ele>322</ele>
        <time>2016-07-05T19:48:26Z</time>
      </trkpt>
      <trkpt lat="48.4595" lon="6.95533">
        <ele>323</ele>
        <time>2016-07-05T19:50:26Z</time>
      </trkpt>
      <trkpt lat="48.45946" lon="6.95545">
        <ele>323</ele>
        <time>2016-07-05T19:52:26Z</time>
      </trkpt>
      <trkpt lat="48.45943" lon="6.95553">
        <ele>323</ele>
        <time>2016-07-05T19:54:26Z</time>
      </trkpt>
      <trkpt lat="48.45937" lon="6.9557">
        <ele>323</ele>
        <time>2016-07-05T19:56:26Z</time>
      </trkpt>
      <trkpt lat="48.45937" lon="6.9557">
        <ele>323</ele>
        <time>2016-07-05T19:58:26Z</time>
      </trkpt>
      <trkpt lat="48.45925" lon="6.95576">
        <ele>323</ele>
        <time>2016-07-05T20:00:26Z</time>
      </trkpt>
      <trkpt lat="48.45925" lon="6.95576">
        <ele>323</ele>
        <time>2016-07-05T20:02:26Z</time>
      </trkpt>
      <trkpt lat="48.45927" lon="6.95589">
        <ele>323</ele>
        <time>2016-07-05T20:04:26Z</time>
      </trkpt>
      <trkpt lat="48.45932" lon="6.9561">
        <ele>324</ele>
        <time>2016-07-05T20:06:26Z</time>
      </trkpt>
      <trkpt lat="48.45937" lon="6.9563">
        <ele>325</ele>
        <time>2016-07-05T20:08:26Z</time>
      </trkpt>
      <trkpt lat="48.45943" lon="6.95654">
        <ele>325</ele>
        <time>2016-07-05T20:10:26Z</time>
      </trkpt>
      <trkpt lat="48.45945" lon="6.95668">
        <ele>326</ele>
        <time>2016-07-05T20:12:26Z</time>
      </trkpt>
      <trkpt lat="48.45948" lon="6.95695">
        <ele>326</ele>
        <time>2016-07-05T20:14:26Z</time>
      </trkpt>
      <trkpt lat="48.45952" lon="6.95724">
        <ele>326</ele>
        <time>2016-07-05T20:16:26Z</time>
      </trkpt>
      <trkpt lat="48.45958" lon="6.95755">
        <ele>327</ele>
        <time>2016-07-05T20:18:26Z</time>
      </trkpt>
      <trkpt lat="48.45965" lon="6.95787">
        <ele>328</ele>
        <time>2016-07-05T20:20:26Z</time>
      </trkpt>
      <trkpt lat="48.45968" lon="6.95805">
        <ele>329</ele>
        <time>2016-07-05T20:22:26Z</time>
      </trkpt>
      <trkpt lat="48.45967" lon="6.95815">
        <ele>329</ele>
        <time>2016-07-05T20:24:26Z</time>
      </trkpt>
      <trkpt lat="48.45964" lon="6.9583">
        <ele>330</ele>
        <time>2016-07-05T20:26:26Z</time>
      </trkpt>
      <trkpt lat="48.4596" lon="6.95841">
        <ele>330</ele>
        <time>2016-07-05T20:28:26Z</time>
      </trkpt>
      <trkpt lat="48.45948" lon="6.95865">
        <ele>331</ele>
        <time>2016-07-05T20:30:26Z</time>
      </trkpt>
      <trkpt lat="48.45938" lon="6.95882">
        <ele>331</ele>
        <time>2016-07-05T20:32:26Z</time>
      </trkpt>
      <trkpt lat="48.45934" lon="6.95896">
        <ele>332</ele>
        <time>2016-07-05T20:34:26Z</time>
      </trkpt>
      <trkpt lat="48.45932" lon="6.95906">
        <ele>332</ele>
        <time>2016-07-05T20:36:26Z</time>
      </trkpt>
      <trkpt lat="48.4593" lon="6.95934">
        <ele>333</ele>
        <time>2016-07-05T20:38:26Z</time>
      </trkpt>
      <trkpt lat="48.45928" lon="6.95963">
        <ele>334</ele>
        <time>2016-07-05T20:40:26Z</time>
      </trkpt>
      <trkpt lat="48.45924" lon="6.95983">
        <ele>335</ele>
        <time>2016-07-05T20:42:26Z</time>
      </trkpt>
      <trkpt lat="48.4592" lon="6.95998">
        <ele>335</ele>
        <time>2016-07-05T20:44:26Z</time>
      </trkpt>
      <trkpt lat="48.4592" lon="6.95998">
        <ele>335</ele>
        <time>2016-07-05T20:46:26Z</time>
      </trkpt>
      <trkpt lat="48.45922" lon="6.96008">
        <ele>335</ele>
        <time>2016-07-05T20:48:26Z</time>
      </trkpt>
      <trkpt lat="48.45931" lon="6.96037">
        <ele>335</ele>
        <time>2016-07-05T20:50:26Z</time>
      </trkpt>
      <trkpt lat="48.45941" lon="6.96067">
        <ele>335</ele>
        <time>2016-07-05T20:52:26Z</time>
      </trkpt>
      <trkpt lat="48.4595" lon="6.96093">
        <ele>336</ele>
        <time>2016-07-05T20:54:26Z</time>
      </trkpt>
      <trkpt lat="48.45981" lon="6.96159">
        <ele>338</ele>
        <time>2016-07-05T20:56:26Z</time>
      </trkpt>
      <trkpt lat="48.45996" lon="6.96189">
        <ele>339</ele>
        <time>2016-07-05T20:58:26Z</time>
      </trkpt>
      <trkpt lat="48.46013" lon="6.96214">
        <ele>341</ele>
        <time>2016-07-05T21:00:26Z</time>
      </trkpt>
      <trkpt lat="48.46028" lon="6.96237">
        <ele>342</ele>
        <time>2016-07-05T21:02:26Z</time>
      </trkpt>
      <trkpt lat="48.46046" lon="6.96261">
        <ele>343</ele>
        <time>2016-07-05T21:04:26Z</time>
      </trkpt>
      <trkpt lat="48.46066" lon="6.96296">
        <ele>344</ele>
        <time>2016-07-05T21:06:26Z</time>
      </trkpt>
      <trkpt lat="48.46074" lon="6.9631">
        <ele>345</ele>
        <time>2016-07-05T21:08:26Z</time>
      </trkpt>
      <trkpt lat="48.4608" lon="6.96322">
        <ele>346</ele>
        <time>2016-07-05T21:10:26Z</time>
      </trkpt>
      <trkpt lat="48.46091" lon="6.96341">
        <ele>346</ele>
        <time>2016-07-05T21:12:26Z</time>
      </trkpt>
      <trkpt lat="48.46098" lon="6.96365">
        <ele>347</ele>
        <time>2016-07-05T21:14:26Z</time>
      </trkpt>
      <trkpt lat="48.46108" lon="6.96384">
        <ele>347</ele>
        <time>2016-07-05T21:16:26Z</time>
      </trkpt>
      <trkpt lat="48.46119" lon="6.96413">
        <ele>347</ele>
        <time>2016-07-05T21:18:26Z</time>
      </trkpt>
      <trkpt lat="48.46133" lon="6.96444">
        <ele>347</ele>
        <time>2016-07-05T21:20:26Z</time>
      </trkpt>
      <trkpt lat="48.46147" lon="6.96472">
        <ele>349</ele>
        <time>2016-07-05T21:22:26Z</time>
      </trkpt>
      <trkpt lat="48.46162" lon="6.96497">
        <ele>350</ele>
        <time>2016-07-05T21:24:26Z</time>
      </trkpt>
      <trkpt lat="48.46176" lon="6.96518">
        <ele>351</ele>
        <time>2016-07-05T21:26:26Z</time>
      </trkpt>
      <trkpt lat="48.46194" lon="6.96539">
        <ele>352</ele>
        <time>2016-07-05T21:28:26Z</time>
      </trkpt>
      <trkpt lat="48.46213" lon="6.96563">
        <ele>352</ele>
        <time>2016-07-05T21:30:26Z</time>
      </trkpt>
      <trkpt lat="48.46233" lon="6.96591">
        <ele>353</ele>
        <time>2016-07-05T21:32:26Z</time>
      </trkpt>
      <trkpt lat="48.46253" lon="6.96624">
        <ele>353</ele>
        <time>2016-07-05T21:34:26Z</time>
      </trkpt>
      <trkpt lat="48.46272" lon="6.96661">
        <ele>353</ele>
        <time>2016-07-05T21:36:26Z</time>
      </trkpt>
      <trkpt lat="48.46289" lon="6.96695">
        <ele>352</ele>
        <time>2016-07-05T21:38:26Z</time>
      </trkpt>
      <trkpt lat="48.46314" lon="6.96749">
        <ele>352</ele>
        <time>2016-07-05T21:40:26Z</time>
      </trkpt>
      <trkpt lat="48.4633" lon="6.96784">
        <ele>353</ele>
        <time>2016-07-05T21:42:26Z</time>
      </trkpt>
      <trkpt lat="48.4636" lon="6.96848">
        <ele>352</ele>
        <time>2016-07-05T21:44:26Z</time>
      </trkpt>
      <trkpt lat="48.46378" lon="6.96888">
        <ele>350</ele>
        <time>2016-07-05T21:46:26Z</time>
      </trkpt>
      <trkpt lat="48.46392" lon="6.96913">
        <ele>348</ele>
        <time>2016-07-05T21:48:26Z</time>
      </trkpt>
      <trkpt lat="48.46398" lon="6.96923">
        <ele>348</ele>
        <time>2016-07-05T21:50:26Z</time>
      </trkpt>
      <trkpt lat="48.464" lon="6.96928">
        <ele>348</ele>
        <time>2016-07-05T21:52:26Z</time>
      </trkpt>
      <trkpt lat="48.46403" lon="6.96936">
        <ele>348</ele>
        <time>2016-07-05T21:54:26Z</time>
      </trkpt>
      <trkpt lat="48.46414" lon="6.96948">
        <ele>348</ele>
        <time>2016-07-05T21:56:26Z</time>
      </trkpt>
      <trkpt lat="48.46434" lon="6.96967">
        <ele>348</ele>
        <time>2016-07-05T21:58:26Z</time>
      </trkpt>
      <trkpt lat="48.4645" lon="6.96979">
        <ele>347</ele>
        <time>2016-07-05T22:00:26Z</time>
      </trkpt>
      <trkpt lat="48.46462" lon="6.96987">
        <ele>346</ele>
        <time>2016-07-05T22:02:26Z</time>
      </trkpt>
      <trkpt lat="48.46477" lon="6.97001">
        <ele>345</ele>
        <time>2016-07-05T22:04:26Z</time>
      </trkpt>
      <trkpt lat="48.46489" lon="6.9702">
        <ele>344</ele>
        <time>2016-07-05T22:06:26Z</time>
      </trkpt>
      <trkpt lat="48.46507" lon="6.9705">
        <ele>343</ele>
        <time>2016-07-05T22:08:26Z</time>
      </trkpt>
      <trkpt lat="48.46526" lon="6.97078">
        <ele>343</ele>
        <time>2016-07-05T22:10:26Z</time>
      </trkpt>
      <trkpt lat="48.46543" lon="6.97101">
        <ele>343</ele>
        <time>2016-07-05T22:12:26Z</time>
      </trkpt>
      <trkpt lat="48.46558" lon="6.97117">
        <ele>344</ele>
        <time>2016-07-05T22:14:26Z</time>
      </trkpt>
      <trkpt lat="48.46577" lon="6.97131">
        <ele>345</ele>
        <time>2016-07-05T22:16:26Z</time>
      </trkpt>
      <trkpt lat="48.46593" lon="6.9714">
        <ele>345</ele>
        <time>2016-07-05T22:18:26Z</time>
      </trkpt>
      <trkpt lat="48.4661" lon="6.97144">
        <ele>344</ele>
        <time>2016-07-05T22:20:26Z</time>
      </trkpt>
      <trkpt lat="48.46617" lon="6.97146">
        <ele>344</ele>
        <time>2016-07-05T22:22:26Z</time>
      </trkpt>
      <trkpt lat="48.46642" lon="6.97153">
        <ele>343</ele>
        <time>2016-07-05T22:24:26Z</time>
      </trkpt>
      <trkpt lat="48.46669" lon="6.97159">
        <ele>341</ele>
        <time>2016-07-05T22:26:26Z</time>
      </trkpt>
      <trkpt lat="48.46695" lon="6.97165">
        <ele>339</ele>
        <time>2016-07-05T22:28:26Z</time>
      </trkpt>
      <trkpt lat="48.46743" lon="6.97176">
        <ele>336</ele>
        <time>2016-07-05T22:30:26Z</time>
      </trkpt>
      <trkpt lat="48.46786" lon="6.97185">
        <ele>336</ele>
        <time>2016-07-05T22:32:26Z</time>
      </trkpt>
      <trkpt lat="48.46786" lon="6.97185">
        <ele>336</ele>
        <time>2016-07-05T22:34:26Z</time>
      </trkpt>
      <trkpt lat="48.46812" lon="6.97191">
        <ele>335</ele>
        <time>2016-07-05T22:36:26Z</time>
      </trkpt>
      <trkpt lat="48.46859" lon="6.97202">
        <ele>335</ele>
        <time>2016-07-05T22:38:26Z</time>
      </trkpt>
      <trkpt lat="48.46882" lon="6.97209">
        <ele>334</ele>
        <time>2016-07-05T22:40:26Z</time>
      </trkpt>
      <trkpt lat="48.46907" lon="6.97219">
        <ele>334</ele>
        <time>2016-07-05T22:42:26Z</time>
      </trkpt>
      <trkpt lat="48.46942" lon="6.97233">
        <ele>336</ele>
        <time>2016-07-05T22:44:26Z</time>
      </trkpt>
      <trkpt lat="48.46956" lon="6.97237">
        <ele>337</ele>
        <time>2016-07-05T22:46:26Z</time>
      </trkpt>
      <trkpt lat="48.46964" lon="6.97238">
        <ele>337</ele>
        <time>2016-07-05T22:48:26Z</time>
      </trkpt>
      <trkpt lat="48.46969" lon="6.97238">
        <ele>338</ele>
        <time>2016-07-05T22:50:26Z</time>
      </trkpt>
      <trkpt lat="48.46979" lon="6.97236">
        <ele>338</ele>
        <time>2016-07-05T22:52:26Z</time>
      </trkpt>
      <trkpt lat="48.46987" lon="6.9723">
        <ele>338</ele>
        <time>2016-07-05T22:54:26Z</time>
      </trkpt>
      <trkpt lat="48.46996" lon="6.97215">
        <ele>337</ele>
        <time>2016-07-05T22:56:26Z</time>
      </trkpt>
      <trkpt lat="48.46996" lon="6.97215">
        <ele>337</ele>
        <time>2016-07-05T22:58:26Z</time>
      </trkpt>
      <trkpt lat="48.47034" lon="6.97225">
        <ele>340</ele>
        <time>2016-07-05T23:00:26Z</time>
      </trkpt>
      <trkpt lat="48.47047" lon="6.97229">
        <ele>341</ele>
        <time>2016-07-05T23:02:26Z</time>
      </trkpt>
      <trkpt lat="48.47073" lon="6.97247">
        <ele>343</ele>
        <time>2016-07-05T23:04:26Z</time>
      </trkpt>
      <trkpt lat="48.471" lon="6.97277">
        <ele>344</ele>
        <time>2016-07-05T23:06:26Z</time>
      </trkpt>
      <trkpt lat="48.47114" lon="6.97304">
        <ele>345</ele>
        <time>2016-07-05T23:08:26Z</time>
      </trkpt>
      <trkpt lat="48.47129" lon="6.97334">
        <ele>346</ele>
        <time>2016-07-05T23:10:26Z</time>
      </trkpt>
      <trkpt lat="48.47162" lon="6.97394">
        <ele>347</ele>
        <time>2016-07-05T23:12:26Z</time>
      </trkpt>
      <trkpt lat="48.47204" lon="6.97467">
        <ele>344</ele>
        <time>2016-07-05T23:14:26Z</time>
      </trkpt>
      <trkpt lat="48.47252" lon="6.97548">
        <ele>342</ele>
        <time>2016-07-05T23:16:26Z</time>
      </trkpt>
      <trkpt lat="48.47287" lon="6.97603">
        <ele>340</ele>
        <time>2016-07-05T23:18:26Z</time>
      </trkpt>
      <trkpt lat="48.47289" lon="6.97605">
        <ele>340</ele>
        <time>2016-07-05T23:20:26Z</time>
      </trkpt>
      <trkpt lat="48.47291" lon="6.97606">
        <ele>340</ele>
        <time>2016-07-05T23:22:26Z</time>
      </trkpt>
      <trkpt lat="48.47296" lon="6.97604">
        <ele>339</ele>
        <time>2016-07-05T23:24:26Z</time>
      </trkpt>
      <trkpt lat="48.47296" lon="6.97604">
        <ele>339</ele>
        <time>2016-07-05T23:26:26Z</time>
      </trkpt>
      <trkpt lat="48.47299" lon="6.97604">
        <ele>338</ele>
        <time>2016-07-05T23:28:26Z</time>
      </trkpt>
      <trkpt lat="48.47303" lon="6.97605">
        <ele>338</ele>
        <time>2016-07-05T23:30:26Z</time>
      </trkpt>
      <trkpt lat="48.47307" lon="6.97613">
        <ele>338</ele>
        <time>2016-07-05T23:32:26Z</time>
      </trkpt>
      <trkpt lat="48.47313" lon="6.97623">
        <ele>337</ele>
        <time>2016-07-05T23:34:26Z</time>
      </trkpt>
      <trkpt lat="48.47321" lon="6.97631">
        <ele>337</ele>
        <time>2016-07-05T23:36:26Z</time>
      </trkpt>
      <trkpt lat="48.47327" lon="6.97637">
        <ele>336</ele>
        <time>2016-07-05T23:38:26Z</time>
      </trkpt>
      <trkpt lat="48.47347" lon="6.97656">
        <ele>336</ele>
        <time>2016-07-05T23:40:26Z</time>
      </trkpt>
      <trkpt lat="48.47394" lon="6.97716">
        <ele>338</ele>
        <time>2016-07-05T23:42:26Z</time>
      </trkpt>
      <trkpt lat="48.47396" lon="6.97719">
        <ele>338</ele>
        <time>2016-07-05T23:44:26Z</time>
      </trkpt>
      <trkpt lat="48.47431" lon="6.97749">
        <ele>336</ele>
        <time>2016-07-05T23:46:26Z</time>
      </trkpt>
      <trkpt lat="48.47434" lon="6.97751">
        <ele>337</ele>
        <time>2016-07-05T23:48:26Z</time>
      </trkpt>
      <trkpt lat="48.47437" lon="6.97753">
        <ele>337</ele>
        <time>2016-07-05T23:50:26Z</time>
      </trkpt>
      <trkpt lat="48.47441" lon="6.97755">
        <ele>337</ele>
        <time>2016-07-05T23:52:26Z</time>
      </trkpt>
      <trkpt lat="48.47445" lon="6.97758">
        <ele>337</ele>
        <time>2016-07-05T23:54:26Z</time>
      </trkpt>
      <trkpt lat="48.4745" lon="6.97762">
        <ele>337</ele>
        <time>2016-07-05T23:56:26Z</time>
      </trkpt>
      <trkpt lat="48.47454" lon="6.97766">
        <ele>337</ele>
        <time>2016-07-05T23:58:26Z</time>
      </trkpt>
      <trkpt lat="48.47459" lon="6.97772">
        <ele>338</ele>
        <time>2016-07-06T00:00:26Z</time>
      </trkpt>
      <trkpt lat="48.47464" lon="6.97779">
        <ele>338</ele>
        <time>2016-07-06T00:02:26Z</time>
      </trkpt>
      <trkpt lat="48.47468" lon="6.97786">
        <ele>339</ele>
        <time>2016-07-06T00:04:26Z</time>
      </trkpt>
      <trkpt lat="48.47471" lon="6.97794">
        <ele>339</ele>
        <time>2016-07-06T00:06:26Z</time>
      </trkpt>
      <trkpt lat="48.47475" lon="6.97802">
        <ele>339</ele>
        <time>2016-07-06T00:08:26Z</time>
      </trkpt>
      <trkpt lat="48.4748" lon="6.97809">
        <ele>339</ele>
        <time>2016-07-06T00:10:26Z</time>
      </trkpt>
      <trkpt lat="48.47485" lon="6.97816">
        <ele>339</ele>
        <time>2016-07-06T00:12:26Z</time>
      </trkpt>
      <trkpt lat="48.47541" lon="6.97881">
        <ele>341</ele>
        <time>2016-07-06T00:14:26Z</time>
      </trkpt>
      <trkpt lat="48.47553" lon="6.97889">
        <ele>340</ele>
        <time>2016-07-06T00:16:26Z</time>
      </trkpt>
      <trkpt lat="48.47557" lon="6.97892">
        <ele>339</ele>
        <time>2016-07-06T00:18:26Z</time>
      </trkpt>
      <trkpt lat="48.47562" lon="6.97895">
        <ele>339</ele>
        <time>2016-07-06T00:20:26Z</time>
      </trkpt>
      <trkpt lat="48.47567" lon="6.97898">
        <ele>338</ele>
        <time>2016-07-06T00:22:26Z</time>
      </trkpt>
      <trkpt lat="48.47572" lon="6.97902">
        <ele>338</ele>
        <time>2016-07-06T00:24:26Z</time>
      </trkpt>
      <trkpt lat="48.47578" lon="6.97905">
        <ele>337</ele>
        <time>2016-07-06T00:26:26Z</time>
      </trkpt>
      <trkpt lat="48.47584" lon="6.97908">
        <ele>336</ele>
        <time>2016-07-06T00:28:26Z</time>
      </trkpt>
      <trkpt lat="48.47589" lon="6.97911">
        <ele>336</ele>
        <time>2016-07-06T00:30:26Z</time>
      </trkpt>
      <trkpt lat="48.47595" lon="6.97914">
        <ele>335</ele>
        <time>2016-07-06T00:32:26Z</time>
      </trkpt>
      <trkpt lat="48.47607" lon="6.97919">
        <ele>335</ele>
        <time>2016-07-06T00:34:26Z</time>
      </trkpt>
      <trkpt lat="48.47612" lon="6.97921">
        <ele>335</ele>
        <time>2016-07-06T00:36:26Z</time>
      </trkpt>
      <trkpt lat="48.47631" lon="6.97918">
        <ele>333</ele>
        <time>2016-07-06T00:38:26Z</time>
      </trkpt>
      <trkpt lat="48.47634" lon="6.97914">
        <ele>333</ele>
        <time>2016-07-06T00:40:26Z</time>
      </trkpt>
      <trkpt lat="48.47637" lon="6.97909">
        <ele>333</ele>
        <time>2016-07-06T00:42:26Z</time>
      </trkpt>
      <trkpt lat="48.4764" lon="6.97904">
        <ele>332</ele>
        <time>2016-07-06T00:44:26Z</time>
      </trkpt>
      <trkpt lat="48.47644" lon="6.97898">
        <ele>332</ele>
        <time>2016-07-06T00:46:26Z</time>
      </trkpt>
      <trkpt lat="48.47652" lon="6.97886">
        <ele>331</ele>
        <time>2016-07-06T00:48:26Z</time>
      </trkpt>
      <trkpt lat="48.47661" lon="6.97877">
        <ele>330</ele>
        <time>2016-07-06T00:50:26Z</time>
      </trkpt>
      <trkpt lat="48.47665" lon="6.97874">
        <ele>330</ele>
        <time>2016-07-06T00:52:26Z</time>
      </trkpt>
      <trkpt lat="48.47669" lon="6.97871">
        <ele>330</ele>
        <time>2016-07-06T00:54:26Z</time>
      </trkpt>
      <trkpt lat="48.47674" lon="6.97866">
        <ele>330</ele>
        <time>2016-07-06T00:56:26Z</time>
      </trkpt>
      <trkpt lat="48.47692" lon="6.97838">
        <ele>329</ele>
        <time>2016-07-06T00:58:26Z</time>
      </trkpt>
      <trkpt lat="48.47695" lon="6.97837">
        <ele>329</ele>
        <time>2016-07-06T01:00:26Z</time>
      </trkpt>
      <trkpt lat="48.47699" lon="6.97837">
        <ele>329</ele>
        <time>2016-07-06T01:02:26Z</time>
      </trkpt>
      <trkpt lat="48.47704" lon="6.97839">
        <ele>329</ele>
        <time>2016-07-06T01:04:26Z</time>
      </trkpt>
      <trkpt lat="48.4771" lon="6.97843">
        <ele>329</ele>
        <time>2016-07-06T01:06:26Z</time>
      </trkpt>
      <trkpt lat="48.47715" lon="6.9785">
        <ele>329</ele>
        <time>2016-07-06T01:08:26Z</time>
      </trkpt>
      <trkpt lat="48.47719" lon="6.97858">
        <ele>329</ele>
        <time>2016-07-06T01:10:26Z</time>
      </trkpt>
      <trkpt lat="48.47723" lon="6.97868">
        <ele>330</ele>
        <time>2016-07-06T01:12:26Z</time>
      </trkpt>
      <trkpt lat="48.47727" lon="6.97878">
        <ele>330</ele>
        <time>2016-07-06T01:14:26Z</time>
      </trkpt>
      <trkpt lat="48.47732" lon="6.97886">
        <ele>330</ele>
        <time>2016-07-06T01:16:26Z</time>
      </trkpt>
      <trkpt lat="48.47739" lon="6.97891">
        <ele>330</ele>
        <time>2016-07-06T01:18:26Z</time>
      </trkpt>
      <trkpt lat="48.47747" lon="6.97893">
        <ele>330</ele>
        <time>2016-07-06T01:20:26Z</time>
      </trkpt>
      <trkpt lat="48.47756" lon="6.97893">
        <ele>330</ele>
        <time>2016-07-06T01:22:26Z</time>
      </trkpt>
      <trkpt lat="48.47765" lon="6.97893">
        <ele>330</ele>
        <time>2016-07-06T01:24:26Z</time>
      </trkpt>
      <trkpt lat="48.47773" lon="6.97895">
        <ele>330</ele>
        <time>2016-07-06T01:26:26Z</time>
      </trkpt>
      <trkpt lat="48.47781" lon="6.97899">
        <ele>330</ele>
        <time>2016-07-06T01:28:26Z</time>
      </trkpt>
      <trkpt lat="48.47789" lon="6.97905">
        <ele>330</ele>
        <time>2016-07-06T01:30:26Z</time>
      </trkpt>
      <trkpt lat="48.47794" lon="6.97914">
        <ele>330</ele>
        <time>2016-07-06T01:32:26Z</time>
      </trkpt>
      <trkpt lat="48.47799" lon="6.97924">
        <ele>330</ele>
        <time>2016-07-06T01:34:26Z</time>
      </trkpt>
      <trkpt lat="48.47806" lon="6.97932">
        <ele>330</ele>
        <time>2016-07-06T01:36:26Z</time>
      </trkpt>
      <trkpt lat="48.47815" lon="6.97936">
        <ele>330</ele>
        <time>2016-07-06T01:38:26Z</time>
      </trkpt>
      <trkpt lat="48.47823" lon="6.9794">
        <ele>330</ele>
        <time>2016-07-06T01:40:26Z</time>
      </trkpt>
      <trkpt lat="48.47832" lon="6.97946">
        <ele>330</ele>
        <time>2016-07-06T01:42:26Z</time>
      </trkpt>
      <trkpt lat="48.4784" lon="6.97954">
        <ele>331</ele>
        <time>2016-07-06T01:44:26Z</time>
      </trkpt>
      <trkpt lat="48.47847" lon="6.97962">
        <ele>332</ele>
        <time>2016-07-06T01:46:26Z</time>
      </trkpt>
      <trkpt lat="48.47853" lon="6.9797">
        <ele>333</ele>
        <time>2016-07-06T01:48:26Z</time>
      </trkpt>
      <trkpt lat="48.47857" lon="6.97979">
        <ele>333</ele>
        <time>2016-07-06T01:50:26Z</time>
      </trkpt>
      <trkpt lat="48.47861" lon="6.97988">
        <ele>333</ele>
        <time>2016-07-06T01:52:26Z</time>
      </trkpt>
      <trkpt lat="48.47863" lon="6.97998">
        <ele>334</ele>
        <time>2016-07-06T01:54:26Z</time>
      </trkpt>
      <trkpt lat="48.47862" lon="6.9801">
        <ele>333</ele>
        <time>2016-07-06T01:56:26Z</time>
      </trkpt>
      <trkpt lat="48.4786" lon="6.98022">
        <ele>333</ele>
        <time>2016-07-06T01:58:26Z</time>
      </trkpt>
      <trkpt lat="48.47857" lon="6.98033">
        <ele>333</ele>
        <time>2016-07-06T02:00:26Z</time>
      </trkpt>
      <trkpt lat="48.47854" lon="6.98044">
        <ele>332</ele>
        <time>2016-07-06T02:02:26Z</time>
      </trkpt>
      <trkpt lat="48.4785" lon="6.98055">
        <ele>332</ele>
        <time>2016-07-06T02:04:26Z</time>
      </trkpt>
      <trkpt lat="48.47845" lon="6.98066">
        <ele>332</ele>
        <time>2016-07-06T02:06:26Z</time>
      </trkpt>
      <trkpt lat="48.47841" lon="6.98077">
        <ele>331</ele>
        <time>2016-07-06T02:08:26Z</time>
      </trkpt>
      <trkpt lat="48.47837" lon="6.98089">
        <ele>331</ele>
        <time>2016-07-06T02:10:26Z</time>
      </trkpt>
      <trkpt lat="48.47835" lon="6.98101">
        <ele>332</ele>
        <time>2016-07-06T02:12:26Z</time>
      </trkpt>
      <trkpt lat="48.47834" lon="6.98113">
        <ele>332</ele>
        <time>2016-07-06T02:14:26Z</time>
      </trkpt>
      <trkpt lat="48.47833" lon="6.98125">
        <ele>333</ele>
        <time>2016-07-06T02:16:26Z</time>
      </trkpt>
      <trkpt lat="48.47832" lon="6.98137">
        <ele>334</ele>
        <time>2016-07-06T02:18:26Z</time>
      </trkpt>
      <trkpt lat="48.47834" lon="6.98147">
        <ele>334</ele>
        <time>2016-07-06T02:20:26Z</time>
      </trkpt>
      <trkpt lat="48.47837" lon="6.98156">
        <ele>334</ele>
        <time>2016-07-06T02:22:26Z</time>
      </trkpt>
      <trkpt lat="48.47842" lon="6.98162">
        <ele>335</ele>
        <time>2016-07-06T02:24:26Z</time>
      </trkpt>
      <trkpt lat="48.47848" lon="6.98164">
        <ele>335</ele>
        <time>2016-07-06T02:26:26Z</time>
      </trkpt>
      <trkpt lat="48.47855" lon="6.98162">
        <ele>335</ele>
        <time>2016-07-06T02:28:26Z</time>
      </trkpt>
      <trkpt lat="48.47862" lon="6.98157">
        <ele>334</ele>
        <time>2016-07-06T02:30:26Z</time>
      </trkpt>
      <trkpt lat="48.47869" lon="6.9815">
        <ele>334</ele>
        <time>2016-07-06T02:32:26Z</time>
      </trkpt>
      <trkpt lat="48.47876" lon="6.98145">
        <ele>334</ele>
        <time>2016-07-06T02:34:26Z</time>
      </trkpt>
      <trkpt lat="48.47885" lon="6.98141">
        <ele>334</ele>
        <time>2016-07-06T02:36:26Z</time>
      </trkpt>
      <trkpt lat="48.47894" lon="6.98138">
        <ele>334</ele>
        <time>2016-07-06T02:38:26Z</time>
      </trkpt>
      <trkpt lat="48.47903" lon="6.98136">
        <ele>334</ele>
        <time>2016-07-06T02:40:26Z</time>
      </trkpt>
      <trkpt lat="48.47913" lon="6.98134">
        <ele>334</ele>
        <time>2016-07-06T02:42:26Z</time>
      </trkpt>
      <trkpt lat="48.47921" lon="6.98134">
        <ele>335</ele>
        <time>2016-07-06T02:44:26Z</time>
      </trkpt>
      <trkpt lat="48.47929" lon="6.98134">
        <ele>336</ele>
        <time>2016-07-06T02:46:26Z</time>
      </trkpt>
      <trkpt lat="48.47935" lon="6.98135">
        <ele>337</ele>
        <time>2016-07-06T02:48:26Z</time>
      </trkpt>
      <trkpt lat="48.4794" lon="6.98139">
        <ele>338</ele>
        <time>2016-07-06T02:50:26Z</time>
      </trkpt>
      <trkpt lat="48.47943" lon="6.98144">
        <ele>338</ele>
        <time>2016-07-06T02:52:26Z</time>
      </trkpt>
      <trkpt lat="48.47945" lon="6.9815">
        <ele>338</ele>
        <time>2016-07-06T02:54:26Z</time>
      </trkpt>
      <trkpt lat="48.47947" lon="6.98158">
        <ele>338</ele>
        <time>2016-07-06T02:56:26Z</time>
      </trkpt>
      <trkpt lat="48.47963" lon="6.98237">
        <ele>337</ele>
        <time>2016-07-06T02:58:26Z</time>
      </trkpt>
      <trkpt lat="48.47965" lon="6.98248">
        <ele>337</ele>
        <time>2016-07-06T03:00:26Z</time>
      </trkpt>
      <trkpt lat="48.47966" lon="6.98259">
        <ele>337</ele>
        <time>2016-07-06T03:02:26Z</time>
      </trkpt>
      <trkpt lat="48.47967" lon="6.98269">
        <ele>337</ele>
        <time>2016-07-06T03:04:26Z</time>
      </trkpt>
      <trkpt lat="48.47969" lon="6.98287">
        <ele>336</ele>
        <time>2016-07-06T03:06:26Z</time>
      </trkpt>
      <trkpt lat="48.4797" lon="6.98295">
        <ele>336</ele>
        <time>2016-07-06T03:08:26Z</time>
      </trkpt>
      <trkpt lat="48.4797" lon="6.98302">
        <ele>336</ele>
        <time>2016-07-06T03:10:26Z</time>
      </trkpt>
      <trkpt lat="48.47972" lon="6.98315">
        <ele>336</ele>
        <time>2016-07-06T03:12:26Z</time>
      </trkpt>
      <trkpt lat="48.47973" lon="6.98319">
        <ele>336</ele>
        <time>2016-07-06T03:14:26Z</time>
      </trkpt>
      <trkpt lat="48.47974" lon="6.98323">
        <ele>336</ele>
        <time>2016-07-06T03:16:26Z</time>
      </trkpt>
      <trkpt lat="48.47975" lon="6.98325">
        <ele>336</ele>
        <time>2016-07-06T03:18:26Z</time>
      </trkpt>
      <trkpt lat="48.47978" lon="6.98328">
        <ele>336</ele>
        <time>2016-07-06T03:20:26Z</time>
      </trkpt>
      <trkpt lat="48.47978" lon="6.98328">
        <ele>336</ele>
        <time>2016-07-06T03:22:26Z</time>
      </trkpt>
      <trkpt lat="48.47978" lon="6.98364">
        <ele>335</ele>
        <time>2016-07-06T03:24:26Z</time>
      </trkpt>
      <trkpt lat="48.47977" lon="6.98399">
        <ele>334</ele>
        <time>2016-07-06T03:26:26Z</time>
      </trkpt>
      <trkpt lat="48.47975" lon="6.98417">
        <ele>333</ele>
        <time>2016-07-06T03:28:26Z</time>
      </trkpt>
      <trkpt lat="48.47975" lon="6.98417">
        <ele>333</ele>
        <time>2016-07-06T03:30:26Z</time>
      </trkpt>
      <trkpt lat="48.47995" lon="6.98424">
        <ele>333</ele>
        <time>2016-07-06T03:32:26Z</time>
      </trkpt>
      <trkpt lat="48.48004" lon="6.98434">
        <ele>334</ele>
        <time>2016-07-06T03:34:26Z</time>
      </trkpt>
      <trkpt lat="48.4801" lon="6.98447">
        <ele>334</ele>
        <time>2016-07-06T03:36:26Z</time>
      </trkpt>
      <trkpt lat="48.48018" lon="6.98473">
        <ele>336</ele>
        <time>2016-07-06T03:38:26Z</time>
      </trkpt>
      <trkpt lat="48.48026" lon="6.98497">
        <ele>336</ele>
        <time>2016-07-06T03:40:26Z</time>
      </trkpt>
      <trkpt lat="48.48036" lon="6.98513">
        <ele>338</ele>
        <time>2016-07-06T03:42:26Z</time>
      </trkpt>
      <trkpt lat="48.48051" lon="6.98535">
        <ele>339</ele>
        <time>2016-07-06T03:44:26Z</time>
      </trkpt>
      <trkpt lat="48.48068" lon="6.98557">
        <ele>341</ele>
        <time>2016-07-06T03:46:26Z</time>
      </trkpt>
      <trkpt lat="48.48079" lon="6.98573">
        <ele>343</ele>
        <time>2016-07-06T03:48:26Z</time>
      </trkpt>
      <trkpt lat="48.48088" lon="6.98594">
        <ele>345</ele>
        <time>2016-07-06T03:50:26Z</time>
      </trkpt>
      <trkpt lat="48.48095" lon="6.98618">
        <ele>347</ele>
        <time>2016-07-06T03:52:26Z</time>
      </trkpt>
      <trkpt lat="48.48098" lon="6.98644">
        <ele>349</ele>
        <time>2016-07-06T03:54:26Z</time>
      </trkpt>
      <trkpt lat="48.48101" lon="6.98678">
        <ele>349</ele>
        <time>2016-07-06T03:56:26Z</time>
      </trkpt>
      <trkpt lat="48.48104" lon="6.98725">
        <ele>346</ele>
        <time>2016-07-06T03:58:26Z</time>
      </trkpt>
      <trkpt lat="48.48106" lon="6.98755">
        <ele>345</ele>
        <time>2016-07-06T04:00:26Z</time>
      </trkpt>
      <trkpt lat="48.4811" lon="6.9878">
        <ele>345</ele>
        <time>2016-07-06T04:02:26Z</time>
      </trkpt>
      <trkpt lat="48.48116" lon="6.98799">
        <ele>346</ele>
        <time>2016-07-06T04:04:26Z</time>
      </trkpt>
      <trkpt lat="48.48125" lon="6.98819">
        <ele>347</ele>
        <time>2016-07-06T04:06:26Z</time>
      </trkpt>
      <trkpt lat="48.48139" lon="6.98844">
        <ele>349</ele>
        <time>2016-07-06T04:08:26Z</time>
      </trkpt>
      <trkpt lat="48.48148" lon="6.98863">
        <ele>350</ele>
        <time>2016-07-06T04:10:26Z</time>
      </trkpt>
      <trkpt lat="48.48154" lon="6.9888">
        <ele>350</ele>
        <time>2016-07-06T04:12:26Z</time>
      </trkpt>
      <trkpt lat="48.48165" lon="6.98917">
        <ele>349</ele>
        <time>2016-07-06T04:14:26Z</time>
      </trkpt>
      <trkpt lat="48.48176" lon="6.98965">
        <ele>351</ele>
        <time>2016-07-06T04:16:26Z</time>
      </trkpt>
      <trkpt lat="48.48184" lon="6.99012">
        <ele>352</ele>
        <time>2016-07-06T04:18:26Z</time>
      </trkpt>
      <trkpt lat="48.48194" lon="6.99055">
        <ele>353</ele>
        <time>2016-07-06T04:20:26Z</time>
      </trkpt>
      <trkpt lat="48.4821" lon="6.99132">
        <ele>351</ele>
        <time>2016-07-06T04:22:26Z</time>
      </trkpt>
      <trkpt lat="48.4822" lon="6.9918">
        <ele>349</ele>
        <time>2016-07-06T04:24:26Z</time>
      </trkpt>
      <trkpt lat="48.48231" lon="6.99217">
        <ele>348</ele>
        <time>2016-07-06T04:26:26Z</time>
      </trkpt>
      <trkpt lat="48.48243" lon="6.99259">
        <ele>346</ele>
        <time>2016-07-06T04:28:26Z</time>
      </trkpt>
      <trkpt lat="48.48253" lon="6.99283">
        <ele>346</ele>
        <time>2016-07-06T04:30:26Z</time>
      </trkpt>
      <trkpt lat="48.48262" lon="6.99305">
        <ele>348</ele>
        <time>2016-07-06T04:32:26Z</time>
      </trkpt>
      <trkpt lat="48.48269" lon="6.99322">
        <ele>349</ele>
        <time>2016-07-06T04:34:26Z</time>
      </trkpt>
      <trkpt lat="48.48276" lon="6.99345">
        <ele>350</ele>
        <time>2016-07-06T04:36:26Z</time>
      </trkpt>
      <trkpt lat="48.48282" lon="6.99365">
        <ele>350</ele>
        <time>2016-07-06T04:38:26Z</time>
      </trkpt>
      <trkpt lat="48.48293" lon="6.99389">
        <ele>351</ele>
        <time>2016-07-06T04:40:26Z</time>
      </trkpt>
      <trkpt lat="48.48308" lon="6.99423">
        <ele>352</ele>
        <time>2016-07-06T04:42:26Z</time>
      </trkpt>
      <trkpt lat="48.48316" lon="6.99444">
        <ele>353</ele>
        <time>2016-07-06T04:44:26Z</time>
      </trkpt>
      <trkpt lat="48.48317" lon="6.99455">
        <ele>354</ele>
        <time>2016-07-06T04:46:26Z</time>
      </trkpt>
      <trkpt lat="48.48317" lon="6.99466">
        <ele>354</ele>
        <time>2016-07-06T04:48:26Z</time>
      </trkpt>
      <trkpt lat="48.48315" lon="6.99477">
        <ele>353</ele>
        <time>2016-07-06T04:50:26Z</time>
      </trkpt>
      <trkpt lat="48.48312" lon="6.99488">
        <ele>353</ele>
        <time>2016-07-06T04:52:26Z</time>
      </trkpt>
      <trkpt lat="48.48304" lon="6.99505">
        <ele>352</ele>
        <time>2016-07-06T04:54:26Z</time>
      </trkpt>
      <trkpt lat="48.48293" lon="6.9953">
        <ele>351</ele>
        <time>2016-07-06T04:56:26Z</time>
      </trkpt>
      <trkpt lat="48.48282" lon="6.99573">
        <ele>351</ele>
        <time>2016-07-06T04:58:26Z</time>
      </trkpt>
      <trkpt lat="48.48274" lon="6.99613">
        <ele>352</ele>
        <time>2016-07-06T05:00:26Z</time>
      </trkpt>
      <trkpt lat="48.48274" lon="6.99635">
        <ele>352</ele>
        <time>2016-07-06T05:02:26Z</time>
      </trkpt>
      <trkpt lat="48.48274" lon="6.99635">
        <ele>352</ele>
        <time>2016-07-06T05:04:26Z</time>
      </trkpt>
      <trkpt lat="48.4827" lon="6.99655">
        <ele>352</ele>
        <time>2016-07-06T05:06:26Z</time>
      </trkpt>
      <trkpt lat="48.48265" lon="6.9969">
        <ele>352</ele>
        <time>2016-07-06T05:08:26Z</time>
      </trkpt>
      <trkpt lat="48.48262" lon="6.99719">
        <ele>351</ele>
        <time>2016-07-06T05:10:26Z</time>
      </trkpt>
      <trkpt lat="48.48261" lon="6.9975">
        <ele>351</ele>
        <time>2016-07-06T05:12:26Z</time>
      </trkpt>
      <trkpt lat="48.48264" lon="6.9978">
        <ele>352</ele>
        <time>2016-07-06T05:14:26Z</time>
      </trkpt>
      <trkpt lat="48.4827" lon="6.99807">
        <ele>353</ele>
        <time>2016-07-06T05:16:26Z</time>
      </trkpt>
      <trkpt lat="48.48282" lon="6.99838">
        <ele>354</ele>
        <time>2016-07-06T05:18:26Z</time>
      </trkpt>
      <trkpt lat="48.48292" lon="6.99858">
        <ele>355</ele>
        <time>2016-07-06T05:20:26Z</time>
      </trkpt>
      <trkpt lat="48.48302" lon="6.99874">
        <ele>355</ele>
        <time>2016-07-06T05:22:26Z</time>
      </trkpt>
      <trkpt lat="48.48312" lon="6.9988">
        <ele>355</ele>
        <time>2016-07-06T05:24:26Z</time>
      </trkpt>
      <trkpt lat="48.48324" lon="6.99892">
        <ele>355</ele>
        <time>2016-07-06T05:26:26Z</time>
      </trkpt>
      <trkpt lat="48.4834" lon="6.99908">
        <ele>356</ele>
        <time>2016-07-06T05:28:26Z</time>
      </trkpt>
      <trkpt lat="48.48352" lon="6.99918">
        <ele>359</ele>
        <time>2016-07-06T05:30:26Z</time>
      </trkpt>
      <trkpt lat="48.4837" lon="6.99935">
        <ele>362</ele>
        <time>2016-07-06T05:32:26Z</time>
      </trkpt>
      <trkpt lat="48.48376" lon="6.99944">
        <ele>363</ele>
        <time>2016-07-06T05:34:26Z</time>
      </trkpt>
      <trkpt lat="48.48381" lon="6.99962">
        <ele>363</ele>
        <time>2016-07-06T05:36:26Z</time>
      </trkpt>
      <trkpt lat="48.48393" lon="7.00013">
        <ele>364</ele>
        <time>2016-07-06T05:38:26Z</time>
      </trkpt>
      <trkpt lat="48.484" lon="7.00029">
        <ele>365</ele>
        <time>2016-07-06T05:40:26Z</time>
      </trkpt>
      <trkpt lat="48.48408" lon="7.00049">
        <ele>366</ele>
        <time>2016-07-06T05:42:26Z</time>
      </trkpt>
      <trkpt lat="48.48413" lon="7.0006">
        <ele>367</ele>
        <time>2016-07-06T05:44:26Z</time>
      </trkpt>
      <trkpt lat="48.48413" lon="7.0006">
        <ele>367</ele>
        <time>2016-07-06T05:46:26Z</time>
      </trkpt>
      <trkpt lat="48.48416" lon="7.00086">
        <ele>367</ele>
        <time>2016-07-06T05:48:26Z</time>
      </trkpt>
      <trkpt lat="48.48422" lon="7.00116">
        <ele>368</ele>
        <time>2016-07-06T05:50:26Z</time>
      </trkpt>
      <trkpt lat="48.48426" lon="7.00148">
        <ele>369</ele>
        <time>2016-07-06T05:52:26Z</time>
      </trkpt>
      <trkpt lat="48.48431" lon="7.00185">
        <ele>370</ele>
        <time>2016-07-06T05:54:26Z</time>
      </trkpt>
      <trkpt lat="48.48436" lon="7.00232">
        <ele>370</ele>
        <time>2016-07-06T05:56:26Z</time>
      </trkpt>
      <trkpt lat="48.48442" lon="7.00277">
        <ele>369</ele>
        <time>2016-07-06T05:58:26Z</time>
      </trkpt>
      <trkpt lat="48.48447" lon="7.0033">
        <ele>366</ele>
        <time>2016-07-06T06:00:26Z</time>
      </trkpt>
      <trkpt lat="48.48451" lon="7.00383">
        <ele>365</ele>
        <time>2016-07-06T06:02:26Z</time>
      </trkpt>
      <trkpt lat="48.48454" lon="7.00431">
        <ele>364</ele>
        <time>2016-07-06T06:04:26Z</time>
      </trkpt>
      <trkpt lat="48.48456" lon="7.0047">
        <ele>362</ele>
        <time>2016-07-06T06:06:26Z</time>
      </trkpt>
      <trkpt lat="48.4846" lon="7.0051">
        <ele>362</ele>
        <time>2016-07-06T06:08:26Z</time>
      </trkpt>
      <trkpt lat="48.48467" lon="7.00565">
        <ele>361</ele>
        <time>2016-07-06T06:10:26Z</time>
      </trkpt>
      <trkpt lat="48.48476" lon="7.00628">
        <ele>360</ele>
        <time>2016-07-06T06:12:26Z</time>
      </trkpt>
      <trkpt lat="48.48482" lon="7.00676">
        <ele>359</ele>
        <time>2016-07-06T06:14:26Z</time>
      </trkpt>
      <trkpt lat="48.48484" lon="7.00704">
        <ele>358</ele>
        <time>2016-07-06T06:16:26Z</time>
      </trkpt>
      <trkpt lat="48.48484" lon="7.00724">
        <ele>357</ele>
        <time>2016-07-06T06:18:26Z</time>
      </trkpt>
      <trkpt lat="48.48483" lon="7.00738">
        <ele>356</ele>
        <time>2016-07-06T06:20:26Z</time>
      </trkpt>
      <trkpt lat="48.48479" lon="7.00753">
        <ele>355</ele>
        <time>2016-07-06T06:22:26Z</time>
      </trkpt>
      <trkpt lat="48.48472" lon="7.00782">
        <ele>355</ele>
        <time>2016-07-06T06:24:26Z</time>
      </trkpt>
      <trkpt lat="48.48462" lon="7.00813">
        <ele>354</ele>
        <time>2016-07-06T06:26:26Z</time>
      </trkpt>
      <trkpt lat="48.48454" lon="7.00844">
        <ele>354</ele>
        <time>2016-07-06T06:28:26Z</time>
      </trkpt>
      <trkpt lat="48.48447" lon="7.00885">
        <ele>353</ele>
        <time>2016-07-06T06:30:26Z</time>
      </trkpt>
      <trkpt lat="48.4844" lon="7.00945">
        <ele>352</ele>
        <time>2016-07-06T06:32:26Z</time>
      </trkpt>
      <trkpt lat="48.48434" lon="7.00977">
        <ele>351</ele>
        <time>2016-07-06T06:34:26Z</time>
      </trkpt>
      <trkpt lat="48.48428" lon="7.00995">
        <ele>350</ele>
        <time>2016-07-06T06:36:26Z</time>
      </trkpt>
      <trkpt lat="48.48421" lon="7.01007">
        <ele>349</ele>
        <time>2016-07-06T06:38:26Z</time>
      </trkpt>
      <trkpt lat="48.48408" lon="7.0102">
        <ele>348</ele>
        <time>2016-07-06T06:40:26Z</time>
      </trkpt>
      <trkpt lat="48.48395" lon="7.01036">
        <ele>347</ele>
        <time>2016-07-06T06:42:26Z</time>
      </trkpt>
      <trkpt lat="48.48386" lon="7.01054">
        <ele>346</ele>
        <time>2016-07-06T06:44:26Z</time>
      </trkpt>
      <trkpt lat="48.48371" lon="7.01082">
        <ele>345</ele>
        <time>2016-07-06T06:46:26Z</time>
      </trkpt>
      <trkpt lat="48.48357" lon="7.01101">
        <ele>345</ele>
        <time>2016-07-06T06:48:26Z</time>
      </trkpt>
      <trkpt lat="48.48348" lon="7.0111">
        <ele>345</ele>
        <time>2016-07-06T06:50:26Z</time>
      </trkpt>
      <trkpt lat="48.48344" lon="7.01112">
        <ele>345</ele>
        <time>2016-07-06T06:52:26Z</time>
      </trkpt>
      <trkpt lat="48.48341" lon="7.01114">
        <ele>345</ele>
        <time>2016-07-06T06:54:26Z</time>
      </trkpt>
      <trkpt lat="48.48335" lon="7.01118">
        <ele>344</ele>
        <time>2016-07-06T06:56:26Z</time>
      </trkpt>
      <trkpt lat="48.48331" lon="7.01121">
        <ele>345</ele>
        <time>2016-07-06T06:58:26Z</time>
      </trkpt>
      <trkpt lat="48.48326" lon="7.01125">
        <ele>345</ele>
        <time>2016-07-06T07:00:26Z</time>
      </trkpt>
      <trkpt lat="48.48326" lon="7.01125">
        <ele>345</ele>
        <time>2016-07-06T07:02:26Z</time>
      </trkpt>
      <trkpt lat="48.48339" lon="7.01182">
        <ele>345</ele>
        <time>2016-07-06T07:04:26Z</time>
      </trkpt>
      <trkpt lat="48.48348" lon="7.01216">
        <ele>345</ele>
        <time>2016-07-06T07:06:26Z</time>
      </trkpt>
      <trkpt lat="48.4835" lon="7.01226">
        <ele>345</ele>
        <time>2016-07-06T07:08:26Z</time>
      </trkpt>
      <trkpt lat="48.48357" lon="7.01248">
        <ele>346</ele>
        <time>2016-07-06T07:10:26Z</time>
      </trkpt>
      <trkpt lat="48.48369" lon="7.01273">
        <ele>346</ele>
        <time>2016-07-06T07:12:26Z</time>
      </trkpt>
      <trkpt lat="48.48382" lon="7.01296">
        <ele>347</ele>
        <time>2016-07-06T07:14:26Z</time>
      </trkpt>
      <trkpt lat="48.48402" lon="7.01332">
        <ele>347</ele>
        <time>2016-07-06T07:16:26Z</time>
      </trkpt>
      <trkpt lat="48.48421" lon="7.0136">
        <ele>348</ele>
        <time>2016-07-06T07:18:26Z</time>
      </trkpt>
      <trkpt lat="48.48439" lon="7.01389">
        <ele>349</ele>
        <time>2016-07-06T07:20:26Z</time>
      </trkpt>
      <trkpt lat="48.48449" lon="7.01409">
        <ele>349</ele>
        <time>2016-07-06T07:22:26Z</time>
      </trkpt>
      <trkpt lat="48.48465" lon="7.01432">
        <ele>350</ele>
        <time>2016-07-06T07:24:26Z</time>
      </trkpt>
      <trkpt lat="48.48485" lon="7.01457">
        <ele>350</ele>
        <time>2016-07-06T07:26:26Z</time>
      </trkpt>
      <trkpt lat="48.48505" lon="7.01477">
        <ele>350</ele>
        <time>2016-07-06T07:28:26Z</time>
      </trkpt>
      <trkpt lat="48.48522" lon="7.01498">
        <ele>350</ele>
        <time>2016-07-06T07:30:26Z</time>
      </trkpt>
      <trkpt lat="48.48532" lon="7.01515">
        <ele>350</ele>
        <time>2016-07-06T07:32:26Z</time>
      </trkpt>
      <trkpt lat="48.48542" lon="7.01537">
        <ele>350</ele>
        <time>2016-07-06T07:34:26Z</time>
      </trkpt>
      <trkpt lat="48.48548" lon="7.01558">
        <ele>350</ele>
        <time>2016-07-06T07:36:26Z</time>
      </trkpt>
      <trkpt lat="48.4855" lon="7.0158">
        <ele>350</ele>
        <time>2016-07-06T07:38:26Z</time>
      </trkpt>
      <trkpt lat="48.48551" lon="7.01598">
        <ele>351</ele>
        <time>2016-07-06T07:40:26Z</time>
      </trkpt>
      <trkpt lat="48.48551" lon="7.01598">
        <ele>351</ele>
        <time>2016-07-06T07:42:26Z</time>
      </trkpt>
      <trkpt lat="48.48546" lon="7.01605">
        <ele>351</ele>
        <time>2016-07-06T07:44:26Z</time>
      </trkpt>
      <trkpt lat="48.48532" lon="7.01614">
        <ele>352</ele>
        <time>2016-07-06T07:46:26Z</time>
      </trkpt>
      <trkpt lat="48.48518" lon="7.01616">
        <ele>354</ele>
        <time>2016-07-06T07:48:26Z</time>
      </trkpt>
      <trkpt lat="48.48504" lon="7.01622">
        <ele>355</ele>
        <time>2016-07-06T07:50:26Z</time>
      </trkpt>
      <trkpt lat="48.48504" lon="7.01622">
        <ele>355</ele>
        <time>2016-07-06T07:52:26Z</time>
      </trkpt>
      <trkpt lat="48.48509" lon="7.01654">
        <ele>356</ele>
        <time>2016-07-06T07:54:26Z</time>
      </trkpt>
      <trkpt lat="48.48512" lon="7.01681">
        <ele>356</ele>
        <time>2016-07-06T07:56:26Z</time>
      </trkpt>
      <trkpt lat="48.48516" lon="7.01702">
        <ele>356</ele>
        <time>2016-07-06T07:58:26Z</time>
      </trkpt>
      <trkpt lat="48.48523" lon="7.01727">
        <ele>356</ele>
        <time>2016-07-06T08:00:26Z</time>
      </trkpt>
      <trkpt lat="48.48539" lon="7.01771">
        <ele>356</ele>
        <time>2016-07-06T08:02:26Z</time>
      </trkpt>
      <trkpt lat="48.4856" lon="7.01824">
        <ele>355</ele>
        <time>2016-07-06T08:04:26Z</time>
      </trkpt>
      <trkpt lat="48.48576" lon="7.01863">
        <ele>355</ele>
        <time>2016-07-06T08:06:26Z</time>
      </trkpt>
      <trkpt lat="48.48586" lon="7.01881">
        <ele>355</ele>
        <time>2016-07-06T08:08:26Z</time>
      </trkpt>
      <trkpt lat="48.48599" lon="7.01902">
        <ele>355</ele>
        <time>2016-07-06T08:10:26Z</time>
      </trkpt>
      <trkpt lat="48.4861" lon="7.01917">
        <ele>355</ele>
        <time>2016-07-06T08:12:26Z</time>
      </trkpt>
      <trkpt lat="48.48623" lon="7.01932">
        <ele>356</ele>
        <time>2016-07-06T08:14:26Z</time>
      </trkpt>
      <trkpt lat="48.48642" lon="7.01952">
        <ele>356</ele>
        <time>2016-07-06T08:16:26Z</time>
      </trkpt>
      <trkpt lat="48.48649" lon="7.01961">
        <ele>356</ele>
        <time>2016-07-06T08:18:26Z</time>
      </trkpt>
      <trkpt lat="48.48679" lon="7.02008">
        <ele>357</ele>
        <time>2016-07-06T08:20:26Z</time>
      </trkpt>
      <trkpt lat="48.48689" lon="7.02023">
        <ele>358</ele>
        <time>2016-07-06T08:22:26Z</time>
      </trkpt>
      <trkpt lat="48.48701" lon="7.02037">
        <ele>359</ele>
        <time>2016-07-06T08:24:26Z</time>
      </trkpt>
      <trkpt lat="48.48777" lon="7.0211">
        <ele>362</ele>
        <time>2016-07-06T08:26:26Z</time>
      </trkpt>
      <trkpt lat="48.48802" lon="7.02133">
        <ele>363</ele>
        <time>2016-07-06T08:28:26Z</time>
      </trkpt>
      <trkpt lat="48.48829" lon="7.02159">
        <ele>363</ele>
        <time>2016-07-06T08:30:26Z</time>
      </trkpt>
      <trkpt lat="48.48848" lon="7.02179">
        <ele>364</ele>
        <time>2016-07-06T08:32:26Z</time>
      </trkpt>
      <trkpt lat="48.48879" lon="7.02217">
        <ele>366</ele>
        <time>2016-07-06T08:34:26Z</time>
      </trkpt>
      <trkpt lat="48.489" lon="7.02246">
        <ele>366</ele>
        <time>2016-07-06T08:36:26Z</time>
      </trkpt>
      <trkpt lat="48.48929" lon="7.02283">
        <ele>366</ele>
        <time>2016-07-06T08:38:26Z</time>
      </trkpt>
      <trkpt lat="48.48962" lon="7.02321">
        <ele>366</ele>
        <time>2016-07-06T08:40:26Z</time>
      </trkpt>
      <trkpt lat="48.49012" lon="7.02378">
        <ele>364</ele>
        <time>2016-07-06T08:42:26Z</time>
      </trkpt>
      <trkpt lat="48.4902" lon="7.0239">
        <ele>364</ele>
        <time>2016-07-06T08:44:26Z</time>
      </trkpt>
      <trkpt lat="48.4903" lon="7.02402">
        <ele>363</ele>
        <time>2016-07-06T08:46:26Z</time>
      </trkpt>
      <trkpt lat="48.49037" lon="7.02414">
        <ele>363</ele>
        <time>2016-07-06T08:48:26Z</time>
      </trkpt>
      <trkpt lat="48.49042" lon="7.02429">
        <ele>363</ele>
        <time>2016-07-06T08:50:26Z</time>
      </trkpt>
      <trkpt lat="48.49046" lon="7.02442">
        <ele>363</ele>
        <time>2016-07-06T08:52:26Z</time>
      </trkpt>
      <trkpt lat="48.49049" lon="7.02459">
        <ele>363</ele>
        <time>2016-07-06T08:54:26Z</time>
      </trkpt>
      <trkpt lat="48.49049" lon="7.02475">
        <ele>364</ele>
        <time>2016-07-06T08:56:26Z</time>
      </trkpt>
      <trkpt lat="48.49049" lon="7.02496">
        <ele>365</ele>
        <time>2016-07-06T08:58:26Z</time>
      </trkpt>
      <trkpt lat="48.49039" lon="7.02617">
        <ele>372</ele>
        <time>2016-07-06T09:00:26Z</time>
      </trkpt>
      <trkpt lat="48.49037" lon="7.02658">
        <ele>375</ele>
        <time>2016-07-06T09:02:26Z</time>
      </trkpt>
      <trkpt lat="48.49037" lon="7.02684">
        <ele>377</ele>
        <time>2016-07-06T09:04:26Z</time>
      </trkpt>
      <trkpt lat="48.49039" lon="7.02707">
        <ele>377</ele>
        <time>2016-07-06T09:06:26Z</time>
      </trkpt>
      <trkpt lat="48.49042" lon="7.02733">
        <ele>377</ele>
        <time>2016-07-06T09:08:26Z</time>
      </trkpt>
      <trkpt lat="48.49054" lon="7.02782">
        <ele>375</ele>
        <time>2016-07-06T09:10:26Z</time>
      </trkpt>
      <trkpt lat="48.49063" lon="7.02812">
        <ele>373</ele>
        <time>2016-07-06T09:12:26Z</time>
      </trkpt>
      <trkpt lat="48.49076" lon="7.02845">
        <ele>372</ele>
        <time>2016-07-06T09:14:26Z</time>
      </trkpt>
      <trkpt lat="48.49086" lon="7.02866">
        <ele>373</ele>
        <time>2016-07-06T09:16:26Z</time>
      </trkpt>
      <trkpt lat="48.49099" lon="7.02886">
        <ele>374</ele>
        <time>2016-07-06T09:18:26Z</time>
      </trkpt>
      <trkpt lat="48.49119" lon="7.02909">
        <ele>372</ele>
        <time>2016-07-06T09:20:26Z</time>
      </trkpt>
      <trkpt lat="48.49134" lon="7.02932">
        <ele>372</ele>
        <time>2016-07-06T09:22:26Z</time>
      </trkpt>
      <trkpt lat="48.49138" lon="7.0294">
        <ele>372</ele>
        <time>2016-07-06T09:24:26Z</time>
      </trkpt>
      <trkpt lat="48.4914" lon="7.02944">
        <ele>372</ele>
        <time>2016-07-06T09:26:26Z</time>
      </trkpt>
      <trkpt lat="48.49146" lon="7.02955">
        <ele>372</ele>
        <time>2016-07-06T09:28:26Z</time>
      </trkpt>
      <trkpt lat="48.49163" lon="7.02989">
        <ele>373</ele>
        <time>2016-07-06T09:30:26Z</time>
      </trkpt>
      <trkpt lat="48.49181" lon="7.03025">
        <ele>375</ele>
        <time>2016-07-06T09:32:26Z</time>
      </trkpt>
      <trkpt lat="48.49196" lon="7.03057">
        <ele>376</ele>
        <time>2016-07-06T09:34:26Z</time>
      </trkpt>
      <trkpt lat="48.49204" lon="7.0308">
        <ele>376</ele>
        <time>2016-07-06T09:36:26Z</time>
      </trkpt>
      <trkpt lat="48.4921" lon="7.03101">
        <ele>376</ele>
        <time>2016-07-06T09:38:26Z</time>
      </trkpt>
      <trkpt lat="48.49216" lon="7.03122">
        <ele>376</ele>
        <time>2016-07-06T09:40:26Z</time>
      </trkpt>
      <trkpt lat="48.49219" lon="7.03145">
        <ele>376</ele>
        <time>2016-07-06T09:42:26Z</time>
      </trkpt>
      <trkpt lat="48.49221" lon="7.03165">
        <ele>377</ele>
        <time>2016-07-06T09:44:26Z</time>
      </trkpt>
      <trkpt lat="48.49222" lon="7.03192">
        <ele>377</ele>
        <time>2016-07-06T09:46:26Z</time>
      </trkpt>
      <trkpt lat="48.49222" lon="7.03205">
        <ele>377</ele>
        <time>2016-07-06T09:48:26Z</time>
      </trkpt>
      <trkpt lat="48.49221" lon="7.03225">
        <ele>378</ele>
        <time>2016-07-06T09:50:26Z</time>
      </trkpt>
      <trkpt lat="48.4922" lon="7.03319">
        <ele>379</ele>
        <time>2016-07-06T09:52:26Z</time>
      </trkpt>
      <trkpt lat="48.49218" lon="7.03377">
        <ele>379</ele>
        <time>2016-07-06T09:54:26Z</time>
      </trkpt>
      <trkpt lat="48.49218" lon="7.03395">
        <ele>378</ele>
        <time>2016-07-06T09:56:26Z</time>
      </trkpt>
      <trkpt lat="48.49217" lon="7.03435">
        <ele>377</ele>
        <time>2016-07-06T09:58:26Z</time>
      </trkpt>
      <trkpt lat="48.49219" lon="7.03452">
        <ele>375</ele>
        <time>2016-07-06T10:00:26Z</time>
      </trkpt>
      <trkpt lat="48.49222" lon="7.03478">
        <ele>373</ele>
        <time>2016-07-06T10:02:26Z</time>
      </trkpt>
      <trkpt lat="48.49235" lon="7.03569">
        <ele>371</ele>
        <time>2016-07-06T10:04:26Z</time>
      </trkpt>
      <trkpt lat="48.49242" lon="7.03609">
        <ele>371</ele>
        <time>2016-07-06T10:06:26Z</time>
      </trkpt>
      <trkpt lat="48.49253" lon="7.0369">
        <ele>373</ele>
        <time>2016-07-06T10:08:26Z</time>
      </trkpt>
      <trkpt lat="48.49265" lon="7.03758">
        <ele>376</ele>
        <time>2016-07-06T10:10:26Z</time>
      </trkpt>
      <trkpt lat="48.49277" lon="7.03816">
        <ele>375</ele>
        <time>2016-07-06T10:12:26Z</time>
      </trkpt>
      <trkpt lat="48.49303" lon="7.0393">
        <ele>372</ele>
        <time>2016-07-06T10:14:26Z</time>
      </trkpt>
      <trkpt lat="48.49316" lon="7.04006">
        <ele>372</ele>
        <time>2016-07-06T10:16:26Z</time>
      </trkpt>
      <trkpt lat="48.4932" lon="7.04032">
        <ele>373</ele>
        <time>2016-07-06T10:18:26Z</time>
      </trkpt>
      <trkpt lat="48.49327" lon="7.04081">
        <ele>374</ele>
        <time>2016-07-06T10:20:26Z</time>
      </trkpt>
      <trkpt lat="48.49334" lon="7.04118">
        <ele>374</ele>
        <time>2016-07-06T10:22:26Z</time>
      </trkpt>
      <trkpt lat="48.49335" lon="7.04127">
        <ele>374</ele>
        <time>2016-07-06T10:24:26Z</time>
      </trkpt>
      <trkpt lat="48.49336" lon="7.04152">
        <ele>375</ele>
        <time>2016-07-06T10:26:26Z</time>
      </trkpt>
      <trkpt lat="48.49337" lon="7.04169">
        <ele>376</ele>
        <time>2016-07-06T10:28:26Z</time>
      </trkpt>
      <trkpt lat="48.49337" lon="7.04187">
        <ele>376</ele>
        <time>2016-07-06T10:30:26Z</time>
      </trkpt>
      <trkpt lat="48.49336" lon="7.04268">
        <ele>375</ele>
        <time>2016-07-06T10:32:26Z</time>
      </trkpt>
      <trkpt lat="48.49337" lon="7.04284">
        <ele>374</ele>
        <time>2016-07-06T10:34:26Z</time>
      </trkpt>
      <trkpt lat="48.49338" lon="7.04298">
        <ele>373</ele>
        <time>2016-07-06T10:36:26Z</time>
      </trkpt>
      <trkpt lat="48.4934" lon="7.04314">
        <ele>372</ele>
        <time>2016-07-06T10:38:26Z</time>
      </trkpt>
      <trkpt lat="48.49346" lon="7.04343">
        <ele>370</ele>
        <time>2016-07-06T10:40:26Z</time>
      </trkpt>
      <trkpt lat="48.4935" lon="7.04356">
        <ele>370</ele>
        <time>2016-07-06T10:42:26Z</time>
      </trkpt>
      <trkpt lat="48.49354" lon="7.04367">
        <ele>369</ele>
        <time>2016-07-06T10:44:26Z</time>
      </trkpt>
      <trkpt lat="48.49363" lon="7.04385">
        <ele>369</ele>
        <time>2016-07-06T10:46:26Z</time>
      </trkpt>
      <trkpt lat="48.49371" lon="7.04401">
        <ele>369</ele>
        <time>2016-07-06T10:48:26Z</time>
      </trkpt>
      <trkpt lat="48.49387" lon="7.04422">
        <ele>368</ele>
        <time>2016-07-06T10:50:26Z</time>
      </trkpt>
      <trkpt lat="48.49387" lon="7.04422">
        <ele>368</ele>
        <time>2016-07-06T10:52:26Z</time>
      </trkpt>
      <trkpt lat="48.49395" lon="7.04414">
        <ele>368</ele>
        <time>2016-07-06T10:54:26Z</time>
      </trkpt>
      <trkpt lat="48.49395" lon="7.04414">
        <ele>368</ele>
        <time>2016-07-06T10:56:26Z</time>
      </trkpt>
      <trkpt lat="48.49411" lon="7.04434">
        <ele>368</ele>
        <time>2016-07-06T10:58:26Z</time>
      </trkpt>
      <trkpt lat="48.49416" lon="7.04439">
        <ele>368</ele>
        <time>2016-07-06T11:00:26Z</time>
      </trkpt>
      <trkpt lat="48.4942" lon="7.04445">
        <ele>368</ele>
        <time>2016-07-06T11:02:26Z</time>
      </trkpt>
      <trkpt lat="48.49425" lon="7.04451">
        <ele>368</ele>
        <time>2016-07-06T11:04:26Z</time>
      </trkpt>
      <trkpt lat="48.4943" lon="7.04458">
        <ele>369</ele>
        <time>2016-07-06T11:06:26Z</time>
      </trkpt>
      <trkpt lat="48.49434" lon="7.04464">
        <ele>369</ele>
        <time>2016-07-06T11:08:26Z</time>
      </trkpt>
      <trkpt lat="48.49438" lon="7.0447">
        <ele>369</ele>
        <time>2016-07-06T11:10:26Z</time>
      </trkpt>
      <trkpt lat="48.49441" lon="7.04476">
        <ele>369</ele>
        <time>2016-07-06T11:12:26Z</time>
      </trkpt>
      <trkpt lat="48.49445" lon="7.04481">
        <ele>369</ele>
        <time>2016-07-06T11:14:26Z</time>
      </trkpt>
      <trkpt lat="48.49449" lon="7.04486">
        <ele>369</ele>
        <time>2016-07-06T11:16:26Z</time>
      </trkpt>
      <trkpt lat="48.49452" lon="7.04491">
        <ele>369</ele>
        <time>2016-07-06T11:18:26Z</time>
      </trkpt>
      <trkpt lat="48.49454" lon="7.04494">
        <ele>369</ele>
        <time>2016-07-06T11:20:26Z</time>
      </trkpt>
      <trkpt lat="48.49455" lon="7.04496">
        <ele>369</ele>
        <time>2016-07-06T11:22:26Z</time>
      </trkpt>
      <trkpt lat="48.49456" lon="7.04499">
        <ele>369</ele>
        <time>2016-07-06T11:24:26Z</time>
      </trkpt>
      <trkpt lat="48.4946" lon="7.04519">
        <ele>370</ele>
        <time>2016-07-06T11:26:26Z</time>
      </trkpt>
      <trkpt lat="48.4946" lon="7.04524">
        <ele>370</ele>
        <time>2016-07-06T11:28:26Z</time>
      </trkpt>
      <trkpt lat="48.49461" lon="7.04528">
        <ele>370</ele>
        <time>2016-07-06T11:30:26Z</time>
      </trkpt>
      <trkpt lat="48.49461" lon="7.04533">
        <ele>370</ele>
        <time>2016-07-06T11:32:26Z</time>
      </trkpt>
      <trkpt lat="48.49462" lon="7.04538">
        <ele>370</ele>
        <time>2016-07-06T11:34:26Z</time>
      </trkpt>
      <trkpt lat="48.49462" lon="7.04543">
        <ele>371</ele>
        <time>2016-07-06T11:36:26Z</time>
      </trkpt>
      <trkpt lat="48.49463" lon="7.0455">
        <ele>371</ele>
        <time>2016-07-06T11:38:26Z</time>
      </trkpt>
      <trkpt lat="48.49463" lon="7.04557">
        <ele>371</ele>
        <time>2016-07-06T11:40:26Z</time>
      </trkpt>
      <trkpt lat="48.49463" lon="7.04565">
        <ele>371</ele>
        <time>2016-07-06T11:42:26Z</time>
      </trkpt>
      <trkpt lat="48.49463" lon="7.04575">
        <ele>371</ele>
        <time>2016-07-06T11:44:26Z</time>
      </trkpt>
      <trkpt lat="48.49462" lon="7.04585">
        <ele>372</ele>
        <time>2016-07-06T11:46:26Z</time>
      </trkpt>
      <trkpt lat="48.49461" lon="7.04597">
        <ele>372</ele>
        <time>2016-07-06T11:48:26Z</time>
      </trkpt>
      <trkpt lat="48.4946" lon="7.04609">
        <ele>373</ele>
        <time>2016-07-06T11:50:26Z</time>
      </trkpt>
      <trkpt lat="48.49458" lon="7.04621">
        <ele>373</ele>
        <time>2016-07-06T11:52:26Z</time>
      </trkpt>
      <trkpt lat="48.49457" lon="7.04634">
        <ele>374</ele>
        <time>2016-07-06T11:54:26Z</time>
      </trkpt>
      <trkpt lat="48.49456" lon="7.04647">
        <ele>374</ele>
        <time>2016-07-06T11:56:26Z</time>
      </trkpt>
      <trkpt lat="48.49455" lon="7.0466">
        <ele>375</ele>
        <time>2016-07-06T11:58:26Z</time>
      </trkpt>
      <trkpt lat="48.49453" lon="7.04673">
        <ele>375</ele>
        <time>2016-07-06T12:00:26Z</time>
      </trkpt>
      <trkpt lat="48.49451" lon="7.04685">
        <ele>376</ele>
        <time>2016-07-06T12:02:26Z</time>
      </trkpt>
      <trkpt lat="48.4945" lon="7.04697">
        <ele>376</ele>
        <time>2016-07-06T12:04:26Z</time>
      </trkpt>
      <trkpt lat="48.49449" lon="7.04707">
        <ele>376</ele>
        <time>2016-07-06T12:06:26Z</time>
      </trkpt>
      <trkpt lat="48.49448" lon="7.04727">
        <ele>376</ele>
        <time>2016-07-06T12:08:26Z</time>
      </trkpt>
      <trkpt lat="48.49447" lon="7.04742">
        <ele>377</ele>
        <time>2016-07-06T12:10:26Z</time>
      </trkpt>
      <trkpt lat="48.49447" lon="7.04751">
        <ele>377</ele>
        <time>2016-07-06T12:12:26Z</time>
      </trkpt>
      <trkpt lat="48.49448" lon="7.04758">
        <ele>377</ele>
        <time>2016-07-06T12:14:26Z</time>
      </trkpt>
      <trkpt lat="48.4945" lon="7.04762">
        <ele>377</ele>
        <time>2016-07-06T12:16:26Z</time>
      </trkpt>
      <trkpt lat="48.49454" lon="7.04764">
        <ele>377</ele>
        <time>2016-07-06T12:18:26Z</time>
      </trkpt>
      <trkpt lat="48.49459" lon="7.04766">
        <ele>377</ele>
        <time>2016-07-06T12:20:26Z</time>
      </trkpt>
      <trkpt lat="48.49462" lon="7.04768">
        <ele>377</ele>
        <time>2016-07-06T12:22:26Z</time>
      </trkpt>
      <trkpt lat="48.49464" lon="7.04769">
        <ele>377</ele>
        <time>2016-07-06T12:24:26Z</time>
      </trkpt>
      <trkpt lat="48.49467" lon="7.04771">
        <ele>377</ele>
        <time>2016-07-06T12:26:26Z</time>
      </trkpt>
      <trkpt lat="48.4947" lon="7.04774">
        <ele>377</ele>
        <time>2016-07-06T12:28:26Z</time>
      </trkpt>
      <trkpt lat="48.49473" lon="7.0478">
        <ele>377</ele>
        <time>2016-07-06T12:30:26Z</time>
      </trkpt>
      <trkpt lat="48.49475" lon="7.04788">
        <ele>377</ele>
        <time>2016-07-06T12:32:26Z</time>
      </trkpt>
      <trkpt lat="48.49477" lon="7.04798">
        <ele>377</ele>
        <time>2016-07-06T12:34:26Z</time>
      </trkpt>
      <trkpt lat="48.49478" lon="7.04809">
        <ele>377</ele>
        <time>2016-07-06T12:36:26Z</time>
      </trkpt>
      <trkpt lat="48.49479" lon="7.04822">
        <ele>377</ele>
        <time>2016-07-06T12:38:26Z</time>
      </trkpt>
      <trkpt lat="48.49479" lon="7.04835">
        <ele>377</ele>
        <time>2016-07-06T12:40:26Z</time>
      </trkpt>
      <trkpt lat="48.49479" lon="7.04849">
        <ele>377</ele>
        <time>2016-07-06T12:42:26Z</time>
      </trkpt>
      <trkpt lat="48.4948" lon="7.04863">
        <ele>377</ele>
        <time>2016-07-06T12:44:26Z</time>
      </trkpt>
      <trkpt lat="48.49481" lon="7.04878">
        <ele>377</ele>
        <time>2016-07-06T12:46:26Z</time>
      </trkpt>
      <trkpt lat="48.49483" lon="7.04892">
        <ele>377</ele>
        <time>2016-07-06T12:48:26Z</time>
      </trkpt>
      <trkpt lat="48.49485" lon="7.04907">
        <ele>376</ele>
        <time>2016-07-06T12:50:26Z</time>
      </trkpt>
      <trkpt lat="48.49487" lon="7.04922">
        <ele>376</ele>
        <time>2016-07-06T12:52:26Z</time>
      </trkpt>
      <trkpt lat="48.49489" lon="7.04937">
        <ele>376</ele>
        <time>2016-07-06T12:54:26Z</time>
      </trkpt>
      <trkpt lat="48.49492" lon="7.04952">
        <ele>376</ele>
        <time>2016-07-06T12:56:26Z</time>
      </trkpt>
      <trkpt lat="48.49494" lon="7.04967">
        <ele>376</ele>
        <time>2016-07-06T12:58:26Z</time>
      </trkpt>
      <trkpt lat="48.49496" lon="7.04982">
        <ele>375</ele>
        <time>2016-07-06T13:00:26Z</time>
      </trkpt>
      <trkpt lat="48.49498" lon="7.04997">
        <ele>375</ele>
        <time>2016-07-06T13:02:26Z</time>
      </trkpt>
      <trkpt lat="48.495" lon="7.05013">
        <ele>375</ele>
        <time>2016-07-06T13:04:26Z</time>
      </trkpt>
      <trkpt lat="48.49501" lon="7.05027">
        <ele>376</ele>
        <time>2016-07-06T13:06:26Z</time>
      </trkpt>
      <trkpt lat="48.49503" lon="7.0504">
        <ele>376</ele>
        <time>2016-07-06T13:08:26Z</time>
      </trkpt>
      <trkpt lat="48.49506" lon="7.05052">
        <ele>377</ele>
        <time>2016-07-06T13:10:26Z</time>
      </trkpt>
      <trkpt lat="48.4951" lon="7.05063">
        <ele>377</ele>
        <time>2016-07-06T13:12:26Z</time>
      </trkpt>
      <trkpt lat="48.49514" lon="7.05074">
        <ele>377</ele>
        <time>2016-07-06T13:14:26Z</time>
      </trkpt>
      <trkpt lat="48.49519" lon="7.05084">
        <ele>377</ele>
        <time>2016-07-06T13:16:26Z</time>
      </trkpt>
      <trkpt lat="48.49525" lon="7.05092">
        <ele>377</ele>
        <time>2016-07-06T13:18:26Z</time>
      </trkpt>
      <trkpt lat="48.49532" lon="7.05097">
        <ele>376</ele>
        <time>2016-07-06T13:20:26Z</time>
      </trkpt>
      <trkpt lat="48.49539" lon="7.05101">
        <ele>376</ele>
        <time>2016-07-06T13:22:26Z</time>
      </trkpt>
      <trkpt lat="48.49547" lon="7.05103">
        <ele>376</ele>
        <time>2016-07-06T13:24:26Z</time>
      </trkpt>
      <trkpt lat="48.49555" lon="7.05106">
        <ele>375</ele>
        <time>2016-07-06T13:26:26Z</time>
      </trkpt>
      <trkpt lat="48.49562" lon="7.0511">
        <ele>375</ele>
        <time>2016-07-06T13:28:26Z</time>
      </trkpt>
      <trkpt lat="48.49567" lon="7.05117">
        <ele>374</ele>
        <time>2016-07-06T13:30:26Z</time>
      </trkpt>
      <trkpt lat="48.4957" lon="7.05126">
        <ele>374</ele>
        <time>2016-07-06T13:32:26Z</time>
      </trkpt>
      <trkpt lat="48.49573" lon="7.05137">
        <ele>374</ele>
        <time>2016-07-06T13:34:26Z</time>
      </trkpt>
      <trkpt lat="48.49575" lon="7.05149">
        <ele>374</ele>
        <time>2016-07-06T13:36:26Z</time>
      </trkpt>
      <trkpt lat="48.49578" lon="7.0516">
        <ele>374</ele>
        <time>2016-07-06T13:38:26Z</time>
      </trkpt>
      <trkpt lat="48.49581" lon="7.0517">
        <ele>373</ele>
        <time>2016-07-06T13:40:26Z</time>
      </trkpt>
      <trkpt lat="48.49587" lon="7.05177">
        <ele>373</ele>
        <time>2016-07-06T13:42:26Z</time>
      </trkpt>
      <trkpt lat="48.49593" lon="7.05181">
        <ele>374</ele>
        <time>2016-07-06T13:44:26Z</time>
      </trkpt>
      <trkpt lat="48.49599" lon="7.05182">
        <ele>374</ele>
        <time>2016-07-06T13:46:26Z</time>
      </trkpt>
      <trkpt lat="48.49606" lon="7.05185">
        <ele>374</ele>
        <time>2016-07-06T13:48:26Z</time>
      </trkpt>
      <trkpt lat="48.4961" lon="7.05192">
        <ele>374</ele>
        <time>2016-07-06T13:50:26Z</time>
      </trkpt>
      <trkpt lat="48.49613" lon="7.05202">
        <ele>374</ele>
        <time>2016-07-06T13:52:26Z</time>
      </trkpt>
      <trkpt lat="48.49617" lon="7.05213">
        <ele>375</ele>
        <time>2016-07-06T13:54:26Z</time>
      </trkpt>
      <trkpt lat="48.4962" lon="7.05223">
        <ele>375</ele>
        <time>2016-07-06T13:56:26Z</time>
      </trkpt>
      <trkpt lat="48.49625" lon="7.05232">
        <ele>375</ele>
        <time>2016-07-06T13:58:26Z</time>
      </trkpt>
      <trkpt lat="48.49631" lon="7.05239">
        <ele>376</ele>
        <time>2016-07-06T14:00:26Z</time>
      </trkpt>
      <trkpt lat="48.49639" lon="7.05243">
        <ele>376</ele>
        <time>2016-07-06T14:02:26Z</time>
      </trkpt>
      <trkpt lat="48.49646" lon="7.05245">
        <ele>376</ele>
        <time>2016-07-06T14:04:26Z</time>
      </trkpt>
      <trkpt lat="48.49654" lon="7.05244">
        <ele>376</ele>
        <time>2016-07-06T14:06:26Z</time>
      </trkpt>
      <trkpt lat="48.49661" lon="7.0524">
        <ele>377</ele>
        <time>2016-07-06T14:08:26Z</time>
      </trkpt>
      <trkpt lat="48.49669" lon="7.05235">
        <ele>377</ele>
        <time>2016-07-06T14:10:26Z</time>
      </trkpt>
      <trkpt lat="48.49676" lon="7.05228">
        <ele>378</ele>
        <time>2016-07-06T14:12:26Z</time>
      </trkpt>
      <trkpt lat="48.49684" lon="7.05222">
        <ele>379</ele>
        <time>2016-07-06T14:14:26Z</time>
      </trkpt>
      <trkpt lat="48.49692" lon="7.05218">
        <ele>380</ele>
        <time>2016-07-06T14:16:26Z</time>
      </trkpt>
      <trkpt lat="48.497" lon="7.05217">
        <ele>381</ele>
        <time>2016-07-06T14:18:26Z</time>
      </trkpt>
      <trkpt lat="48.49708" lon="7.05218">
        <ele>382</ele>
        <time>2016-07-06T14:20:26Z</time>
      </trkpt>
      <trkpt lat="48.49716" lon="7.05221">
        <ele>383</ele>
        <time>2016-07-06T14:22:26Z</time>
      </trkpt>
      <trkpt lat="48.49722" lon="7.05225">
        <ele>384</ele>
        <time>2016-07-06T14:24:26Z</time>
      </trkpt>
      <trkpt lat="48.49728" lon="7.05232">
        <ele>384</ele>
        <time>2016-07-06T14:26:26Z</time>
      </trkpt>
      <trkpt lat="48.49732" lon="7.05241">
        <ele>385</ele>
        <time>2016-07-06T14:28:26Z</time>
      </trkpt>
      <trkpt lat="48.49737" lon="7.0525">
        <ele>385</ele>
        <time>2016-07-06T14:30:26Z</time>
      </trkpt>
      <trkpt lat="48.49742" lon="7.0526">
        <ele>386</ele>
        <time>2016-07-06T14:32:26Z</time>
      </trkpt>
      <trkpt lat="48.49746" lon="7.05272">
        <ele>387</ele>
        <time>2016-07-06T14:34:26Z</time>
      </trkpt>
      <trkpt lat="48.4975" lon="7.05284">
        <ele>387</ele>
        <time>2016-07-06T14:36:26Z</time>
      </trkpt>
      <trkpt lat="48.49754" lon="7.05296">
        <ele>388</ele>
        <time>2016-07-06T14:38:26Z</time>
      </trkpt>
      <trkpt lat="48.49758" lon="7.05309">
        <ele>388</ele>
        <time>2016-07-06T14:40:26Z</time>
      </trkpt>
      <trkpt lat="48.49761" lon="7.05321">
        <ele>389</ele>
        <time>2016-07-06T14:42:26Z</time>
      </trkpt>
      <trkpt lat="48.49764" lon="7.05332">
        <ele>390</ele>
        <time>2016-07-06T14:44:26Z</time>
      </trkpt>
      <trkpt lat="48.49766" lon="7.05343">
        <ele>389</ele>
        <time>2016-07-06T14:46:26Z</time>
      </trkpt>
      <trkpt lat="48.49768" lon="7.05352">
        <ele>389</ele>
        <time>2016-07-06T14:48:26Z</time>
      </trkpt>
      <trkpt lat="48.49771" lon="7.05361">
        <ele>389</ele>
        <time>2016-07-06T14:50:26Z</time>
      </trkpt>
      <trkpt lat="48.49774" lon="7.05371">
        <ele>388</ele>
        <time>2016-07-06T14:52:26Z</time>
      </trkpt>
      <trkpt lat="48.49842" lon="7.05479">
        <ele>391</ele>
        <time>2016-07-06T14:54:26Z</time>
      </trkpt>
      <trkpt lat="48.49846" lon="7.0549">
        <ele>391</ele>
        <time>2016-07-06T14:56:26Z</time>
      </trkpt>
      <trkpt lat="48.49848" lon="7.05502">
        <ele>391</ele>
        <time>2016-07-06T14:58:26Z</time>
      </trkpt>
      <trkpt lat="48.4985" lon="7.05513">
        <ele>391</ele>
        <time>2016-07-06T15:00:26Z</time>
      </trkpt>
      <trkpt lat="48.49848" lon="7.05537">
        <ele>389</ele>
        <time>2016-07-06T15:02:26Z</time>
      </trkpt>
      <trkpt lat="48.49847" lon="7.0555">
        <ele>388</ele>
        <time>2016-07-06T15:04:26Z</time>
      </trkpt>
      <trkpt lat="48.49848" lon="7.05562">
        <ele>388</ele>
        <time>2016-07-06T15:06:26Z</time>
      </trkpt>
      <trkpt lat="48.49851" lon="7.05574">
        <ele>388</ele>
        <time>2016-07-06T15:08:26Z</time>
      </trkpt>
      <trkpt lat="48.49856" lon="7.05585">
        <ele>389</ele>
        <time>2016-07-06T15:10:26Z</time>
      </trkpt>
      <trkpt lat="48.49862" lon="7.05597">
        <ele>390</ele>
        <time>2016-07-06T15:12:26Z</time>
      </trkpt>
      <trkpt lat="48.49868" lon="7.0561">
        <ele>391</ele>
        <time>2016-07-06T15:14:26Z</time>
      </trkpt>
      <trkpt lat="48.49874" lon="7.05623">
        <ele>392</ele>
        <time>2016-07-06T15:16:26Z</time>
      </trkpt>
      <trkpt lat="48.49881" lon="7.05637">
        <ele>393</ele>
        <time>2016-07-06T15:18:26Z</time>
      </trkpt>
      <trkpt lat="48.49888" lon="7.05651">
        <ele>394</ele>
        <time>2016-07-06T15:20:26Z</time>
      </trkpt>
      <trkpt lat="48.49894" lon="7.05665">
        <ele>395</ele>
        <time>2016-07-06T15:22:26Z</time>
      </trkpt>
      <trkpt lat="48.49901" lon="7.05679">
        <ele>395</ele>
        <time>2016-07-06T15:24:26Z</time>
      </trkpt>
      <trkpt lat="48.49908" lon="7.05692">
        <ele>395</ele>
        <time>2016-07-06T15:26:26Z</time>
      </trkpt>
      <trkpt lat="48.49914" lon="7.05706">
        <ele>394</ele>
        <time>2016-07-06T15:28:26Z</time>
      </trkpt>
      <trkpt lat="48.4992" lon="7.0572">
        <ele>393</ele>
        <time>2016-07-06T15:30:26Z</time>
      </trkpt>
      <trkpt lat="48.49924" lon="7.05735">
        <ele>391</ele>
        <time>2016-07-06T15:32:26Z</time>
      </trkpt>
      <trkpt lat="48.49929" lon="7.05749">
        <ele>390</ele>
        <time>2016-07-06T15:34:26Z</time>
      </trkpt>
      <trkpt lat="48.49933" lon="7.05764">
        <ele>390</ele>
        <time>2016-07-06T15:36:26Z</time>
      </trkpt>
      <trkpt lat="48.49938" lon="7.05779">
        <ele>390</ele>
        <time>2016-07-06T15:38:26Z</time>
      </trkpt>
      <trkpt lat="48.49944" lon="7.05794">
        <ele>390</ele>
        <time>2016-07-06T15:40:26Z</time>
      </trkpt>
      <trkpt lat="48.4995" lon="7.05808">
        <ele>391</ele>
        <time>2016-07-06T15:42:26Z</time>
      </trkpt>
      <trkpt lat="48.49957" lon="7.05822">
        <ele>391</ele>
        <time>2016-07-06T15:44:26Z</time>
      </trkpt>
      <trkpt lat="48.49963" lon="7.05836">
        <ele>392</ele>
        <time>2016-07-06T15:46:26Z</time>
      </trkpt>
      <trkpt lat="48.4997" lon="7.05848">
        <ele>393</ele>
        <time>2016-07-06T15:48:26Z</time>
      </trkpt>
      <trkpt lat="48.49975" lon="7.05859">
        <ele>393</ele>
        <time>2016-07-06T15:50:26Z</time>
      </trkpt>
      <trkpt lat="48.4998" lon="7.0587">
        <ele>394</ele>
        <time>2016-07-06T15:52:26Z</time>
      </trkpt>
      <trkpt lat="48.49985" lon="7.05882">
        <ele>394</ele>
        <time>2016-07-06T15:54:26Z</time>
      </trkpt>
      <trkpt lat="48.49989" lon="7.05894">
        <ele>394</ele>
        <time>2016-07-06T15:56:26Z</time>
      </trkpt>
      <trkpt lat="48.49993" lon="7.05906">
        <ele>394</ele>
        <time>2016-07-06T15:58:26Z</time>
      </trkpt>
      <trkpt lat="48.49996" lon="7.05918">
        <ele>394</ele>
        <time>2016-07-06T16:00:26Z</time>
      </trkpt>
      <trkpt lat="48.49999" lon="7.05931">
        <ele>395</ele>
        <time>2016-07-06T16:02:26Z</time>
      </trkpt>
      <trkpt lat="48.50001" lon="7.05945">
        <ele>395</ele>
        <time>2016-07-06T16:04:26Z</time>
      </trkpt>
      <trkpt lat="48.50002" lon="7.05959">
        <ele>394</ele>
        <time>2016-07-06T16:06:26Z</time>
      </trkpt>
      <trkpt lat="48.50005" lon="7.05973">
        <ele>395</ele>
        <time>2016-07-06T16:08:26Z</time>
      </trkpt>
      <trkpt lat="48.50008" lon="7.05987">
        <ele>395</ele>
        <time>2016-07-06T16:10:26Z</time>
      </trkpt>
      <trkpt lat="48.50011" lon="7.06001">
        <ele>395</ele>
        <time>2016-07-06T16:12:26Z</time>
      </trkpt>
      <trkpt lat="48.50015" lon="7.06014">
        <ele>396</ele>
        <time>2016-07-06T16:14:26Z</time>
      </trkpt>
      <trkpt lat="48.5002" lon="7.06026">
        <ele>397</ele>
        <time>2016-07-06T16:16:26Z</time>
      </trkpt>
      <trkpt lat="48.50023" lon="7.06039">
        <ele>398</ele>
        <time>2016-07-06T16:18:26Z</time>
      </trkpt>
      <trkpt lat="48.50027" lon="7.06052">
        <ele>398</ele>
        <time>2016-07-06T16:20:26Z</time>
      </trkpt>
      <trkpt lat="48.50031" lon="7.06066">
        <ele>399</ele>
        <time>2016-07-06T16:22:26Z</time>
      </trkpt>
      <trkpt lat="48.50036" lon="7.06079">
        <ele>399</ele>
        <time>2016-07-06T16:24:26Z</time>
      </trkpt>
      <trkpt lat="48.5004" lon="7.06093">
        <ele>399</ele>
        <time>2016-07-06T16:26:26Z</time>
      </trkpt>
      <trkpt lat="48.50044" lon="7.06107">
        <ele>399</ele>
        <time>2016-07-06T16:28:26Z</time>
      </trkpt>
      <trkpt lat="48.50047" lon="7.06121">
        <ele>399</ele>
        <time>2016-07-06T16:30:26Z</time>
      </trkpt>
      <trkpt lat="48.50049" lon="7.06135">
        <ele>398</ele>
        <time>2016-07-06T16:32:26Z</time>
      </trkpt>
      <trkpt lat="48.5005" lon="7.06148">
        <ele>398</ele>
        <time>2016-07-06T16:34:26Z</time>
      </trkpt>
      <trkpt lat="48.50052" lon="7.0616">
        <ele>397</ele>
        <time>2016-07-06T16:36:26Z</time>
      </trkpt>
      <trkpt lat="48.50053" lon="7.06171">
        <ele>397</ele>
        <time>2016-07-06T16:38:26Z</time>
      </trkpt>
      <trkpt lat="48.50054" lon="7.06189">
        <ele>397</ele>
        <time>2016-07-06T16:40:26Z</time>
      </trkpt>
      <trkpt lat="48.50054" lon="7.06208">
        <ele>397</ele>
        <time>2016-07-06T16:42:26Z</time>
      </trkpt>
      <trkpt lat="48.50053" lon="7.06215">
        <ele>397</ele>
        <time>2016-07-06T16:44:26Z</time>
      </trkpt>
      <trkpt lat="48.50052" lon="7.06222">
        <ele>397</ele>
        <time>2016-07-06T16:46:26Z</time>
      </trkpt>
      <trkpt lat="48.5005" lon="7.06229">
        <ele>396</ele>
        <time>2016-07-06T16:48:26Z</time>
      </trkpt>
      <trkpt lat="48.50048" lon="7.06238">
        <ele>396</ele>
        <time>2016-07-06T16:50:26Z</time>
      </trkpt>
      <trkpt lat="48.50048" lon="7.06247">
        <ele>396</ele>
        <time>2016-07-06T16:52:26Z</time>
      </trkpt>
      <trkpt lat="48.50048" lon="7.06256">
        <ele>396</ele>
        <time>2016-07-06T16:54:26Z</time>
      </trkpt>
      <trkpt lat="48.5005" lon="7.06265">
        <ele>397</ele>
        <time>2016-07-06T16:56:26Z</time>
      </trkpt>
      <trkpt lat="48.50052" lon="7.06275">
        <ele>397</ele>
        <time>2016-07-06T16:58:26Z</time>
      </trkpt>
      <trkpt lat="48.50057" lon="7.06286">
        <ele>398</ele>
        <time>2016-07-06T17:00:26Z</time>
      </trkpt>
      <trkpt lat="48.50066" lon="7.06338">
        <ele>401</ele>
        <time>2016-07-06T17:02:26Z</time>
      </trkpt>
      <trkpt lat="48.50068" lon="7.06353">
        <ele>401</ele>
        <time>2016-07-06T17:04:26Z</time>
      </trkpt>
      <trkpt lat="48.50071" lon="7.06368">
        <ele>401</ele>
        <time>2016-07-06T17:06:26Z</time>
      </trkpt>
      <trkpt lat="48.50074" lon="7.06384">
        <ele>401</ele>
        <time>2016-07-06T17:08:26Z</time>
      </trkpt>
      <trkpt lat="48.50078" lon="7.064">
        <ele>402</ele>
        <time>2016-07-06T17:10:26Z</time>
      </trkpt>
      <trkpt lat="48.50082" lon="7.06416">
        <ele>402</ele>
        <time>2016-07-06T17:12:26Z</time>
      </trkpt>
      <trkpt lat="48.50086" lon="7.06431">
        <ele>402</ele>
        <time>2016-07-06T17:14:26Z</time>
      </trkpt>
      <trkpt lat="48.5009" lon="7.06446">
        <ele>401</ele>
        <time>2016-07-06T17:16:26Z</time>
      </trkpt>
      <trkpt lat="48.50095" lon="7.06461">
        <ele>401</ele>
        <time>2016-07-06T17:18:26Z</time>
      </trkpt>
      <trkpt lat="48.50099" lon="7.06476">
        <ele>401</ele>
        <time>2016-07-06T17:20:26Z</time>
      </trkpt>
      <trkpt lat="48.50103" lon="7.06492">
        <ele>401</ele>
        <time>2016-07-06T17:22:26Z</time>
      </trkpt>
      <trkpt lat="48.50106" lon="7.06508">
        <ele>401</ele>
        <time>2016-07-06T17:24:26Z</time>
      </trkpt>
      <trkpt lat="48.5011" lon="7.06524">
        <ele>400</ele>
        <time>2016-07-06T17:26:26Z</time>
      </trkpt>
      <trkpt lat="48.50113" lon="7.06541">
        <ele>400</ele>
        <time>2016-07-06T17:28:26Z</time>
      </trkpt>
      <trkpt lat="48.50116" lon="7.06557">
        <ele>399</ele>
        <time>2016-07-06T17:30:26Z</time>
      </trkpt>
      <trkpt lat="48.50119" lon="7.06573">
        <ele>399</ele>
        <time>2016-07-06T17:32:26Z</time>
      </trkpt>
      <trkpt lat="48.50121" lon="7.06588">
        <ele>398</ele>
        <time>2016-07-06T17:34:26Z</time>
      </trkpt>
      <trkpt lat="48.50123" lon="7.06602">
        <ele>398</ele>
        <time>2016-07-06T17:36:26Z</time>
      </trkpt>
      <trkpt lat="48.50125" lon="7.06615">
        <ele>397</ele>
        <time>2016-07-06T17:38:26Z</time>
      </trkpt>
      <trkpt lat="48.50126" lon="7.06626">
        <ele>397</ele>
        <time>2016-07-06T17:40:26Z</time>
      </trkpt>
      <trkpt lat="48.50128" lon="7.06637">
        <ele>397</ele>
        <time>2016-07-06T17:42:26Z</time>
      </trkpt>
      <trkpt lat="48.50129" lon="7.06647">
        <ele>396</ele>
        <time>2016-07-06T17:44:26Z</time>
      </trkpt>
      <trkpt lat="48.50131" lon="7.06658">
        <ele>396</ele>
        <time>2016-07-06T17:46:26Z</time>
      </trkpt>
      <trkpt lat="48.50133" lon="7.06668">
        <ele>396</ele>
        <time>2016-07-06T17:48:26Z</time>
      </trkpt>
      <trkpt lat="48.50135" lon="7.06678">
        <ele>396</ele>
        <time>2016-07-06T17:50:26Z</time>
      </trkpt>
      <trkpt lat="48.50137" lon="7.06689">
        <ele>396</ele>
        <time>2016-07-06T17:52:26Z</time>
      </trkpt>
      <trkpt lat="48.5014" lon="7.06699">
        <ele>397</ele>
        <time>2016-07-06T17:54:26Z</time>
      </trkpt>
      <trkpt lat="48.50142" lon="7.0671">
        <ele>397</ele>
        <time>2016-07-06T17:56:26Z</time>
      </trkpt>
      <trkpt lat="48.50144" lon="7.0672">
        <ele>397</ele>
        <time>2016-07-06T17:58:26Z</time>
      </trkpt>
      <trkpt lat="48.50147" lon="7.06731">
        <ele>397</ele>
        <time>2016-07-06T18:00:26Z</time>
      </trkpt>
      <trkpt lat="48.50149" lon="7.06741">
        <ele>398</ele>
        <time>2016-07-06T18:02:26Z</time>
      </trkpt>
      <trkpt lat="48.50152" lon="7.06751">
        <ele>398</ele>
        <time>2016-07-06T18:04:26Z</time>
      </trkpt>
      <trkpt lat="48.50155" lon="7.06761">
        <ele>397</ele>
        <time>2016-07-06T18:06:26Z</time>
      </trkpt>
      <trkpt lat="48.50159" lon="7.06771">
        <ele>397</ele>
        <time>2016-07-06T18:08:26Z</time>
      </trkpt>
      <trkpt lat="48.50163" lon="7.0678">
        <ele>397</ele>
        <time>2016-07-06T18:10:26Z</time>
      </trkpt>
      <trkpt lat="48.50168" lon="7.06788">
        <ele>396</ele>
        <time>2016-07-06T18:12:26Z</time>
      </trkpt>
      <trkpt lat="48.50174" lon="7.06796">
        <ele>397</ele>
        <time>2016-07-06T18:14:26Z</time>
      </trkpt>
      <trkpt lat="48.50179" lon="7.06803">
        <ele>397</ele>
        <time>2016-07-06T18:16:26Z</time>
      </trkpt>
      <trkpt lat="48.50185" lon="7.06811">
        <ele>397</ele>
        <time>2016-07-06T18:18:26Z</time>
      </trkpt>
      <trkpt lat="48.50191" lon="7.06819">
        <ele>397</ele>
        <time>2016-07-06T18:20:26Z</time>
      </trkpt>
      <trkpt lat="48.50196" lon="7.06826">
        <ele>398</ele>
        <time>2016-07-06T18:22:26Z</time>
      </trkpt>
      <trkpt lat="48.502" lon="7.06833">
        <ele>397</ele>
        <time>2016-07-06T18:24:26Z</time>
      </trkpt>
      <trkpt lat="48.50205" lon="7.0684">
        <ele>398</ele>
        <time>2016-07-06T18:26:26Z</time>
      </trkpt>
      <trkpt lat="48.50208" lon="7.06845">
        <ele>398</ele>
        <time>2016-07-06T18:28:26Z</time>
      </trkpt>
      <trkpt lat="48.50211" lon="7.0685">
        <ele>398</ele>
        <time>2016-07-06T18:30:26Z</time>
      </trkpt>
      <trkpt lat="48.50213" lon="7.06854">
        <ele>398</ele>
        <time>2016-07-06T18:32:26Z</time>
      </trkpt>
      <trkpt lat="48.50215" lon="7.06857">
        <ele>398</ele>
        <time>2016-07-06T18:34:26Z</time>
      </trkpt>
      <trkpt lat="48.50218" lon="7.06862">
        <ele>398</ele>
        <time>2016-07-06T18:36:26Z</time>
      </trkpt>
      <trkpt lat="48.50221" lon="7.06866">
        <ele>398</ele>
        <time>2016-07-06T18:38:26Z</time>
      </trkpt>
      <trkpt lat="48.50224" lon="7.0687">
        <ele>398</ele>
        <time>2016-07-06T18:40:26Z</time>
      </trkpt>
      <trkpt lat="48.50233" lon="7.06878">
        <ele>398</ele>
        <time>2016-07-06T18:42:26Z</time>
      </trkpt>
      <trkpt lat="48.50233" lon="7.06878">
        <ele>398</ele>
        <time>2016-07-06T18:44:26Z</time>
      </trkpt>
      <trkpt lat="48.50227" lon="7.06892">
        <ele>396</ele>
        <time>2016-07-06T18:46:26Z</time>
      </trkpt>
      <trkpt lat="48.50225" lon="7.06897">
        <ele>396</ele>
        <time>2016-07-06T18:48:26Z</time>
      </trkpt>
      <trkpt lat="48.50222" lon="7.06901">
        <ele>395</ele>
        <time>2016-07-06T18:50:26Z</time>
      </trkpt>
      <trkpt lat="48.50195" lon="7.06942">
        <ele>393</ele>
        <time>2016-07-06T18:52:26Z</time>
      </trkpt>
      <trkpt lat="48.50192" lon="7.06958">
        <ele>393</ele>
        <time>2016-07-06T18:54:26Z</time>
      </trkpt>
      <trkpt lat="48.50192" lon="7.06958">
        <ele>393</ele>
        <time>2016-07-06T18:56:26Z</time>
      </trkpt>
      <trkpt lat="48.50187" lon="7.06966">
        <ele>392</ele>
        <time>2016-07-06T18:58:26Z</time>
      </trkpt>
      <trkpt lat="48.50187" lon="7.06966">
        <ele>392</ele>
        <time>2016-07-06T19:00:26Z</time>
      </trkpt>
      <trkpt lat="48.50191" lon="7.06975">
        <ele>393</ele>
        <time>2016-07-06T19:02:26Z</time>
      </trkpt>
      <trkpt lat="48.50196" lon="7.06987">
        <ele>393</ele>
        <time>2016-07-06T19:04:26Z</time>
      </trkpt>
      <trkpt lat="48.50202" lon="7.07004">
        <ele>393</ele>
        <time>2016-07-06T19:06:26Z</time>
      </trkpt>
      <trkpt lat="48.50212" lon="7.07034">
        <ele>394</ele>
        <time>2016-07-06T19:08:26Z</time>
      </trkpt>
      <trkpt lat="48.50214" lon="7.07042">
        <ele>394</ele>
        <time>2016-07-06T19:10:26Z</time>
      </trkpt>
      <trkpt lat="48.50217" lon="7.07057">
        <ele>395</ele>
        <time>2016-07-06T19:12:26Z</time>
      </trkpt>
      <trkpt lat="48.50221" lon="7.07084">
        <ele>395</ele>
        <time>2016-07-06T19:14:26Z</time>
      </trkpt>
      <trkpt lat="48.5023" lon="7.07131">
        <ele>396</ele>
        <time>2016-07-06T19:16:26Z</time>
      </trkpt>
      <trkpt lat="48.50237" lon="7.07164">
        <ele>395</ele>
        <time>2016-07-06T19:18:26Z</time>
      </trkpt>
      <trkpt lat="48.50242" lon="7.07187">
        <ele>396</ele>
        <time>2016-07-06T19:20:26Z</time>
      </trkpt>
      <trkpt lat="48.50249" lon="7.0723">
        <ele>397</ele>
        <time>2016-07-06T19:22:26Z</time>
      </trkpt>
      <trkpt lat="48.50257" lon="7.07276">
        <ele>398</ele>
        <time>2016-07-06T19:24:26Z</time>
      </trkpt>
      <trkpt lat="48.50264" lon="7.07312">
        <ele>400</ele>
        <time>2016-07-06T19:26:26Z</time>
      </trkpt>
      <trkpt lat="48.5027" lon="7.07339">
        <ele>401</ele>
        <time>2016-07-06T19:28:26Z</time>
      </trkpt>
      <trkpt lat="48.50271" lon="7.07345">
        <ele>402</ele>
        <time>2016-07-06T19:30:26Z</time>
      </trkpt>
      <trkpt lat="48.50271" lon="7.07347">
        <ele>402</ele>
        <time>2016-07-06T19:32:26Z</time>
      </trkpt>
      <trkpt lat="48.50271" lon="7.07347">
        <ele>402</ele>
        <time>2016-07-06T19:34:26Z</time>
      </trkpt>
      <trkpt lat="48.50274" lon="7.07359">
        <ele>402</ele>
        <time>2016-07-06T19:36:26Z</time>
      </trkpt>
      <trkpt lat="48.50279" lon="7.0738">
        <ele>403</ele>
        <time>2016-07-06T19:38:26Z</time>
      </trkpt>
      <trkpt lat="48.50286" lon="7.07398">
        <ele>404</ele>
        <time>2016-07-06T19:40:26Z</time>
      </trkpt>
      <trkpt lat="48.5029" lon="7.07409">
        <ele>405</ele>
        <time>2016-07-06T19:42:26Z</time>
      </trkpt>
      <trkpt lat="48.50309" lon="7.07452">
        <ele>407</ele>
        <time>2016-07-06T19:44:26Z</time>
      </trkpt>
      <trkpt lat="48.50318" lon="7.07468">
        <ele>408</ele>
        <time>2016-07-06T19:46:26Z</time>
      </trkpt>
      <trkpt lat="48.50327" lon="7.07486">
        <ele>408</ele>
        <time>2016-07-06T19:48:26Z</time>
      </trkpt>
      <trkpt lat="48.50335" lon="7.07499">
        <ele>408</ele>
        <time>2016-07-06T19:50:26Z</time>
      </trkpt>
      <trkpt lat="48.50375" lon="7.07564">
        <ele>410</ele>
        <time>2016-07-06T19:52:26Z</time>
      </trkpt>
      <trkpt lat="48.50376" lon="7.07568">
        <ele>410</ele>
        <time>2016-07-06T19:54:26Z</time>
      </trkpt>
      <trkpt lat="48.50389" lon="7.07584">
        <ele>411</ele>
        <time>2016-07-06T19:56:26Z</time>
      </trkpt>
      <trkpt lat="48.50397" lon="7.07593">
        <ele>412</ele>
        <time>2016-07-06T19:58:26Z</time>
      </trkpt>
      <trkpt lat="48.50409" lon="7.07602">
        <ele>413</ele>
        <time>2016-07-06T20:00:26Z</time>
      </trkpt>
      <trkpt lat="48.50422" lon="7.07612">
        <ele>414</ele>
        <time>2016-07-06T20:02:26Z</time>
      </trkpt>
      <trkpt lat="48.50435" lon="7.07625">
        <ele>414</ele>
        <time>2016-07-06T20:04:26Z</time>
      </trkpt>
      <trkpt lat="48.50454" lon="7.07643">
        <ele>414</ele>
        <time>2016-07-06T20:06:26Z</time>
      </trkpt>
      <trkpt lat="48.50471" lon="7.07661">
        <ele>414</ele>
        <time>2016-07-06T20:08:26Z</time>
      </trkpt>
      <trkpt lat="48.50479" lon="7.07668">
        <ele>414</ele>
        <time>2016-07-06T20:10:26Z</time>
      </trkpt>
      <trkpt lat="48.50494" lon="7.07677">
        <ele>414</ele>
        <time>2016-07-06T20:12:26Z</time>
      </trkpt>
      <trkpt lat="48.50538" lon="7.07706">
        <ele>415</ele>
        <time>2016-07-06T20:14:26Z</time>
      </trkpt>
      <trkpt lat="48.50561" lon="7.07723">
        <ele>415</ele>
        <time>2016-07-06T20:16:26Z</time>
      </trkpt>
      <trkpt lat="48.5058" lon="7.07736">
        <ele>414</ele>
        <time>2016-07-06T20:18:26Z</time>
      </trkpt>
      <trkpt lat="48.50592" lon="7.07746">
        <ele>413</ele>
        <time>2016-07-06T20:20:26Z</time>
      </trkpt>
      <trkpt lat="48.50601" lon="7.07752">
        <ele>413</ele>
        <time>2016-07-06T20:22:26Z</time>
      </trkpt>
      <trkpt lat="48.50609" lon="7.07762">
        <ele>413</ele>
        <time>2016-07-06T20:24:26Z</time>
      </trkpt>
      <trkpt lat="48.50614" lon="7.07771">
        <ele>413</ele>
        <time>2016-07-06T20:26:26Z</time>
      </trkpt>
      <trkpt lat="48.50616" lon="7.07775">
        <ele>413</ele>
        <time>2016-07-06T20:28:26Z</time>
      </trkpt>
      <trkpt lat="48.50626" lon="7.07792">
        <ele>413</ele>
        <time>2016-07-06T20:30:26Z</time>
      </trkpt>
      <trkpt lat="48.50634" lon="7.07812">
        <ele>413</ele>
        <time>2016-07-06T20:32:26Z</time>
      </trkpt>
      <trkpt lat="48.50639" lon="7.07827">
        <ele>413</ele>
        <time>2016-07-06T20:34:26Z</time>
      </trkpt>
      <trkpt lat="48.50643" lon="7.07841">
        <ele>413</ele>
        <time>2016-07-06T20:36:26Z</time>
      </trkpt>
      <trkpt lat="48.50649" lon="7.07868">
        <ele>413</ele>
        <time>2016-07-06T20:38:26Z</time>
      </trkpt>
      <trkpt lat="48.5065" lon="7.07877">
        <ele>413</ele>
        <time>2016-07-06T20:40:26Z</time>
      </trkpt>
      <trkpt lat="48.50653" lon="7.07901">
        <ele>413</ele>
        <time>2016-07-06T20:42:26Z</time>
      </trkpt>
      <trkpt lat="48.50655" lon="7.07922">
        <ele>413</ele>
        <time>2016-07-06T20:44:26Z</time>
      </trkpt>
      <trkpt lat="48.50657" lon="7.07951">
        <ele>415</ele>
        <time>2016-07-06T20:46:26Z</time>
      </trkpt>
      <trkpt lat="48.50659" lon="7.07975">
        <ele>416</ele>
        <time>2016-07-06T20:48:26Z</time>
      </trkpt>
      <trkpt lat="48.50662" lon="7.08">
        <ele>418</ele>
        <time>2016-07-06T20:50:26Z</time>
      </trkpt>
      <trkpt lat="48.50664" lon="7.08019">
        <ele>419</ele>
        <time>2016-07-06T20:52:26Z</time>
      </trkpt>
      <trkpt lat="48.50669" lon="7.0804">
        <ele>419</ele>
        <time>2016-07-06T20:54:26Z</time>
      </trkpt>
      <trkpt lat="48.50674" lon="7.08064">
        <ele>420</ele>
        <time>2016-07-06T20:56:26Z</time>
      </trkpt>
      <trkpt lat="48.50683" lon="7.08098">
        <ele>421</ele>
        <time>2016-07-06T20:58:26Z</time>
      </trkpt>
      <trkpt lat="48.50693" lon="7.08129">
        <ele>421</ele>
        <time>2016-07-06T21:00:26Z</time>
      </trkpt>
      <trkpt lat="48.50705" lon="7.08165">
        <ele>420</ele>
        <time>2016-07-06T21:02:26Z</time>
      </trkpt>
      <trkpt lat="48.5072" lon="7.08216">
        <ele>422</ele>
        <time>2016-07-06T21:04:26Z</time>
      </trkpt>
      <trkpt lat="48.50727" lon="7.08238">
        <ele>422</ele>
        <time>2016-07-06T21:06:26Z</time>
      </trkpt>
      <trkpt lat="48.50739" lon="7.08276">
        <ele>422</ele>
        <time>2016-07-06T21:08:26Z</time>
      </trkpt>
      <trkpt lat="48.50756" lon="7.08329">
        <ele>422</ele>
        <time>2016-07-06T21:10:26Z</time>
      </trkpt>
      <trkpt lat="48.5077" lon="7.08374">
        <ele>426</ele>
        <time>2016-07-06T21:12:26Z</time>
      </trkpt>
      <trkpt lat="48.50786" lon="7.08426">
        <ele>429</ele>
        <time>2016-07-06T21:14:26Z</time>
      </trkpt>
      <trkpt lat="48.50809" lon="7.085">
        <ele>431</ele>
        <time>2016-07-06T21:16:26Z</time>
      </trkpt>
      <trkpt lat="48.50826" lon="7.08555">
        <ele>430</ele>
        <time>2016-07-06T21:18:26Z</time>
      </trkpt>
      <trkpt lat="48.50838" lon="7.08592">
        <ele>429</ele>
        <time>2016-07-06T21:20:26Z</time>
      </trkpt>
      <trkpt lat="48.50851" lon="7.08632">
        <ele>432</ele>
        <time>2016-07-06T21:22:26Z</time>
      </trkpt>
      <trkpt lat="48.50863" lon="7.08674">
        <ele>433</ele>
        <time>2016-07-06T21:24:26Z</time>
      </trkpt>
      <trkpt lat="48.50876" lon="7.08718">
        <ele>433</ele>
        <time>2016-07-06T21:26:26Z</time>
      </trkpt>
      <trkpt lat="48.50899" lon="7.08787">
        <ele>432</ele>
        <time>2016-07-06T21:28:26Z</time>
      </trkpt>
      <trkpt lat="48.50911" lon="7.08827">
        <ele>433</ele>
        <time>2016-07-06T21:30:26Z</time>
      </trkpt>
      <trkpt lat="48.50934" lon="7.089">
        <ele>431</ele>
        <time>2016-07-06T21:32:26Z</time>
      </trkpt>
      <trkpt lat="48.5094" lon="7.08924">
        <ele>431</ele>
        <time>2016-07-06T21:34:26Z</time>
      </trkpt>
      <trkpt lat="48.50947" lon="7.08947">
        <ele>431</ele>
        <time>2016-07-06T21:36:26Z</time>
      </trkpt>
      <trkpt lat="48.50962" lon="7.08988">
        <ele>431</ele>
        <time>2016-07-06T21:38:26Z</time>
      </trkpt>
      <trkpt lat="48.50972" lon="7.09017">
        <ele>432</ele>
        <time>2016-07-06T21:40:26Z</time>
      </trkpt>
      <trkpt lat="48.51003" lon="7.09088">
        <ele>433</ele>
        <time>2016-07-06T21:42:26Z</time>
      </trkpt>
      <trkpt lat="48.51009" lon="7.09104">
        <ele>432</ele>
        <time>2016-07-06T21:44:26Z</time>
      </trkpt>
      <trkpt lat="48.51019" lon="7.09123">
        <ele>432</ele>
        <time>2016-07-06T21:46:26Z</time>
      </trkpt>
      <trkpt lat="48.51029" lon="7.09138">
        <ele>431</ele>
        <time>2016-07-06T21:48:26Z</time>
      </trkpt>
      <trkpt lat="48.51036" lon="7.09143">
        <ele>431</ele>
        <time>2016-07-06T21:50:26Z</time>
      </trkpt>
      <trkpt lat="48.51044" lon="7.09145">
        <ele>431</ele>
        <time>2016-07-06T21:52:26Z</time>
      </trkpt>
      <trkpt lat="48.51049" lon="7.09151">
        <ele>431</ele>
        <time>2016-07-06T21:54:26Z</time>
      </trkpt>
      <trkpt lat="48.5106" lon="7.09165">
        <ele>431</ele>
        <time>2016-07-06T21:56:26Z</time>
      </trkpt>
      <trkpt lat="48.51069" lon="7.09178">
        <ele>430</ele>
        <time>2016-07-06T21:58:26Z</time>
      </trkpt>
      <trkpt lat="48.51076" lon="7.0919">
        <ele>430</ele>
        <time>2016-07-06T22:00:26Z</time>
      </trkpt>
      <trkpt lat="48.51093" lon="7.09226">
        <ele>429</ele>
        <time>2016-07-06T22:02:26Z</time>
      </trkpt>
      <trkpt lat="48.5111" lon="7.09258">
        <ele>428</ele>
        <time>2016-07-06T22:04:26Z</time>
      </trkpt>
      <trkpt lat="48.51117" lon="7.09273">
        <ele>427</ele>
        <time>2016-07-06T22:06:26Z</time>
      </trkpt>
      <trkpt lat="48.51127" lon="7.09291">
        <ele>427</ele>
        <time>2016-07-06T22:08:26Z</time>
      </trkpt>
      <trkpt lat="48.5113" lon="7.09297">
        <ele>427</ele>
        <time>2016-07-06T22:10:26Z</time>
      </trkpt>
      <trkpt lat="48.51133" lon="7.09303">
        <ele>427</ele>
        <time>2016-07-06T22:12:26Z</time>
      </trkpt>
      <trkpt lat="48.51137" lon="7.0931">
        <ele>427</ele>
        <time>2016-07-06T22:14:26Z</time>
      </trkpt>
      <trkpt lat="48.5114" lon="7.09318">
        <ele>427</ele>
        <time>2016-07-06T22:16:26Z</time>
      </trkpt>
      <trkpt lat="48.51144" lon="7.09326">
        <ele>427</ele>
        <time>2016-07-06T22:18:26Z</time>
      </trkpt>
      <trkpt lat="48.51148" lon="7.09335">
        <ele>427</ele>
        <time>2016-07-06T22:20:26Z</time>
      </trkpt>
      <trkpt lat="48.51152" lon="7.09344">
        <ele>427</ele>
        <time>2016-07-06T22:22:26Z</time>
      </trkpt>
      <trkpt lat="48.51155" lon="7.09354">
        <ele>426</ele>
        <time>2016-07-06T22:24:26Z</time>
      </trkpt>
      <trkpt lat="48.51158" lon="7.09363">
        <ele>426</ele>
        <time>2016-07-06T22:26:26Z</time>
      </trkpt>
      <trkpt lat="48.5116" lon="7.09373">
        <ele>426</ele>
        <time>2016-07-06T22:28:26Z</time>
      </trkpt>
      <trkpt lat="48.5116" lon="7.09373">
        <ele>426</ele>
        <time>2016-07-06T22:30:26Z</time>
      </trkpt>
      <trkpt lat="48.51158" lon="7.09418">
        <ele>426</ele>
        <time>2016-07-06T22:32:26Z</time>
      </trkpt>
      <trkpt lat="48.51157" lon="7.09438">
        <ele>426</ele>
        <time>2016-07-06T22:34:26Z</time>
      </trkpt>
      <trkpt lat="48.51157" lon="7.0944">
        <ele>426</ele>
        <time>2016-07-06T22:36:26Z</time>
      </trkpt>
      <trkpt lat="48.51156" lon="7.09452">
        <ele>425</ele>
        <time>2016-07-06T22:38:26Z</time>
      </trkpt>
      <trkpt lat="48.51155" lon="7.09457">
        <ele>425</ele>
        <time>2016-07-06T22:40:26Z</time>
      </trkpt>
      <trkpt lat="48.51152" lon="7.09462">
        <ele>426</ele>
        <time>2016-07-06T22:42:26Z</time>
      </trkpt>
      <trkpt lat="48.5115" lon="7.09467">
        <ele>426</ele>
        <time>2016-07-06T22:44:26Z</time>
      </trkpt>
      <trkpt lat="48.51149" lon="7.09472">
        <ele>426</ele>
        <time>2016-07-06T22:46:26Z</time>
      </trkpt>
      <trkpt lat="48.51148" lon="7.09481">
        <ele>426</ele>
        <time>2016-07-06T22:48:26Z</time>
      </trkpt>
      <trkpt lat="48.51147" lon="7.0949">
        <ele>426</ele>
        <time>2016-07-06T22:50:26Z</time>
      </trkpt>
      <trkpt lat="48.51144" lon="7.09507">
        <ele>426</ele>
        <time>2016-07-06T22:52:26Z</time>
      </trkpt>
      <trkpt lat="48.51142" lon="7.09525">
        <ele>427</ele>
        <time>2016-07-06T22:54:26Z</time>
      </trkpt>
      <trkpt lat="48.51138" lon="7.09537">
        <ele>427</ele>
        <time>2016-07-06T22:56:26Z</time>
      </trkpt>
      <trkpt lat="48.51132" lon="7.09557">
        <ele>428</ele>
        <time>2016-07-06T22:58:26Z</time>
      </trkpt>
      <trkpt lat="48.5113" lon="7.09566">
        <ele>428</ele>
        <time>2016-07-06T23:00:26Z</time>
      </trkpt>
      <trkpt lat="48.51129" lon="7.09572">
        <ele>428</ele>
        <time>2016-07-06T23:02:26Z</time>
      </trkpt>
      <trkpt lat="48.51126" lon="7.09578">
        <ele>428</ele>
        <time>2016-07-06T23:04:26Z</time>
      </trkpt>
      <trkpt lat="48.5112" lon="7.09586">
        <ele>428</ele>
        <time>2016-07-06T23:06:26Z</time>
      </trkpt>
      <trkpt lat="48.51116" lon="7.09591">
        <ele>428</ele>
        <time>2016-07-06T23:08:26Z</time>
      </trkpt>
      <trkpt lat="48.5111" lon="7.09597">
        <ele>429</ele>
        <time>2016-07-06T23:10:26Z</time>
      </trkpt>
      <trkpt lat="48.51104" lon="7.09603">
        <ele>429</ele>
        <time>2016-07-06T23:12:26Z</time>
      </trkpt>
      <trkpt lat="48.51104" lon="7.09603">
        <ele>429</ele>
        <time>2016-07-06T23:14:26Z</time>
      </trkpt>
      <trkpt lat="48.51105" lon="7.09609">
        <ele>429</ele>
        <time>2016-07-06T23:16:26Z</time>
      </trkpt>
      <trkpt lat="48.51107" lon="7.09614">
        <ele>429</ele>
        <time>2016-07-06T23:18:26Z</time>
      </trkpt>
      <trkpt lat="48.51108" lon="7.09619">
        <ele>429</ele>
        <time>2016-07-06T23:20:26Z</time>
      </trkpt>
      <trkpt lat="48.51114" lon="7.09643">
        <ele>430</ele>
        <time>2016-07-06T23:22:26Z</time>
      </trkpt>
      <trkpt lat="48.51116" lon="7.09653">
        <ele>430</ele>
        <time>2016-07-06T23:24:26Z</time>
      </trkpt>
      <trkpt lat="48.51117" lon="7.09661">
        <ele>430</ele>
        <time>2016-07-06T23:26:26Z</time>
      </trkpt>
      <trkpt lat="48.51118" lon="7.09666">
        <ele>430</ele>
        <time>2016-07-06T23:28:26Z</time>
      </trkpt>
      <trkpt lat="48.51118" lon="7.0967">
        <ele>430</ele>
        <time>2016-07-06T23:30:26Z</time>
      </trkpt>
      <trkpt lat="48.51119" lon="7.09677">
        <ele>430</ele>
        <time>2016-07-06T23:32:26Z</time>
      </trkpt>
      <trkpt lat="48.51119" lon="7.09685">
        <ele>431</ele>
        <time>2016-07-06T23:34:26Z</time>
      </trkpt>
      <trkpt lat="48.51118" lon="7.09692">
        <ele>431</ele>
        <time>2016-07-06T23:36:26Z</time>
      </trkpt>
      <trkpt lat="48.51118" lon="7.09692">
        <ele>431</ele>
        <time>2016-07-06T23:38:26Z</time>
      </trkpt>
      <trkpt lat="48.51093" lon="7.09697">
        <ele>431</ele>
        <time>2016-07-06T23:40:26Z</time>
      </trkpt>
      <trkpt lat="48.5108" lon="7.097">
        <ele>431</ele>
        <time>2016-07-06T23:42:26Z</time>
      </trkpt>
      <trkpt lat="48.51065" lon="7.09702">
        <ele>432</ele>
        <time>2016-07-06T23:44:26Z</time>
      </trkpt>
      <trkpt lat="48.51057" lon="7.09704">
        <ele>432</ele>
        <time>2016-07-06T23:46:26Z</time>
      </trkpt>
      <trkpt lat="48.51049" lon="7.09707">
        <ele>432</ele>
        <time>2016-07-06T23:48:26Z</time>
      </trkpt>
      <trkpt lat="48.51037" lon="7.09716">
        <ele>433</ele>
        <time>2016-07-06T23:50:26Z</time>
      </trkpt>
      <trkpt lat="48.51015" lon="7.09732">
        <ele>434</ele>
        <time>2016-07-06T23:52:26Z</time>
      </trkpt>
      <trkpt lat="48.50998" lon="7.09744">
        <ele>435</ele>
        <time>2016-07-06T23:54:26Z</time>
      </trkpt>
      <trkpt lat="48.5099" lon="7.09752">
        <ele>437</ele>
        <time>2016-07-06T23:56:26Z</time>
      </trkpt>
      <trkpt lat="48.50984" lon="7.09759">
        <ele>439</ele>
        <time>2016-07-06T23:58:26Z</time>
      </trkpt>
      <trkpt lat="48.50979" lon="7.09764">
        <ele>440</ele>
        <time>2016-07-07T00:00:26Z</time>
      </trkpt>
      <trkpt lat="48.50972" lon="7.09766">
        <ele>441</ele>
        <time>2016-07-07T00:02:26Z</time>
      </trkpt>
      <trkpt lat="48.50966" lon="7.09767">
        <ele>442</ele>
        <time>2016-07-07T00:04:26Z</time>
      </trkpt>
      <trkpt lat="48.50956" lon="7.09774">
        <ele>444</ele>
        <time>2016-07-07T00:06:26Z</time>
      </trkpt>
      <trkpt lat="48.50946" lon="7.09785">
        <ele>447</ele>
        <time>2016-07-07T00:08:26Z</time>
      </trkpt>
      <trkpt lat="48.50939" lon="7.098">
        <ele>449</ele>
        <time>2016-07-07T00:10:26Z</time>
      </trkpt>
      <trkpt lat="48.50939" lon="7.098">
        <ele>449</ele>
        <time>2016-07-07T00:12:26Z</time>
      </trkpt>
      <trkpt lat="48.50946" lon="7.09785">
        <ele>447</ele>
        <time>2016-07-07T00:14:26Z</time>
      </trkpt>
      <trkpt lat="48.50956" lon="7.09774">
        <ele>444</ele>
        <time>2016-07-07T00:16:26Z</time>
      </trkpt>
      <trkpt lat="48.50966" lon="7.09767">
        <ele>442</ele>
        <time>2016-07-07T00:18:26Z</time>
      </trkpt>
      <trkpt lat="48.50972" lon="7.09766">
        <ele>441</ele>
        <time>2016-07-07T00:20:26Z</time>
      </trkpt>
      <trkpt lat="48.50979" lon="7.09764">
        <ele>440</ele>
        <time>2016-07-07T00:22:26Z</time>
      </trkpt>
      <trkpt lat="48.50984" lon="7.09759">
        <ele>439</ele>
        <time>2016-07-07T00:24:26Z</time>
      </trkpt>
      <trkpt lat="48.5099" lon="7.09752">
        <ele>437</ele>
        <time>2016-07-07T00:26:26Z</time>
      </trkpt>
      <trkpt lat="48.50998" lon="7.09744">
        <ele>435</ele>
        <time>2016-07-07T00:28:26Z</time>
      </trkpt>
      <trkpt lat="48.51015" lon="7.09732">
        <ele>434</ele>
        <time>2016-07-07T00:30:26Z</time>
      </trkpt>
      <trkpt lat="48.51015" lon="7.09732">
        <ele>434</ele>
        <time>2016-07-07T00:32:26Z</time>
      </trkpt>
      <trkpt lat="48.51037" lon="7.09716">
        <ele>433</ele>
        <time>2016-07-07T00:34:26Z</time>
      </trkpt>
      <trkpt lat="48.51049" lon="7.09707">
        <ele>432</ele>
        <time>2016-07-07T00:36:26Z</time>
      </trkpt>
      <trkpt lat="48.51057" lon="7.09704">
        <ele>432</ele>
        <time>2016-07-07T00:38:26Z</time>
      </trkpt>
      <trkpt lat="48.51065" lon="7.09702">
        <ele>432</ele>
        <time>2016-07-07T00:40:26Z</time>
      </trkpt>
      <trkpt lat="48.5108" lon="7.097">
        <ele>431</ele>
        <time>2016-07-07T00:42:26Z</time>
      </trkpt>
      <trkpt lat="48.51093" lon="7.09697">
        <ele>431</ele>
        <time>2016-07-07T00:44:26Z</time>
      </trkpt>
      <trkpt lat="48.51118" lon="7.09692">
        <ele>431</ele>
        <time>2016-07-07T00:46:26Z</time>
      </trkpt>
      <trkpt lat="48.51118" lon="7.09692">
        <ele>431</ele>
        <time>2016-07-07T00:48:26Z</time>
      </trkpt>
      <trkpt lat="48.51117" lon="7.09699">
        <ele>431</ele>
        <time>2016-07-07T00:50:26Z</time>
      </trkpt>
      <trkpt lat="48.51115" lon="7.09711">
        <ele>432</ele>
        <time>2016-07-07T00:52:26Z</time>
      </trkpt>
      <trkpt lat="48.5111" lon="7.09728">
        <ele>432</ele>
        <time>2016-07-07T00:54:26Z</time>
      </trkpt>
      <trkpt lat="48.51103" lon="7.09751">
        <ele>433</ele>
        <time>2016-07-07T00:56:26Z</time>
      </trkpt>
      <trkpt lat="48.51091" lon="7.09787">
        <ele>436</ele>
        <time>2016-07-07T00:58:26Z</time>
      </trkpt>
      <trkpt lat="48.51083" lon="7.0981">
        <ele>438</ele>
        <time>2016-07-07T01:00:26Z</time>
      </trkpt>
      <trkpt lat="48.51078" lon="7.09827">
        <ele>440</ele>
        <time>2016-07-07T01:02:26Z</time>
      </trkpt>
      <trkpt lat="48.51075" lon="7.09848">
        <ele>442</ele>
        <time>2016-07-07T01:04:26Z</time>
      </trkpt>
      <trkpt lat="48.51074" lon="7.09853">
        <ele>443</ele>
        <time>2016-07-07T01:06:26Z</time>
      </trkpt>
      <trkpt lat="48.51074" lon="7.09853">
        <ele>443</ele>
        <time>2016-07-07T01:08:26Z</time>
      </trkpt>
      <trkpt lat="48.51061" lon="7.09853">
        <ele>444</ele>
        <time>2016-07-07T01:10:26Z</time>
      </trkpt>
      <trkpt lat="48.51058" lon="7.09855">
        <ele>444</ele>
        <time>2016-07-07T01:12:26Z</time>
      </trkpt>
      <trkpt lat="48.51052" lon="7.09863">
        <ele>446</ele>
        <time>2016-07-07T01:14:26Z</time>
      </trkpt>
      <trkpt lat="48.51044" lon="7.09882">
        <ele>449</ele>
        <time>2016-07-07T01:16:26Z</time>
      </trkpt>
      <trkpt lat="48.51033" lon="7.099">
        <ele>452</ele>
        <time>2016-07-07T01:18:26Z</time>
      </trkpt>
      <trkpt lat="48.51001" lon="7.09942">
        <ele>460</ele>
        <time>2016-07-07T01:20:26Z</time>
      </trkpt>
      <trkpt lat="48.50994" lon="7.09949">
        <ele>462</ele>
        <time>2016-07-07T01:22:26Z</time>
      </trkpt>
      <trkpt lat="48.50994" lon="7.09949">
        <ele>462</ele>
        <time>2016-07-07T01:24:26Z</time>
      </trkpt>
      <trkpt lat="48.50984" lon="7.09952">
        <ele>464</ele>
        <time>2016-07-07T01:26:26Z</time>
      </trkpt>
      <trkpt lat="48.50972" lon="7.09955">
        <ele>466</ele>
        <time>2016-07-07T01:28:26Z</time>
      </trkpt>
      <trkpt lat="48.50958" lon="7.09962">
        <ele>469</ele>
        <time>2016-07-07T01:30:26Z</time>
      </trkpt>
      <trkpt lat="48.50946" lon="7.09972">
        <ele>472</ele>
        <time>2016-07-07T01:32:26Z</time>
      </trkpt>
      <trkpt lat="48.50937" lon="7.09986">
        <ele>475</ele>
        <time>2016-07-07T01:34:26Z</time>
      </trkpt>
      <trkpt lat="48.50911" lon="7.10022">
        <ele>482</ele>
        <time>2016-07-07T01:36:26Z</time>
      </trkpt>
      <trkpt lat="48.50892" lon="7.10046">
        <ele>482</ele>
        <time>2016-07-07T01:38:26Z</time>
      </trkpt>
      <trkpt lat="48.50873" lon="7.10067">
        <ele>482</ele>
        <time>2016-07-07T01:40:26Z</time>
      </trkpt>
      <trkpt lat="48.50858" lon="7.1009">
        <ele>483</ele>
        <time>2016-07-07T01:42:26Z</time>
      </trkpt>
      <trkpt lat="48.50835" lon="7.10121">
        <ele>485</ele>
        <time>2016-07-07T01:44:26Z</time>
      </trkpt>
      <trkpt lat="48.50826" lon="7.10141">
        <ele>486</ele>
        <time>2016-07-07T01:46:26Z</time>
      </trkpt>
      <trkpt lat="48.50815" lon="7.1017">
        <ele>488</ele>
        <time>2016-07-07T01:48:26Z</time>
      </trkpt>
      <trkpt lat="48.50807" lon="7.10209">
        <ele>491</ele>
        <time>2016-07-07T01:50:26Z</time>
      </trkpt>
      <trkpt lat="48.5079" lon="7.10304">
        <ele>497</ele>
        <time>2016-07-07T01:52:26Z</time>
      </trkpt>
      <trkpt lat="48.50773" lon="7.10404">
        <ele>502</ele>
        <time>2016-07-07T01:54:26Z</time>
      </trkpt>
      <trkpt lat="48.50773" lon="7.10418">
        <ele>503</ele>
        <time>2016-07-07T01:56:26Z</time>
      </trkpt>
      <trkpt lat="48.50773" lon="7.10418">
        <ele>503</ele>
        <time>2016-07-07T01:58:26Z</time>
      </trkpt>
      <trkpt lat="48.50744" lon="7.10436">
        <ele>507</ele>
        <time>2016-07-07T02:00:26Z</time>
      </trkpt>
      <trkpt lat="48.50696" lon="7.10476">
        <ele>513</ele>
        <time>2016-07-07T02:02:26Z</time>
      </trkpt>
      <trkpt lat="48.50665" lon="7.10496">
        <ele>516</ele>
        <time>2016-07-07T02:04:26Z</time>
      </trkpt>
      <trkpt lat="48.50655" lon="7.10504">
        <ele>517</ele>
        <time>2016-07-07T02:06:26Z</time>
      </trkpt>
      <trkpt lat="48.5065" lon="7.1051">
        <ele>518</ele>
        <time>2016-07-07T02:08:26Z</time>
      </trkpt>
      <trkpt lat="48.50638" lon="7.10523">
        <ele>520</ele>
        <time>2016-07-07T02:10:26Z</time>
      </trkpt>
      <trkpt lat="48.50636" lon="7.10526">
        <ele>521</ele>
        <time>2016-07-07T02:12:26Z</time>
      </trkpt>
      <trkpt lat="48.50634" lon="7.10533">
        <ele>522</ele>
        <time>2016-07-07T02:14:26Z</time>
      </trkpt>
      <trkpt lat="48.50634" lon="7.1054">
        <ele>523</ele>
        <time>2016-07-07T02:16:26Z</time>
      </trkpt>
      <trkpt lat="48.50635" lon="7.10546">
        <ele>525</ele>
        <time>2016-07-07T02:18:26Z</time>
      </trkpt>
      <trkpt lat="48.50638" lon="7.10555">
        <ele>526</ele>
        <time>2016-07-07T02:20:26Z</time>
      </trkpt>
      <trkpt lat="48.50641" lon="7.10562">
        <ele>527</ele>
        <time>2016-07-07T02:22:26Z</time>
      </trkpt>
      <trkpt lat="48.50648" lon="7.10569">
        <ele>528</ele>
        <time>2016-07-07T02:24:26Z</time>
      </trkpt>
      <trkpt lat="48.50662" lon="7.10582">
        <ele>530</ele>
        <time>2016-07-07T02:26:26Z</time>
      </trkpt>
      <trkpt lat="48.50678" lon="7.10595">
        <ele>530</ele>
        <time>2016-07-07T02:28:26Z</time>
      </trkpt>
      <trkpt lat="48.50687" lon="7.10604">
        <ele>530</ele>
        <time>2016-07-07T02:30:26Z</time>
      </trkpt>
      <trkpt lat="48.50694" lon="7.10615">
        <ele>530</ele>
        <time>2016-07-07T02:32:26Z</time>
      </trkpt>
      <trkpt lat="48.50697" lon="7.10622">
        <ele>531</ele>
        <time>2016-07-07T02:34:26Z</time>
      </trkpt>
      <trkpt lat="48.50703" lon="7.10633">
        <ele>531</ele>
        <time>2016-07-07T02:36:26Z</time>
      </trkpt>
      <trkpt lat="48.50708" lon="7.10646">
        <ele>531</ele>
        <time>2016-07-07T02:38:26Z</time>
      </trkpt>
      <trkpt lat="48.50712" lon="7.10661">
        <ele>532</ele>
        <time>2016-07-07T02:40:26Z</time>
      </trkpt>
      <trkpt lat="48.50717" lon="7.10684">
        <ele>533</ele>
        <time>2016-07-07T02:42:26Z</time>
      </trkpt>
      <trkpt lat="48.50719" lon="7.10699">
        <ele>533</ele>
        <time>2016-07-07T02:44:26Z</time>
      </trkpt>
      <trkpt lat="48.50722" lon="7.10718">
        <ele>534</ele>
        <time>2016-07-07T02:46:26Z</time>
      </trkpt>
      <trkpt lat="48.50726" lon="7.10773">
        <ele>536</ele>
        <time>2016-07-07T02:48:26Z</time>
      </trkpt>
      <trkpt lat="48.50733" lon="7.10856">
        <ele>539</ele>
        <time>2016-07-07T02:50:26Z</time>
      </trkpt>
      <trkpt lat="48.50734" lon="7.1089">
        <ele>541</ele>
        <time>2016-07-07T02:52:26Z</time>
      </trkpt>
      <trkpt lat="48.50732" lon="7.10907">
        <ele>542</ele>
        <time>2016-07-07T02:54:26Z</time>
      </trkpt>
      <trkpt lat="48.50728" lon="7.10922">
        <ele>543</ele>
        <time>2016-07-07T02:56:26Z</time>
      </trkpt>
      <trkpt lat="48.50722" lon="7.10932">
        <ele>543</ele>
        <time>2016-07-07T02:58:26Z</time>
      </trkpt>
      <trkpt lat="48.50714" lon="7.10937">
        <ele>544</ele>
        <time>2016-07-07T03:00:26Z</time>
      </trkpt>
      <trkpt lat="48.50703" lon="7.10941">
        <ele>546</ele>
        <time>2016-07-07T03:02:26Z</time>
      </trkpt>
      <trkpt lat="48.50686" lon="7.10946">
        <ele>548</ele>
        <time>2016-07-07T03:04:26Z</time>
      </trkpt>
      <trkpt lat="48.50664" lon="7.10957">
        <ele>552</ele>
        <time>2016-07-07T03:06:26Z</time>
      </trkpt>
      <trkpt lat="48.50645" lon="7.10973">
        <ele>554</ele>
        <time>2016-07-07T03:08:26Z</time>
      </trkpt>
      <trkpt lat="48.5063" lon="7.10993">
        <ele>557</ele>
        <time>2016-07-07T03:10:26Z</time>
      </trkpt>
      <trkpt lat="48.50599" lon="7.11046">
        <ele>562</ele>
        <time>2016-07-07T03:12:26Z</time>
      </trkpt>
      <trkpt lat="48.50587" lon="7.11072">
        <ele>565</ele>
        <time>2016-07-07T03:14:26Z</time>
      </trkpt>
      <trkpt lat="48.50577" lon="7.11102">
        <ele>568</ele>
        <time>2016-07-07T03:16:26Z</time>
      </trkpt>
      <trkpt lat="48.50574" lon="7.1112">
        <ele>569</ele>
        <time>2016-07-07T03:18:26Z</time>
      </trkpt>
      <trkpt lat="48.50573" lon="7.1114">
        <ele>570</ele>
        <time>2016-07-07T03:20:26Z</time>
      </trkpt>
      <trkpt lat="48.50572" lon="7.11168">
        <ele>572</ele>
        <time>2016-07-07T03:22:26Z</time>
      </trkpt>
      <trkpt lat="48.50571" lon="7.11204">
        <ele>574</ele>
        <time>2016-07-07T03:24:26Z</time>
      </trkpt>
      <trkpt lat="48.50567" lon="7.11262">
        <ele>577</ele>
        <time>2016-07-07T03:26:26Z</time>
      </trkpt>
      <trkpt lat="48.50564" lon="7.113">
        <ele>580</ele>
        <time>2016-07-07T03:28:26Z</time>
      </trkpt>
      <trkpt lat="48.50564" lon="7.11322">
        <ele>582</ele>
        <time>2016-07-07T03:30:26Z</time>
      </trkpt>
      <trkpt lat="48.50567" lon="7.11345">
        <ele>583</ele>
        <time>2016-07-07T03:32:26Z</time>
      </trkpt>
      <trkpt lat="48.50571" lon="7.11369">
        <ele>584</ele>
        <time>2016-07-07T03:34:26Z</time>
      </trkpt>
      <trkpt lat="48.50597" lon="7.1149">
        <ele>594</ele>
        <time>2016-07-07T03:36:26Z</time>
      </trkpt>
      <trkpt lat="48.50614" lon="7.11576">
        <ele>602</ele>
        <time>2016-07-07T03:38:26Z</time>
      </trkpt>
      <trkpt lat="48.50616" lon="7.11602">
        <ele>603</ele>
        <time>2016-07-07T03:40:26Z</time>
      </trkpt>
      <trkpt lat="48.50617" lon="7.1162">
        <ele>604</ele>
        <time>2016-07-07T03:42:26Z</time>
      </trkpt>
      <trkpt lat="48.50617" lon="7.11633">
        <ele>604</ele>
        <time>2016-07-07T03:44:26Z</time>
      </trkpt>
      <trkpt lat="48.50617" lon="7.11653">
        <ele>605</ele>
        <time>2016-07-07T03:46:26Z</time>
      </trkpt>
      <trkpt lat="48.50615" lon="7.11678">
        <ele>606</ele>
        <time>2016-07-07T03:48:26Z</time>
      </trkpt>
      <trkpt lat="48.50611" lon="7.11708">
        <ele>608</ele>
        <time>2016-07-07T03:50:26Z</time>
      </trkpt>
      <trkpt lat="48.50603" lon="7.11748">
        <ele>611</ele>
        <time>2016-07-07T03:52:26Z</time>
      </trkpt>
      <trkpt lat="48.50563" lon="7.11905">
        <ele>623</ele>
        <time>2016-07-07T03:54:26Z</time>
      </trkpt>
      <trkpt lat="48.50521" lon="7.12075">
        <ele>637</ele>
        <time>2016-07-07T03:56:26Z</time>
      </trkpt>
      <trkpt lat="48.50519" lon="7.12084">
        <ele>637</ele>
        <time>2016-07-07T03:58:26Z</time>
      </trkpt>
      <trkpt lat="48.50517" lon="7.12094">
        <ele>638</ele>
        <time>2016-07-07T04:00:26Z</time>
      </trkpt>
      <trkpt lat="48.50486" lon="7.1222">
        <ele>644</ele>
        <time>2016-07-07T04:02:26Z</time>
      </trkpt>
      <trkpt lat="48.5047" lon="7.12292">
        <ele>647</ele>
        <time>2016-07-07T04:04:26Z</time>
      </trkpt>
      <trkpt lat="48.50452" lon="7.12399">
        <ele>654</ele>
        <time>2016-07-07T04:06:26Z</time>
      </trkpt>
      <trkpt lat="48.50451" lon="7.12402">
        <ele>654</ele>
        <time>2016-07-07T04:08:26Z</time>
      </trkpt>
      <trkpt lat="48.50443" lon="7.12444">
        <ele>658</ele>
        <time>2016-07-07T04:10:26Z</time>
      </trkpt>
      <trkpt lat="48.50415" lon="7.12601">
        <ele>672</ele>
        <time>2016-07-07T04:12:26Z</time>
      </trkpt>
      <trkpt lat="48.50398" lon="7.12698">
        <ele>680</ele>
        <time>2016-07-07T04:14:26Z</time>
      </trkpt>
      <trkpt lat="48.50397" lon="7.12717">
        <ele>681</ele>
        <time>2016-07-07T04:16:26Z</time>
      </trkpt>
      <trkpt lat="48.50398" lon="7.12728">
        <ele>682</ele>
        <time>2016-07-07T04:18:26Z</time>
      </trkpt>
      <trkpt lat="48.50399" lon="7.12737">
        <ele>682</ele>
        <time>2016-07-07T04:20:26Z</time>
      </trkpt>
      <trkpt lat="48.50401" lon="7.12749">
        <ele>682</ele>
        <time>2016-07-07T04:22:26Z</time>
      </trkpt>
      <trkpt lat="48.50403" lon="7.12756">
        <ele>683</ele>
        <time>2016-07-07T04:24:26Z</time>
      </trkpt>
      <trkpt lat="48.50405" lon="7.1276">
        <ele>682</ele>
        <time>2016-07-07T04:26:26Z</time>
      </trkpt>
      <trkpt lat="48.50408" lon="7.12768">
        <ele>683</ele>
        <time>2016-07-07T04:28:26Z</time>
      </trkpt>
      <trkpt lat="48.50415" lon="7.12781">
        <ele>682</ele>
        <time>2016-07-07T04:30:26Z</time>
      </trkpt>
      <trkpt lat="48.50423" lon="7.12796">
        <ele>683</ele>
        <time>2016-07-07T04:32:26Z</time>
      </trkpt>
      <trkpt lat="48.50447" lon="7.12845">
        <ele>684</ele>
        <time>2016-07-07T04:34:26Z</time>
      </trkpt>
      <trkpt lat="48.5047" lon="7.12895">
        <ele>685</ele>
        <time>2016-07-07T04:36:26Z</time>
      </trkpt>
      <trkpt lat="48.5049" lon="7.12937">
        <ele>686</ele>
        <time>2016-07-07T04:38:26Z</time>
      </trkpt>
      <trkpt lat="48.50501" lon="7.12962">
        <ele>686</ele>
        <time>2016-07-07T04:40:26Z</time>
      </trkpt>
      <trkpt lat="48.50524" lon="7.13011">
        <ele>688</ele>
        <time>2016-07-07T04:42:26Z</time>
      </trkpt>
      <trkpt lat="48.50544" lon="7.13056">
        <ele>691</ele>
        <time>2016-07-07T04:44:26Z</time>
      </trkpt>
      <trkpt lat="48.50633" lon="7.13248">
        <ele>703</ele>
        <time>2016-07-07T04:46:26Z</time>
      </trkpt>
      <trkpt lat="48.50654" lon="7.13291">
        <ele>705</ele>
        <time>2016-07-07T04:48:26Z</time>
      </trkpt>
      <trkpt lat="48.50664" lon="7.13313">
        <ele>705</ele>
        <time>2016-07-07T04:50:26Z</time>
      </trkpt>
      <trkpt lat="48.50668" lon="7.13323">
        <ele>705</ele>
        <time>2016-07-07T04:52:26Z</time>
      </trkpt>
      <trkpt lat="48.50671" lon="7.13329">
        <ele>705</ele>
        <time>2016-07-07T04:54:26Z</time>
      </trkpt>
      <trkpt lat="48.50673" lon="7.13336">
        <ele>706</ele>
        <time>2016-07-07T04:56:26Z</time>
      </trkpt>
      <trkpt lat="48.50675" lon="7.13342">
        <ele>706</ele>
        <time>2016-07-07T04:58:26Z</time>
      </trkpt>
      <trkpt lat="48.50678" lon="7.13349">
        <ele>707</ele>
        <time>2016-07-07T05:00:26Z</time>
      </trkpt>
      <trkpt lat="48.50679" lon="7.13355">
        <ele>707</ele>
        <time>2016-07-07T05:02:26Z</time>
      </trkpt>
      <trkpt lat="48.50681" lon="7.13366">
        <ele>708</ele>
        <time>2016-07-07T05:04:26Z</time>
      </trkpt>
      <trkpt lat="48.50683" lon="7.13374">
        <ele>708</ele>
        <time>2016-07-07T05:06:26Z</time>
      </trkpt>
      <trkpt lat="48.50684" lon="7.13382">
        <ele>709</ele>
        <time>2016-07-07T05:08:26Z</time>
      </trkpt>
      <trkpt lat="48.50685" lon="7.13391">
        <ele>710</ele>
        <time>2016-07-07T05:10:26Z</time>
      </trkpt>
      <trkpt lat="48.50686" lon="7.134">
        <ele>710</ele>
        <time>2016-07-07T05:12:26Z</time>
      </trkpt>
      <trkpt lat="48.50687" lon="7.13406">
        <ele>711</ele>
        <time>2016-07-07T05:14:26Z</time>
      </trkpt>
      <trkpt lat="48.50688" lon="7.13415">
        <ele>711</ele>
        <time>2016-07-07T05:16:26Z</time>
      </trkpt>
      <trkpt lat="48.50689" lon="7.13423">
        <ele>712</ele>
        <time>2016-07-07T05:18:26Z</time>
      </trkpt>
      <trkpt lat="48.50689" lon="7.1343">
        <ele>712</ele>
        <time>2016-07-07T05:20:26Z</time>
      </trkpt>
      <trkpt lat="48.50689" lon="7.13438">
        <ele>713</ele>
        <time>2016-07-07T05:22:26Z</time>
      </trkpt>
      <trkpt lat="48.50689" lon="7.13447">
        <ele>713</ele>
        <time>2016-07-07T05:24:26Z</time>
      </trkpt>
      <trkpt lat="48.50689" lon="7.13455">
        <ele>714</ele>
        <time>2016-07-07T05:26:26Z</time>
      </trkpt>
      <trkpt lat="48.50689" lon="7.13463">
        <ele>714</ele>
        <time>2016-07-07T05:28:26Z</time>
      </trkpt>
      <trkpt lat="48.50688" lon="7.1347">
        <ele>715</ele>
        <time>2016-07-07T05:30:26Z</time>
      </trkpt>
      <trkpt lat="48.50688" lon="7.13478">
        <ele>715</ele>
        <time>2016-07-07T05:32:26Z</time>
      </trkpt>
      <trkpt lat="48.50687" lon="7.13485">
        <ele>715</ele>
        <time>2016-07-07T05:34:26Z</time>
      </trkpt>
      <trkpt lat="48.50686" lon="7.13492">
        <ele>716</ele>
        <time>2016-07-07T05:36:26Z</time>
      </trkpt>
      <trkpt lat="48.50685" lon="7.13504">
        <ele>717</ele>
        <time>2016-07-07T05:38:26Z</time>
      </trkpt>
      <trkpt lat="48.50681" lon="7.13532">
        <ele>717</ele>
        <time>2016-07-07T05:40:26Z</time>
      </trkpt>
      <trkpt lat="48.50669" lon="7.13619">
        <ele>719</ele>
        <time>2016-07-07T05:42:26Z</time>
      </trkpt>
      <trkpt lat="48.50667" lon="7.13627">
        <ele>719</ele>
        <time>2016-07-07T05:44:26Z</time>
      </trkpt>
      <trkpt lat="48.50654" lon="7.13714">
        <ele>723</ele>
        <time>2016-07-07T05:46:26Z</time>
      </trkpt>
      <trkpt lat="48.50642" lon="7.13794">
        <ele>728</ele>
        <time>2016-07-07T05:48:26Z</time>
      </trkpt>
      <trkpt lat="48.50631" lon="7.13871">
        <ele>731</ele>
        <time>2016-07-07T05:50:26Z</time>
      </trkpt>
      <trkpt lat="48.50626" lon="7.13898">
        <ele>731</ele>
        <time>2016-07-07T05:52:26Z</time>
      </trkpt>
      <trkpt lat="48.50623" lon="7.13909">
        <ele>732</ele>
        <time>2016-07-07T05:54:26Z</time>
      </trkpt>
      <trkpt lat="48.5062" lon="7.13916">
        <ele>732</ele>
        <time>2016-07-07T05:56:26Z</time>
      </trkpt>
      <trkpt lat="48.50618" lon="7.13924">
        <ele>732</ele>
        <time>2016-07-07T05:58:26Z</time>
      </trkpt>
      <trkpt lat="48.50615" lon="7.13934">
        <ele>732</ele>
        <time>2016-07-07T06:00:26Z</time>
      </trkpt>
      <trkpt lat="48.50609" lon="7.13947">
        <ele>732</ele>
        <time>2016-07-07T06:02:26Z</time>
      </trkpt>
      <trkpt lat="48.50602" lon="7.13962">
        <ele>732</ele>
        <time>2016-07-07T06:04:26Z</time>
      </trkpt>
      <trkpt lat="48.50592" lon="7.13979">
        <ele>732</ele>
        <time>2016-07-07T06:06:26Z</time>
      </trkpt>
      <trkpt lat="48.50575" lon="7.14005">
        <ele>733</ele>
        <time>2016-07-07T06:08:26Z</time>
      </trkpt>
      <trkpt lat="48.50559" lon="7.14027">
        <ele>734</ele>
        <time>2016-07-07T06:10:26Z</time>
      </trkpt>
      <trkpt lat="48.50552" lon="7.1404">
        <ele>735</ele>
        <time>2016-07-07T06:12:26Z</time>
      </trkpt>
      <trkpt lat="48.50547" lon="7.1405">
        <ele>735</ele>
        <time>2016-07-07T06:14:26Z</time>
      </trkpt>
      <trkpt lat="48.50541" lon="7.14068">
        <ele>735</ele>
        <time>2016-07-07T06:16:26Z</time>
      </trkpt>
      <trkpt lat="48.50539" lon="7.14074">
        <ele>735</ele>
        <time>2016-07-07T06:18:26Z</time>
      </trkpt>
      <trkpt lat="48.50537" lon="7.14082">
        <ele>735</ele>
        <time>2016-07-07T06:20:26Z</time>
      </trkpt>
      <trkpt lat="48.50536" lon="7.14088">
        <ele>735</ele>
        <time>2016-07-07T06:22:26Z</time>
      </trkpt>
      <trkpt lat="48.50535" lon="7.14094">
        <ele>735</ele>
        <time>2016-07-07T06:24:26Z</time>
      </trkpt>
      <trkpt lat="48.50535" lon="7.14101">
        <ele>735</ele>
        <time>2016-07-07T06:26:26Z</time>
      </trkpt>
      <trkpt lat="48.50535" lon="7.14109">
        <ele>735</ele>
        <time>2016-07-07T06:28:26Z</time>
      </trkpt>
      <trkpt lat="48.50535" lon="7.14115">
        <ele>734</ele>
        <time>2016-07-07T06:30:26Z</time>
      </trkpt>
      <trkpt lat="48.50535" lon="7.14122">
        <ele>734</ele>
        <time>2016-07-07T06:32:26Z</time>
      </trkpt>
      <trkpt lat="48.50536" lon="7.14129">
        <ele>734</ele>
        <time>2016-07-07T06:34:26Z</time>
      </trkpt>
      <trkpt lat="48.50537" lon="7.14136">
        <ele>734</ele>
        <time>2016-07-07T06:36:26Z</time>
      </trkpt>
      <trkpt lat="48.50538" lon="7.14142">
        <ele>733</ele>
        <time>2016-07-07T06:38:26Z</time>
      </trkpt>
      <trkpt lat="48.50539" lon="7.1415">
        <ele>733</ele>
        <time>2016-07-07T06:40:26Z</time>
      </trkpt>
      <trkpt lat="48.5054" lon="7.14156">
        <ele>733</ele>
        <time>2016-07-07T06:42:26Z</time>
      </trkpt>
      <trkpt lat="48.50541" lon="7.14162">
        <ele>733</ele>
        <time>2016-07-07T06:44:26Z</time>
      </trkpt>
      <trkpt lat="48.50543" lon="7.14168">
        <ele>732</ele>
        <time>2016-07-07T06:46:26Z</time>
      </trkpt>
      <trkpt lat="48.50545" lon="7.14175">
        <ele>732</ele>
        <time>2016-07-07T06:48:26Z</time>
      </trkpt>
      <trkpt lat="48.50547" lon="7.14182">
        <ele>732</ele>
        <time>2016-07-07T06:50:26Z</time>
      </trkpt>
      <trkpt lat="48.50549" lon="7.14188">
        <ele>732</ele>
        <time>2016-07-07T06:52:26Z</time>
      </trkpt>
      <trkpt lat="48.50552" lon="7.14198">
        <ele>731</ele>
        <time>2016-07-07T06:54:26Z</time>
      </trkpt>
      <trkpt lat="48.50575" lon="7.14252">
        <ele>730</ele>
        <time>2016-07-07T06:56:26Z</time>
      </trkpt>
      <trkpt lat="48.50577" lon="7.14258">
        <ele>730</ele>
        <time>2016-07-07T06:58:26Z</time>
      </trkpt>
      <trkpt lat="48.50596" lon="7.14311">
        <ele>730</ele>
        <time>2016-07-07T07:00:26Z</time>
      </trkpt>
      <trkpt lat="48.50603" lon="7.14323">
        <ele>730</ele>
        <time>2016-07-07T07:02:26Z</time>
      </trkpt>
      <trkpt lat="48.50617" lon="7.14357">
        <ele>731</ele>
        <time>2016-07-07T07:04:26Z</time>
      </trkpt>
      <trkpt lat="48.50641" lon="7.14414">
        <ele>730</ele>
        <time>2016-07-07T07:06:26Z</time>
      </trkpt>
      <trkpt lat="48.50666" lon="7.14476">
        <ele>730</ele>
        <time>2016-07-07T07:08:26Z</time>
      </trkpt>
      <trkpt lat="48.50678" lon="7.14506">
        <ele>731</ele>
        <time>2016-07-07T07:10:26Z</time>
      </trkpt>
      <trkpt lat="48.50704" lon="7.1457">
        <ele>730</ele>
        <time>2016-07-07T07:12:26Z</time>
      </trkpt>
      <trkpt lat="48.50719" lon="7.14607">
        <ele>730</ele>
        <time>2016-07-07T07:14:26Z</time>
      </trkpt>
      <trkpt lat="48.50726" lon="7.14626">
        <ele>730</ele>
        <time>2016-07-07T07:16:26Z</time>
      </trkpt>
      <trkpt lat="48.50726" lon="7.14626">
        <ele>730</ele>
        <time>2016-07-07T07:18:26Z</time>
      </trkpt>
      <trkpt lat="48.5074" lon="7.14614">
        <ele>733</ele>
        <time>2016-07-07T07:20:26Z</time>
      </trkpt>
      <trkpt lat="48.50746" lon="7.14608">
        <ele>734</ele>
        <time>2016-07-07T07:22:26Z</time>
      </trkpt>
      <trkpt lat="48.50753" lon="7.14603">
        <ele>735</ele>
        <time>2016-07-07T07:24:26Z</time>
      </trkpt>
      <trkpt lat="48.5076" lon="7.146">
        <ele>735</ele>
        <time>2016-07-07T07:26:26Z</time>
      </trkpt>
      <trkpt lat="48.50767" lon="7.14598">
        <ele>736</ele>
        <time>2016-07-07T07:28:26Z</time>
      </trkpt>
      <trkpt lat="48.50773" lon="7.14598">
        <ele>736</ele>
        <time>2016-07-07T07:30:26Z</time>
      </trkpt>
      <trkpt lat="48.50778" lon="7.14601">
        <ele>736</ele>
        <time>2016-07-07T07:32:26Z</time>
      </trkpt>
      <trkpt lat="48.50787" lon="7.14609">
        <ele>736</ele>
        <time>2016-07-07T07:34:26Z</time>
      </trkpt>
      <trkpt lat="48.50792" lon="7.14616">
        <ele>736</ele>
        <time>2016-07-07T07:36:26Z</time>
      </trkpt>
      <trkpt lat="48.50795" lon="7.14626">
        <ele>736</ele>
        <time>2016-07-07T07:38:26Z</time>
      </trkpt>
      <trkpt lat="48.50797" lon="7.14634">
        <ele>735</ele>
        <time>2016-07-07T07:40:26Z</time>
      </trkpt>
      <trkpt lat="48.50797" lon="7.14645">
        <ele>735</ele>
        <time>2016-07-07T07:42:26Z</time>
      </trkpt>
      <trkpt lat="48.50797" lon="7.14652">
        <ele>735</ele>
        <time>2016-07-07T07:44:26Z</time>
      </trkpt>
      <trkpt lat="48.50796" lon="7.14661">
        <ele>735</ele>
        <time>2016-07-07T07:46:26Z</time>
      </trkpt>
      <trkpt lat="48.50795" lon="7.14673">
        <ele>734</ele>
        <time>2016-07-07T07:48:26Z</time>
      </trkpt>
      <trkpt lat="48.50793" lon="7.14685">
        <ele>733</ele>
        <time>2016-07-07T07:50:26Z</time>
      </trkpt>
      <trkpt lat="48.50793" lon="7.14688">
        <ele>733</ele>
        <time>2016-07-07T07:52:26Z</time>
      </trkpt>
      <trkpt lat="48.50793" lon="7.14688">
        <ele>733</ele>
        <time>2016-07-07T07:54:26Z</time>
      </trkpt>
      <trkpt lat="48.50766" lon="7.14685">
        <ele>732</ele>
        <time>2016-07-07T07:56:26Z</time>
      </trkpt>
      <trkpt lat="48.50766" lon="7.14685">
        <ele>732</ele>
        <time>2016-07-07T07:58:26Z</time>
      </trkpt>
      <trkpt lat="48.50793" lon="7.14688">
        <ele>733</ele>
        <time>2016-07-07T08:00:26Z</time>
      </trkpt>
      <trkpt lat="48.50793" lon="7.14688">
        <ele>733</ele>
        <time>2016-07-07T08:02:26Z</time>
      </trkpt>
      <trkpt lat="48.50791" lon="7.14703">
        <ele>733</ele>
        <time>2016-07-07T08:04:26Z</time>
      </trkpt>
      <trkpt lat="48.5079" lon="7.14712">
        <ele>732</ele>
        <time>2016-07-07T08:06:26Z</time>
      </trkpt>
      <trkpt lat="48.5079" lon="7.14723">
        <ele>732</ele>
        <time>2016-07-07T08:08:26Z</time>
      </trkpt>
      <trkpt lat="48.5079" lon="7.14734">
        <ele>732</ele>
        <time>2016-07-07T08:10:26Z</time>
      </trkpt>
      <trkpt lat="48.50791" lon="7.1475">
        <ele>731</ele>
        <time>2016-07-07T08:12:26Z</time>
      </trkpt>
      <trkpt lat="48.50792" lon="7.14759">
        <ele>731</ele>
        <time>2016-07-07T08:14:26Z</time>
      </trkpt>
      <trkpt lat="48.50793" lon="7.14777">
        <ele>732</ele>
        <time>2016-07-07T08:16:26Z</time>
      </trkpt>
      <trkpt lat="48.50795" lon="7.14791">
        <ele>733</ele>
        <time>2016-07-07T08:18:26Z</time>
      </trkpt>
      <trkpt lat="48.50802" lon="7.14851">
        <ele>736</ele>
        <time>2016-07-07T08:20:26Z</time>
      </trkpt>
      <trkpt lat="48.50805" lon="7.1487">
        <ele>737</ele>
        <time>2016-07-07T08:22:26Z</time>
      </trkpt>
      <trkpt lat="48.50809" lon="7.14899">
        <ele>739</ele>
        <time>2016-07-07T08:24:26Z</time>
      </trkpt>
      <trkpt lat="48.50811" lon="7.14909">
        <ele>740</ele>
        <time>2016-07-07T08:26:26Z</time>
      </trkpt>
      <trkpt lat="48.50812" lon="7.14919">
        <ele>740</ele>
        <time>2016-07-07T08:28:26Z</time>
      </trkpt>
      <trkpt lat="48.50814" lon="7.14929">
        <ele>741</ele>
        <time>2016-07-07T08:30:26Z</time>
      </trkpt>
      <trkpt lat="48.50816" lon="7.14942">
        <ele>741</ele>
        <time>2016-07-07T08:32:26Z</time>
      </trkpt>
      <trkpt lat="48.50825" lon="7.14988">
        <ele>744</ele>
        <time>2016-07-07T08:34:26Z</time>
      </trkpt>
      <trkpt lat="48.50826" lon="7.14994">
        <ele>744</ele>
        <time>2016-07-07T08:36:26Z</time>
      </trkpt>
      <trkpt lat="48.50834" lon="7.1503">
        <ele>747</ele>
        <time>2016-07-07T08:38:26Z</time>
      </trkpt>
      <trkpt lat="48.5084" lon="7.15058">
        <ele>749</ele>
        <time>2016-07-07T08:40:26Z</time>
      </trkpt>
      <trkpt lat="48.5085" lon="7.15089">
        <ele>751</ele>
        <time>2016-07-07T08:42:26Z</time>
      </trkpt>
      <trkpt lat="48.50858" lon="7.1511">
        <ele>752</ele>
        <time>2016-07-07T08:44:26Z</time>
      </trkpt>
      <trkpt lat="48.50863" lon="7.15123">
        <ele>754</ele>
        <time>2016-07-07T08:46:26Z</time>
      </trkpt>
      <trkpt lat="48.50869" lon="7.15138">
        <ele>755</ele>
        <time>2016-07-07T08:48:26Z</time>
      </trkpt>
      <trkpt lat="48.50875" lon="7.15148">
        <ele>756</ele>
        <time>2016-07-07T08:50:26Z</time>
      </trkpt>
      <trkpt lat="48.50879" lon="7.15154">
        <ele>756</ele>
        <time>2016-07-07T08:52:26Z</time>
      </trkpt>
      <trkpt lat="48.50884" lon="7.15162">
        <ele>757</ele>
        <time>2016-07-07T08:54:26Z</time>
      </trkpt>
      <trkpt lat="48.50894" lon="7.15174">
        <ele>758</ele>
        <time>2016-07-07T08:56:26Z</time>
      </trkpt>
      <trkpt lat="48.50899" lon="7.15179">
        <ele>758</ele>
        <time>2016-07-07T08:58:26Z</time>
      </trkpt>
      <trkpt lat="48.5091" lon="7.1519">
        <ele>759</ele>
        <time>2016-07-07T09:00:26Z</time>
      </trkpt>
      <trkpt lat="48.50924" lon="7.15203">
        <ele>761</ele>
        <time>2016-07-07T09:02:26Z</time>
      </trkpt>
      <trkpt lat="48.50939" lon="7.15216">
        <ele>764</ele>
        <time>2016-07-07T09:04:26Z</time>
      </trkpt>
      <trkpt lat="48.5096" lon="7.15233">
        <ele>766</ele>
        <time>2016-07-07T09:06:26Z</time>
      </trkpt>
      <trkpt lat="48.50966" lon="7.15239">
        <ele>767</ele>
        <time>2016-07-07T09:08:26Z</time>
      </trkpt>
      <trkpt lat="48.50986" lon="7.15257">
        <ele>769</ele>
        <time>2016-07-07T09:10:26Z</time>
      </trkpt>
      <trkpt lat="48.51015" lon="7.15284">
        <ele>769</ele>
        <time>2016-07-07T09:12:26Z</time>
      </trkpt>
      <trkpt lat="48.5104" lon="7.15307">
        <ele>767</ele>
        <time>2016-07-07T09:14:26Z</time>
      </trkpt>
      <trkpt lat="48.51051" lon="7.15316">
        <ele>766</ele>
        <time>2016-07-07T09:16:26Z</time>
      </trkpt>
      <trkpt lat="48.51054" lon="7.15319">
        <ele>766</ele>
        <time>2016-07-07T09:18:26Z</time>
      </trkpt>
      <trkpt lat="48.51057" lon="7.15324">
        <ele>766</ele>
        <time>2016-07-07T09:20:26Z</time>
      </trkpt>
      <trkpt lat="48.51059" lon="7.15327">
        <ele>766</ele>
        <time>2016-07-07T09:22:26Z</time>
      </trkpt>
      <trkpt lat="48.51063" lon="7.15334">
        <ele>766</ele>
        <time>2016-07-07T09:24:26Z</time>
      </trkpt>
      <trkpt lat="48.51066" lon="7.15341">
        <ele>765</ele>
        <time>2016-07-07T09:26:26Z</time>
      </trkpt>
      <trkpt lat="48.5107" lon="7.1535">
        <ele>765</ele>
        <time>2016-07-07T09:28:26Z</time>
      </trkpt>
      <trkpt lat="48.51073" lon="7.1536">
        <ele>765</ele>
        <time>2016-07-07T09:30:26Z</time>
      </trkpt>
      <trkpt lat="48.51078" lon="7.15377">
        <ele>765</ele>
        <time>2016-07-07T09:32:26Z</time>
      </trkpt>
      <trkpt lat="48.51082" lon="7.1539">
        <ele>765</ele>
        <time>2016-07-07T09:34:26Z</time>
      </trkpt>
      <trkpt lat="48.51086" lon="7.15399">
        <ele>765</ele>
        <time>2016-07-07T09:36:26Z</time>
      </trkpt>
      <trkpt lat="48.5109" lon="7.15408">
        <ele>765</ele>
        <time>2016-07-07T09:38:26Z</time>
      </trkpt>
      <trkpt lat="48.51096" lon="7.15415">
        <ele>766</ele>
        <time>2016-07-07T09:40:26Z</time>
      </trkpt>
      <trkpt lat="48.51101" lon="7.1542">
        <ele>766</ele>
        <time>2016-07-07T09:42:26Z</time>
      </trkpt>
      <trkpt lat="48.51106" lon="7.15424">
        <ele>766</ele>
        <time>2016-07-07T09:44:26Z</time>
      </trkpt>
      <trkpt lat="48.51111" lon="7.15427">
        <ele>766</ele>
        <time>2016-07-07T09:46:26Z</time>
      </trkpt>
      <trkpt lat="48.51117" lon="7.15429">
        <ele>766</ele>
        <time>2016-07-07T09:48:26Z</time>
      </trkpt>
      <trkpt lat="48.51123" lon="7.1543">
        <ele>766</ele>
        <time>2016-07-07T09:50:26Z</time>
      </trkpt>
      <trkpt lat="48.51129" lon="7.1543">
        <ele>766</ele>
        <time>2016-07-07T09:52:26Z</time>
      </trkpt>
      <trkpt lat="48.51135" lon="7.15431">
        <ele>766</ele>
        <time>2016-07-07T09:54:26Z</time>
      </trkpt>
      <trkpt lat="48.51141" lon="7.1543">
        <ele>766</ele>
        <time>2016-07-07T09:56:26Z</time>
      </trkpt>
      <trkpt lat="48.5115" lon="7.15429">
        <ele>765</ele>
        <time>2016-07-07T09:58:26Z</time>
      </trkpt>
      <trkpt lat="48.51155" lon="7.15428">
        <ele>765</ele>
        <time>2016-07-07T10:00:26Z</time>
      </trkpt>
      <trkpt lat="48.51159" lon="7.15428">
        <ele>765</ele>
        <time>2016-07-07T10:02:26Z</time>
      </trkpt>
      <trkpt lat="48.51165" lon="7.15429">
        <ele>765</ele>
        <time>2016-07-07T10:04:26Z</time>
      </trkpt>
      <trkpt lat="48.51171" lon="7.15431">
        <ele>765</ele>
        <time>2016-07-07T10:06:26Z</time>
      </trkpt>
      <trkpt lat="48.51177" lon="7.15434">
        <ele>764</ele>
        <time>2016-07-07T10:08:26Z</time>
      </trkpt>
      <trkpt lat="48.51182" lon="7.15438">
        <ele>764</ele>
        <time>2016-07-07T10:10:26Z</time>
      </trkpt>
      <trkpt lat="48.51187" lon="7.15442">
        <ele>763</ele>
        <time>2016-07-07T10:12:26Z</time>
      </trkpt>
      <trkpt lat="48.51192" lon="7.15448">
        <ele>763</ele>
        <time>2016-07-07T10:14:26Z</time>
      </trkpt>
      <trkpt lat="48.51197" lon="7.15454">
        <ele>763</ele>
        <time>2016-07-07T10:16:26Z</time>
      </trkpt>
      <trkpt lat="48.51202" lon="7.15461">
        <ele>763</ele>
        <time>2016-07-07T10:18:26Z</time>
      </trkpt>
      <trkpt lat="48.51205" lon="7.15469">
        <ele>764</ele>
        <time>2016-07-07T10:20:26Z</time>
      </trkpt>
      <trkpt lat="48.51209" lon="7.15476">
        <ele>764</ele>
        <time>2016-07-07T10:22:26Z</time>
      </trkpt>
      <trkpt lat="48.51217" lon="7.15496">
        <ele>765</ele>
        <time>2016-07-07T10:24:26Z</time>
      </trkpt>
      <trkpt lat="48.51218" lon="7.155">
        <ele>765</ele>
        <time>2016-07-07T10:26:26Z</time>
      </trkpt>
      <trkpt lat="48.51222" lon="7.15508">
        <ele>766</ele>
        <time>2016-07-07T10:28:26Z</time>
      </trkpt>
      <trkpt lat="48.51225" lon="7.15514">
        <ele>766</ele>
        <time>2016-07-07T10:30:26Z</time>
      </trkpt>
      <trkpt lat="48.5123" lon="7.1552">
        <ele>767</ele>
        <time>2016-07-07T10:32:26Z</time>
      </trkpt>
      <trkpt lat="48.51234" lon="7.15524">
        <ele>767</ele>
        <time>2016-07-07T10:34:26Z</time>
      </trkpt>
      <trkpt lat="48.5124" lon="7.15528">
        <ele>767</ele>
        <time>2016-07-07T10:36:26Z</time>
      </trkpt>
      <trkpt lat="48.51245" lon="7.1553">
        <ele>766</ele>
        <time>2016-07-07T10:38:26Z</time>
      </trkpt>
      <trkpt lat="48.51251" lon="7.15532">
        <ele>766</ele>
        <time>2016-07-07T10:40:26Z</time>
      </trkpt>
      <trkpt lat="48.51257" lon="7.15534">
        <ele>766</ele>
        <time>2016-07-07T10:42:26Z</time>
      </trkpt>
      <trkpt lat="48.51264" lon="7.15537">
        <ele>765</ele>
        <time>2016-07-07T10:44:26Z</time>
      </trkpt>
      <trkpt lat="48.51272" lon="7.15541">
        <ele>765</ele>
        <time>2016-07-07T10:46:26Z</time>
      </trkpt>
      <trkpt lat="48.51283" lon="7.15549">
        <ele>765</ele>
        <time>2016-07-07T10:48:26Z</time>
      </trkpt>
      <trkpt lat="48.51289" lon="7.15556">
        <ele>765</ele>
        <time>2016-07-07T10:50:26Z</time>
      </trkpt>
      <trkpt lat="48.51294" lon="7.15563">
        <ele>766</ele>
        <time>2016-07-07T10:52:26Z</time>
      </trkpt>
      <trkpt lat="48.51319" lon="7.15597">
        <ele>768</ele>
        <time>2016-07-07T10:54:26Z</time>
      </trkpt>
      <trkpt lat="48.51324" lon="7.15604">
        <ele>769</ele>
        <time>2016-07-07T10:56:26Z</time>
      </trkpt>
      <trkpt lat="48.51329" lon="7.15611">
        <ele>769</ele>
        <time>2016-07-07T10:58:26Z</time>
      </trkpt>
      <trkpt lat="48.51334" lon="7.15618">
        <ele>770</ele>
        <time>2016-07-07T11:00:26Z</time>
      </trkpt>
      <trkpt lat="48.5134" lon="7.15624">
        <ele>771</ele>
        <time>2016-07-07T11:02:26Z</time>
      </trkpt>
      <trkpt lat="48.51345" lon="7.15629">
        <ele>771</ele>
        <time>2016-07-07T11:04:26Z</time>
      </trkpt>
      <trkpt lat="48.51352" lon="7.15634">
        <ele>771</ele>
        <time>2016-07-07T11:06:26Z</time>
      </trkpt>
      <trkpt lat="48.51358" lon="7.15639">
        <ele>771</ele>
        <time>2016-07-07T11:08:26Z</time>
      </trkpt>
      <trkpt lat="48.51365" lon="7.15644">
        <ele>771</ele>
        <time>2016-07-07T11:10:26Z</time>
      </trkpt>
      <trkpt lat="48.51371" lon="7.15648">
        <ele>771</ele>
        <time>2016-07-07T11:12:26Z</time>
      </trkpt>
      <trkpt lat="48.51385" lon="7.15657">
        <ele>771</ele>
        <time>2016-07-07T11:14:26Z</time>
      </trkpt>
      <trkpt lat="48.51392" lon="7.15661">
        <ele>770</ele>
        <time>2016-07-07T11:16:26Z</time>
      </trkpt>
      <trkpt lat="48.51398" lon="7.15666">
        <ele>770</ele>
        <time>2016-07-07T11:18:26Z</time>
      </trkpt>
      <trkpt lat="48.51412" lon="7.15675">
        <ele>770</ele>
        <time>2016-07-07T11:20:26Z</time>
      </trkpt>
      <trkpt lat="48.51419" lon="7.1568">
        <ele>770</ele>
        <time>2016-07-07T11:22:26Z</time>
      </trkpt>
      <trkpt lat="48.51425" lon="7.15684">
        <ele>770</ele>
        <time>2016-07-07T11:24:26Z</time>
      </trkpt>
      <trkpt lat="48.51432" lon="7.15689">
        <ele>769</ele>
        <time>2016-07-07T11:26:26Z</time>
      </trkpt>
      <trkpt lat="48.51438" lon="7.15694">
        <ele>769</ele>
        <time>2016-07-07T11:28:26Z</time>
      </trkpt>
      <trkpt lat="48.51445" lon="7.15698">
        <ele>769</ele>
        <time>2016-07-07T11:30:26Z</time>
      </trkpt>
      <trkpt lat="48.51451" lon="7.15704">
        <ele>769</ele>
        <time>2016-07-07T11:32:26Z</time>
      </trkpt>
      <trkpt lat="48.51458" lon="7.15709">
        <ele>769</ele>
        <time>2016-07-07T11:34:26Z</time>
      </trkpt>
      <trkpt lat="48.51464" lon="7.15715">
        <ele>769</ele>
        <time>2016-07-07T11:36:26Z</time>
      </trkpt>
      <trkpt lat="48.5147" lon="7.1572">
        <ele>768</ele>
        <time>2016-07-07T11:38:26Z</time>
      </trkpt>
      <trkpt lat="48.51477" lon="7.15726">
        <ele>768</ele>
        <time>2016-07-07T11:40:26Z</time>
      </trkpt>
      <trkpt lat="48.51482" lon="7.15731">
        <ele>768</ele>
        <time>2016-07-07T11:42:26Z</time>
      </trkpt>
      <trkpt lat="48.51489" lon="7.15736">
        <ele>768</ele>
        <time>2016-07-07T11:44:26Z</time>
      </trkpt>
      <trkpt lat="48.51495" lon="7.15742">
        <ele>768</ele>
        <time>2016-07-07T11:46:26Z</time>
      </trkpt>
      <trkpt lat="48.51502" lon="7.15746">
        <ele>767</ele>
        <time>2016-07-07T11:48:26Z</time>
      </trkpt>
      <trkpt lat="48.51508" lon="7.15751">
        <ele>767</ele>
        <time>2016-07-07T11:50:26Z</time>
      </trkpt>
      <trkpt lat="48.51515" lon="7.15756">
        <ele>767</ele>
        <time>2016-07-07T11:52:26Z</time>
      </trkpt>
      <trkpt lat="48.51522" lon="7.15761">
        <ele>767</ele>
        <time>2016-07-07T11:54:26Z</time>
      </trkpt>
      <trkpt lat="48.51528" lon="7.15767">
        <ele>767</ele>
        <time>2016-07-07T11:56:26Z</time>
      </trkpt>
      <trkpt lat="48.51535" lon="7.15773">
        <ele>767</ele>
        <time>2016-07-07T11:58:26Z</time>
      </trkpt>
      <trkpt lat="48.51542" lon="7.15779">
        <ele>767</ele>
        <time>2016-07-07T12:00:26Z</time>
      </trkpt>
      <trkpt lat="48.51549" lon="7.15785">
        <ele>767</ele>
        <time>2016-07-07T12:02:26Z</time>
      </trkpt>
      <trkpt lat="48.51555" lon="7.15791">
        <ele>767</ele>
        <time>2016-07-07T12:04:26Z</time>
      </trkpt>
      <trkpt lat="48.51562" lon="7.15797">
        <ele>767</ele>
        <time>2016-07-07T12:06:26Z</time>
      </trkpt>
      <trkpt lat="48.51568" lon="7.15803">
        <ele>767</ele>
        <time>2016-07-07T12:08:26Z</time>
      </trkpt>
      <trkpt lat="48.51574" lon="7.15809">
        <ele>767</ele>
        <time>2016-07-07T12:10:26Z</time>
      </trkpt>
      <trkpt lat="48.51581" lon="7.15815">
        <ele>767</ele>
        <time>2016-07-07T12:12:26Z</time>
      </trkpt>
      <trkpt lat="48.51588" lon="7.15821">
        <ele>766</ele>
        <time>2016-07-07T12:14:26Z</time>
      </trkpt>
      <trkpt lat="48.51594" lon="7.15826">
        <ele>766</ele>
        <time>2016-07-07T12:16:26Z</time>
      </trkpt>
      <trkpt lat="48.51601" lon="7.15832">
        <ele>765</ele>
        <time>2016-07-07T12:18:26Z</time>
      </trkpt>
      <trkpt lat="48.51607" lon="7.15838">
        <ele>765</ele>
        <time>2016-07-07T12:20:26Z</time>
      </trkpt>
      <trkpt lat="48.51614" lon="7.15844">
        <ele>764</ele>
        <time>2016-07-07T12:22:26Z</time>
      </trkpt>
      <trkpt lat="48.5162" lon="7.1585">
        <ele>764</ele>
        <time>2016-07-07T12:24:26Z</time>
      </trkpt>
      <trkpt lat="48.51627" lon="7.15856">
        <ele>763</ele>
        <time>2016-07-07T12:26:26Z</time>
      </trkpt>
      <trkpt lat="48.51634" lon="7.15862">
        <ele>762</ele>
        <time>2016-07-07T12:28:26Z</time>
      </trkpt>
      <trkpt lat="48.5164" lon="7.15868">
        <ele>762</ele>
        <time>2016-07-07T12:30:26Z</time>
      </trkpt>
      <trkpt lat="48.51646" lon="7.15875">
        <ele>762</ele>
        <time>2016-07-07T12:32:26Z</time>
      </trkpt>
      <trkpt lat="48.51653" lon="7.15882">
        <ele>761</ele>
        <time>2016-07-07T12:34:26Z</time>
      </trkpt>
      <trkpt lat="48.51659" lon="7.15889">
        <ele>761</ele>
        <time>2016-07-07T12:36:26Z</time>
      </trkpt>
      <trkpt lat="48.51665" lon="7.15896">
        <ele>761</ele>
        <time>2016-07-07T12:38:26Z</time>
      </trkpt>
      <trkpt lat="48.51671" lon="7.15904">
        <ele>761</ele>
        <time>2016-07-07T12:40:26Z</time>
      </trkpt>
      <trkpt lat="48.51677" lon="7.15912">
        <ele>761</ele>
        <time>2016-07-07T12:42:26Z</time>
      </trkpt>
      <trkpt lat="48.51682" lon="7.1592">
        <ele>761</ele>
        <time>2016-07-07T12:44:26Z</time>
      </trkpt>
      <trkpt lat="48.51688" lon="7.15929">
        <ele>760</ele>
        <time>2016-07-07T12:46:26Z</time>
      </trkpt>
      <trkpt lat="48.51694" lon="7.15937">
        <ele>759</ele>
        <time>2016-07-07T12:48:26Z</time>
      </trkpt>
      <trkpt lat="48.517" lon="7.15946">
        <ele>758</ele>
        <time>2016-07-07T12:50:26Z</time>
      </trkpt>
      <trkpt lat="48.51705" lon="7.15954">
        <ele>757</ele>
        <time>2016-07-07T12:52:26Z</time>
      </trkpt>
      <trkpt lat="48.51711" lon="7.15962">
        <ele>756</ele>
        <time>2016-07-07T12:54:26Z</time>
      </trkpt>
      <trkpt lat="48.51716" lon="7.15971">
        <ele>756</ele>
        <time>2016-07-07T12:56:26Z</time>
      </trkpt>
      <trkpt lat="48.51722" lon="7.1598">
        <ele>754</ele>
        <time>2016-07-07T12:58:26Z</time>
      </trkpt>
      <trkpt lat="48.51728" lon="7.15988">
        <ele>753</ele>
        <time>2016-07-07T13:00:26Z</time>
      </trkpt>
      <trkpt lat="48.51733" lon="7.15997">
        <ele>752</ele>
        <time>2016-07-07T13:02:26Z</time>
      </trkpt>
      <trkpt lat="48.51738" lon="7.16006">
        <ele>752</ele>
        <time>2016-07-07T13:04:26Z</time>
      </trkpt>
      <trkpt lat="48.51743" lon="7.16016">
        <ele>751</ele>
        <time>2016-07-07T13:06:26Z</time>
      </trkpt>
      <trkpt lat="48.51748" lon="7.16026">
        <ele>751</ele>
        <time>2016-07-07T13:08:26Z</time>
      </trkpt>
      <trkpt lat="48.51752" lon="7.16036">
        <ele>751</ele>
        <time>2016-07-07T13:10:26Z</time>
      </trkpt>
      <trkpt lat="48.51757" lon="7.16046">
        <ele>751</ele>
        <time>2016-07-07T13:12:26Z</time>
      </trkpt>
      <trkpt lat="48.51761" lon="7.16056">
        <ele>752</ele>
        <time>2016-07-07T13:14:26Z</time>
      </trkpt>
      <trkpt lat="48.51765" lon="7.16066">
        <ele>752</ele>
        <time>2016-07-07T13:16:26Z</time>
      </trkpt>
      <trkpt lat="48.5177" lon="7.16077">
        <ele>752</ele>
        <time>2016-07-07T13:18:26Z</time>
      </trkpt>
      <trkpt lat="48.51774" lon="7.16087">
        <ele>752</ele>
        <time>2016-07-07T13:20:26Z</time>
      </trkpt>
      <trkpt lat="48.51778" lon="7.16098">
        <ele>752</ele>
        <time>2016-07-07T13:22:26Z</time>
      </trkpt>
      <trkpt lat="48.51782" lon="7.16109">
        <ele>753</ele>
        <time>2016-07-07T13:24:26Z</time>
      </trkpt>
      <trkpt lat="48.51786" lon="7.16121">
        <ele>753</ele>
        <time>2016-07-07T13:26:26Z</time>
      </trkpt>
      <trkpt lat="48.5179" lon="7.16132">
        <ele>753</ele>
        <time>2016-07-07T13:28:26Z</time>
      </trkpt>
      <trkpt lat="48.51794" lon="7.16143">
        <ele>753</ele>
        <time>2016-07-07T13:30:26Z</time>
      </trkpt>
      <trkpt lat="48.51798" lon="7.16155">
        <ele>753</ele>
        <time>2016-07-07T13:32:26Z</time>
      </trkpt>
      <trkpt lat="48.51801" lon="7.16166">
        <ele>753</ele>
        <time>2016-07-07T13:34:26Z</time>
      </trkpt>
      <trkpt lat="48.51805" lon="7.16178">
        <ele>753</ele>
        <time>2016-07-07T13:36:26Z</time>
      </trkpt>
      <trkpt lat="48.51808" lon="7.16189">
        <ele>753</ele>
        <time>2016-07-07T13:38:26Z</time>
      </trkpt>
      <trkpt lat="48.51811" lon="7.162">
        <ele>754</ele>
        <time>2016-07-07T13:40:26Z</time>
      </trkpt>
      <trkpt lat="48.51814" lon="7.16212">
        <ele>754</ele>
        <time>2016-07-07T13:42:26Z</time>
      </trkpt>
      <trkpt lat="48.51817" lon="7.16223">
        <ele>754</ele>
        <time>2016-07-07T13:44:26Z</time>
      </trkpt>
      <trkpt lat="48.5182" lon="7.16234">
        <ele>754</ele>
        <time>2016-07-07T13:46:26Z</time>
      </trkpt>
      <trkpt lat="48.51822" lon="7.16245">
        <ele>754</ele>
        <time>2016-07-07T13:48:26Z</time>
      </trkpt>
      <trkpt lat="48.51824" lon="7.16255">
        <ele>755</ele>
        <time>2016-07-07T13:50:26Z</time>
      </trkpt>
      <trkpt lat="48.51826" lon="7.16266">
        <ele>755</ele>
        <time>2016-07-07T13:52:26Z</time>
      </trkpt>
      <trkpt lat="48.51827" lon="7.16277">
        <ele>755</ele>
        <time>2016-07-07T13:54:26Z</time>
      </trkpt>
      <trkpt lat="48.51829" lon="7.16288">
        <ele>755</ele>
        <time>2016-07-07T13:56:26Z</time>
      </trkpt>
      <trkpt lat="48.51831" lon="7.16298">
        <ele>755</ele>
        <time>2016-07-07T13:58:26Z</time>
      </trkpt>
      <trkpt lat="48.51832" lon="7.16309">
        <ele>756</ele>
        <time>2016-07-07T14:00:26Z</time>
      </trkpt>
      <trkpt lat="48.51834" lon="7.1632">
        <ele>756</ele>
        <time>2016-07-07T14:02:26Z</time>
      </trkpt>
      <trkpt lat="48.51836" lon="7.1633">
        <ele>756</ele>
        <time>2016-07-07T14:04:26Z</time>
      </trkpt>
      <trkpt lat="48.51837" lon="7.1634">
        <ele>757</ele>
        <time>2016-07-07T14:06:26Z</time>
      </trkpt>
      <trkpt lat="48.51839" lon="7.16351">
        <ele>757</ele>
        <time>2016-07-07T14:08:26Z</time>
      </trkpt>
      <trkpt lat="48.5184" lon="7.16361">
        <ele>757</ele>
        <time>2016-07-07T14:10:26Z</time>
      </trkpt>
      <trkpt lat="48.51842" lon="7.16371">
        <ele>758</ele>
        <time>2016-07-07T14:12:26Z</time>
      </trkpt>
      <trkpt lat="48.51843" lon="7.1638">
        <ele>758</ele>
        <time>2016-07-07T14:14:26Z</time>
      </trkpt>
      <trkpt lat="48.51844" lon="7.1639">
        <ele>759</ele>
        <time>2016-07-07T14:16:26Z</time>
      </trkpt>
      <trkpt lat="48.51845" lon="7.16398">
        <ele>759</ele>
        <time>2016-07-07T14:18:26Z</time>
      </trkpt>
      <trkpt lat="48.51846" lon="7.16408">
        <ele>760</ele>
        <time>2016-07-07T14:20:26Z</time>
      </trkpt>
      <trkpt lat="48.51846" lon="7.16417">
        <ele>761</ele>
        <time>2016-07-07T14:22:26Z</time>
      </trkpt>
      <trkpt lat="48.51846" lon="7.16426">
        <ele>761</ele>
        <time>2016-07-07T14:24:26Z</time>
      </trkpt>
      <trkpt lat="48.51846" lon="7.16436">
        <ele>761</ele>
        <time>2016-07-07T14:26:26Z</time>
      </trkpt>
      <trkpt lat="48.51845" lon="7.16445">
        <ele>761</ele>
        <time>2016-07-07T14:28:26Z</time>
      </trkpt>
      <trkpt lat="48.51844" lon="7.16449">
        <ele>761</ele>
        <time>2016-07-07T14:30:26Z</time>
      </trkpt>
      <trkpt lat="48.51843" lon="7.16454">
        <ele>761</ele>
        <time>2016-07-07T14:32:26Z</time>
      </trkpt>
      <trkpt lat="48.51841" lon="7.16463">
        <ele>762</ele>
        <time>2016-07-07T14:34:26Z</time>
      </trkpt>
      <trkpt lat="48.51838" lon="7.16472">
        <ele>763</ele>
        <time>2016-07-07T14:36:26Z</time>
      </trkpt>
      <trkpt lat="48.51836" lon="7.1648">
        <ele>763</ele>
        <time>2016-07-07T14:38:26Z</time>
      </trkpt>
      <trkpt lat="48.51833" lon="7.16489">
        <ele>764</ele>
        <time>2016-07-07T14:40:26Z</time>
      </trkpt>
      <trkpt lat="48.5183" lon="7.16498">
        <ele>765</ele>
        <time>2016-07-07T14:42:26Z</time>
      </trkpt>
      <trkpt lat="48.51826" lon="7.16506">
        <ele>766</ele>
        <time>2016-07-07T14:44:26Z</time>
      </trkpt>
      <trkpt lat="48.51823" lon="7.16515">
        <ele>766</ele>
        <time>2016-07-07T14:46:26Z</time>
      </trkpt>
      <trkpt lat="48.51821" lon="7.16525">
        <ele>767</ele>
        <time>2016-07-07T14:48:26Z</time>
      </trkpt>
      <trkpt lat="48.51819" lon="7.1653">
        <ele>767</ele>
        <time>2016-07-07T14:50:26Z</time>
      </trkpt>
      <trkpt lat="48.51816" lon="7.16543">
        <ele>768</ele>
        <time>2016-07-07T14:52:26Z</time>
      </trkpt>
      <trkpt lat="48.51814" lon="7.16553">
        <ele>768</ele>
        <time>2016-07-07T14:54:26Z</time>
      </trkpt>
      <trkpt lat="48.51811" lon="7.16565">
        <ele>769</ele>
        <time>2016-07-07T14:56:26Z</time>
      </trkpt>
      <trkpt lat="48.5181" lon="7.16574">
        <ele>769</ele>
        <time>2016-07-07T14:58:26Z</time>
      </trkpt>
      <trkpt lat="48.51808" lon="7.16587">
        <ele>770</ele>
        <time>2016-07-07T15:00:26Z</time>
      </trkpt>
      <trkpt lat="48.51806" lon="7.16602">
        <ele>771</ele>
        <time>2016-07-07T15:02:26Z</time>
      </trkpt>
      <trkpt lat="48.51805" lon="7.16611">
        <ele>772</ele>
        <time>2016-07-07T15:04:26Z</time>
      </trkpt>
      <trkpt lat="48.51804" lon="7.16629">
        <ele>773</ele>
        <time>2016-07-07T15:06:26Z</time>
      </trkpt>
      <trkpt lat="48.51803" lon="7.16648">
        <ele>775</ele>
        <time>2016-07-07T15:08:26Z</time>
      </trkpt>
      <trkpt lat="48.51802" lon="7.16657">
        <ele>776</ele>
        <time>2016-07-07T15:10:26Z</time>
      </trkpt>
      <trkpt lat="48.51802" lon="7.16666">
        <ele>776</ele>
        <time>2016-07-07T15:12:26Z</time>
      </trkpt>
      <trkpt lat="48.518" lon="7.16675">
        <ele>777</ele>
        <time>2016-07-07T15:14:26Z</time>
      </trkpt>
      <trkpt lat="48.51798" lon="7.16683">
        <ele>778</ele>
        <time>2016-07-07T15:16:26Z</time>
      </trkpt>
      <trkpt lat="48.51797" lon="7.16689">
        <ele>779</ele>
        <time>2016-07-07T15:18:26Z</time>
      </trkpt>
      <trkpt lat="48.51796" lon="7.16692">
        <ele>779</ele>
        <time>2016-07-07T15:20:26Z</time>
      </trkpt>
      <trkpt lat="48.51792" lon="7.16703">
        <ele>781</ele>
        <time>2016-07-07T15:22:26Z</time>
      </trkpt>
      <trkpt lat="48.51786" lon="7.16715">
        <ele>783</ele>
        <time>2016-07-07T15:24:26Z</time>
      </trkpt>
      <trkpt lat="48.51782" lon="7.16722">
        <ele>784</ele>
        <time>2016-07-07T15:26:26Z</time>
      </trkpt>
      <trkpt lat="48.51779" lon="7.16729">
        <ele>785</ele>
        <time>2016-07-07T15:28:26Z</time>
      </trkpt>
      <trkpt lat="48.51776" lon="7.16737">
        <ele>786</ele>
        <time>2016-07-07T15:30:26Z</time>
      </trkpt>
      <trkpt lat="48.51773" lon="7.16744">
        <ele>787</ele>
        <time>2016-07-07T15:32:26Z</time>
      </trkpt>
      <trkpt lat="48.51771" lon="7.16752">
        <ele>788</ele>
        <time>2016-07-07T15:34:26Z</time>
      </trkpt>
      <trkpt lat="48.5177" lon="7.1676">
        <ele>789</ele>
        <time>2016-07-07T15:36:26Z</time>
      </trkpt>
      <trkpt lat="48.5177" lon="7.16767">
        <ele>790</ele>
        <time>2016-07-07T15:38:26Z</time>
      </trkpt>
      <trkpt lat="48.5177" lon="7.16775">
        <ele>791</ele>
        <time>2016-07-07T15:40:26Z</time>
      </trkpt>
      <trkpt lat="48.51771" lon="7.16781">
        <ele>791</ele>
        <time>2016-07-07T15:42:26Z</time>
      </trkpt>
      <trkpt lat="48.51773" lon="7.16787">
        <ele>792</ele>
        <time>2016-07-07T15:44:26Z</time>
      </trkpt>
      <trkpt lat="48.51775" lon="7.16792">
        <ele>792</ele>
        <time>2016-07-07T15:46:26Z</time>
      </trkpt>
      <trkpt lat="48.51778" lon="7.16797">
        <ele>792</ele>
        <time>2016-07-07T15:48:26Z</time>
      </trkpt>
      <trkpt lat="48.51782" lon="7.168">
        <ele>792</ele>
        <time>2016-07-07T15:50:26Z</time>
      </trkpt>
      <trkpt lat="48.51786" lon="7.16803">
        <ele>792</ele>
        <time>2016-07-07T15:52:26Z</time>
      </trkpt>
      <trkpt lat="48.5179" lon="7.16804">
        <ele>791</ele>
        <time>2016-07-07T15:54:26Z</time>
      </trkpt>
      <trkpt lat="48.51793" lon="7.16806">
        <ele>791</ele>
        <time>2016-07-07T15:56:26Z</time>
      </trkpt>
      <trkpt lat="48.51797" lon="7.16806">
        <ele>790</ele>
        <time>2016-07-07T15:58:26Z</time>
      </trkpt>
      <trkpt lat="48.51803" lon="7.16807">
        <ele>790</ele>
        <time>2016-07-07T16:00:26Z</time>
      </trkpt>
      <trkpt lat="48.51813" lon="7.16805">
        <ele>788</ele>
        <time>2016-07-07T16:02:26Z</time>
      </trkpt>
      <trkpt lat="48.51819" lon="7.16802">
        <ele>787</ele>
        <time>2016-07-07T16:04:26Z</time>
      </trkpt>
      <trkpt lat="48.51821" lon="7.16802">
        <ele>786</ele>
        <time>2016-07-07T16:06:26Z</time>
      </trkpt>
      <trkpt lat="48.51821" lon="7.16802">
        <ele>786</ele>
        <time>2016-07-07T16:08:26Z</time>
      </trkpt>
      <trkpt lat="48.51825" lon="7.16805">
        <ele>786</ele>
        <time>2016-07-07T16:10:26Z</time>
      </trkpt>
      <trkpt lat="48.51827" lon="7.16806">
        <ele>786</ele>
        <time>2016-07-07T16:12:26Z</time>
      </trkpt>
      <trkpt lat="48.51832" lon="7.16806">
        <ele>785</ele>
        <time>2016-07-07T16:14:26Z</time>
      </trkpt>
      <trkpt lat="48.51839" lon="7.16805">
        <ele>785</ele>
        <time>2016-07-07T16:16:26Z</time>
      </trkpt>
      <trkpt lat="48.5185" lon="7.16804">
        <ele>784</ele>
        <time>2016-07-07T16:18:26Z</time>
      </trkpt>
      <trkpt lat="48.51861" lon="7.16803">
        <ele>784</ele>
        <time>2016-07-07T16:20:26Z</time>
      </trkpt>
      <trkpt lat="48.51866" lon="7.16803">
        <ele>784</ele>
        <time>2016-07-07T16:22:26Z</time>
      </trkpt>
      <trkpt lat="48.51871" lon="7.16803">
        <ele>784</ele>
        <time>2016-07-07T16:24:26Z</time>
      </trkpt>
      <trkpt lat="48.51882" lon="7.16803">
        <ele>783</ele>
        <time>2016-07-07T16:26:26Z</time>
      </trkpt>
      <trkpt lat="48.51888" lon="7.16803">
        <ele>783</ele>
        <time>2016-07-07T16:28:26Z</time>
      </trkpt>
      <trkpt lat="48.51893" lon="7.16804">
        <ele>783</ele>
        <time>2016-07-07T16:30:26Z</time>
      </trkpt>
      <trkpt lat="48.51899" lon="7.16804">
        <ele>783</ele>
        <time>2016-07-07T16:32:26Z</time>
      </trkpt>
      <trkpt lat="48.51905" lon="7.16804">
        <ele>783</ele>
        <time>2016-07-07T16:34:26Z</time>
      </trkpt>
      <trkpt lat="48.51911" lon="7.16805">
        <ele>783</ele>
        <time>2016-07-07T16:36:26Z</time>
      </trkpt>
      <trkpt lat="48.51917" lon="7.16806">
        <ele>783</ele>
        <time>2016-07-07T16:38:26Z</time>
      </trkpt>
      <trkpt lat="48.51929" lon="7.16808">
        <ele>783</ele>
        <time>2016-07-07T16:40:26Z</time>
      </trkpt>
      <trkpt lat="48.51936" lon="7.16809">
        <ele>783</ele>
        <time>2016-07-07T16:42:26Z</time>
      </trkpt>
      <trkpt lat="48.51942" lon="7.16811">
        <ele>784</ele>
        <time>2016-07-07T16:44:26Z</time>
      </trkpt>
      <trkpt lat="48.51949" lon="7.16812">
        <ele>784</ele>
        <time>2016-07-07T16:46:26Z</time>
      </trkpt>
      <trkpt lat="48.51956" lon="7.16814">
        <ele>784</ele>
        <time>2016-07-07T16:48:26Z</time>
      </trkpt>
      <trkpt lat="48.51962" lon="7.16816">
        <ele>784</ele>
        <time>2016-07-07T16:50:26Z</time>
      </trkpt>
      <trkpt lat="48.51969" lon="7.16817">
        <ele>784</ele>
        <time>2016-07-07T16:52:26Z</time>
      </trkpt>
      <trkpt lat="48.51975" lon="7.16819">
        <ele>785</ele>
        <time>2016-07-07T16:54:26Z</time>
      </trkpt>
      <trkpt lat="48.51982" lon="7.16821">
        <ele>785</ele>
        <time>2016-07-07T16:56:26Z</time>
      </trkpt>
      <trkpt lat="48.51989" lon="7.16823">
        <ele>785</ele>
        <time>2016-07-07T16:58:26Z</time>
      </trkpt>
      <trkpt lat="48.51995" lon="7.16824">
        <ele>785</ele>
        <time>2016-07-07T17:00:26Z</time>
      </trkpt>
      <trkpt lat="48.52002" lon="7.16825">
        <ele>786</ele>
        <time>2016-07-07T17:02:26Z</time>
      </trkpt>
      <trkpt lat="48.52008" lon="7.16826">
        <ele>786</ele>
        <time>2016-07-07T17:04:26Z</time>
      </trkpt>
      <trkpt lat="48.52015" lon="7.16827">
        <ele>787</ele>
        <time>2016-07-07T17:06:26Z</time>
      </trkpt>
      <trkpt lat="48.52021" lon="7.16827">
        <ele>787</ele>
        <time>2016-07-07T17:08:26Z</time>
      </trkpt>
      <trkpt lat="48.52028" lon="7.16827">
        <ele>788</ele>
        <time>2016-07-07T17:10:26Z</time>
      </trkpt>
      <trkpt lat="48.52034" lon="7.16827">
        <ele>788</ele>
        <time>2016-07-07T17:12:26Z</time>
      </trkpt>
      <trkpt lat="48.52041" lon="7.16827">
        <ele>789</ele>
        <time>2016-07-07T17:14:26Z</time>
      </trkpt>
      <trkpt lat="48.52048" lon="7.16826">
        <ele>789</ele>
        <time>2016-07-07T17:16:26Z</time>
      </trkpt>
      <trkpt lat="48.52055" lon="7.16825">
        <ele>789</ele>
        <time>2016-07-07T17:18:26Z</time>
      </trkpt>
      <trkpt lat="48.52061" lon="7.16824">
        <ele>789</ele>
        <time>2016-07-07T17:20:26Z</time>
      </trkpt>
      <trkpt lat="48.52068" lon="7.16823">
        <ele>789</ele>
        <time>2016-07-07T17:22:26Z</time>
      </trkpt>
      <trkpt lat="48.52075" lon="7.16821">
        <ele>789</ele>
        <time>2016-07-07T17:24:26Z</time>
      </trkpt>
      <trkpt lat="48.52076" lon="7.1682">
        <ele>789</ele>
        <time>2016-07-07T17:26:26Z</time>
      </trkpt>
      <trkpt lat="48.52081" lon="7.16818">
        <ele>789</ele>
        <time>2016-07-07T17:28:26Z</time>
      </trkpt>
      <trkpt lat="48.52088" lon="7.16815">
        <ele>789</ele>
        <time>2016-07-07T17:30:26Z</time>
      </trkpt>
      <trkpt lat="48.52095" lon="7.16812">
        <ele>789</ele>
        <time>2016-07-07T17:32:26Z</time>
      </trkpt>
      <trkpt lat="48.52101" lon="7.16809">
        <ele>790</ele>
        <time>2016-07-07T17:34:26Z</time>
      </trkpt>
      <trkpt lat="48.52109" lon="7.16805">
        <ele>790</ele>
        <time>2016-07-07T17:36:26Z</time>
      </trkpt>
      <trkpt lat="48.52115" lon="7.16801">
        <ele>790</ele>
        <time>2016-07-07T17:38:26Z</time>
      </trkpt>
      <trkpt lat="48.52122" lon="7.16797">
        <ele>790</ele>
        <time>2016-07-07T17:40:26Z</time>
      </trkpt>
      <trkpt lat="48.52129" lon="7.16793">
        <ele>791</ele>
        <time>2016-07-07T17:42:26Z</time>
      </trkpt>
      <trkpt lat="48.52135" lon="7.1679">
        <ele>791</ele>
        <time>2016-07-07T17:44:26Z</time>
      </trkpt>
      <trkpt lat="48.5214" lon="7.16786">
        <ele>791</ele>
        <time>2016-07-07T17:46:26Z</time>
      </trkpt>
      <trkpt lat="48.52147" lon="7.16782">
        <ele>791</ele>
        <time>2016-07-07T17:48:26Z</time>
      </trkpt>
      <trkpt lat="48.52153" lon="7.16778">
        <ele>791</ele>
        <time>2016-07-07T17:50:26Z</time>
      </trkpt>
      <trkpt lat="48.52159" lon="7.16773">
        <ele>792</ele>
        <time>2016-07-07T17:52:26Z</time>
      </trkpt>
      <trkpt lat="48.52164" lon="7.16768">
        <ele>791</ele>
        <time>2016-07-07T17:54:26Z</time>
      </trkpt>
      <trkpt lat="48.5217" lon="7.16763">
        <ele>791</ele>
        <time>2016-07-07T17:56:26Z</time>
      </trkpt>
      <trkpt lat="48.52175" lon="7.16756">
        <ele>791</ele>
        <time>2016-07-07T17:58:26Z</time>
      </trkpt>
      <trkpt lat="48.5218" lon="7.16749">
        <ele>790</ele>
        <time>2016-07-07T18:00:26Z</time>
      </trkpt>
      <trkpt lat="48.52183" lon="7.16745">
        <ele>790</ele>
        <time>2016-07-07T18:02:26Z</time>
      </trkpt>
      <trkpt lat="48.52183" lon="7.16745">
        <ele>790</ele>
        <time>2016-07-07T18:04:26Z</time>
      </trkpt>
      <trkpt lat="48.52185" lon="7.16742">
        <ele>789</ele>
        <time>2016-07-07T18:06:26Z</time>
      </trkpt>
      <trkpt lat="48.5219" lon="7.16734">
        <ele>789</ele>
        <time>2016-07-07T18:08:26Z</time>
      </trkpt>
      <trkpt lat="48.52195" lon="7.16726">
        <ele>788</ele>
        <time>2016-07-07T18:10:26Z</time>
      </trkpt>
      <trkpt lat="48.52199" lon="7.16719">
        <ele>788</ele>
        <time>2016-07-07T18:12:26Z</time>
      </trkpt>
      <trkpt lat="48.52204" lon="7.16711">
        <ele>788</ele>
        <time>2016-07-07T18:14:26Z</time>
      </trkpt>
      <trkpt lat="48.52209" lon="7.16703">
        <ele>787</ele>
        <time>2016-07-07T18:16:26Z</time>
      </trkpt>
      <trkpt lat="48.52213" lon="7.16695">
        <ele>787</ele>
        <time>2016-07-07T18:18:26Z</time>
      </trkpt>
      <trkpt lat="48.52217" lon="7.16688">
        <ele>787</ele>
        <time>2016-07-07T18:20:26Z</time>
      </trkpt>
      <trkpt lat="48.52226" lon="7.16673">
        <ele>786</ele>
        <time>2016-07-07T18:22:26Z</time>
      </trkpt>
      <trkpt lat="48.5223" lon="7.16665">
        <ele>786</ele>
        <time>2016-07-07T18:24:26Z</time>
      </trkpt>
      <trkpt lat="48.52234" lon="7.16659">
        <ele>787</ele>
        <time>2016-07-07T18:26:26Z</time>
      </trkpt>
      <trkpt lat="48.52238" lon="7.16652">
        <ele>787</ele>
        <time>2016-07-07T18:28:26Z</time>
      </trkpt>
      <trkpt lat="48.52242" lon="7.16646">
        <ele>787</ele>
        <time>2016-07-07T18:30:26Z</time>
      </trkpt>
      <trkpt lat="48.52251" lon="7.16634">
        <ele>788</ele>
        <time>2016-07-07T18:32:26Z</time>
      </trkpt>
      <trkpt lat="48.52255" lon="7.16629">
        <ele>788</ele>
        <time>2016-07-07T18:34:26Z</time>
      </trkpt>
      <trkpt lat="48.52264" lon="7.1662">
        <ele>787</ele>
        <time>2016-07-07T18:36:26Z</time>
      </trkpt>
      <trkpt lat="48.52269" lon="7.16616">
        <ele>787</ele>
        <time>2016-07-07T18:38:26Z</time>
      </trkpt>
      <trkpt lat="48.52275" lon="7.16611">
        <ele>787</ele>
        <time>2016-07-07T18:40:26Z</time>
      </trkpt>
      <trkpt lat="48.52281" lon="7.16607">
        <ele>787</ele>
        <time>2016-07-07T18:42:26Z</time>
      </trkpt>
      <trkpt lat="48.52288" lon="7.16603">
        <ele>787</ele>
        <time>2016-07-07T18:44:26Z</time>
      </trkpt>
      <trkpt lat="48.52294" lon="7.166">
        <ele>787</ele>
        <time>2016-07-07T18:46:26Z</time>
      </trkpt>
      <trkpt lat="48.523" lon="7.16596">
        <ele>787</ele>
        <time>2016-07-07T18:48:26Z</time>
      </trkpt>
      <trkpt lat="48.52307" lon="7.16593">
        <ele>787</ele>
        <time>2016-07-07T18:50:26Z</time>
      </trkpt>
      <trkpt lat="48.52313" lon="7.1659">
        <ele>787</ele>
        <time>2016-07-07T18:52:26Z</time>
      </trkpt>
      <trkpt lat="48.52323" lon="7.16585">
        <ele>788</ele>
        <time>2016-07-07T18:54:26Z</time>
      </trkpt>
      <trkpt lat="48.52333" lon="7.16583">
        <ele>788</ele>
        <time>2016-07-07T18:56:26Z</time>
      </trkpt>
      <trkpt lat="48.5234" lon="7.16581">
        <ele>788</ele>
        <time>2016-07-07T18:58:26Z</time>
      </trkpt>
      <trkpt lat="48.52346" lon="7.1658">
        <ele>788</ele>
        <time>2016-07-07T19:00:26Z</time>
      </trkpt>
      <trkpt lat="48.52353" lon="7.16579">
        <ele>787</ele>
        <time>2016-07-07T19:02:26Z</time>
      </trkpt>
      <trkpt lat="48.5236" lon="7.16579">
        <ele>787</ele>
        <time>2016-07-07T19:04:26Z</time>
      </trkpt>
      <trkpt lat="48.52364" lon="7.16579">
        <ele>787</ele>
        <time>2016-07-07T19:06:26Z</time>
      </trkpt>
      <trkpt lat="48.52367" lon="7.16579">
        <ele>787</ele>
        <time>2016-07-07T19:08:26Z</time>
      </trkpt>
      <trkpt lat="48.52374" lon="7.16579">
        <ele>787</ele>
        <time>2016-07-07T19:10:26Z</time>
      </trkpt>
      <trkpt lat="48.52389" lon="7.1658">
        <ele>788</ele>
        <time>2016-07-07T19:12:26Z</time>
      </trkpt>
      <trkpt lat="48.52392" lon="7.1658">
        <ele>788</ele>
        <time>2016-07-07T19:14:26Z</time>
      </trkpt>
      <trkpt lat="48.52404" lon="7.16583">
        <ele>788</ele>
        <time>2016-07-07T19:16:26Z</time>
      </trkpt>
      <trkpt lat="48.52414" lon="7.16585">
        <ele>788</ele>
        <time>2016-07-07T19:18:26Z</time>
      </trkpt>
      <trkpt lat="48.52434" lon="7.16593">
        <ele>789</ele>
        <time>2016-07-07T19:20:26Z</time>
      </trkpt>
      <trkpt lat="48.52441" lon="7.16595">
        <ele>788</ele>
        <time>2016-07-07T19:22:26Z</time>
      </trkpt>
      <trkpt lat="48.52451" lon="7.16599">
        <ele>789</ele>
        <time>2016-07-07T19:24:26Z</time>
      </trkpt>
      <trkpt lat="48.52464" lon="7.16603">
        <ele>788</ele>
        <time>2016-07-07T19:26:26Z</time>
      </trkpt>
      <trkpt lat="48.52479" lon="7.16607">
        <ele>788</ele>
        <time>2016-07-07T19:28:26Z</time>
      </trkpt>
      <trkpt lat="48.52487" lon="7.16609">
        <ele>788</ele>
        <time>2016-07-07T19:30:26Z</time>
      </trkpt>
      <trkpt lat="48.52495" lon="7.16611">
        <ele>788</ele>
        <time>2016-07-07T19:32:26Z</time>
      </trkpt>
      <trkpt lat="48.52502" lon="7.16614">
        <ele>788</ele>
        <time>2016-07-07T19:34:26Z</time>
      </trkpt>
      <trkpt lat="48.52509" lon="7.16616">
        <ele>788</ele>
        <time>2016-07-07T19:36:26Z</time>
      </trkpt>
      <trkpt lat="48.52517" lon="7.16619">
        <ele>788</ele>
        <time>2016-07-07T19:38:26Z</time>
      </trkpt>
      <trkpt lat="48.52525" lon="7.16621">
        <ele>788</ele>
        <time>2016-07-07T19:40:26Z</time>
      </trkpt>
      <trkpt lat="48.52532" lon="7.16624">
        <ele>788</ele>
        <time>2016-07-07T19:42:26Z</time>
      </trkpt>
      <trkpt lat="48.5254" lon="7.16626">
        <ele>787</ele>
        <time>2016-07-07T19:44:26Z</time>
      </trkpt>
      <trkpt lat="48.52548" lon="7.16629">
        <ele>787</ele>
        <time>2016-07-07T19:46:26Z</time>
      </trkpt>
      <trkpt lat="48.52555" lon="7.16631">
        <ele>787</ele>
        <time>2016-07-07T19:48:26Z</time>
      </trkpt>
      <trkpt lat="48.52586" lon="7.16641">
        <ele>786</ele>
        <time>2016-07-07T19:50:26Z</time>
      </trkpt>
      <trkpt lat="48.52593" lon="7.16643">
        <ele>786</ele>
        <time>2016-07-07T19:52:26Z</time>
      </trkpt>
      <trkpt lat="48.52608" lon="7.16648">
        <ele>786</ele>
        <time>2016-07-07T19:54:26Z</time>
      </trkpt>
      <trkpt lat="48.52624" lon="7.16654">
        <ele>785</ele>
        <time>2016-07-07T19:56:26Z</time>
      </trkpt>
      <trkpt lat="48.52631" lon="7.16657">
        <ele>785</ele>
        <time>2016-07-07T19:58:26Z</time>
      </trkpt>
      <trkpt lat="48.52639" lon="7.16661">
        <ele>785</ele>
        <time>2016-07-07T20:00:26Z</time>
      </trkpt>
      <trkpt lat="48.52653" lon="7.16669">
        <ele>786</ele>
        <time>2016-07-07T20:02:26Z</time>
      </trkpt>
      <trkpt lat="48.5266" lon="7.16673">
        <ele>786</ele>
        <time>2016-07-07T20:04:26Z</time>
      </trkpt>
      <trkpt lat="48.52667" lon="7.16678">
        <ele>786</ele>
        <time>2016-07-07T20:06:26Z</time>
      </trkpt>
      <trkpt lat="48.52673" lon="7.16683">
        <ele>785</ele>
        <time>2016-07-07T20:08:26Z</time>
      </trkpt>
      <trkpt lat="48.5268" lon="7.16688">
        <ele>785</ele>
        <time>2016-07-07T20:10:26Z</time>
      </trkpt>
      <trkpt lat="48.52687" lon="7.16694">
        <ele>784</ele>
        <time>2016-07-07T20:12:26Z</time>
      </trkpt>
      <trkpt lat="48.52693" lon="7.16699">
        <ele>784</ele>
        <time>2016-07-07T20:14:26Z</time>
      </trkpt>
      <trkpt lat="48.527" lon="7.16705">
        <ele>784</ele>
        <time>2016-07-07T20:16:26Z</time>
      </trkpt>
      <trkpt lat="48.52706" lon="7.16711">
        <ele>784</ele>
        <time>2016-07-07T20:18:26Z</time>
      </trkpt>
      <trkpt lat="48.52712" lon="7.16717">
        <ele>784</ele>
        <time>2016-07-07T20:20:26Z</time>
      </trkpt>
      <trkpt lat="48.52725" lon="7.1673">
        <ele>784</ele>
        <time>2016-07-07T20:22:26Z</time>
      </trkpt>
      <trkpt lat="48.52727" lon="7.16733">
        <ele>784</ele>
        <time>2016-07-07T20:24:26Z</time>
      </trkpt>
      <trkpt lat="48.5273" lon="7.16737">
        <ele>784</ele>
        <time>2016-07-07T20:26:26Z</time>
      </trkpt>
      <trkpt lat="48.52736" lon="7.16744">
        <ele>784</ele>
        <time>2016-07-07T20:28:26Z</time>
      </trkpt>
      <trkpt lat="48.52743" lon="7.16753">
        <ele>784</ele>
        <time>2016-07-07T20:30:26Z</time>
      </trkpt>
      <trkpt lat="48.52747" lon="7.16759">
        <ele>784</ele>
        <time>2016-07-07T20:32:26Z</time>
      </trkpt>
      <trkpt lat="48.52752" lon="7.16765">
        <ele>784</ele>
        <time>2016-07-07T20:34:26Z</time>
      </trkpt>
      <trkpt lat="48.52756" lon="7.1677">
        <ele>784</ele>
        <time>2016-07-07T20:36:26Z</time>
      </trkpt>
      <trkpt lat="48.52759" lon="7.16774">
        <ele>784</ele>
        <time>2016-07-07T20:38:26Z</time>
      </trkpt>
      <trkpt lat="48.52761" lon="7.16775">
        <ele>783</ele>
        <time>2016-07-07T20:40:26Z</time>
      </trkpt>
      <trkpt lat="48.52761" lon="7.16775">
        <ele>783</ele>
        <time>2016-07-07T20:42:26Z</time>
      </trkpt>
      <trkpt lat="48.52765" lon="7.16781">
        <ele>783</ele>
        <time>2016-07-07T20:44:26Z</time>
      </trkpt>
      <trkpt lat="48.52771" lon="7.16788">
        <ele>783</ele>
        <time>2016-07-07T20:46:26Z</time>
      </trkpt>
      <trkpt lat="48.52778" lon="7.16796">
        <ele>784</ele>
        <time>2016-07-07T20:48:26Z</time>
      </trkpt>
      <trkpt lat="48.52784" lon="7.16802">
        <ele>784</ele>
        <time>2016-07-07T20:50:26Z</time>
      </trkpt>
      <trkpt lat="48.5279" lon="7.16809">
        <ele>784</ele>
        <time>2016-07-07T20:52:26Z</time>
      </trkpt>
      <trkpt lat="48.52797" lon="7.16815">
        <ele>784</ele>
        <time>2016-07-07T20:54:26Z</time>
      </trkpt>
      <trkpt lat="48.52803" lon="7.16822">
        <ele>784</ele>
        <time>2016-07-07T20:56:26Z</time>
      </trkpt>
      <trkpt lat="48.5281" lon="7.16829">
        <ele>785</ele>
        <time>2016-07-07T20:58:26Z</time>
      </trkpt>
      <trkpt lat="48.52816" lon="7.16835">
        <ele>785</ele>
        <time>2016-07-07T21:00:26Z</time>
      </trkpt>
      <trkpt lat="48.52823" lon="7.16841">
        <ele>784</ele>
        <time>2016-07-07T21:02:26Z</time>
      </trkpt>
      <trkpt lat="48.5283" lon="7.16847">
        <ele>783</ele>
        <time>2016-07-07T21:04:26Z</time>
      </trkpt>
      <trkpt lat="48.52838" lon="7.16852">
        <ele>783</ele>
        <time>2016-07-07T21:06:26Z</time>
      </trkpt>
      <trkpt lat="48.52845" lon="7.16857">
        <ele>783</ele>
        <time>2016-07-07T21:08:26Z</time>
      </trkpt>
      <trkpt lat="48.52852" lon="7.16861">
        <ele>783</ele>
        <time>2016-07-07T21:10:26Z</time>
      </trkpt>
      <trkpt lat="48.5286" lon="7.16865">
        <ele>783</ele>
        <time>2016-07-07T21:12:26Z</time>
      </trkpt>
      <trkpt lat="48.52868" lon="7.16869">
        <ele>783</ele>
        <time>2016-07-07T21:14:26Z</time>
      </trkpt>
      <trkpt lat="48.52876" lon="7.16871">
        <ele>784</ele>
        <time>2016-07-07T21:16:26Z</time>
      </trkpt>
      <trkpt lat="48.52891" lon="7.16878">
        <ele>784</ele>
        <time>2016-07-07T21:18:26Z</time>
      </trkpt>
      <trkpt lat="48.52899" lon="7.16881">
        <ele>785</ele>
        <time>2016-07-07T21:20:26Z</time>
      </trkpt>
      <trkpt lat="48.52906" lon="7.16883">
        <ele>785</ele>
        <time>2016-07-07T21:22:26Z</time>
      </trkpt>
      <trkpt lat="48.52914" lon="7.16886">
        <ele>785</ele>
        <time>2016-07-07T21:24:26Z</time>
      </trkpt>
      <trkpt lat="48.52922" lon="7.16888">
        <ele>786</ele>
        <time>2016-07-07T21:26:26Z</time>
      </trkpt>
      <trkpt lat="48.5293" lon="7.16891">
        <ele>788</ele>
        <time>2016-07-07T21:28:26Z</time>
      </trkpt>
      <trkpt lat="48.52945" lon="7.16895">
        <ele>790</ele>
        <time>2016-07-07T21:30:26Z</time>
      </trkpt>
      <trkpt lat="48.52951" lon="7.16898">
        <ele>791</ele>
        <time>2016-07-07T21:32:26Z</time>
      </trkpt>
      <trkpt lat="48.52958" lon="7.16901">
        <ele>792</ele>
        <time>2016-07-07T21:34:26Z</time>
      </trkpt>
      <trkpt lat="48.52965" lon="7.16905">
        <ele>794</ele>
        <time>2016-07-07T21:36:26Z</time>
      </trkpt>
      <trkpt lat="48.52972" lon="7.16909">
        <ele>795</ele>
        <time>2016-07-07T21:38:26Z</time>
      </trkpt>
      <trkpt lat="48.52979" lon="7.16913">
        <ele>796</ele>
        <time>2016-07-07T21:40:26Z</time>
      </trkpt>
      <trkpt lat="48.52986" lon="7.16918">
        <ele>797</ele>
        <time>2016-07-07T21:42:26Z</time>
      </trkpt>
      <trkpt lat="48.52992" lon="7.16924">
        <ele>797</ele>
        <time>2016-07-07T21:44:26Z</time>
      </trkpt>
      <trkpt lat="48.52998" lon="7.1693">
        <ele>797</ele>
        <time>2016-07-07T21:46:26Z</time>
      </trkpt>
      <trkpt lat="48.53005" lon="7.16936">
        <ele>797</ele>
        <time>2016-07-07T21:48:26Z</time>
      </trkpt>
      <trkpt lat="48.53011" lon="7.16943">
        <ele>798</ele>
        <time>2016-07-07T21:50:26Z</time>
      </trkpt>
      <trkpt lat="48.53018" lon="7.16949">
        <ele>798</ele>
        <time>2016-07-07T21:52:26Z</time>
      </trkpt>
      <trkpt lat="48.53025" lon="7.16955">
        <ele>799</ele>
        <time>2016-07-07T21:54:26Z</time>
      </trkpt>
      <trkpt lat="48.53032" lon="7.16961">
        <ele>800</ele>
        <time>2016-07-07T21:56:26Z</time>
      </trkpt>
      <trkpt lat="48.53039" lon="7.16966">
        <ele>801</ele>
        <time>2016-07-07T21:58:26Z</time>
      </trkpt>
      <trkpt lat="48.53046" lon="7.16972">
        <ele>802</ele>
        <time>2016-07-07T22:00:26Z</time>
      </trkpt>
      <trkpt lat="48.53054" lon="7.16978">
        <ele>803</ele>
        <time>2016-07-07T22:02:26Z</time>
      </trkpt>
      <trkpt lat="48.53061" lon="7.16985">
        <ele>804</ele>
        <time>2016-07-07T22:04:26Z</time>
      </trkpt>
      <trkpt lat="48.53069" lon="7.16991">
        <ele>805</ele>
        <time>2016-07-07T22:06:26Z</time>
      </trkpt>
      <trkpt lat="48.53076" lon="7.16998">
        <ele>806</ele>
        <time>2016-07-07T22:08:26Z</time>
      </trkpt>
      <trkpt lat="48.53082" lon="7.17004">
        <ele>807</ele>
        <time>2016-07-07T22:10:26Z</time>
      </trkpt>
      <trkpt lat="48.5309" lon="7.17011">
        <ele>807</ele>
        <time>2016-07-07T22:12:26Z</time>
      </trkpt>
      <trkpt lat="48.53097" lon="7.17018">
        <ele>807</ele>
        <time>2016-07-07T22:14:26Z</time>
      </trkpt>
      <trkpt lat="48.53104" lon="7.17025">
        <ele>807</ele>
        <time>2016-07-07T22:16:26Z</time>
      </trkpt>
      <trkpt lat="48.53111" lon="7.17032">
        <ele>808</ele>
        <time>2016-07-07T22:18:26Z</time>
      </trkpt>
      <trkpt lat="48.53118" lon="7.1704">
        <ele>808</ele>
        <time>2016-07-07T22:20:26Z</time>
      </trkpt>
      <trkpt lat="48.53125" lon="7.17048">
        <ele>808</ele>
        <time>2016-07-07T22:22:26Z</time>
      </trkpt>
      <trkpt lat="48.53132" lon="7.17056">
        <ele>808</ele>
        <time>2016-07-07T22:24:26Z</time>
      </trkpt>
      <trkpt lat="48.53138" lon="7.17062">
        <ele>809</ele>
        <time>2016-07-07T22:26:26Z</time>
      </trkpt>
      <trkpt lat="48.53145" lon="7.1707">
        <ele>809</ele>
        <time>2016-07-07T22:28:26Z</time>
      </trkpt>
      <trkpt lat="48.53151" lon="7.17077">
        <ele>810</ele>
        <time>2016-07-07T22:30:26Z</time>
      </trkpt>
      <trkpt lat="48.53157" lon="7.17084">
        <ele>810</ele>
        <time>2016-07-07T22:32:26Z</time>
      </trkpt>
      <trkpt lat="48.53163" lon="7.1709">
        <ele>811</ele>
        <time>2016-07-07T22:34:26Z</time>
      </trkpt>
      <trkpt lat="48.53169" lon="7.17098">
        <ele>811</ele>
        <time>2016-07-07T22:36:26Z</time>
      </trkpt>
      <trkpt lat="48.53175" lon="7.17107">
        <ele>810</ele>
        <time>2016-07-07T22:38:26Z</time>
      </trkpt>
      <trkpt lat="48.5318" lon="7.17115">
        <ele>809</ele>
        <time>2016-07-07T22:40:26Z</time>
      </trkpt>
      <trkpt lat="48.53186" lon="7.17123">
        <ele>809</ele>
        <time>2016-07-07T22:42:26Z</time>
      </trkpt>
      <trkpt lat="48.53191" lon="7.17131">
        <ele>808</ele>
        <time>2016-07-07T22:44:26Z</time>
      </trkpt>
      <trkpt lat="48.53196" lon="7.17139">
        <ele>807</ele>
        <time>2016-07-07T22:46:26Z</time>
      </trkpt>
      <trkpt lat="48.53201" lon="7.17147">
        <ele>807</ele>
        <time>2016-07-07T22:48:26Z</time>
      </trkpt>
      <trkpt lat="48.53207" lon="7.17154">
        <ele>807</ele>
        <time>2016-07-07T22:50:26Z</time>
      </trkpt>
      <trkpt lat="48.53212" lon="7.1716">
        <ele>807</ele>
        <time>2016-07-07T22:52:26Z</time>
      </trkpt>
      <trkpt lat="48.53217" lon="7.17166">
        <ele>807</ele>
        <time>2016-07-07T22:54:26Z</time>
      </trkpt>
      <trkpt lat="48.53222" lon="7.1717">
        <ele>807</ele>
        <time>2016-07-07T22:56:26Z</time>
      </trkpt>
      <trkpt lat="48.53227" lon="7.17174">
        <ele>807</ele>
        <time>2016-07-07T22:58:26Z</time>
      </trkpt>
      <trkpt lat="48.53232" lon="7.17178">
        <ele>807</ele>
        <time>2016-07-07T23:00:26Z</time>
      </trkpt>
      <trkpt lat="48.53235" lon="7.1718">
        <ele>807</ele>
        <time>2016-07-07T23:02:26Z</time>
      </trkpt>
      <trkpt lat="48.5324" lon="7.17183">
        <ele>808</ele>
        <time>2016-07-07T23:04:26Z</time>
      </trkpt>
      <trkpt lat="48.53242" lon="7.17184">
        <ele>808</ele>
        <time>2016-07-07T23:06:26Z</time>
      </trkpt>
      <trkpt lat="48.53244" lon="7.17185">
        <ele>808</ele>
        <time>2016-07-07T23:08:26Z</time>
      </trkpt>
      <trkpt lat="48.53246" lon="7.17186">
        <ele>808</ele>
        <time>2016-07-07T23:10:26Z</time>
      </trkpt>
      <trkpt lat="48.5325" lon="7.17188">
        <ele>809</ele>
        <time>2016-07-07T23:12:26Z</time>
      </trkpt>
      <trkpt lat="48.53254" lon="7.1719">
        <ele>808</ele>
        <time>2016-07-07T23:14:26Z</time>
      </trkpt>
      <trkpt lat="48.53261" lon="7.17194">
        <ele>807</ele>
        <time>2016-07-07T23:16:26Z</time>
      </trkpt>
      <trkpt lat="48.53265" lon="7.17195">
        <ele>806</ele>
        <time>2016-07-07T23:18:26Z</time>
      </trkpt>
      <trkpt lat="48.53272" lon="7.172">
        <ele>805</ele>
        <time>2016-07-07T23:20:26Z</time>
      </trkpt>
      <trkpt lat="48.53276" lon="7.17202">
        <ele>805</ele>
        <time>2016-07-07T23:22:26Z</time>
      </trkpt>
      <trkpt lat="48.53284" lon="7.17206">
        <ele>804</ele>
        <time>2016-07-07T23:24:26Z</time>
      </trkpt>
      <trkpt lat="48.53292" lon="7.17212">
        <ele>803</ele>
        <time>2016-07-07T23:26:26Z</time>
      </trkpt>
      <trkpt lat="48.53301" lon="7.17219">
        <ele>802</ele>
        <time>2016-07-07T23:28:26Z</time>
      </trkpt>
      <trkpt lat="48.53311" lon="7.17227">
        <ele>802</ele>
        <time>2016-07-07T23:30:26Z</time>
      </trkpt>
      <trkpt lat="48.5332" lon="7.17236">
        <ele>802</ele>
        <time>2016-07-07T23:32:26Z</time>
      </trkpt>
      <trkpt lat="48.53331" lon="7.17247">
        <ele>803</ele>
        <time>2016-07-07T23:34:26Z</time>
      </trkpt>
      <trkpt lat="48.53346" lon="7.17263">
        <ele>803</ele>
        <time>2016-07-07T23:36:26Z</time>
      </trkpt>
      <trkpt lat="48.53358" lon="7.17276">
        <ele>802</ele>
        <time>2016-07-07T23:38:26Z</time>
      </trkpt>
      <trkpt lat="48.53364" lon="7.17282">
        <ele>802</ele>
        <time>2016-07-07T23:40:26Z</time>
      </trkpt>
      <trkpt lat="48.53381" lon="7.17302">
        <ele>802</ele>
        <time>2016-07-07T23:42:26Z</time>
      </trkpt>
      <trkpt lat="48.53387" lon="7.17309">
        <ele>802</ele>
        <time>2016-07-07T23:44:26Z</time>
      </trkpt>
      <trkpt lat="48.53399" lon="7.17324">
        <ele>803</ele>
        <time>2016-07-07T23:46:26Z</time>
      </trkpt>
      <trkpt lat="48.53405" lon="7.17331">
        <ele>803</ele>
        <time>2016-07-07T23:48:26Z</time>
      </trkpt>
      <trkpt lat="48.53416" lon="7.17345">
        <ele>803</ele>
        <time>2016-07-07T23:50:26Z</time>
      </trkpt>
      <trkpt lat="48.53428" lon="7.17359">
        <ele>802</ele>
        <time>2016-07-07T23:52:26Z</time>
      </trkpt>
      <trkpt lat="48.53434" lon="7.17367">
        <ele>802</ele>
        <time>2016-07-07T23:54:26Z</time>
      </trkpt>
      <trkpt lat="48.5344" lon="7.17373">
        <ele>802</ele>
        <time>2016-07-07T23:56:26Z</time>
      </trkpt>
      <trkpt lat="48.53446" lon="7.1738">
        <ele>801</ele>
        <time>2016-07-07T23:58:26Z</time>
      </trkpt>
      <trkpt lat="48.53452" lon="7.17386">
        <ele>801</ele>
        <time>2016-07-08T00:00:26Z</time>
      </trkpt>
      <trkpt lat="48.53458" lon="7.17392">
        <ele>800</ele>
        <time>2016-07-08T00:02:26Z</time>
      </trkpt>
      <trkpt lat="48.53466" lon="7.17399">
        <ele>800</ele>
        <time>2016-07-08T00:04:26Z</time>
      </trkpt>
      <trkpt lat="48.5347" lon="7.17403">
        <ele>800</ele>
        <time>2016-07-08T00:06:26Z</time>
      </trkpt>
      <trkpt lat="48.53476" lon="7.17409">
        <ele>799</ele>
        <time>2016-07-08T00:08:26Z</time>
      </trkpt>
      <trkpt lat="48.53482" lon="7.17415">
        <ele>799</ele>
        <time>2016-07-08T00:10:26Z</time>
      </trkpt>
      <trkpt lat="48.53494" lon="7.17425">
        <ele>798</ele>
        <time>2016-07-08T00:12:26Z</time>
      </trkpt>
      <trkpt lat="48.53506" lon="7.17436">
        <ele>797</ele>
        <time>2016-07-08T00:14:26Z</time>
      </trkpt>
      <trkpt lat="48.53512" lon="7.17441">
        <ele>797</ele>
        <time>2016-07-08T00:16:26Z</time>
      </trkpt>
      <trkpt lat="48.53517" lon="7.17445">
        <ele>796</ele>
        <time>2016-07-08T00:18:26Z</time>
      </trkpt>
      <trkpt lat="48.53522" lon="7.1745">
        <ele>796</ele>
        <time>2016-07-08T00:20:26Z</time>
      </trkpt>
      <trkpt lat="48.53527" lon="7.17455">
        <ele>795</ele>
        <time>2016-07-08T00:22:26Z</time>
      </trkpt>
      <trkpt lat="48.53532" lon="7.1746">
        <ele>795</ele>
        <time>2016-07-08T00:24:26Z</time>
      </trkpt>
      <trkpt lat="48.53537" lon="7.17465">
        <ele>794</ele>
        <time>2016-07-08T00:26:26Z</time>
      </trkpt>
      <trkpt lat="48.53542" lon="7.1747">
        <ele>794</ele>
        <time>2016-07-08T00:28:26Z</time>
      </trkpt>
      <trkpt lat="48.53547" lon="7.17475">
        <ele>794</ele>
        <time>2016-07-08T00:30:26Z</time>
      </trkpt>
      <trkpt lat="48.53551" lon="7.17479">
        <ele>793</ele>
        <time>2016-07-08T00:32:26Z</time>
      </trkpt>
      <trkpt lat="48.53555" lon="7.17484">
        <ele>793</ele>
        <time>2016-07-08T00:34:26Z</time>
      </trkpt>
      <trkpt lat="48.53562" lon="7.17493">
        <ele>794</ele>
        <time>2016-07-08T00:36:26Z</time>
      </trkpt>
      <trkpt lat="48.53568" lon="7.17501">
        <ele>794</ele>
        <time>2016-07-08T00:38:26Z</time>
      </trkpt>
      <trkpt lat="48.53571" lon="7.17505">
        <ele>794</ele>
        <time>2016-07-08T00:40:26Z</time>
      </trkpt>
      <trkpt lat="48.53573" lon="7.17508">
        <ele>794</ele>
        <time>2016-07-08T00:42:26Z</time>
      </trkpt>
      <trkpt lat="48.53575" lon="7.1751">
        <ele>794</ele>
        <time>2016-07-08T00:44:26Z</time>
      </trkpt>
      <trkpt lat="48.53578" lon="7.17512">
        <ele>793</ele>
        <time>2016-07-08T00:46:26Z</time>
      </trkpt>
      <trkpt lat="48.53579" lon="7.17512">
        <ele>793</ele>
        <time>2016-07-08T00:48:26Z</time>
      </trkpt>
      <trkpt lat="48.53583" lon="7.17511">
        <ele>792</ele>
        <time>2016-07-08T00:50:26Z</time>
      </trkpt>
      <trkpt lat="48.53584" lon="7.17509">
        <ele>791</ele>
        <time>2016-07-08T00:52:26Z</time>
      </trkpt>
      <trkpt lat="48.53584" lon="7.17509">
        <ele>791</ele>
        <time>2016-07-08T00:54:26Z</time>
      </trkpt>
      <trkpt lat="48.53585" lon="7.17507">
        <ele>790</ele>
        <time>2016-07-08T00:56:26Z</time>
      </trkpt>
      <trkpt lat="48.53586" lon="7.17503">
        <ele>789</ele>
        <time>2016-07-08T00:58:26Z</time>
      </trkpt>
      <trkpt lat="48.53585" lon="7.17499">
        <ele>788</ele>
        <time>2016-07-08T01:00:26Z</time>
      </trkpt>
      <trkpt lat="48.53584" lon="7.17494">
        <ele>787</ele>
        <time>2016-07-08T01:02:26Z</time>
      </trkpt>
      <trkpt lat="48.53582" lon="7.1749">
        <ele>787</ele>
        <time>2016-07-08T01:04:26Z</time>
      </trkpt>
      <trkpt lat="48.53579" lon="7.17485">
        <ele>787</ele>
        <time>2016-07-08T01:06:26Z</time>
      </trkpt>
      <trkpt lat="48.53575" lon="7.1748">
        <ele>787</ele>
        <time>2016-07-08T01:08:26Z</time>
      </trkpt>
      <trkpt lat="48.53571" lon="7.17475">
        <ele>787</ele>
        <time>2016-07-08T01:10:26Z</time>
      </trkpt>
      <trkpt lat="48.53566" lon="7.1747">
        <ele>787</ele>
        <time>2016-07-08T01:12:26Z</time>
      </trkpt>
      <trkpt lat="48.53561" lon="7.17464">
        <ele>787</ele>
        <time>2016-07-08T01:14:26Z</time>
      </trkpt>
      <trkpt lat="48.53555" lon="7.17458">
        <ele>787</ele>
        <time>2016-07-08T01:16:26Z</time>
      </trkpt>
      <trkpt lat="48.5355" lon="7.17452">
        <ele>788</ele>
        <time>2016-07-08T01:18:26Z</time>
      </trkpt>
      <trkpt lat="48.53544" lon="7.17445">
        <ele>788</ele>
        <time>2016-07-08T01:20:26Z</time>
      </trkpt>
      <trkpt lat="48.53539" lon="7.17438">
        <ele>788</ele>
        <time>2016-07-08T01:22:26Z</time>
      </trkpt>
      <trkpt lat="48.53533" lon="7.17431">
        <ele>788</ele>
        <time>2016-07-08T01:24:26Z</time>
      </trkpt>
      <trkpt lat="48.53527" lon="7.17423">
        <ele>788</ele>
        <time>2016-07-08T01:26:26Z</time>
      </trkpt>
      <trkpt lat="48.53521" lon="7.17416">
        <ele>788</ele>
        <time>2016-07-08T01:28:26Z</time>
      </trkpt>
      <trkpt lat="48.53515" lon="7.17408">
        <ele>789</ele>
        <time>2016-07-08T01:30:26Z</time>
      </trkpt>
      <trkpt lat="48.53509" lon="7.174">
        <ele>789</ele>
        <time>2016-07-08T01:32:26Z</time>
      </trkpt>
      <trkpt lat="48.53504" lon="7.17391">
        <ele>789</ele>
        <time>2016-07-08T01:34:26Z</time>
      </trkpt>
      <trkpt lat="48.53498" lon="7.17382">
        <ele>788</ele>
        <time>2016-07-08T01:36:26Z</time>
      </trkpt>
      <trkpt lat="48.53493" lon="7.17373">
        <ele>788</ele>
        <time>2016-07-08T01:38:26Z</time>
      </trkpt>
      <trkpt lat="48.53488" lon="7.17364">
        <ele>787</ele>
        <time>2016-07-08T01:40:26Z</time>
      </trkpt>
      <trkpt lat="48.53484" lon="7.17354">
        <ele>786</ele>
        <time>2016-07-08T01:42:26Z</time>
      </trkpt>
      <trkpt lat="48.53479" lon="7.17345">
        <ele>786</ele>
        <time>2016-07-08T01:44:26Z</time>
      </trkpt>
      <trkpt lat="48.53475" lon="7.17335">
        <ele>785</ele>
        <time>2016-07-08T01:46:26Z</time>
      </trkpt>
      <trkpt lat="48.5347" lon="7.17325">
        <ele>785</ele>
        <time>2016-07-08T01:48:26Z</time>
      </trkpt>
      <trkpt lat="48.53466" lon="7.17315">
        <ele>784</ele>
        <time>2016-07-08T01:50:26Z</time>
      </trkpt>
      <trkpt lat="48.53462" lon="7.17305">
        <ele>784</ele>
        <time>2016-07-08T01:52:26Z</time>
      </trkpt>
      <trkpt lat="48.53458" lon="7.17294">
        <ele>783</ele>
        <time>2016-07-08T01:54:26Z</time>
      </trkpt>
      <trkpt lat="48.53454" lon="7.17284">
        <ele>782</ele>
        <time>2016-07-08T01:56:26Z</time>
      </trkpt>
      <trkpt lat="48.5345" lon="7.17274">
        <ele>782</ele>
        <time>2016-07-08T01:58:26Z</time>
      </trkpt>
      <trkpt lat="48.53442" lon="7.17254">
        <ele>781</ele>
        <time>2016-07-08T02:00:26Z</time>
      </trkpt>
      <trkpt lat="48.53438" lon="7.17244">
        <ele>780</ele>
        <time>2016-07-08T02:02:26Z</time>
      </trkpt>
      <trkpt lat="48.53434" lon="7.17234">
        <ele>780</ele>
        <time>2016-07-08T02:04:26Z</time>
      </trkpt>
      <trkpt lat="48.5343" lon="7.17224">
        <ele>780</ele>
        <time>2016-07-08T02:06:26Z</time>
      </trkpt>
      <trkpt lat="48.53426" lon="7.17214">
        <ele>779</ele>
        <time>2016-07-08T02:08:26Z</time>
      </trkpt>
      <trkpt lat="48.53423" lon="7.17204">
        <ele>778</ele>
        <time>2016-07-08T02:10:26Z</time>
      </trkpt>
      <trkpt lat="48.53419" lon="7.17194">
        <ele>778</ele>
        <time>2016-07-08T02:12:26Z</time>
      </trkpt>
      <trkpt lat="48.53416" lon="7.17184">
        <ele>777</ele>
        <time>2016-07-08T02:14:26Z</time>
      </trkpt>
      <trkpt lat="48.53411" lon="7.17166">
        <ele>775</ele>
        <time>2016-07-08T02:16:26Z</time>
      </trkpt>
      <trkpt lat="48.53407" lon="7.17153">
        <ele>775</ele>
        <time>2016-07-08T02:18:26Z</time>
      </trkpt>
      <trkpt lat="48.53405" lon="7.17143">
        <ele>775</ele>
        <time>2016-07-08T02:20:26Z</time>
      </trkpt>
      <trkpt lat="48.53402" lon="7.17132">
        <ele>775</ele>
        <time>2016-07-08T02:22:26Z</time>
      </trkpt>
      <trkpt lat="48.534" lon="7.17121">
        <ele>775</ele>
        <time>2016-07-08T02:24:26Z</time>
      </trkpt>
      <trkpt lat="48.53398" lon="7.17111">
        <ele>774</ele>
        <time>2016-07-08T02:26:26Z</time>
      </trkpt>
      <trkpt lat="48.53397" lon="7.171">
        <ele>774</ele>
        <time>2016-07-08T02:28:26Z</time>
      </trkpt>
      <trkpt lat="48.53396" lon="7.17089">
        <ele>773</ele>
        <time>2016-07-08T02:30:26Z</time>
      </trkpt>
      <trkpt lat="48.53396" lon="7.17077">
        <ele>773</ele>
        <time>2016-07-08T02:32:26Z</time>
      </trkpt>
      <trkpt lat="48.53396" lon="7.17066">
        <ele>773</ele>
        <time>2016-07-08T02:34:26Z</time>
      </trkpt>
      <trkpt lat="48.53396" lon="7.17055">
        <ele>773</ele>
        <time>2016-07-08T02:36:26Z</time>
      </trkpt>
      <trkpt lat="48.53397" lon="7.17044">
        <ele>773</ele>
        <time>2016-07-08T02:38:26Z</time>
      </trkpt>
      <trkpt lat="48.53398" lon="7.17032">
        <ele>773</ele>
        <time>2016-07-08T02:40:26Z</time>
      </trkpt>
      <trkpt lat="48.53399" lon="7.17021">
        <ele>772</ele>
        <time>2016-07-08T02:42:26Z</time>
      </trkpt>
      <trkpt lat="48.53401" lon="7.17008">
        <ele>772</ele>
        <time>2016-07-08T02:44:26Z</time>
      </trkpt>
      <trkpt lat="48.53403" lon="7.17">
        <ele>771</ele>
        <time>2016-07-08T02:46:26Z</time>
      </trkpt>
      <trkpt lat="48.53406" lon="7.1699">
        <ele>771</ele>
        <time>2016-07-08T02:48:26Z</time>
      </trkpt>
      <trkpt lat="48.53409" lon="7.1698">
        <ele>772</ele>
        <time>2016-07-08T02:50:26Z</time>
      </trkpt>
      <trkpt lat="48.53412" lon="7.1697">
        <ele>772</ele>
        <time>2016-07-08T02:52:26Z</time>
      </trkpt>
      <trkpt lat="48.53418" lon="7.16955">
        <ele>773</ele>
        <time>2016-07-08T02:54:26Z</time>
      </trkpt>
      <trkpt lat="48.53426" lon="7.1694">
        <ele>773</ele>
        <time>2016-07-08T02:56:26Z</time>
      </trkpt>
      <trkpt lat="48.53435" lon="7.16927">
        <ele>772</ele>
        <time>2016-07-08T02:58:26Z</time>
      </trkpt>
      <trkpt lat="48.5344" lon="7.16919">
        <ele>772</ele>
        <time>2016-07-08T03:00:26Z</time>
      </trkpt>
      <trkpt lat="48.53446" lon="7.16912">
        <ele>772</ele>
        <time>2016-07-08T03:02:26Z</time>
      </trkpt>
      <trkpt lat="48.53452" lon="7.16905">
        <ele>771</ele>
        <time>2016-07-08T03:04:26Z</time>
      </trkpt>
      <trkpt lat="48.53458" lon="7.16898">
        <ele>771</ele>
        <time>2016-07-08T03:06:26Z</time>
      </trkpt>
      <trkpt lat="48.53472" lon="7.16883">
        <ele>771</ele>
        <time>2016-07-08T03:08:26Z</time>
      </trkpt>
      <trkpt lat="48.53476" lon="7.16879">
        <ele>770</ele>
        <time>2016-07-08T03:10:26Z</time>
      </trkpt>
      <trkpt lat="48.53483" lon="7.16872">
        <ele>770</ele>
        <time>2016-07-08T03:12:26Z</time>
      </trkpt>
      <trkpt lat="48.53489" lon="7.16868">
        <ele>769</ele>
        <time>2016-07-08T03:14:26Z</time>
      </trkpt>
      <trkpt lat="48.53495" lon="7.16863">
        <ele>769</ele>
        <time>2016-07-08T03:16:26Z</time>
      </trkpt>
      <trkpt lat="48.53501" lon="7.1686">
        <ele>768</ele>
        <time>2016-07-08T03:18:26Z</time>
      </trkpt>
      <trkpt lat="48.53509" lon="7.16857">
        <ele>768</ele>
        <time>2016-07-08T03:20:26Z</time>
      </trkpt>
      <trkpt lat="48.53516" lon="7.16855">
        <ele>768</ele>
        <time>2016-07-08T03:22:26Z</time>
      </trkpt>
      <trkpt lat="48.53523" lon="7.16855">
        <ele>768</ele>
        <time>2016-07-08T03:24:26Z</time>
      </trkpt>
      <trkpt lat="48.5353" lon="7.16856">
        <ele>767</ele>
        <time>2016-07-08T03:26:26Z</time>
      </trkpt>
      <trkpt lat="48.53537" lon="7.16857">
        <ele>766</ele>
        <time>2016-07-08T03:28:26Z</time>
      </trkpt>
      <trkpt lat="48.53544" lon="7.16859">
        <ele>765</ele>
        <time>2016-07-08T03:30:26Z</time>
      </trkpt>
      <trkpt lat="48.53552" lon="7.16861">
        <ele>764</ele>
        <time>2016-07-08T03:32:26Z</time>
      </trkpt>
      <trkpt lat="48.53559" lon="7.16864">
        <ele>763</ele>
        <time>2016-07-08T03:34:26Z</time>
      </trkpt>
      <trkpt lat="48.53567" lon="7.16867">
        <ele>762</ele>
        <time>2016-07-08T03:36:26Z</time>
      </trkpt>
      <trkpt lat="48.53574" lon="7.1687">
        <ele>760</ele>
        <time>2016-07-08T03:38:26Z</time>
      </trkpt>
      <trkpt lat="48.53581" lon="7.16873">
        <ele>759</ele>
        <time>2016-07-08T03:40:26Z</time>
      </trkpt>
      <trkpt lat="48.53589" lon="7.16876">
        <ele>758</ele>
        <time>2016-07-08T03:42:26Z</time>
      </trkpt>
      <trkpt lat="48.53596" lon="7.1688">
        <ele>757</ele>
        <time>2016-07-08T03:44:26Z</time>
      </trkpt>
      <trkpt lat="48.53603" lon="7.16883">
        <ele>756</ele>
        <time>2016-07-08T03:46:26Z</time>
      </trkpt>
      <trkpt lat="48.5361" lon="7.16887">
        <ele>755</ele>
        <time>2016-07-08T03:48:26Z</time>
      </trkpt>
      <trkpt lat="48.53618" lon="7.16891">
        <ele>754</ele>
        <time>2016-07-08T03:50:26Z</time>
      </trkpt>
      <trkpt lat="48.53625" lon="7.16894">
        <ele>754</ele>
        <time>2016-07-08T03:52:26Z</time>
      </trkpt>
      <trkpt lat="48.53634" lon="7.169">
        <ele>752</ele>
        <time>2016-07-08T03:54:26Z</time>
      </trkpt>
      <trkpt lat="48.53669" lon="7.16919">
        <ele>748</ele>
        <time>2016-07-08T03:56:26Z</time>
      </trkpt>
      <trkpt lat="48.53687" lon="7.16928">
        <ele>745</ele>
        <time>2016-07-08T03:58:26Z</time>
      </trkpt>
      <trkpt lat="48.53696" lon="7.16932">
        <ele>743</ele>
        <time>2016-07-08T04:00:26Z</time>
      </trkpt>
      <trkpt lat="48.53705" lon="7.16935">
        <ele>742</ele>
        <time>2016-07-08T04:02:26Z</time>
      </trkpt>
      <trkpt lat="48.53715" lon="7.16936">
        <ele>741</ele>
        <time>2016-07-08T04:04:26Z</time>
      </trkpt>
      <trkpt lat="48.53723" lon="7.16936">
        <ele>740</ele>
        <time>2016-07-08T04:06:26Z</time>
      </trkpt>
      <trkpt lat="48.5373" lon="7.16934">
        <ele>740</ele>
        <time>2016-07-08T04:08:26Z</time>
      </trkpt>
      <trkpt lat="48.53738" lon="7.16932">
        <ele>740</ele>
        <time>2016-07-08T04:10:26Z</time>
      </trkpt>
      <trkpt lat="48.53745" lon="7.16928">
        <ele>740</ele>
        <time>2016-07-08T04:12:26Z</time>
      </trkpt>
      <trkpt lat="48.53751" lon="7.16922">
        <ele>741</ele>
        <time>2016-07-08T04:14:26Z</time>
      </trkpt>
      <trkpt lat="48.53756" lon="7.16915">
        <ele>741</ele>
        <time>2016-07-08T04:16:26Z</time>
      </trkpt>
      <trkpt lat="48.53761" lon="7.16906">
        <ele>742</ele>
        <time>2016-07-08T04:18:26Z</time>
      </trkpt>
      <trkpt lat="48.53766" lon="7.16896">
        <ele>743</ele>
        <time>2016-07-08T04:20:26Z</time>
      </trkpt>
      <trkpt lat="48.53774" lon="7.16877">
        <ele>746</ele>
        <time>2016-07-08T04:22:26Z</time>
      </trkpt>
      <trkpt lat="48.53781" lon="7.1686">
        <ele>748</ele>
        <time>2016-07-08T04:24:26Z</time>
      </trkpt>
      <trkpt lat="48.53787" lon="7.16847">
        <ele>749</ele>
        <time>2016-07-08T04:26:26Z</time>
      </trkpt>
      <trkpt lat="48.53795" lon="7.16833">
        <ele>751</ele>
        <time>2016-07-08T04:28:26Z</time>
      </trkpt>
      <trkpt lat="48.53803" lon="7.16817">
        <ele>753</ele>
        <time>2016-07-08T04:30:26Z</time>
      </trkpt>
      <trkpt lat="48.53812" lon="7.16802">
        <ele>755</ele>
        <time>2016-07-08T04:32:26Z</time>
      </trkpt>
      <trkpt lat="48.53819" lon="7.16792">
        <ele>756</ele>
        <time>2016-07-08T04:34:26Z</time>
      </trkpt>
      <trkpt lat="48.53833" lon="7.16776">
        <ele>757</ele>
        <time>2016-07-08T04:36:26Z</time>
      </trkpt>
      <trkpt lat="48.53846" lon="7.16765">
        <ele>759</ele>
        <time>2016-07-08T04:38:26Z</time>
      </trkpt>
      <trkpt lat="48.53858" lon="7.16755">
        <ele>761</ele>
        <time>2016-07-08T04:40:26Z</time>
      </trkpt>
      <trkpt lat="48.53874" lon="7.16745">
        <ele>763</ele>
        <time>2016-07-08T04:42:26Z</time>
      </trkpt>
      <trkpt lat="48.53882" lon="7.16742">
        <ele>763</ele>
        <time>2016-07-08T04:44:26Z</time>
      </trkpt>
      <trkpt lat="48.5389" lon="7.16741">
        <ele>764</ele>
        <time>2016-07-08T04:46:26Z</time>
      </trkpt>
      <trkpt lat="48.53897" lon="7.16741">
        <ele>764</ele>
        <time>2016-07-08T04:48:26Z</time>
      </trkpt>
      <trkpt lat="48.53904" lon="7.16744">
        <ele>763</ele>
        <time>2016-07-08T04:50:26Z</time>
      </trkpt>
      <trkpt lat="48.53911" lon="7.16747">
        <ele>762</ele>
        <time>2016-07-08T04:52:26Z</time>
      </trkpt>
      <trkpt lat="48.53916" lon="7.16752">
        <ele>761</ele>
        <time>2016-07-08T04:54:26Z</time>
      </trkpt>
      <trkpt lat="48.53924" lon="7.16761">
        <ele>759</ele>
        <time>2016-07-08T04:56:26Z</time>
      </trkpt>
      <trkpt lat="48.53932" lon="7.16771">
        <ele>757</ele>
        <time>2016-07-08T04:58:26Z</time>
      </trkpt>
      <trkpt lat="48.5396" lon="7.16809">
        <ele>750</ele>
        <time>2016-07-08T05:00:26Z</time>
      </trkpt>
      <trkpt lat="48.53993" lon="7.16852">
        <ele>745</ele>
        <time>2016-07-08T05:02:26Z</time>
      </trkpt>
      <trkpt lat="48.54018" lon="7.16883">
        <ele>742</ele>
        <time>2016-07-08T05:04:26Z</time>
      </trkpt>
      <trkpt lat="48.54033" lon="7.169">
        <ele>741</ele>
        <time>2016-07-08T05:06:26Z</time>
      </trkpt>
      <trkpt lat="48.54046" lon="7.16912">
        <ele>740</ele>
        <time>2016-07-08T05:08:26Z</time>
      </trkpt>
      <trkpt lat="48.54056" lon="7.16921">
        <ele>739</ele>
        <time>2016-07-08T05:10:26Z</time>
      </trkpt>
      <trkpt lat="48.54071" lon="7.16932">
        <ele>738</ele>
        <time>2016-07-08T05:12:26Z</time>
      </trkpt>
      <trkpt lat="48.54083" lon="7.16938">
        <ele>737</ele>
        <time>2016-07-08T05:14:26Z</time>
      </trkpt>
      <trkpt lat="48.54096" lon="7.16943">
        <ele>734</ele>
        <time>2016-07-08T05:16:26Z</time>
      </trkpt>
      <trkpt lat="48.54107" lon="7.16945">
        <ele>732</ele>
        <time>2016-07-08T05:18:26Z</time>
      </trkpt>
      <trkpt lat="48.54116" lon="7.16945">
        <ele>731</ele>
        <time>2016-07-08T05:20:26Z</time>
      </trkpt>
      <trkpt lat="48.54125" lon="7.16943">
        <ele>731</ele>
        <time>2016-07-08T05:22:26Z</time>
      </trkpt>
      <trkpt lat="48.54133" lon="7.1694">
        <ele>731</ele>
        <time>2016-07-08T05:24:26Z</time>
      </trkpt>
      <trkpt lat="48.54143" lon="7.16933">
        <ele>731</ele>
        <time>2016-07-08T05:26:26Z</time>
      </trkpt>
      <trkpt lat="48.54152" lon="7.16926">
        <ele>732</ele>
        <time>2016-07-08T05:28:26Z</time>
      </trkpt>
      <trkpt lat="48.5416" lon="7.16918">
        <ele>732</ele>
        <time>2016-07-08T05:30:26Z</time>
      </trkpt>
      <trkpt lat="48.54166" lon="7.16908">
        <ele>733</ele>
        <time>2016-07-08T05:32:26Z</time>
      </trkpt>
      <trkpt lat="48.54172" lon="7.16897">
        <ele>733</ele>
        <time>2016-07-08T05:34:26Z</time>
      </trkpt>
      <trkpt lat="48.54188" lon="7.16864">
        <ele>732</ele>
        <time>2016-07-08T05:36:26Z</time>
      </trkpt>
      <trkpt lat="48.54197" lon="7.16844">
        <ele>731</ele>
        <time>2016-07-08T05:38:26Z</time>
      </trkpt>
      <trkpt lat="48.54203" lon="7.16827">
        <ele>731</ele>
        <time>2016-07-08T05:40:26Z</time>
      </trkpt>
      <trkpt lat="48.54208" lon="7.16808">
        <ele>731</ele>
        <time>2016-07-08T05:42:26Z</time>
      </trkpt>
      <trkpt lat="48.54212" lon="7.16791">
        <ele>731</ele>
        <time>2016-07-08T05:44:26Z</time>
      </trkpt>
      <trkpt lat="48.54214" lon="7.16778">
        <ele>731</ele>
        <time>2016-07-08T05:46:26Z</time>
      </trkpt>
      <trkpt lat="48.54216" lon="7.16765">
        <ele>731</ele>
        <time>2016-07-08T05:48:26Z</time>
      </trkpt>
      <trkpt lat="48.54218" lon="7.16753">
        <ele>731</ele>
        <time>2016-07-08T05:50:26Z</time>
      </trkpt>
      <trkpt lat="48.5422" lon="7.16746">
        <ele>731</ele>
        <time>2016-07-08T05:52:26Z</time>
      </trkpt>
      <trkpt lat="48.54223" lon="7.16737">
        <ele>731</ele>
        <time>2016-07-08T05:54:26Z</time>
      </trkpt>
      <trkpt lat="48.54227" lon="7.1673">
        <ele>731</ele>
        <time>2016-07-08T05:56:26Z</time>
      </trkpt>
      <trkpt lat="48.54232" lon="7.16724">
        <ele>730</ele>
        <time>2016-07-08T05:58:26Z</time>
      </trkpt>
      <trkpt lat="48.54238" lon="7.1672">
        <ele>728</ele>
        <time>2016-07-08T06:00:26Z</time>
      </trkpt>
      <trkpt lat="48.54245" lon="7.16719">
        <ele>726</ele>
        <time>2016-07-08T06:02:26Z</time>
      </trkpt>
      <trkpt lat="48.54252" lon="7.16719">
        <ele>724</ele>
        <time>2016-07-08T06:04:26Z</time>
      </trkpt>
      <trkpt lat="48.54259" lon="7.16721">
        <ele>723</ele>
        <time>2016-07-08T06:06:26Z</time>
      </trkpt>
      <trkpt lat="48.54266" lon="7.16723">
        <ele>722</ele>
        <time>2016-07-08T06:08:26Z</time>
      </trkpt>
      <trkpt lat="48.54295" lon="7.16732">
        <ele>719</ele>
        <time>2016-07-08T06:10:26Z</time>
      </trkpt>
      <trkpt lat="48.54308" lon="7.16737">
        <ele>717</ele>
        <time>2016-07-08T06:12:26Z</time>
      </trkpt>
      <trkpt lat="48.54319" lon="7.16742">
        <ele>715</ele>
        <time>2016-07-08T06:14:26Z</time>
      </trkpt>
      <trkpt lat="48.54331" lon="7.16748">
        <ele>713</ele>
        <time>2016-07-08T06:16:26Z</time>
      </trkpt>
      <trkpt lat="48.54343" lon="7.16756">
        <ele>711</ele>
        <time>2016-07-08T06:18:26Z</time>
      </trkpt>
      <trkpt lat="48.54366" lon="7.16771">
        <ele>709</ele>
        <time>2016-07-08T06:20:26Z</time>
      </trkpt>
      <trkpt lat="48.54383" lon="7.16783">
        <ele>709</ele>
        <time>2016-07-08T06:22:26Z</time>
      </trkpt>
      <trkpt lat="48.54404" lon="7.16798">
        <ele>709</ele>
        <time>2016-07-08T06:24:26Z</time>
      </trkpt>
      <trkpt lat="48.54407" lon="7.16801">
        <ele>709</ele>
        <time>2016-07-08T06:26:26Z</time>
      </trkpt>
      <trkpt lat="48.54427" lon="7.16816">
        <ele>710</ele>
        <time>2016-07-08T06:28:26Z</time>
      </trkpt>
      <trkpt lat="48.54454" lon="7.16835">
        <ele>709</ele>
        <time>2016-07-08T06:30:26Z</time>
      </trkpt>
      <trkpt lat="48.5446" lon="7.16838">
        <ele>709</ele>
        <time>2016-07-08T06:32:26Z</time>
      </trkpt>
      <trkpt lat="48.54468" lon="7.16841">
        <ele>709</ele>
        <time>2016-07-08T06:34:26Z</time>
      </trkpt>
      <trkpt lat="48.54477" lon="7.16841">
        <ele>709</ele>
        <time>2016-07-08T06:36:26Z</time>
      </trkpt>
      <trkpt lat="48.54486" lon="7.1684">
        <ele>709</ele>
        <time>2016-07-08T06:38:26Z</time>
      </trkpt>
      <trkpt lat="48.54496" lon="7.16836">
        <ele>710</ele>
        <time>2016-07-08T06:40:26Z</time>
      </trkpt>
      <trkpt lat="48.54505" lon="7.16834">
        <ele>709</ele>
        <time>2016-07-08T06:42:26Z</time>
      </trkpt>
      <trkpt lat="48.54513" lon="7.16832">
        <ele>708</ele>
        <time>2016-07-08T06:44:26Z</time>
      </trkpt>
      <trkpt lat="48.54516" lon="7.16833">
        <ele>707</ele>
        <time>2016-07-08T06:46:26Z</time>
      </trkpt>
      <trkpt lat="48.54521" lon="7.16833">
        <ele>706</ele>
        <time>2016-07-08T06:48:26Z</time>
      </trkpt>
      <trkpt lat="48.54527" lon="7.16835">
        <ele>705</ele>
        <time>2016-07-08T06:50:26Z</time>
      </trkpt>
      <trkpt lat="48.54532" lon="7.1684">
        <ele>704</ele>
        <time>2016-07-08T06:52:26Z</time>
      </trkpt>
      <trkpt lat="48.54538" lon="7.16848">
        <ele>703</ele>
        <time>2016-07-08T06:54:26Z</time>
      </trkpt>
      <trkpt lat="48.54543" lon="7.16858">
        <ele>702</ele>
        <time>2016-07-08T06:56:26Z</time>
      </trkpt>
      <trkpt lat="48.54548" lon="7.16871">
        <ele>701</ele>
        <time>2016-07-08T06:58:26Z</time>
      </trkpt>
      <trkpt lat="48.54554" lon="7.16886">
        <ele>700</ele>
        <time>2016-07-08T07:00:26Z</time>
      </trkpt>
      <trkpt lat="48.54557" lon="7.16897">
        <ele>700</ele>
        <time>2016-07-08T07:02:26Z</time>
      </trkpt>
      <trkpt lat="48.54561" lon="7.1691">
        <ele>700</ele>
        <time>2016-07-08T07:04:26Z</time>
      </trkpt>
      <trkpt lat="48.54564" lon="7.16924">
        <ele>700</ele>
        <time>2016-07-08T07:06:26Z</time>
      </trkpt>
      <trkpt lat="48.54566" lon="7.16938">
        <ele>699</ele>
        <time>2016-07-08T07:08:26Z</time>
      </trkpt>
      <trkpt lat="48.54568" lon="7.16962">
        <ele>697</ele>
        <time>2016-07-08T07:10:26Z</time>
      </trkpt>
      <trkpt lat="48.54571" lon="7.17002">
        <ele>695</ele>
        <time>2016-07-08T07:12:26Z</time>
      </trkpt>
      <trkpt lat="48.54573" lon="7.17038">
        <ele>693</ele>
        <time>2016-07-08T07:14:26Z</time>
      </trkpt>
      <trkpt lat="48.54574" lon="7.17062">
        <ele>691</ele>
        <time>2016-07-08T07:16:26Z</time>
      </trkpt>
      <trkpt lat="48.54574" lon="7.17078">
        <ele>690</ele>
        <time>2016-07-08T07:18:26Z</time>
      </trkpt>
      <trkpt lat="48.5457" lon="7.1711">
        <ele>687</ele>
        <time>2016-07-08T07:20:26Z</time>
      </trkpt>
      <trkpt lat="48.54566" lon="7.1713">
        <ele>685</ele>
        <time>2016-07-08T07:22:26Z</time>
      </trkpt>
      <trkpt lat="48.54552" lon="7.17169">
        <ele>679</ele>
        <time>2016-07-08T07:24:26Z</time>
      </trkpt>
      <trkpt lat="48.54547" lon="7.17172">
        <ele>678</ele>
        <time>2016-07-08T07:26:26Z</time>
      </trkpt>
      <trkpt lat="48.54542" lon="7.17174">
        <ele>677</ele>
        <time>2016-07-08T07:28:26Z</time>
      </trkpt>
      <trkpt lat="48.54537" lon="7.17173">
        <ele>676</ele>
        <time>2016-07-08T07:30:26Z</time>
      </trkpt>
      <trkpt lat="48.5453" lon="7.1717">
        <ele>676</ele>
        <time>2016-07-08T07:32:26Z</time>
      </trkpt>
      <trkpt lat="48.54524" lon="7.17165">
        <ele>676</ele>
        <time>2016-07-08T07:34:26Z</time>
      </trkpt>
      <trkpt lat="48.54514" lon="7.17152">
        <ele>677</ele>
        <time>2016-07-08T07:36:26Z</time>
      </trkpt>
      <trkpt lat="48.54504" lon="7.17135">
        <ele>678</ele>
        <time>2016-07-08T07:38:26Z</time>
      </trkpt>
      <trkpt lat="48.54493" lon="7.17112">
        <ele>677</ele>
        <time>2016-07-08T07:40:26Z</time>
      </trkpt>
      <trkpt lat="48.54476" lon="7.17078">
        <ele>675</ele>
        <time>2016-07-08T07:42:26Z</time>
      </trkpt>
      <trkpt lat="48.54466" lon="7.17056">
        <ele>674</ele>
        <time>2016-07-08T07:44:26Z</time>
      </trkpt>
      <trkpt lat="48.54457" lon="7.17038">
        <ele>674</ele>
        <time>2016-07-08T07:46:26Z</time>
      </trkpt>
      <trkpt lat="48.54449" lon="7.17024">
        <ele>674</ele>
        <time>2016-07-08T07:48:26Z</time>
      </trkpt>
      <trkpt lat="48.5444" lon="7.1701">
        <ele>673</ele>
        <time>2016-07-08T07:50:26Z</time>
      </trkpt>
      <trkpt lat="48.54431" lon="7.16998">
        <ele>673</ele>
        <time>2016-07-08T07:52:26Z</time>
      </trkpt>
      <trkpt lat="48.5442" lon="7.16982">
        <ele>674</ele>
        <time>2016-07-08T07:54:26Z</time>
      </trkpt>
      <trkpt lat="48.54408" lon="7.16966">
        <ele>675</ele>
        <time>2016-07-08T07:56:26Z</time>
      </trkpt>
      <trkpt lat="48.54388" lon="7.16942">
        <ele>677</ele>
        <time>2016-07-08T07:58:26Z</time>
      </trkpt>
      <trkpt lat="48.54373" lon="7.16924">
        <ele>678</ele>
        <time>2016-07-08T08:00:26Z</time>
      </trkpt>
      <trkpt lat="48.54358" lon="7.16908">
        <ele>679</ele>
        <time>2016-07-08T08:02:26Z</time>
      </trkpt>
      <trkpt lat="48.54335" lon="7.16884">
        <ele>680</ele>
        <time>2016-07-08T08:04:26Z</time>
      </trkpt>
      <trkpt lat="48.54326" lon="7.16876">
        <ele>685</ele>
        <time>2016-07-08T08:06:26Z</time>
      </trkpt>
      <trkpt lat="48.54318" lon="7.1687">
        <ele>689</ele>
        <time>2016-07-08T08:08:26Z</time>
      </trkpt>
      <trkpt lat="48.54312" lon="7.16869">
        <ele>691</ele>
        <time>2016-07-08T08:10:26Z</time>
      </trkpt>
      <trkpt lat="48.54306" lon="7.1687">
        <ele>692</ele>
        <time>2016-07-08T08:12:26Z</time>
      </trkpt>
      <trkpt lat="48.54301" lon="7.16873">
        <ele>693</ele>
        <time>2016-07-08T08:14:26Z</time>
      </trkpt>
      <trkpt lat="48.54298" lon="7.16877">
        <ele>693</ele>
        <time>2016-07-08T08:16:26Z</time>
      </trkpt>
      <trkpt lat="48.54294" lon="7.16884">
        <ele>693</ele>
        <time>2016-07-08T08:18:26Z</time>
      </trkpt>
      <trkpt lat="48.54289" lon="7.16891">
        <ele>693</ele>
        <time>2016-07-08T08:20:26Z</time>
      </trkpt>
      <trkpt lat="48.54286" lon="7.16902">
        <ele>692</ele>
        <time>2016-07-08T08:22:26Z</time>
      </trkpt>
      <trkpt lat="48.54282" lon="7.16912">
        <ele>692</ele>
        <time>2016-07-08T08:24:26Z</time>
      </trkpt>
      <trkpt lat="48.54276" lon="7.16936">
        <ele>690</ele>
        <time>2016-07-08T08:26:26Z</time>
      </trkpt>
      <trkpt lat="48.54269" lon="7.16958">
        <ele>688</ele>
        <time>2016-07-08T08:28:26Z</time>
      </trkpt>
      <trkpt lat="48.54262" lon="7.16982">
        <ele>686</ele>
        <time>2016-07-08T08:30:26Z</time>
      </trkpt>
      <trkpt lat="48.54254" lon="7.17004">
        <ele>684</ele>
        <time>2016-07-08T08:32:26Z</time>
      </trkpt>
      <trkpt lat="48.54247" lon="7.17024">
        <ele>682</ele>
        <time>2016-07-08T08:34:26Z</time>
      </trkpt>
      <trkpt lat="48.54239" lon="7.17041">
        <ele>680</ele>
        <time>2016-07-08T08:36:26Z</time>
      </trkpt>
      <trkpt lat="48.5423" lon="7.17057">
        <ele>679</ele>
        <time>2016-07-08T08:38:26Z</time>
      </trkpt>
      <trkpt lat="48.54223" lon="7.17067">
        <ele>678</ele>
        <time>2016-07-08T08:40:26Z</time>
      </trkpt>
      <trkpt lat="48.54215" lon="7.17074">
        <ele>678</ele>
        <time>2016-07-08T08:42:26Z</time>
      </trkpt>
      <trkpt lat="48.54206" lon="7.17082">
        <ele>677</ele>
        <time>2016-07-08T08:44:26Z</time>
      </trkpt>
      <trkpt lat="48.54196" lon="7.17089">
        <ele>677</ele>
        <time>2016-07-08T08:46:26Z</time>
      </trkpt>
      <trkpt lat="48.54185" lon="7.17096">
        <ele>677</ele>
        <time>2016-07-08T08:48:26Z</time>
      </trkpt>
      <trkpt lat="48.54172" lon="7.17104">
        <ele>677</ele>
        <time>2016-07-08T08:50:26Z</time>
      </trkpt>
      <trkpt lat="48.54156" lon="7.17111">
        <ele>677</ele>
        <time>2016-07-08T08:52:26Z</time>
      </trkpt>
      <trkpt lat="48.54143" lon="7.17116">
        <ele>677</ele>
        <time>2016-07-08T08:54:26Z</time>
      </trkpt>
      <trkpt lat="48.5413" lon="7.17121">
        <ele>677</ele>
        <time>2016-07-08T08:56:26Z</time>
      </trkpt>
      <trkpt lat="48.54113" lon="7.17126">
        <ele>677</ele>
        <time>2016-07-08T08:58:26Z</time>
      </trkpt>
      <trkpt lat="48.54099" lon="7.17133">
        <ele>677</ele>
        <time>2016-07-08T09:00:26Z</time>
      </trkpt>
      <trkpt lat="48.54085" lon="7.1714">
        <ele>676</ele>
        <time>2016-07-08T09:02:26Z</time>
      </trkpt>
      <trkpt lat="48.54072" lon="7.17148">
        <ele>674</ele>
        <time>2016-07-08T09:04:26Z</time>
      </trkpt>
      <trkpt lat="48.54062" lon="7.17154">
        <ele>672</ele>
        <time>2016-07-08T09:06:26Z</time>
      </trkpt>
      <trkpt lat="48.54053" lon="7.17158">
        <ele>671</ele>
        <time>2016-07-08T09:08:26Z</time>
      </trkpt>
      <trkpt lat="48.54046" lon="7.17161">
        <ele>670</ele>
        <time>2016-07-08T09:10:26Z</time>
      </trkpt>
      <trkpt lat="48.54039" lon="7.17163">
        <ele>669</ele>
        <time>2016-07-08T09:12:26Z</time>
      </trkpt>
      <trkpt lat="48.54031" lon="7.17164">
        <ele>669</ele>
        <time>2016-07-08T09:14:26Z</time>
      </trkpt>
      <trkpt lat="48.54022" lon="7.17163">
        <ele>670</ele>
        <time>2016-07-08T09:16:26Z</time>
      </trkpt>
      <trkpt lat="48.54014" lon="7.17162">
        <ele>670</ele>
        <time>2016-07-08T09:18:26Z</time>
      </trkpt>
      <trkpt lat="48.54004" lon="7.17161">
        <ele>671</ele>
        <time>2016-07-08T09:20:26Z</time>
      </trkpt>
      <trkpt lat="48.53994" lon="7.1716">
        <ele>672</ele>
        <time>2016-07-08T09:22:26Z</time>
      </trkpt>
      <trkpt lat="48.53985" lon="7.17159">
        <ele>672</ele>
        <time>2016-07-08T09:24:26Z</time>
      </trkpt>
      <trkpt lat="48.53978" lon="7.17158">
        <ele>673</ele>
        <time>2016-07-08T09:26:26Z</time>
      </trkpt>
      <trkpt lat="48.53972" lon="7.17159">
        <ele>673</ele>
        <time>2016-07-08T09:28:26Z</time>
      </trkpt>
      <trkpt lat="48.53967" lon="7.17162">
        <ele>673</ele>
        <time>2016-07-08T09:30:26Z</time>
      </trkpt>
      <trkpt lat="48.53962" lon="7.17165">
        <ele>673</ele>
        <time>2016-07-08T09:32:26Z</time>
      </trkpt>
      <trkpt lat="48.53956" lon="7.1717">
        <ele>672</ele>
        <time>2016-07-08T09:34:26Z</time>
      </trkpt>
      <trkpt lat="48.5395" lon="7.17175">
        <ele>671</ele>
        <time>2016-07-08T09:36:26Z</time>
      </trkpt>
      <trkpt lat="48.53914" lon="7.17214">
        <ele>664</ele>
        <time>2016-07-08T09:38:26Z</time>
      </trkpt>
      <trkpt lat="48.53908" lon="7.17221">
        <ele>663</ele>
        <time>2016-07-08T09:40:26Z</time>
      </trkpt>
      <trkpt lat="48.53906" lon="7.17227">
        <ele>662</ele>
        <time>2016-07-08T09:42:26Z</time>
      </trkpt>
      <trkpt lat="48.53904" lon="7.17233">
        <ele>661</ele>
        <time>2016-07-08T09:44:26Z</time>
      </trkpt>
      <trkpt lat="48.53904" lon="7.17241">
        <ele>659</ele>
        <time>2016-07-08T09:46:26Z</time>
      </trkpt>
      <trkpt lat="48.53904" lon="7.17249">
        <ele>657</ele>
        <time>2016-07-08T09:48:26Z</time>
      </trkpt>
      <trkpt lat="48.53906" lon="7.17256">
        <ele>656</ele>
        <time>2016-07-08T09:50:26Z</time>
      </trkpt>
      <trkpt lat="48.53909" lon="7.17262">
        <ele>655</ele>
        <time>2016-07-08T09:52:26Z</time>
      </trkpt>
      <trkpt lat="48.53913" lon="7.17269">
        <ele>654</ele>
        <time>2016-07-08T09:54:26Z</time>
      </trkpt>
      <trkpt lat="48.53918" lon="7.17276">
        <ele>653</ele>
        <time>2016-07-08T09:56:26Z</time>
      </trkpt>
      <trkpt lat="48.53928" lon="7.17284">
        <ele>651</ele>
        <time>2016-07-08T09:58:26Z</time>
      </trkpt>
      <trkpt lat="48.53933" lon="7.17289">
        <ele>651</ele>
        <time>2016-07-08T10:00:26Z</time>
      </trkpt>
      <trkpt lat="48.53948" lon="7.17299">
        <ele>648</ele>
        <time>2016-07-08T10:02:26Z</time>
      </trkpt>
      <trkpt lat="48.53961" lon="7.17308">
        <ele>645</ele>
        <time>2016-07-08T10:04:26Z</time>
      </trkpt>
      <trkpt lat="48.5397" lon="7.17314">
        <ele>643</ele>
        <time>2016-07-08T10:06:26Z</time>
      </trkpt>
      <trkpt lat="48.53979" lon="7.17319">
        <ele>641</ele>
        <time>2016-07-08T10:08:26Z</time>
      </trkpt>
      <trkpt lat="48.5399" lon="7.17324">
        <ele>639</ele>
        <time>2016-07-08T10:10:26Z</time>
      </trkpt>
      <trkpt lat="48.54003" lon="7.17331">
        <ele>636</ele>
        <time>2016-07-08T10:12:26Z</time>
      </trkpt>
      <trkpt lat="48.54013" lon="7.17338">
        <ele>635</ele>
        <time>2016-07-08T10:14:26Z</time>
      </trkpt>
      <trkpt lat="48.54027" lon="7.17347">
        <ele>635</ele>
        <time>2016-07-08T10:16:26Z</time>
      </trkpt>
      <trkpt lat="48.54038" lon="7.17355">
        <ele>634</ele>
        <time>2016-07-08T10:18:26Z</time>
      </trkpt>
      <trkpt lat="48.54048" lon="7.17361">
        <ele>634</ele>
        <time>2016-07-08T10:20:26Z</time>
      </trkpt>
      <trkpt lat="48.54057" lon="7.17364">
        <ele>633</ele>
        <time>2016-07-08T10:22:26Z</time>
      </trkpt>
      <trkpt lat="48.54071" lon="7.17369">
        <ele>631</ele>
        <time>2016-07-08T10:24:26Z</time>
      </trkpt>
      <trkpt lat="48.54089" lon="7.17375">
        <ele>629</ele>
        <time>2016-07-08T10:26:26Z</time>
      </trkpt>
      <trkpt lat="48.54103" lon="7.1738">
        <ele>627</ele>
        <time>2016-07-08T10:28:26Z</time>
      </trkpt>
      <trkpt lat="48.54118" lon="7.17386">
        <ele>626</ele>
        <time>2016-07-08T10:30:26Z</time>
      </trkpt>
      <trkpt lat="48.54133" lon="7.17393">
        <ele>624</ele>
        <time>2016-07-08T10:32:26Z</time>
      </trkpt>
      <trkpt lat="48.54145" lon="7.17399">
        <ele>623</ele>
        <time>2016-07-08T10:34:26Z</time>
      </trkpt>
      <trkpt lat="48.54158" lon="7.17405">
        <ele>621</ele>
        <time>2016-07-08T10:36:26Z</time>
      </trkpt>
      <trkpt lat="48.54169" lon="7.17412">
        <ele>620</ele>
        <time>2016-07-08T10:38:26Z</time>
      </trkpt>
      <trkpt lat="48.5418" lon="7.17421">
        <ele>619</ele>
        <time>2016-07-08T10:40:26Z</time>
      </trkpt>
      <trkpt lat="48.54192" lon="7.17431">
        <ele>618</ele>
        <time>2016-07-08T10:42:26Z</time>
      </trkpt>
      <trkpt lat="48.54203" lon="7.17441">
        <ele>617</ele>
        <time>2016-07-08T10:44:26Z</time>
      </trkpt>
      <trkpt lat="48.54213" lon="7.17452">
        <ele>616</ele>
        <time>2016-07-08T10:46:26Z</time>
      </trkpt>
      <trkpt lat="48.54222" lon="7.17463">
        <ele>616</ele>
        <time>2016-07-08T10:48:26Z</time>
      </trkpt>
      <trkpt lat="48.54233" lon="7.17477">
        <ele>615</ele>
        <time>2016-07-08T10:50:26Z</time>
      </trkpt>
      <trkpt lat="48.54245" lon="7.17496">
        <ele>615</ele>
        <time>2016-07-08T10:52:26Z</time>
      </trkpt>
      <trkpt lat="48.54252" lon="7.17508">
        <ele>615</ele>
        <time>2016-07-08T10:54:26Z</time>
      </trkpt>
      <trkpt lat="48.5426" lon="7.17522">
        <ele>615</ele>
        <time>2016-07-08T10:56:26Z</time>
      </trkpt>
      <trkpt lat="48.54267" lon="7.17536">
        <ele>616</ele>
        <time>2016-07-08T10:58:26Z</time>
      </trkpt>
      <trkpt lat="48.54275" lon="7.17554">
        <ele>617</ele>
        <time>2016-07-08T11:00:26Z</time>
      </trkpt>
      <trkpt lat="48.54282" lon="7.17565">
        <ele>616</ele>
        <time>2016-07-08T11:02:26Z</time>
      </trkpt>
      <trkpt lat="48.54289" lon="7.17576">
        <ele>615</ele>
        <time>2016-07-08T11:04:26Z</time>
      </trkpt>
      <trkpt lat="48.54299" lon="7.1759">
        <ele>613</ele>
        <time>2016-07-08T11:06:26Z</time>
      </trkpt>
      <trkpt lat="48.54327" lon="7.17626">
        <ele>605</ele>
        <time>2016-07-08T11:08:26Z</time>
      </trkpt>
      <trkpt lat="48.54333" lon="7.17636">
        <ele>604</ele>
        <time>2016-07-08T11:10:26Z</time>
      </trkpt>
      <trkpt lat="48.54339" lon="7.17647">
        <ele>603</ele>
        <time>2016-07-08T11:12:26Z</time>
      </trkpt>
      <trkpt lat="48.54342" lon="7.17657">
        <ele>603</ele>
        <time>2016-07-08T11:14:26Z</time>
      </trkpt>
      <trkpt lat="48.54344" lon="7.17667">
        <ele>603</ele>
        <time>2016-07-08T11:16:26Z</time>
      </trkpt>
      <trkpt lat="48.54345" lon="7.17679">
        <ele>603</ele>
        <time>2016-07-08T11:18:26Z</time>
      </trkpt>
      <trkpt lat="48.54344" lon="7.17691">
        <ele>604</ele>
        <time>2016-07-08T11:20:26Z</time>
      </trkpt>
      <trkpt lat="48.54342" lon="7.17703">
        <ele>604</ele>
        <time>2016-07-08T11:22:26Z</time>
      </trkpt>
      <trkpt lat="48.54339" lon="7.17712">
        <ele>605</ele>
        <time>2016-07-08T11:24:26Z</time>
      </trkpt>
      <trkpt lat="48.54333" lon="7.17722">
        <ele>607</ele>
        <time>2016-07-08T11:26:26Z</time>
      </trkpt>
      <trkpt lat="48.54326" lon="7.17733">
        <ele>610</ele>
        <time>2016-07-08T11:28:26Z</time>
      </trkpt>
      <trkpt lat="48.54316" lon="7.17745">
        <ele>614</ele>
        <time>2016-07-08T11:30:26Z</time>
      </trkpt>
      <trkpt lat="48.54309" lon="7.17756">
        <ele>616</ele>
        <time>2016-07-08T11:32:26Z</time>
      </trkpt>
      <trkpt lat="48.54303" lon="7.17766">
        <ele>616</ele>
        <time>2016-07-08T11:34:26Z</time>
      </trkpt>
      <trkpt lat="48.54299" lon="7.17777">
        <ele>617</ele>
        <time>2016-07-08T11:36:26Z</time>
      </trkpt>
      <trkpt lat="48.54294" lon="7.17792">
        <ele>617</ele>
        <time>2016-07-08T11:38:26Z</time>
      </trkpt>
      <trkpt lat="48.54282" lon="7.1783">
        <ele>616</ele>
        <time>2016-07-08T11:40:26Z</time>
      </trkpt>
      <trkpt lat="48.54269" lon="7.17869">
        <ele>617</ele>
        <time>2016-07-08T11:42:26Z</time>
      </trkpt>
      <trkpt lat="48.54248" lon="7.17935">
        <ele>614</ele>
        <time>2016-07-08T11:44:26Z</time>
      </trkpt>
      <trkpt lat="48.54244" lon="7.1795">
        <ele>615</ele>
        <time>2016-07-08T11:46:26Z</time>
      </trkpt>
      <trkpt lat="48.5424" lon="7.17964">
        <ele>616</ele>
        <time>2016-07-08T11:48:26Z</time>
      </trkpt>
      <trkpt lat="48.54239" lon="7.17976">
        <ele>616</ele>
        <time>2016-07-08T11:50:26Z</time>
      </trkpt>
      <trkpt lat="48.54238" lon="7.17986">
        <ele>616</ele>
        <time>2016-07-08T11:52:26Z</time>
      </trkpt>
      <trkpt lat="48.54239" lon="7.17996">
        <ele>615</ele>
        <time>2016-07-08T11:54:26Z</time>
      </trkpt>
      <trkpt lat="48.54241" lon="7.18002">
        <ele>615</ele>
        <time>2016-07-08T11:56:26Z</time>
      </trkpt>
      <trkpt lat="48.54245" lon="7.1801">
        <ele>615</ele>
        <time>2016-07-08T11:58:26Z</time>
      </trkpt>
      <trkpt lat="48.54249" lon="7.18016">
        <ele>616</ele>
        <time>2016-07-08T12:00:26Z</time>
      </trkpt>
      <trkpt lat="48.54254" lon="7.18021">
        <ele>617</ele>
        <time>2016-07-08T12:02:26Z</time>
      </trkpt>
      <trkpt lat="48.5426" lon="7.18024">
        <ele>618</ele>
        <time>2016-07-08T12:04:26Z</time>
      </trkpt>
      <trkpt lat="48.54268" lon="7.18024">
        <ele>619</ele>
        <time>2016-07-08T12:06:26Z</time>
      </trkpt>
      <trkpt lat="48.54275" lon="7.18023">
        <ele>619</ele>
        <time>2016-07-08T12:08:26Z</time>
      </trkpt>
      <trkpt lat="48.54278" lon="7.18022">
        <ele>619</ele>
        <time>2016-07-08T12:10:26Z</time>
      </trkpt>
      <trkpt lat="48.54284" lon="7.18019">
        <ele>618</ele>
        <time>2016-07-08T12:12:26Z</time>
      </trkpt>
      <trkpt lat="48.5429" lon="7.18017">
        <ele>618</ele>
        <time>2016-07-08T12:14:26Z</time>
      </trkpt>
      <trkpt lat="48.54314" lon="7.18005">
        <ele>617</ele>
        <time>2016-07-08T12:16:26Z</time>
      </trkpt>
      <trkpt lat="48.54367" lon="7.1798">
        <ele>614</ele>
        <time>2016-07-08T12:18:26Z</time>
      </trkpt>
      <trkpt lat="48.54384" lon="7.17971">
        <ele>612</ele>
        <time>2016-07-08T12:20:26Z</time>
      </trkpt>
      <trkpt lat="48.54394" lon="7.17966">
        <ele>611</ele>
        <time>2016-07-08T12:22:26Z</time>
      </trkpt>
      <trkpt lat="48.54411" lon="7.17958">
        <ele>610</ele>
        <time>2016-07-08T12:24:26Z</time>
      </trkpt>
      <trkpt lat="48.54423" lon="7.17953">
        <ele>608</ele>
        <time>2016-07-08T12:26:26Z</time>
      </trkpt>
      <trkpt lat="48.54434" lon="7.1795">
        <ele>607</ele>
        <time>2016-07-08T12:28:26Z</time>
      </trkpt>
      <trkpt lat="48.54446" lon="7.17948">
        <ele>606</ele>
        <time>2016-07-08T12:30:26Z</time>
      </trkpt>
      <trkpt lat="48.54458" lon="7.17947">
        <ele>605</ele>
        <time>2016-07-08T12:32:26Z</time>
      </trkpt>
      <trkpt lat="48.54504" lon="7.17947">
        <ele>602</ele>
        <time>2016-07-08T12:34:26Z</time>
      </trkpt>
      <trkpt lat="48.5452" lon="7.17949">
        <ele>600</ele>
        <time>2016-07-08T12:36:26Z</time>
      </trkpt>
      <trkpt lat="48.5453" lon="7.17951">
        <ele>598</ele>
        <time>2016-07-08T12:38:26Z</time>
      </trkpt>
      <trkpt lat="48.54536" lon="7.17954">
        <ele>597</ele>
        <time>2016-07-08T12:40:26Z</time>
      </trkpt>
      <trkpt lat="48.5454" lon="7.17958">
        <ele>597</ele>
        <time>2016-07-08T12:42:26Z</time>
      </trkpt>
      <trkpt lat="48.54544" lon="7.17964">
        <ele>597</ele>
        <time>2016-07-08T12:44:26Z</time>
      </trkpt>
      <trkpt lat="48.54548" lon="7.17972">
        <ele>597</ele>
        <time>2016-07-08T12:46:26Z</time>
      </trkpt>
      <trkpt lat="48.54552" lon="7.17982">
        <ele>598</ele>
        <time>2016-07-08T12:48:26Z</time>
      </trkpt>
      <trkpt lat="48.54555" lon="7.17993">
        <ele>599</ele>
        <time>2016-07-08T12:50:26Z</time>
      </trkpt>
      <trkpt lat="48.5456" lon="7.18006">
        <ele>599</ele>
        <time>2016-07-08T12:52:26Z</time>
      </trkpt>
      <trkpt lat="48.54576" lon="7.1804">
        <ele>598</ele>
        <time>2016-07-08T12:54:26Z</time>
      </trkpt>
      <trkpt lat="48.54599" lon="7.18092">
        <ele>599</ele>
        <time>2016-07-08T12:56:26Z</time>
      </trkpt>
      <trkpt lat="48.54607" lon="7.18104">
        <ele>600</ele>
        <time>2016-07-08T12:58:26Z</time>
      </trkpt>
      <trkpt lat="48.54612" lon="7.1811">
        <ele>600</ele>
        <time>2016-07-08T13:00:26Z</time>
      </trkpt>
      <trkpt lat="48.54618" lon="7.18112">
        <ele>600</ele>
        <time>2016-07-08T13:02:26Z</time>
      </trkpt>
      <trkpt lat="48.54625" lon="7.18112">
        <ele>598</ele>
        <time>2016-07-08T13:04:26Z</time>
      </trkpt>
      <trkpt lat="48.54629" lon="7.18108">
        <ele>597</ele>
        <time>2016-07-08T13:06:26Z</time>
      </trkpt>
      <trkpt lat="48.54634" lon="7.18102">
        <ele>596</ele>
        <time>2016-07-08T13:08:26Z</time>
      </trkpt>
      <trkpt lat="48.54636" lon="7.18092">
        <ele>594</ele>
        <time>2016-07-08T13:10:26Z</time>
      </trkpt>
      <trkpt lat="48.54637" lon="7.18083">
        <ele>593</ele>
        <time>2016-07-08T13:12:26Z</time>
      </trkpt>
      <trkpt lat="48.54636" lon="7.18069">
        <ele>592</ele>
        <time>2016-07-08T13:14:26Z</time>
      </trkpt>
      <trkpt lat="48.54636" lon="7.18058">
        <ele>591</ele>
        <time>2016-07-08T13:16:26Z</time>
      </trkpt>
      <trkpt lat="48.54635" lon="7.18042">
        <ele>590</ele>
        <time>2016-07-08T13:18:26Z</time>
      </trkpt>
      <trkpt lat="48.54635" lon="7.18026">
        <ele>588</ele>
        <time>2016-07-08T13:20:26Z</time>
      </trkpt>
      <trkpt lat="48.54635" lon="7.18016">
        <ele>588</ele>
        <time>2016-07-08T13:22:26Z</time>
      </trkpt>
      <trkpt lat="48.54636" lon="7.18004">
        <ele>587</ele>
        <time>2016-07-08T13:24:26Z</time>
      </trkpt>
      <trkpt lat="48.54638" lon="7.17992">
        <ele>585</ele>
        <time>2016-07-08T13:26:26Z</time>
      </trkpt>
      <trkpt lat="48.5464" lon="7.17982">
        <ele>584</ele>
        <time>2016-07-08T13:28:26Z</time>
      </trkpt>
      <trkpt lat="48.54643" lon="7.17969">
        <ele>582</ele>
        <time>2016-07-08T13:30:26Z</time>
      </trkpt>
      <trkpt lat="48.54648" lon="7.17955">
        <ele>579</ele>
        <time>2016-07-08T13:32:26Z</time>
      </trkpt>
      <trkpt lat="48.54655" lon="7.17935">
        <ele>575</ele>
        <time>2016-07-08T13:34:26Z</time>
      </trkpt>
      <trkpt lat="48.54664" lon="7.17913">
        <ele>571</ele>
        <time>2016-07-08T13:36:26Z</time>
      </trkpt>
      <trkpt lat="48.54672" lon="7.17894">
        <ele>568</ele>
        <time>2016-07-08T13:38:26Z</time>
      </trkpt>
      <trkpt lat="48.54683" lon="7.17865">
        <ele>565</ele>
        <time>2016-07-08T13:40:26Z</time>
      </trkpt>
      <trkpt lat="48.54694" lon="7.17836">
        <ele>562</ele>
        <time>2016-07-08T13:42:26Z</time>
      </trkpt>
      <trkpt lat="48.547" lon="7.17822">
        <ele>560</ele>
        <time>2016-07-08T13:44:26Z</time>
      </trkpt>
      <trkpt lat="48.54706" lon="7.17813">
        <ele>559</ele>
        <time>2016-07-08T13:46:26Z</time>
      </trkpt>
      <trkpt lat="48.54712" lon="7.17807">
        <ele>559</ele>
        <time>2016-07-08T13:48:26Z</time>
      </trkpt>
      <trkpt lat="48.5472" lon="7.17802">
        <ele>559</ele>
        <time>2016-07-08T13:50:26Z</time>
      </trkpt>
      <trkpt lat="48.54728" lon="7.178">
        <ele>559</ele>
        <time>2016-07-08T13:52:26Z</time>
      </trkpt>
      <trkpt lat="48.54744" lon="7.17798">
        <ele>559</ele>
        <time>2016-07-08T13:54:26Z</time>
      </trkpt>
      <trkpt lat="48.54754" lon="7.17798">
        <ele>560</ele>
        <time>2016-07-08T13:56:26Z</time>
      </trkpt>
      <trkpt lat="48.54761" lon="7.17799">
        <ele>562</ele>
        <time>2016-07-08T13:58:26Z</time>
      </trkpt>
      <trkpt lat="48.54767" lon="7.17801">
        <ele>564</ele>
        <time>2016-07-08T14:00:26Z</time>
      </trkpt>
      <trkpt lat="48.54773" lon="7.17806">
        <ele>566</ele>
        <time>2016-07-08T14:02:26Z</time>
      </trkpt>
      <trkpt lat="48.5478" lon="7.17816">
        <ele>568</ele>
        <time>2016-07-08T14:04:26Z</time>
      </trkpt>
      <trkpt lat="48.54787" lon="7.17823">
        <ele>570</ele>
        <time>2016-07-08T14:06:26Z</time>
      </trkpt>
      <trkpt lat="48.5479" lon="7.17825">
        <ele>571</ele>
        <time>2016-07-08T14:08:26Z</time>
      </trkpt>
      <trkpt lat="48.54795" lon="7.17826">
        <ele>572</ele>
        <time>2016-07-08T14:10:26Z</time>
      </trkpt>
      <trkpt lat="48.548" lon="7.17826">
        <ele>573</ele>
        <time>2016-07-08T14:12:26Z</time>
      </trkpt>
      <trkpt lat="48.54805" lon="7.17823">
        <ele>574</ele>
        <time>2016-07-08T14:14:26Z</time>
      </trkpt>
      <trkpt lat="48.5481" lon="7.17819">
        <ele>575</ele>
        <time>2016-07-08T14:16:26Z</time>
      </trkpt>
      <trkpt lat="48.54814" lon="7.17813">
        <ele>575</ele>
        <time>2016-07-08T14:18:26Z</time>
      </trkpt>
      <trkpt lat="48.54816" lon="7.17804">
        <ele>575</ele>
        <time>2016-07-08T14:20:26Z</time>
      </trkpt>
      <trkpt lat="48.54817" lon="7.17794">
        <ele>575</ele>
        <time>2016-07-08T14:22:26Z</time>
      </trkpt>
      <trkpt lat="48.54817" lon="7.17784">
        <ele>575</ele>
        <time>2016-07-08T14:24:26Z</time>
      </trkpt>
      <trkpt lat="48.54816" lon="7.17771">
        <ele>574</ele>
        <time>2016-07-08T14:26:26Z</time>
      </trkpt>
      <trkpt lat="48.54814" lon="7.17757">
        <ele>573</ele>
        <time>2016-07-08T14:28:26Z</time>
      </trkpt>
      <trkpt lat="48.54812" lon="7.17738">
        <ele>571</ele>
        <time>2016-07-08T14:30:26Z</time>
      </trkpt>
      <trkpt lat="48.54808" lon="7.17714">
        <ele>567</ele>
        <time>2016-07-08T14:32:26Z</time>
      </trkpt>
      <trkpt lat="48.54807" lon="7.17694">
        <ele>565</ele>
        <time>2016-07-08T14:34:26Z</time>
      </trkpt>
      <trkpt lat="48.54806" lon="7.1768">
        <ele>564</ele>
        <time>2016-07-08T14:36:26Z</time>
      </trkpt>
      <trkpt lat="48.54806" lon="7.17664">
        <ele>563</ele>
        <time>2016-07-08T14:38:26Z</time>
      </trkpt>
      <trkpt lat="48.54807" lon="7.17649">
        <ele>562</ele>
        <time>2016-07-08T14:40:26Z</time>
      </trkpt>
      <trkpt lat="48.54809" lon="7.17636">
        <ele>561</ele>
        <time>2016-07-08T14:42:26Z</time>
      </trkpt>
      <trkpt lat="48.54812" lon="7.17624">
        <ele>561</ele>
        <time>2016-07-08T14:44:26Z</time>
      </trkpt>
      <trkpt lat="48.54816" lon="7.17611">
        <ele>560</ele>
        <time>2016-07-08T14:46:26Z</time>
      </trkpt>
      <trkpt lat="48.54822" lon="7.17594">
        <ele>559</ele>
        <time>2016-07-08T14:48:26Z</time>
      </trkpt>
      <trkpt lat="48.5483" lon="7.17575">
        <ele>559</ele>
        <time>2016-07-08T14:50:26Z</time>
      </trkpt>
      <trkpt lat="48.54838" lon="7.17557">
        <ele>560</ele>
        <time>2016-07-08T14:52:26Z</time>
      </trkpt>
      <trkpt lat="48.54845" lon="7.17542">
        <ele>561</ele>
        <time>2016-07-08T14:54:26Z</time>
      </trkpt>
      <trkpt lat="48.54853" lon="7.17521">
        <ele>561</ele>
        <time>2016-07-08T14:56:26Z</time>
      </trkpt>
      <trkpt lat="48.54861" lon="7.17501">
        <ele>561</ele>
        <time>2016-07-08T14:58:26Z</time>
      </trkpt>
      <trkpt lat="48.5487" lon="7.1748">
        <ele>561</ele>
        <time>2016-07-08T15:00:26Z</time>
      </trkpt>
      <trkpt lat="48.54883" lon="7.17452">
        <ele>560</ele>
        <time>2016-07-08T15:02:26Z</time>
      </trkpt>
      <trkpt lat="48.54901" lon="7.17417">
        <ele>556</ele>
        <time>2016-07-08T15:04:26Z</time>
      </trkpt>
      <trkpt lat="48.5492" lon="7.17379">
        <ele>551</ele>
        <time>2016-07-08T15:06:26Z</time>
      </trkpt>
      <trkpt lat="48.54956" lon="7.17315">
        <ele>550</ele>
        <time>2016-07-08T15:08:26Z</time>
      </trkpt>
      <trkpt lat="48.54963" lon="7.17301">
        <ele>550</ele>
        <time>2016-07-08T15:10:26Z</time>
      </trkpt>
      <trkpt lat="48.5497" lon="7.17286">
        <ele>549</ele>
        <time>2016-07-08T15:12:26Z</time>
      </trkpt>
      <trkpt lat="48.54978" lon="7.17268">
        <ele>548</ele>
        <time>2016-07-08T15:14:26Z</time>
      </trkpt>
      <trkpt lat="48.55005" lon="7.17212">
        <ele>540</ele>
        <time>2016-07-08T15:16:26Z</time>
      </trkpt>
      <trkpt lat="48.55014" lon="7.17196">
        <ele>539</ele>
        <time>2016-07-08T15:18:26Z</time>
      </trkpt>
      <trkpt lat="48.55022" lon="7.17182">
        <ele>537</ele>
        <time>2016-07-08T15:20:26Z</time>
      </trkpt>
      <trkpt lat="48.5503" lon="7.17172">
        <ele>537</ele>
        <time>2016-07-08T15:22:26Z</time>
      </trkpt>
      <trkpt lat="48.55041" lon="7.17161">
        <ele>537</ele>
        <time>2016-07-08T15:24:26Z</time>
      </trkpt>
      <trkpt lat="48.55071" lon="7.17141">
        <ele>536</ele>
        <time>2016-07-08T15:26:26Z</time>
      </trkpt>
      <trkpt lat="48.55095" lon="7.17126">
        <ele>535</ele>
        <time>2016-07-08T15:28:26Z</time>
      </trkpt>
      <trkpt lat="48.55106" lon="7.17122">
        <ele>536</ele>
        <time>2016-07-08T15:30:26Z</time>
      </trkpt>
      <trkpt lat="48.55121" lon="7.17116">
        <ele>536</ele>
        <time>2016-07-08T15:32:26Z</time>
      </trkpt>
      <trkpt lat="48.55134" lon="7.17108">
        <ele>535</ele>
        <time>2016-07-08T15:34:26Z</time>
      </trkpt>
      <trkpt lat="48.55166" lon="7.17089">
        <ele>532</ele>
        <time>2016-07-08T15:36:26Z</time>
      </trkpt>
      <trkpt lat="48.55183" lon="7.17078">
        <ele>532</ele>
        <time>2016-07-08T15:38:26Z</time>
      </trkpt>
      <trkpt lat="48.55197" lon="7.17066">
        <ele>533</ele>
        <time>2016-07-08T15:40:26Z</time>
      </trkpt>
      <trkpt lat="48.55206" lon="7.17057">
        <ele>533</ele>
        <time>2016-07-08T15:42:26Z</time>
      </trkpt>
      <trkpt lat="48.55214" lon="7.17051">
        <ele>533</ele>
        <time>2016-07-08T15:44:26Z</time>
      </trkpt>
      <trkpt lat="48.55225" lon="7.17043">
        <ele>533</ele>
        <time>2016-07-08T15:46:26Z</time>
      </trkpt>
      <trkpt lat="48.55236" lon="7.17036">
        <ele>533</ele>
        <time>2016-07-08T15:48:26Z</time>
      </trkpt>
      <trkpt lat="48.55251" lon="7.17026">
        <ele>532</ele>
        <time>2016-07-08T15:50:26Z</time>
      </trkpt>
      <trkpt lat="48.55299" lon="7.17002">
        <ele>530</ele>
        <time>2016-07-08T15:52:26Z</time>
      </trkpt>
      <trkpt lat="48.55327" lon="7.16988">
        <ele>530</ele>
        <time>2016-07-08T15:54:26Z</time>
      </trkpt>
      <trkpt lat="48.5533" lon="7.16987">
        <ele>531</ele>
        <time>2016-07-08T15:56:26Z</time>
      </trkpt>
      <trkpt lat="48.5533" lon="7.16987">
        <ele>531</ele>
        <time>2016-07-08T15:58:26Z</time>
      </trkpt>
      <trkpt lat="48.55326" lon="7.16984">
        <ele>529</ele>
        <time>2016-07-08T16:00:26Z</time>
      </trkpt>
      <trkpt lat="48.55324" lon="7.16983">
        <ele>529</ele>
        <time>2016-07-08T16:02:26Z</time>
      </trkpt>
      <trkpt lat="48.55319" lon="7.16983">
        <ele>528</ele>
        <time>2016-07-08T16:04:26Z</time>
      </trkpt>
      <trkpt lat="48.55298" lon="7.1699">
        <ele>528</ele>
        <time>2016-07-08T16:06:26Z</time>
      </trkpt>
      <trkpt lat="48.55286" lon="7.16995">
        <ele>527</ele>
        <time>2016-07-08T16:08:26Z</time>
      </trkpt>
      <trkpt lat="48.55279" lon="7.17002">
        <ele>527</ele>
        <time>2016-07-08T16:10:26Z</time>
      </trkpt>
      <trkpt lat="48.55267" lon="7.17005">
        <ele>527</ele>
        <time>2016-07-08T16:12:26Z</time>
      </trkpt>
      <trkpt lat="48.55241" lon="7.17009">
        <ele>525</ele>
        <time>2016-07-08T16:14:26Z</time>
      </trkpt>
      <trkpt lat="48.55217" lon="7.17009">
        <ele>522</ele>
        <time>2016-07-08T16:16:26Z</time>
      </trkpt>
      <trkpt lat="48.55196" lon="7.17014">
        <ele>520</ele>
        <time>2016-07-08T16:18:26Z</time>
      </trkpt>
      <trkpt lat="48.55186" lon="7.17018">
        <ele>520</ele>
        <time>2016-07-08T16:20:26Z</time>
      </trkpt>
      <trkpt lat="48.55167" lon="7.17032">
        <ele>520</ele>
        <time>2016-07-08T16:22:26Z</time>
      </trkpt>
      <trkpt lat="48.55154" lon="7.17043">
        <ele>521</ele>
        <time>2016-07-08T16:24:26Z</time>
      </trkpt>
      <trkpt lat="48.55147" lon="7.17048">
        <ele>522</ele>
        <time>2016-07-08T16:26:26Z</time>
      </trkpt>
      <trkpt lat="48.55127" lon="7.1705">
        <ele>521</ele>
        <time>2016-07-08T16:28:26Z</time>
      </trkpt>
      <trkpt lat="48.55116" lon="7.17052">
        <ele>521</ele>
        <time>2016-07-08T16:30:26Z</time>
      </trkpt>
      <trkpt lat="48.55098" lon="7.17057">
        <ele>520</ele>
        <time>2016-07-08T16:32:26Z</time>
      </trkpt>
      <trkpt lat="48.55051" lon="7.17067">
        <ele>521</ele>
        <time>2016-07-08T16:34:26Z</time>
      </trkpt>
      <trkpt lat="48.55051" lon="7.17067">
        <ele>521</ele>
        <time>2016-07-08T16:36:26Z</time>
      </trkpt>
      <trkpt lat="48.55062" lon="7.1706">
        <ele>520</ele>
        <time>2016-07-08T16:38:26Z</time>
      </trkpt>
      <trkpt lat="48.5508" lon="7.17048">
        <ele>519</ele>
        <time>2016-07-08T16:40:26Z</time>
      </trkpt>
      <trkpt lat="48.55097" lon="7.17037">
        <ele>520</ele>
        <time>2016-07-08T16:42:26Z</time>
      </trkpt>
      <trkpt lat="48.55115" lon="7.17024">
        <ele>520</ele>
        <time>2016-07-08T16:44:26Z</time>
      </trkpt>
      <trkpt lat="48.55137" lon="7.17008">
        <ele>518</ele>
        <time>2016-07-08T16:46:26Z</time>
      </trkpt>
      <trkpt lat="48.55157" lon="7.16994">
        <ele>516</ele>
        <time>2016-07-08T16:48:26Z</time>
      </trkpt>
      <trkpt lat="48.55178" lon="7.16979">
        <ele>518</ele>
        <time>2016-07-08T16:50:26Z</time>
      </trkpt>
      <trkpt lat="48.55198" lon="7.16964">
        <ele>520</ele>
        <time>2016-07-08T16:52:26Z</time>
      </trkpt>
      <trkpt lat="48.55217" lon="7.1695">
        <ele>520</ele>
        <time>2016-07-08T16:54:26Z</time>
      </trkpt>
      <trkpt lat="48.5523" lon="7.16943">
        <ele>519</ele>
        <time>2016-07-08T16:56:26Z</time>
      </trkpt>
      <trkpt lat="48.55248" lon="7.16932">
        <ele>517</ele>
        <time>2016-07-08T16:58:26Z</time>
      </trkpt>
      <trkpt lat="48.55253" lon="7.1693">
        <ele>516</ele>
        <time>2016-07-08T17:00:26Z</time>
      </trkpt>
      <trkpt lat="48.55302" lon="7.16896">
        <ele>516</ele>
        <time>2016-07-08T17:02:26Z</time>
      </trkpt>
      <trkpt lat="48.55344" lon="7.16867">
        <ele>512</ele>
        <time>2016-07-08T17:04:26Z</time>
      </trkpt>
      <trkpt lat="48.5537" lon="7.16849">
        <ele>510</ele>
        <time>2016-07-08T17:06:26Z</time>
      </trkpt>
      <trkpt lat="48.55386" lon="7.16838">
        <ele>509</ele>
        <time>2016-07-08T17:08:26Z</time>
      </trkpt>
      <trkpt lat="48.55397" lon="7.16833">
        <ele>507</ele>
        <time>2016-07-08T17:10:26Z</time>
      </trkpt>
      <trkpt lat="48.55408" lon="7.16828">
        <ele>507</ele>
        <time>2016-07-08T17:12:26Z</time>
      </trkpt>
      <trkpt lat="48.55416" lon="7.16823">
        <ele>507</ele>
        <time>2016-07-08T17:14:26Z</time>
      </trkpt>
      <trkpt lat="48.55427" lon="7.1682">
        <ele>507</ele>
        <time>2016-07-08T17:16:26Z</time>
      </trkpt>
      <trkpt lat="48.55436" lon="7.16816">
        <ele>507</ele>
        <time>2016-07-08T17:18:26Z</time>
      </trkpt>
      <trkpt lat="48.55447" lon="7.16812">
        <ele>507</ele>
        <time>2016-07-08T17:20:26Z</time>
      </trkpt>
      <trkpt lat="48.55459" lon="7.16808">
        <ele>507</ele>
        <time>2016-07-08T17:22:26Z</time>
      </trkpt>
      <trkpt lat="48.5547" lon="7.16803">
        <ele>507</ele>
        <time>2016-07-08T17:24:26Z</time>
      </trkpt>
      <trkpt lat="48.55481" lon="7.16798">
        <ele>506</ele>
        <time>2016-07-08T17:26:26Z</time>
      </trkpt>
      <trkpt lat="48.55491" lon="7.16792">
        <ele>505</ele>
        <time>2016-07-08T17:28:26Z</time>
      </trkpt>
      <trkpt lat="48.555" lon="7.16789">
        <ele>504</ele>
        <time>2016-07-08T17:30:26Z</time>
      </trkpt>
      <trkpt lat="48.5551" lon="7.16788">
        <ele>505</ele>
        <time>2016-07-08T17:32:26Z</time>
      </trkpt>
      <trkpt lat="48.55521" lon="7.16787">
        <ele>505</ele>
        <time>2016-07-08T17:34:26Z</time>
      </trkpt>
      <trkpt lat="48.55532" lon="7.16785">
        <ele>505</ele>
        <time>2016-07-08T17:36:26Z</time>
      </trkpt>
      <trkpt lat="48.55541" lon="7.1678">
        <ele>505</ele>
        <time>2016-07-08T17:38:26Z</time>
      </trkpt>
      <trkpt lat="48.55549" lon="7.16773">
        <ele>504</ele>
        <time>2016-07-08T17:40:26Z</time>
      </trkpt>
      <trkpt lat="48.55557" lon="7.16763">
        <ele>503</ele>
        <time>2016-07-08T17:42:26Z</time>
      </trkpt>
      <trkpt lat="48.55565" lon="7.16751">
        <ele>501</ele>
        <time>2016-07-08T17:44:26Z</time>
      </trkpt>
      <trkpt lat="48.55575" lon="7.16733">
        <ele>499</ele>
        <time>2016-07-08T17:46:26Z</time>
      </trkpt>
      <trkpt lat="48.55581" lon="7.16715">
        <ele>498</ele>
        <time>2016-07-08T17:48:26Z</time>
      </trkpt>
      <trkpt lat="48.55588" lon="7.16698">
        <ele>497</ele>
        <time>2016-07-08T17:50:26Z</time>
      </trkpt>
      <trkpt lat="48.55593" lon="7.16678">
        <ele>496</ele>
        <time>2016-07-08T17:52:26Z</time>
      </trkpt>
      <trkpt lat="48.55597" lon="7.16659">
        <ele>496</ele>
        <time>2016-07-08T17:54:26Z</time>
      </trkpt>
      <trkpt lat="48.556" lon="7.16644">
        <ele>496</ele>
        <time>2016-07-08T17:56:26Z</time>
      </trkpt>
      <trkpt lat="48.55603" lon="7.16628">
        <ele>495</ele>
        <time>2016-07-08T17:58:26Z</time>
      </trkpt>
      <trkpt lat="48.55606" lon="7.16616">
        <ele>495</ele>
        <time>2016-07-08T18:00:26Z</time>
      </trkpt>
      <trkpt lat="48.55611" lon="7.16605">
        <ele>494</ele>
        <time>2016-07-08T18:02:26Z</time>
      </trkpt>
      <trkpt lat="48.55617" lon="7.16594">
        <ele>493</ele>
        <time>2016-07-08T18:04:26Z</time>
      </trkpt>
      <trkpt lat="48.55624" lon="7.16588">
        <ele>492</ele>
        <time>2016-07-08T18:06:26Z</time>
      </trkpt>
      <trkpt lat="48.5563" lon="7.16582">
        <ele>492</ele>
        <time>2016-07-08T18:08:26Z</time>
      </trkpt>
      <trkpt lat="48.55639" lon="7.16575">
        <ele>490</ele>
        <time>2016-07-08T18:10:26Z</time>
      </trkpt>
      <trkpt lat="48.55649" lon="7.16569">
        <ele>489</ele>
        <time>2016-07-08T18:12:26Z</time>
      </trkpt>
      <trkpt lat="48.55658" lon="7.16563">
        <ele>487</ele>
        <time>2016-07-08T18:14:26Z</time>
      </trkpt>
      <trkpt lat="48.55667" lon="7.16555">
        <ele>485</ele>
        <time>2016-07-08T18:16:26Z</time>
      </trkpt>
      <trkpt lat="48.55674" lon="7.16545">
        <ele>484</ele>
        <time>2016-07-08T18:18:26Z</time>
      </trkpt>
      <trkpt lat="48.55682" lon="7.16532">
        <ele>484</ele>
        <time>2016-07-08T18:20:26Z</time>
      </trkpt>
      <trkpt lat="48.55694" lon="7.16506">
        <ele>481</ele>
        <time>2016-07-08T18:22:26Z</time>
      </trkpt>
      <trkpt lat="48.55722" lon="7.1645">
        <ele>481</ele>
        <time>2016-07-08T18:24:26Z</time>
      </trkpt>
      <trkpt lat="48.5574" lon="7.16411">
        <ele>478</ele>
        <time>2016-07-08T18:26:26Z</time>
      </trkpt>
      <trkpt lat="48.55768" lon="7.1636">
        <ele>479</ele>
        <time>2016-07-08T18:28:26Z</time>
      </trkpt>
      <trkpt lat="48.55772" lon="7.16353">
        <ele>479</ele>
        <time>2016-07-08T18:30:26Z</time>
      </trkpt>
      <trkpt lat="48.55778" lon="7.16346">
        <ele>479</ele>
        <time>2016-07-08T18:32:26Z</time>
      </trkpt>
      <trkpt lat="48.55784" lon="7.16338">
        <ele>478</ele>
        <time>2016-07-08T18:34:26Z</time>
      </trkpt>
      <trkpt lat="48.55789" lon="7.1633">
        <ele>478</ele>
        <time>2016-07-08T18:36:26Z</time>
      </trkpt>
      <trkpt lat="48.55796" lon="7.1632">
        <ele>479</ele>
        <time>2016-07-08T18:38:26Z</time>
      </trkpt>
      <trkpt lat="48.55802" lon="7.16311">
        <ele>478</ele>
        <time>2016-07-08T18:40:26Z</time>
      </trkpt>
      <trkpt lat="48.55808" lon="7.16303">
        <ele>478</ele>
        <time>2016-07-08T18:42:26Z</time>
      </trkpt>
      <trkpt lat="48.55816" lon="7.16292">
        <ele>477</ele>
        <time>2016-07-08T18:44:26Z</time>
      </trkpt>
      <trkpt lat="48.55825" lon="7.16281">
        <ele>475</ele>
        <time>2016-07-08T18:46:26Z</time>
      </trkpt>
      <trkpt lat="48.55838" lon="7.16267">
        <ele>472</ele>
        <time>2016-07-08T18:48:26Z</time>
      </trkpt>
      <trkpt lat="48.55855" lon="7.16249">
        <ele>471</ele>
        <time>2016-07-08T18:50:26Z</time>
      </trkpt>
      <trkpt lat="48.55867" lon="7.16238">
        <ele>473</ele>
        <time>2016-07-08T18:52:26Z</time>
      </trkpt>
      <trkpt lat="48.55883" lon="7.16225">
        <ele>473</ele>
        <time>2016-07-08T18:54:26Z</time>
      </trkpt>
      <trkpt lat="48.55904" lon="7.16211">
        <ele>472</ele>
        <time>2016-07-08T18:56:26Z</time>
      </trkpt>
      <trkpt lat="48.55911" lon="7.16207">
        <ele>471</ele>
        <time>2016-07-08T18:58:26Z</time>
      </trkpt>
      <trkpt lat="48.55929" lon="7.16197">
        <ele>470</ele>
        <time>2016-07-08T19:00:26Z</time>
      </trkpt>
      <trkpt lat="48.5596" lon="7.16176">
        <ele>466</ele>
        <time>2016-07-08T19:02:26Z</time>
      </trkpt>
      <trkpt lat="48.55978" lon="7.16162">
        <ele>463</ele>
        <time>2016-07-08T19:04:26Z</time>
      </trkpt>
      <trkpt lat="48.55986" lon="7.16156">
        <ele>464</ele>
        <time>2016-07-08T19:06:26Z</time>
      </trkpt>
      <trkpt lat="48.55994" lon="7.16151">
        <ele>464</ele>
        <time>2016-07-08T19:08:26Z</time>
      </trkpt>
      <trkpt lat="48.56005" lon="7.16144">
        <ele>464</ele>
        <time>2016-07-08T19:10:26Z</time>
      </trkpt>
      <trkpt lat="48.56024" lon="7.16135">
        <ele>466</ele>
        <time>2016-07-08T19:12:26Z</time>
      </trkpt>
      <trkpt lat="48.5605" lon="7.16122">
        <ele>466</ele>
        <time>2016-07-08T19:14:26Z</time>
      </trkpt>
      <trkpt lat="48.56086" lon="7.16104">
        <ele>463</ele>
        <time>2016-07-08T19:16:26Z</time>
      </trkpt>
      <trkpt lat="48.56106" lon="7.16092">
        <ele>463</ele>
        <time>2016-07-08T19:18:26Z</time>
      </trkpt>
      <trkpt lat="48.56125" lon="7.16082">
        <ele>463</ele>
        <time>2016-07-08T19:20:26Z</time>
      </trkpt>
      <trkpt lat="48.56135" lon="7.16076">
        <ele>464</ele>
        <time>2016-07-08T19:22:26Z</time>
      </trkpt>
      <trkpt lat="48.56144" lon="7.1607">
        <ele>464</ele>
        <time>2016-07-08T19:24:26Z</time>
      </trkpt>
      <trkpt lat="48.56152" lon="7.16064">
        <ele>465</ele>
        <time>2016-07-08T19:26:26Z</time>
      </trkpt>
      <trkpt lat="48.56161" lon="7.16058">
        <ele>464</ele>
        <time>2016-07-08T19:28:26Z</time>
      </trkpt>
      <trkpt lat="48.56168" lon="7.16053">
        <ele>464</ele>
        <time>2016-07-08T19:30:26Z</time>
      </trkpt>
      <trkpt lat="48.56174" lon="7.16047">
        <ele>465</ele>
        <time>2016-07-08T19:32:26Z</time>
      </trkpt>
      <trkpt lat="48.56181" lon="7.1604">
        <ele>466</ele>
        <time>2016-07-08T19:34:26Z</time>
      </trkpt>
      <trkpt lat="48.56188" lon="7.16032">
        <ele>466</ele>
        <time>2016-07-08T19:36:26Z</time>
      </trkpt>
      <trkpt lat="48.56196" lon="7.16024">
        <ele>466</ele>
        <time>2016-07-08T19:38:26Z</time>
      </trkpt>
      <trkpt lat="48.56204" lon="7.16015">
        <ele>466</ele>
        <time>2016-07-08T19:40:26Z</time>
      </trkpt>
      <trkpt lat="48.56214" lon="7.16002">
        <ele>465</ele>
        <time>2016-07-08T19:42:26Z</time>
      </trkpt>
      <trkpt lat="48.56225" lon="7.15985">
        <ele>465</ele>
        <time>2016-07-08T19:44:26Z</time>
      </trkpt>
      <trkpt lat="48.56237" lon="7.15963">
        <ele>463</ele>
        <time>2016-07-08T19:46:26Z</time>
      </trkpt>
      <trkpt lat="48.56288" lon="7.15863">
        <ele>463</ele>
        <time>2016-07-08T19:48:26Z</time>
      </trkpt>
      <trkpt lat="48.56292" lon="7.15858">
        <ele>463</ele>
        <time>2016-07-08T19:50:26Z</time>
      </trkpt>
      <trkpt lat="48.56296" lon="7.15855">
        <ele>464</ele>
        <time>2016-07-08T19:52:26Z</time>
      </trkpt>
      <trkpt lat="48.56301" lon="7.15852">
        <ele>464</ele>
        <time>2016-07-08T19:54:26Z</time>
      </trkpt>
      <trkpt lat="48.56301" lon="7.15852">
        <ele>464</ele>
        <time>2016-07-08T19:56:26Z</time>
      </trkpt>
      <trkpt lat="48.56313" lon="7.15827">
        <ele>462</ele>
        <time>2016-07-08T19:58:26Z</time>
      </trkpt>
      <trkpt lat="48.56323" lon="7.15808">
        <ele>461</ele>
        <time>2016-07-08T20:00:26Z</time>
      </trkpt>
      <trkpt lat="48.5635" lon="7.15752">
        <ele>459</ele>
        <time>2016-07-08T20:02:26Z</time>
      </trkpt>
      <trkpt lat="48.56364" lon="7.15727">
        <ele>463</ele>
        <time>2016-07-08T20:04:26Z</time>
      </trkpt>
      <trkpt lat="48.56377" lon="7.15709">
        <ele>464</ele>
        <time>2016-07-08T20:06:26Z</time>
      </trkpt>
      <trkpt lat="48.56403" lon="7.1568">
        <ele>460</ele>
        <time>2016-07-08T20:08:26Z</time>
      </trkpt>
      <trkpt lat="48.56432" lon="7.15654">
        <ele>458</ele>
        <time>2016-07-08T20:10:26Z</time>
      </trkpt>
      <trkpt lat="48.56457" lon="7.15635">
        <ele>460</ele>
        <time>2016-07-08T20:12:26Z</time>
      </trkpt>
      <trkpt lat="48.56478" lon="7.1562">
        <ele>460</ele>
        <time>2016-07-08T20:14:26Z</time>
      </trkpt>
      <trkpt lat="48.56496" lon="7.15606">
        <ele>458</ele>
        <time>2016-07-08T20:16:26Z</time>
      </trkpt>
      <trkpt lat="48.5651" lon="7.15593">
        <ele>458</ele>
        <time>2016-07-08T20:18:26Z</time>
      </trkpt>
      <trkpt lat="48.56525" lon="7.15573">
        <ele>458</ele>
        <time>2016-07-08T20:20:26Z</time>
      </trkpt>
      <trkpt lat="48.56538" lon="7.15546">
        <ele>456</ele>
        <time>2016-07-08T20:22:26Z</time>
      </trkpt>
      <trkpt lat="48.56544" lon="7.15534">
        <ele>455</ele>
        <time>2016-07-08T20:24:26Z</time>
      </trkpt>
      <trkpt lat="48.5656" lon="7.15502">
        <ele>453</ele>
        <time>2016-07-08T20:26:26Z</time>
      </trkpt>
      <trkpt lat="48.56572" lon="7.1547">
        <ele>451</ele>
        <time>2016-07-08T20:28:26Z</time>
      </trkpt>
      <trkpt lat="48.56579" lon="7.15442">
        <ele>449</ele>
        <time>2016-07-08T20:30:26Z</time>
      </trkpt>
      <trkpt lat="48.56581" lon="7.15426">
        <ele>447</ele>
        <time>2016-07-08T20:32:26Z</time>
      </trkpt>
      <trkpt lat="48.56582" lon="7.15391">
        <ele>445</ele>
        <time>2016-07-08T20:34:26Z</time>
      </trkpt>
      <trkpt lat="48.5658" lon="7.15359">
        <ele>443</ele>
        <time>2016-07-08T20:36:26Z</time>
      </trkpt>
      <trkpt lat="48.56575" lon="7.15312">
        <ele>442</ele>
        <time>2016-07-08T20:38:26Z</time>
      </trkpt>
      <trkpt lat="48.56574" lon="7.15304">
        <ele>442</ele>
        <time>2016-07-08T20:40:26Z</time>
      </trkpt>
      <trkpt lat="48.56574" lon="7.15289">
        <ele>441</ele>
        <time>2016-07-08T20:42:26Z</time>
      </trkpt>
      <trkpt lat="48.56573" lon="7.1527">
        <ele>441</ele>
        <time>2016-07-08T20:44:26Z</time>
      </trkpt>
      <trkpt lat="48.56576" lon="7.15252">
        <ele>439</ele>
        <time>2016-07-08T20:46:26Z</time>
      </trkpt>
      <trkpt lat="48.56579" lon="7.15236">
        <ele>439</ele>
        <time>2016-07-08T20:48:26Z</time>
      </trkpt>
      <trkpt lat="48.56586" lon="7.15211">
        <ele>439</ele>
        <time>2016-07-08T20:50:26Z</time>
      </trkpt>
      <trkpt lat="48.56595" lon="7.15195">
        <ele>441</ele>
        <time>2016-07-08T20:52:26Z</time>
      </trkpt>
      <trkpt lat="48.56608" lon="7.15171">
        <ele>442</ele>
        <time>2016-07-08T20:54:26Z</time>
      </trkpt>
      <trkpt lat="48.56657" lon="7.15091">
        <ele>436</ele>
        <time>2016-07-08T20:56:26Z</time>
      </trkpt>
      <trkpt lat="48.56675" lon="7.15059">
        <ele>436</ele>
        <time>2016-07-08T20:58:26Z</time>
      </trkpt>
      <trkpt lat="48.56689" lon="7.15032">
        <ele>438</ele>
        <time>2016-07-08T21:00:26Z</time>
      </trkpt>
      <trkpt lat="48.56714" lon="7.14979">
        <ele>438</ele>
        <time>2016-07-08T21:02:26Z</time>
      </trkpt>
      <trkpt lat="48.56763" lon="7.14862">
        <ele>435</ele>
        <time>2016-07-08T21:04:26Z</time>
      </trkpt>
      <trkpt lat="48.56781" lon="7.14824">
        <ele>438</ele>
        <time>2016-07-08T21:06:26Z</time>
      </trkpt>
      <trkpt lat="48.56793" lon="7.14801">
        <ele>438</ele>
        <time>2016-07-08T21:08:26Z</time>
      </trkpt>
      <trkpt lat="48.56802" lon="7.1479">
        <ele>438</ele>
        <time>2016-07-08T21:10:26Z</time>
      </trkpt>
      <trkpt lat="48.56827" lon="7.14759">
        <ele>435</ele>
        <time>2016-07-08T21:12:26Z</time>
      </trkpt>
      <trkpt lat="48.56919" lon="7.14636">
        <ele>442</ele>
        <time>2016-07-08T21:14:26Z</time>
      </trkpt>
      <trkpt lat="48.56932" lon="7.14617">
        <ele>444</ele>
        <time>2016-07-08T21:16:26Z</time>
      </trkpt>
      <trkpt lat="48.56939" lon="7.14607">
        <ele>445</ele>
        <time>2016-07-08T21:18:26Z</time>
      </trkpt>
      <trkpt lat="48.56946" lon="7.14594">
        <ele>445</ele>
        <time>2016-07-08T21:20:26Z</time>
      </trkpt>
      <trkpt lat="48.56954" lon="7.1458">
        <ele>445</ele>
        <time>2016-07-08T21:22:26Z</time>
      </trkpt>
      <trkpt lat="48.56968" lon="7.14548">
        <ele>445</ele>
        <time>2016-07-08T21:24:26Z</time>
      </trkpt>
      <trkpt lat="48.56988" lon="7.14499">
        <ele>440</ele>
        <time>2016-07-08T21:26:26Z</time>
      </trkpt>
      <trkpt lat="48.56993" lon="7.14487">
        <ele>439</ele>
        <time>2016-07-08T21:28:26Z</time>
      </trkpt>
      <trkpt lat="48.56996" lon="7.14477">
        <ele>438</ele>
        <time>2016-07-08T21:30:26Z</time>
      </trkpt>
      <trkpt lat="48.56999" lon="7.1446">
        <ele>436</ele>
        <time>2016-07-08T21:32:26Z</time>
      </trkpt>
      <trkpt lat="48.57007" lon="7.14424">
        <ele>437</ele>
        <time>2016-07-08T21:34:26Z</time>
      </trkpt>
      <trkpt lat="48.57011" lon="7.14408">
        <ele>437</ele>
        <time>2016-07-08T21:36:26Z</time>
      </trkpt>
      <trkpt lat="48.57019" lon="7.14388">
        <ele>438</ele>
        <time>2016-07-08T21:38:26Z</time>
      </trkpt>
      <trkpt lat="48.57029" lon="7.14369">
        <ele>439</ele>
        <time>2016-07-08T21:40:26Z</time>
      </trkpt>
      <trkpt lat="48.57064" lon="7.14321">
        <ele>437</ele>
        <time>2016-07-08T21:42:26Z</time>
      </trkpt>
      <trkpt lat="48.57095" lon="7.14283">
        <ele>435</ele>
        <time>2016-07-08T21:44:26Z</time>
      </trkpt>
      <trkpt lat="48.57113" lon="7.14266">
        <ele>433</ele>
        <time>2016-07-08T21:46:26Z</time>
      </trkpt>
      <trkpt lat="48.57126" lon="7.14259">
        <ele>432</ele>
        <time>2016-07-08T21:48:26Z</time>
      </trkpt>
      <trkpt lat="48.57136" lon="7.14254">
        <ele>430</ele>
        <time>2016-07-08T21:50:26Z</time>
      </trkpt>
      <trkpt lat="48.57154" lon="7.14247">
        <ele>429</ele>
        <time>2016-07-08T21:52:26Z</time>
      </trkpt>
      <trkpt lat="48.57167" lon="7.14242">
        <ele>429</ele>
        <time>2016-07-08T21:54:26Z</time>
      </trkpt>
      <trkpt lat="48.57199" lon="7.1423">
        <ele>431</ele>
        <time>2016-07-08T21:56:26Z</time>
      </trkpt>
      <trkpt lat="48.57215" lon="7.14223">
        <ele>431</ele>
        <time>2016-07-08T21:58:26Z</time>
      </trkpt>
      <trkpt lat="48.57228" lon="7.14216">
        <ele>430</ele>
        <time>2016-07-08T22:00:26Z</time>
      </trkpt>
      <trkpt lat="48.5725" lon="7.14198">
        <ele>427</ele>
        <time>2016-07-08T22:02:26Z</time>
      </trkpt>
      <trkpt lat="48.57267" lon="7.14184">
        <ele>424</ele>
        <time>2016-07-08T22:04:26Z</time>
      </trkpt>
      <trkpt lat="48.5728" lon="7.14173">
        <ele>422</ele>
        <time>2016-07-08T22:06:26Z</time>
      </trkpt>
      <trkpt lat="48.57293" lon="7.14167">
        <ele>420</ele>
        <time>2016-07-08T22:08:26Z</time>
      </trkpt>
      <trkpt lat="48.57304" lon="7.14164">
        <ele>420</ele>
        <time>2016-07-08T22:10:26Z</time>
      </trkpt>
      <trkpt lat="48.57308" lon="7.14163">
        <ele>420</ele>
        <time>2016-07-08T22:12:26Z</time>
      </trkpt>
      <trkpt lat="48.57324" lon="7.14161">
        <ele>419</ele>
        <time>2016-07-08T22:14:26Z</time>
      </trkpt>
      <trkpt lat="48.5734" lon="7.14161">
        <ele>420</ele>
        <time>2016-07-08T22:16:26Z</time>
      </trkpt>
      <trkpt lat="48.57353" lon="7.1416">
        <ele>422</ele>
        <time>2016-07-08T22:18:26Z</time>
      </trkpt>
      <trkpt lat="48.57366" lon="7.14158">
        <ele>424</ele>
        <time>2016-07-08T22:20:26Z</time>
      </trkpt>
      <trkpt lat="48.5738" lon="7.14155">
        <ele>425</ele>
        <time>2016-07-08T22:22:26Z</time>
      </trkpt>
      <trkpt lat="48.57405" lon="7.14146">
        <ele>427</ele>
        <time>2016-07-08T22:24:26Z</time>
      </trkpt>
      <trkpt lat="48.57424" lon="7.14136">
        <ele>426</ele>
        <time>2016-07-08T22:26:26Z</time>
      </trkpt>
      <trkpt lat="48.5744" lon="7.14128">
        <ele>425</ele>
        <time>2016-07-08T22:28:26Z</time>
      </trkpt>
      <trkpt lat="48.57449" lon="7.14124">
        <ele>424</ele>
        <time>2016-07-08T22:30:26Z</time>
      </trkpt>
      <trkpt lat="48.57464" lon="7.14118">
        <ele>422</ele>
        <time>2016-07-08T22:32:26Z</time>
      </trkpt>
      <trkpt lat="48.57477" lon="7.14115">
        <ele>422</ele>
        <time>2016-07-08T22:34:26Z</time>
      </trkpt>
      <trkpt lat="48.57492" lon="7.14113">
        <ele>421</ele>
        <time>2016-07-08T22:36:26Z</time>
      </trkpt>
      <trkpt lat="48.57546" lon="7.14111">
        <ele>420</ele>
        <time>2016-07-08T22:38:26Z</time>
      </trkpt>
      <trkpt lat="48.57572" lon="7.14107">
        <ele>419</ele>
        <time>2016-07-08T22:40:26Z</time>
      </trkpt>
      <trkpt lat="48.57589" lon="7.14104">
        <ele>418</ele>
        <time>2016-07-08T22:42:26Z</time>
      </trkpt>
      <trkpt lat="48.57601" lon="7.14102">
        <ele>417</ele>
        <time>2016-07-08T22:44:26Z</time>
      </trkpt>
      <trkpt lat="48.57614" lon="7.14101">
        <ele>417</ele>
        <time>2016-07-08T22:46:26Z</time>
      </trkpt>
      <trkpt lat="48.57626" lon="7.14103">
        <ele>417</ele>
        <time>2016-07-08T22:48:26Z</time>
      </trkpt>
      <trkpt lat="48.57635" lon="7.14105">
        <ele>417</ele>
        <time>2016-07-08T22:50:26Z</time>
      </trkpt>
      <trkpt lat="48.57667" lon="7.14119">
        <ele>419</ele>
        <time>2016-07-08T22:52:26Z</time>
      </trkpt>
      <trkpt lat="48.5768" lon="7.14123">
        <ele>419</ele>
        <time>2016-07-08T22:54:26Z</time>
      </trkpt>
      <trkpt lat="48.57695" lon="7.14125">
        <ele>418</ele>
        <time>2016-07-08T22:56:26Z</time>
      </trkpt>
      <trkpt lat="48.57711" lon="7.14124">
        <ele>416</ele>
        <time>2016-07-08T22:58:26Z</time>
      </trkpt>
      <trkpt lat="48.57722" lon="7.14123">
        <ele>415</ele>
        <time>2016-07-08T23:00:26Z</time>
      </trkpt>
      <trkpt lat="48.57737" lon="7.1412">
        <ele>413</ele>
        <time>2016-07-08T23:02:26Z</time>
      </trkpt>
      <trkpt lat="48.57757" lon="7.14111">
        <ele>411</ele>
        <time>2016-07-08T23:04:26Z</time>
      </trkpt>
      <trkpt lat="48.57772" lon="7.141">
        <ele>411</ele>
        <time>2016-07-08T23:06:26Z</time>
      </trkpt>
      <trkpt lat="48.57782" lon="7.14089">
        <ele>410</ele>
        <time>2016-07-08T23:08:26Z</time>
      </trkpt>
      <trkpt lat="48.57787" lon="7.14084">
        <ele>409</ele>
        <time>2016-07-08T23:10:26Z</time>
      </trkpt>
      <trkpt lat="48.57796" lon="7.14069">
        <ele>410</ele>
        <time>2016-07-08T23:12:26Z</time>
      </trkpt>
      <trkpt lat="48.57804" lon="7.14054">
        <ele>410</ele>
        <time>2016-07-08T23:14:26Z</time>
      </trkpt>
      <trkpt lat="48.57822" lon="7.14008">
        <ele>406</ele>
        <time>2016-07-08T23:16:26Z</time>
      </trkpt>
      <trkpt lat="48.57829" lon="7.13993">
        <ele>405</ele>
        <time>2016-07-08T23:18:26Z</time>
      </trkpt>
      <trkpt lat="48.57839" lon="7.13977">
        <ele>407</ele>
        <time>2016-07-08T23:20:26Z</time>
      </trkpt>
      <trkpt lat="48.57851" lon="7.13966">
        <ele>408</ele>
        <time>2016-07-08T23:22:26Z</time>
      </trkpt>
      <trkpt lat="48.57866" lon="7.1396">
        <ele>408</ele>
        <time>2016-07-08T23:24:26Z</time>
      </trkpt>
      <trkpt lat="48.57879" lon="7.13956">
        <ele>408</ele>
        <time>2016-07-08T23:26:26Z</time>
      </trkpt>
      <trkpt lat="48.57896" lon="7.13956">
        <ele>406</ele>
        <time>2016-07-08T23:28:26Z</time>
      </trkpt>
      <trkpt lat="48.57911" lon="7.13956">
        <ele>405</ele>
        <time>2016-07-08T23:30:26Z</time>
      </trkpt>
      <trkpt lat="48.57931" lon="7.13958">
        <ele>404</ele>
        <time>2016-07-08T23:32:26Z</time>
      </trkpt>
      <trkpt lat="48.57944" lon="7.1396">
        <ele>404</ele>
        <time>2016-07-08T23:34:26Z</time>
      </trkpt>
      <trkpt lat="48.57969" lon="7.13966">
        <ele>403</ele>
        <time>2016-07-08T23:36:26Z</time>
      </trkpt>
      <trkpt lat="48.57992" lon="7.13972">
        <ele>403</ele>
        <time>2016-07-08T23:38:26Z</time>
      </trkpt>
      <trkpt lat="48.58002" lon="7.13971">
        <ele>403</ele>
        <time>2016-07-08T23:40:26Z</time>
      </trkpt>
      <trkpt lat="48.58009" lon="7.1397">
        <ele>405</ele>
        <time>2016-07-08T23:42:26Z</time>
      </trkpt>
      <trkpt lat="48.58017" lon="7.13964">
        <ele>407</ele>
        <time>2016-07-08T23:44:26Z</time>
      </trkpt>
      <trkpt lat="48.58025" lon="7.13954">
        <ele>408</ele>
        <time>2016-07-08T23:46:26Z</time>
      </trkpt>
      <trkpt lat="48.58036" lon="7.13932">
        <ele>408</ele>
        <time>2016-07-08T23:48:26Z</time>
      </trkpt>
      <trkpt lat="48.58043" lon="7.13914">
        <ele>407</ele>
        <time>2016-07-08T23:50:26Z</time>
      </trkpt>
      <trkpt lat="48.58047" lon="7.139">
        <ele>408</ele>
        <time>2016-07-08T23:52:26Z</time>
      </trkpt>
      <trkpt lat="48.58052" lon="7.13879">
        <ele>409</ele>
        <time>2016-07-08T23:54:26Z</time>
      </trkpt>
      <trkpt lat="48.58053" lon="7.13865">
        <ele>409</ele>
        <time>2016-07-08T23:56:26Z</time>
      </trkpt>
      <trkpt lat="48.58052" lon="7.13836">
        <ele>408</ele>
        <time>2016-07-08T23:58:26Z</time>
      </trkpt>
      <trkpt lat="48.5805" lon="7.13811">
        <ele>408</ele>
        <time>2016-07-09T00:00:26Z</time>
      </trkpt>
      <trkpt lat="48.5805" lon="7.13783">
        <ele>408</ele>
        <time>2016-07-09T00:02:26Z</time>
      </trkpt>
      <trkpt lat="48.58052" lon="7.13772">
        <ele>408</ele>
        <time>2016-07-09T00:04:26Z</time>
      </trkpt>
      <trkpt lat="48.58057" lon="7.13758">
        <ele>406</ele>
        <time>2016-07-09T00:06:26Z</time>
      </trkpt>
      <trkpt lat="48.58064" lon="7.13745">
        <ele>404</ele>
        <time>2016-07-09T00:08:26Z</time>
      </trkpt>
      <trkpt lat="48.58072" lon="7.13735">
        <ele>403</ele>
        <time>2016-07-09T00:10:26Z</time>
      </trkpt>
      <trkpt lat="48.58085" lon="7.13725">
        <ele>399</ele>
        <time>2016-07-09T00:12:26Z</time>
      </trkpt>
      <trkpt lat="48.58101" lon="7.13714">
        <ele>401</ele>
        <time>2016-07-09T00:14:26Z</time>
      </trkpt>
      <trkpt lat="48.58111" lon="7.13709">
        <ele>401</ele>
        <time>2016-07-09T00:16:26Z</time>
      </trkpt>
      <trkpt lat="48.58132" lon="7.13703">
        <ele>400</ele>
        <time>2016-07-09T00:18:26Z</time>
      </trkpt>
      <trkpt lat="48.5815" lon="7.13698">
        <ele>399</ele>
        <time>2016-07-09T00:20:26Z</time>
      </trkpt>
      <trkpt lat="48.58164" lon="7.13693">
        <ele>398</ele>
        <time>2016-07-09T00:22:26Z</time>
      </trkpt>
      <trkpt lat="48.58172" lon="7.13687">
        <ele>398</ele>
        <time>2016-07-09T00:24:26Z</time>
      </trkpt>
      <trkpt lat="48.58181" lon="7.13674">
        <ele>398</ele>
        <time>2016-07-09T00:26:26Z</time>
      </trkpt>
      <trkpt lat="48.58184" lon="7.13662">
        <ele>397</ele>
        <time>2016-07-09T00:28:26Z</time>
      </trkpt>
      <trkpt lat="48.58183" lon="7.13647">
        <ele>396</ele>
        <time>2016-07-09T00:30:26Z</time>
      </trkpt>
      <trkpt lat="48.58177" lon="7.13628">
        <ele>394</ele>
        <time>2016-07-09T00:32:26Z</time>
      </trkpt>
      <trkpt lat="48.58157" lon="7.13593">
        <ele>394</ele>
        <time>2016-07-09T00:34:26Z</time>
      </trkpt>
      <trkpt lat="48.58149" lon="7.13575">
        <ele>397</ele>
        <time>2016-07-09T00:36:26Z</time>
      </trkpt>
      <trkpt lat="48.58146" lon="7.1356">
        <ele>400</ele>
        <time>2016-07-09T00:38:26Z</time>
      </trkpt>
      <trkpt lat="48.58146" lon="7.13545">
        <ele>401</ele>
        <time>2016-07-09T00:40:26Z</time>
      </trkpt>
      <trkpt lat="48.58151" lon="7.13529">
        <ele>401</ele>
        <time>2016-07-09T00:42:26Z</time>
      </trkpt>
      <trkpt lat="48.58158" lon="7.13517">
        <ele>399</ele>
        <time>2016-07-09T00:44:26Z</time>
      </trkpt>
      <trkpt lat="48.58174" lon="7.13502">
        <ele>395</ele>
        <time>2016-07-09T00:46:26Z</time>
      </trkpt>
      <trkpt lat="48.58191" lon="7.13492">
        <ele>395</ele>
        <time>2016-07-09T00:48:26Z</time>
      </trkpt>
      <trkpt lat="48.58207" lon="7.13485">
        <ele>394</ele>
        <time>2016-07-09T00:50:26Z</time>
      </trkpt>
      <trkpt lat="48.58216" lon="7.13482">
        <ele>394</ele>
        <time>2016-07-09T00:52:26Z</time>
      </trkpt>
      <trkpt lat="48.5823" lon="7.13479">
        <ele>392</ele>
        <time>2016-07-09T00:54:26Z</time>
      </trkpt>
      <trkpt lat="48.58248" lon="7.13476">
        <ele>390</ele>
        <time>2016-07-09T00:56:26Z</time>
      </trkpt>
      <trkpt lat="48.58265" lon="7.13476">
        <ele>389</ele>
        <time>2016-07-09T00:58:26Z</time>
      </trkpt>
      <trkpt lat="48.58323" lon="7.13476">
        <ele>389</ele>
        <time>2016-07-09T01:00:26Z</time>
      </trkpt>
      <trkpt lat="48.58342" lon="7.13471">
        <ele>390</ele>
        <time>2016-07-09T01:02:26Z</time>
      </trkpt>
      <trkpt lat="48.58355" lon="7.13467">
        <ele>392</ele>
        <time>2016-07-09T01:04:26Z</time>
      </trkpt>
      <trkpt lat="48.58367" lon="7.13458">
        <ele>393</ele>
        <time>2016-07-09T01:06:26Z</time>
      </trkpt>
      <trkpt lat="48.58374" lon="7.13448">
        <ele>393</ele>
        <time>2016-07-09T01:08:26Z</time>
      </trkpt>
      <trkpt lat="48.58388" lon="7.13423">
        <ele>392</ele>
        <time>2016-07-09T01:10:26Z</time>
      </trkpt>
      <trkpt lat="48.58392" lon="7.13407">
        <ele>392</ele>
        <time>2016-07-09T01:12:26Z</time>
      </trkpt>
      <trkpt lat="48.58399" lon="7.13366">
        <ele>391</ele>
        <time>2016-07-09T01:14:26Z</time>
      </trkpt>
      <trkpt lat="48.58401" lon="7.13328">
        <ele>390</ele>
        <time>2016-07-09T01:16:26Z</time>
      </trkpt>
      <trkpt lat="48.58402" lon="7.13291">
        <ele>391</ele>
        <time>2016-07-09T01:18:26Z</time>
      </trkpt>
      <trkpt lat="48.58402" lon="7.13268">
        <ele>393</ele>
        <time>2016-07-09T01:20:26Z</time>
      </trkpt>
      <trkpt lat="48.58404" lon="7.13246">
        <ele>394</ele>
        <time>2016-07-09T01:22:26Z</time>
      </trkpt>
      <trkpt lat="48.5841" lon="7.13223">
        <ele>394</ele>
        <time>2016-07-09T01:24:26Z</time>
      </trkpt>
      <trkpt lat="48.5842" lon="7.13205">
        <ele>394</ele>
        <time>2016-07-09T01:26:26Z</time>
      </trkpt>
      <trkpt lat="48.5843" lon="7.13193">
        <ele>394</ele>
        <time>2016-07-09T01:28:26Z</time>
      </trkpt>
      <trkpt lat="48.58442" lon="7.13184">
        <ele>392</ele>
        <time>2016-07-09T01:30:26Z</time>
      </trkpt>
      <trkpt lat="48.58454" lon="7.13179">
        <ele>391</ele>
        <time>2016-07-09T01:32:26Z</time>
      </trkpt>
      <trkpt lat="48.58466" lon="7.13178">
        <ele>389</ele>
        <time>2016-07-09T01:34:26Z</time>
      </trkpt>
      <trkpt lat="48.5848" lon="7.13179">
        <ele>387</ele>
        <time>2016-07-09T01:36:26Z</time>
      </trkpt>
      <trkpt lat="48.58505" lon="7.13184">
        <ele>384</ele>
        <time>2016-07-09T01:38:26Z</time>
      </trkpt>
      <trkpt lat="48.58524" lon="7.1318">
        <ele>384</ele>
        <time>2016-07-09T01:40:26Z</time>
      </trkpt>
      <trkpt lat="48.58533" lon="7.13175">
        <ele>384</ele>
        <time>2016-07-09T01:42:26Z</time>
      </trkpt>
      <trkpt lat="48.58549" lon="7.13158">
        <ele>383</ele>
        <time>2016-07-09T01:44:26Z</time>
      </trkpt>
      <trkpt lat="48.5856" lon="7.1314">
        <ele>384</ele>
        <time>2016-07-09T01:46:26Z</time>
      </trkpt>
      <trkpt lat="48.58568" lon="7.13115">
        <ele>384</ele>
        <time>2016-07-09T01:48:26Z</time>
      </trkpt>
      <trkpt lat="48.58575" lon="7.13081">
        <ele>382</ele>
        <time>2016-07-09T01:50:26Z</time>
      </trkpt>
      <trkpt lat="48.5858" lon="7.13043">
        <ele>382</ele>
        <time>2016-07-09T01:52:26Z</time>
      </trkpt>
      <trkpt lat="48.58583" lon="7.12978">
        <ele>382</ele>
        <time>2016-07-09T01:54:26Z</time>
      </trkpt>
      <trkpt lat="48.58587" lon="7.12949">
        <ele>383</ele>
        <time>2016-07-09T01:56:26Z</time>
      </trkpt>
      <trkpt lat="48.58595" lon="7.12923">
        <ele>384</ele>
        <time>2016-07-09T01:58:26Z</time>
      </trkpt>
      <trkpt lat="48.58614" lon="7.12895">
        <ele>386</ele>
        <time>2016-07-09T02:00:26Z</time>
      </trkpt>
      <trkpt lat="48.58646" lon="7.1286">
        <ele>381</ele>
        <time>2016-07-09T02:02:26Z</time>
      </trkpt>
      <trkpt lat="48.58665" lon="7.12833">
        <ele>374</ele>
        <time>2016-07-09T02:04:26Z</time>
      </trkpt>
      <trkpt lat="48.58675" lon="7.12817">
        <ele>376</ele>
        <time>2016-07-09T02:06:26Z</time>
      </trkpt>
      <trkpt lat="48.58684" lon="7.12788">
        <ele>378</ele>
        <time>2016-07-09T02:08:26Z</time>
      </trkpt>
      <trkpt lat="48.58687" lon="7.1277">
        <ele>378</ele>
        <time>2016-07-09T02:10:26Z</time>
      </trkpt>
      <trkpt lat="48.58689" lon="7.12742">
        <ele>377</ele>
        <time>2016-07-09T02:12:26Z</time>
      </trkpt>
      <trkpt lat="48.58686" lon="7.12691">
        <ele>371</ele>
        <time>2016-07-09T02:14:26Z</time>
      </trkpt>
      <trkpt lat="48.58685" lon="7.12659">
        <ele>369</ele>
        <time>2016-07-09T02:16:26Z</time>
      </trkpt>
      <trkpt lat="48.58685" lon="7.12644">
        <ele>370</ele>
        <time>2016-07-09T02:18:26Z</time>
      </trkpt>
      <trkpt lat="48.58687" lon="7.12627">
        <ele>372</ele>
        <time>2016-07-09T02:20:26Z</time>
      </trkpt>
      <trkpt lat="48.58689" lon="7.12621">
        <ele>372</ele>
        <time>2016-07-09T02:22:26Z</time>
      </trkpt>
      <trkpt lat="48.58697" lon="7.12614">
        <ele>373</ele>
        <time>2016-07-09T02:24:26Z</time>
      </trkpt>
      <trkpt lat="48.58702" lon="7.12612">
        <ele>374</ele>
        <time>2016-07-09T02:26:26Z</time>
      </trkpt>
      <trkpt lat="48.58708" lon="7.12613">
        <ele>374</ele>
        <time>2016-07-09T02:28:26Z</time>
      </trkpt>
      <trkpt lat="48.58715" lon="7.12616">
        <ele>374</ele>
        <time>2016-07-09T02:30:26Z</time>
      </trkpt>
      <trkpt lat="48.58727" lon="7.12625">
        <ele>374</ele>
        <time>2016-07-09T02:32:26Z</time>
      </trkpt>
      <trkpt lat="48.5875" lon="7.12639">
        <ele>373</ele>
        <time>2016-07-09T02:34:26Z</time>
      </trkpt>
      <trkpt lat="48.58762" lon="7.12643">
        <ele>373</ele>
        <time>2016-07-09T02:36:26Z</time>
      </trkpt>
      <trkpt lat="48.58778" lon="7.12648">
        <ele>373</ele>
        <time>2016-07-09T02:38:26Z</time>
      </trkpt>
      <trkpt lat="48.58797" lon="7.1265">
        <ele>374</ele>
        <time>2016-07-09T02:40:26Z</time>
      </trkpt>
      <trkpt lat="48.5881" lon="7.1265">
        <ele>374</ele>
        <time>2016-07-09T02:42:26Z</time>
      </trkpt>
      <trkpt lat="48.58821" lon="7.12649">
        <ele>375</ele>
        <time>2016-07-09T02:44:26Z</time>
      </trkpt>
      <trkpt lat="48.5887" lon="7.12631">
        <ele>375</ele>
        <time>2016-07-09T02:46:26Z</time>
      </trkpt>
      <trkpt lat="48.58904" lon="7.12616">
        <ele>373</ele>
        <time>2016-07-09T02:48:26Z</time>
      </trkpt>
      <trkpt lat="48.58923" lon="7.12605">
        <ele>373</ele>
        <time>2016-07-09T02:50:26Z</time>
      </trkpt>
      <trkpt lat="48.58938" lon="7.12591">
        <ele>374</ele>
        <time>2016-07-09T02:52:26Z</time>
      </trkpt>
      <trkpt lat="48.58952" lon="7.12575">
        <ele>375</ele>
        <time>2016-07-09T02:54:26Z</time>
      </trkpt>
      <trkpt lat="48.58966" lon="7.12555">
        <ele>375</ele>
        <time>2016-07-09T02:56:26Z</time>
      </trkpt>
      <trkpt lat="48.5898" lon="7.12532">
        <ele>373</ele>
        <time>2016-07-09T02:58:26Z</time>
      </trkpt>
      <trkpt lat="48.58998" lon="7.12502">
        <ele>366</ele>
        <time>2016-07-09T03:00:26Z</time>
      </trkpt>
      <trkpt lat="48.59009" lon="7.12479">
        <ele>367</ele>
        <time>2016-07-09T03:02:26Z</time>
      </trkpt>
      <trkpt lat="48.5902" lon="7.12467">
        <ele>367</ele>
        <time>2016-07-09T03:04:26Z</time>
      </trkpt>
      <trkpt lat="48.59036" lon="7.12451">
        <ele>367</ele>
        <time>2016-07-09T03:06:26Z</time>
      </trkpt>
      <trkpt lat="48.59059" lon="7.1244">
        <ele>365</ele>
        <time>2016-07-09T03:08:26Z</time>
      </trkpt>
      <trkpt lat="48.59077" lon="7.12437">
        <ele>364</ele>
        <time>2016-07-09T03:10:26Z</time>
      </trkpt>
      <trkpt lat="48.59094" lon="7.12437">
        <ele>363</ele>
        <time>2016-07-09T03:12:26Z</time>
      </trkpt>
      <trkpt lat="48.59116" lon="7.12441">
        <ele>364</ele>
        <time>2016-07-09T03:14:26Z</time>
      </trkpt>
      <trkpt lat="48.59136" lon="7.12444">
        <ele>364</ele>
        <time>2016-07-09T03:16:26Z</time>
      </trkpt>
      <trkpt lat="48.5915" lon="7.12444">
        <ele>364</ele>
        <time>2016-07-09T03:18:26Z</time>
      </trkpt>
      <trkpt lat="48.59166" lon="7.12441">
        <ele>363</ele>
        <time>2016-07-09T03:20:26Z</time>
      </trkpt>
      <trkpt lat="48.59178" lon="7.12434">
        <ele>363</ele>
        <time>2016-07-09T03:22:26Z</time>
      </trkpt>
      <trkpt lat="48.59191" lon="7.12424">
        <ele>362</ele>
        <time>2016-07-09T03:24:26Z</time>
      </trkpt>
      <trkpt lat="48.59251" lon="7.12363">
        <ele>359</ele>
        <time>2016-07-09T03:26:26Z</time>
      </trkpt>
      <trkpt lat="48.5928" lon="7.12333">
        <ele>357</ele>
        <time>2016-07-09T03:28:26Z</time>
      </trkpt>
      <trkpt lat="48.59285" lon="7.12328">
        <ele>358</ele>
        <time>2016-07-09T03:30:26Z</time>
      </trkpt>
      <trkpt lat="48.5932" lon="7.12302">
        <ele>360</ele>
        <time>2016-07-09T03:32:26Z</time>
      </trkpt>
      <trkpt lat="48.59363" lon="7.12276">
        <ele>359</ele>
        <time>2016-07-09T03:34:26Z</time>
      </trkpt>
      <trkpt lat="48.59391" lon="7.12263">
        <ele>357</ele>
        <time>2016-07-09T03:36:26Z</time>
      </trkpt>
      <trkpt lat="48.59413" lon="7.12256">
        <ele>355</ele>
        <time>2016-07-09T03:38:26Z</time>
      </trkpt>
      <trkpt lat="48.59441" lon="7.12254">
        <ele>355</ele>
        <time>2016-07-09T03:40:26Z</time>
      </trkpt>
      <trkpt lat="48.59459" lon="7.12254">
        <ele>355</ele>
        <time>2016-07-09T03:42:26Z</time>
      </trkpt>
      <trkpt lat="48.5948" lon="7.12255">
        <ele>355</ele>
        <time>2016-07-09T03:44:26Z</time>
      </trkpt>
      <trkpt lat="48.59501" lon="7.12257">
        <ele>356</ele>
        <time>2016-07-09T03:46:26Z</time>
      </trkpt>
      <trkpt lat="48.59523" lon="7.1226">
        <ele>356</ele>
        <time>2016-07-09T03:48:26Z</time>
      </trkpt>
      <trkpt lat="48.59544" lon="7.12262">
        <ele>356</ele>
        <time>2016-07-09T03:50:26Z</time>
      </trkpt>
      <trkpt lat="48.59561" lon="7.12262">
        <ele>355</ele>
        <time>2016-07-09T03:52:26Z</time>
      </trkpt>
      <trkpt lat="48.59584" lon="7.12259">
        <ele>354</ele>
        <time>2016-07-09T03:54:26Z</time>
      </trkpt>
      <trkpt lat="48.59609" lon="7.12254">
        <ele>353</ele>
        <time>2016-07-09T03:56:26Z</time>
      </trkpt>
      <trkpt lat="48.59618" lon="7.12253">
        <ele>353</ele>
        <time>2016-07-09T03:58:26Z</time>
      </trkpt>
      <trkpt lat="48.59641" lon="7.12248">
        <ele>352</ele>
        <time>2016-07-09T04:00:26Z</time>
      </trkpt>
      <trkpt lat="48.59705" lon="7.12232">
        <ele>353</ele>
        <time>2016-07-09T04:02:26Z</time>
      </trkpt>
      <trkpt lat="48.59734" lon="7.12223">
        <ele>354</ele>
        <time>2016-07-09T04:04:26Z</time>
      </trkpt>
      <trkpt lat="48.59752" lon="7.12221">
        <ele>354</ele>
        <time>2016-07-09T04:06:26Z</time>
      </trkpt>
      <trkpt lat="48.59768" lon="7.12218">
        <ele>353</ele>
        <time>2016-07-09T04:08:26Z</time>
      </trkpt>
      <trkpt lat="48.59795" lon="7.12216">
        <ele>352</ele>
        <time>2016-07-09T04:10:26Z</time>
      </trkpt>
      <trkpt lat="48.59846" lon="7.12216">
        <ele>351</ele>
        <time>2016-07-09T04:12:26Z</time>
      </trkpt>
      <trkpt lat="48.59874" lon="7.12217">
        <ele>350</ele>
        <time>2016-07-09T04:14:26Z</time>
      </trkpt>
      <trkpt lat="48.59887" lon="7.12218">
        <ele>350</ele>
        <time>2016-07-09T04:16:26Z</time>
      </trkpt>
      <trkpt lat="48.59905" lon="7.12224">
        <ele>349</ele>
        <time>2016-07-09T04:18:26Z</time>
      </trkpt>
      <trkpt lat="48.5994" lon="7.12239">
        <ele>348</ele>
        <time>2016-07-09T04:20:26Z</time>
      </trkpt>
      <trkpt lat="48.59958" lon="7.12246">
        <ele>347</ele>
        <time>2016-07-09T04:22:26Z</time>
      </trkpt>
      <trkpt lat="48.59979" lon="7.12256">
        <ele>348</ele>
        <time>2016-07-09T04:24:26Z</time>
      </trkpt>
      <trkpt lat="48.59996" lon="7.12264">
        <ele>350</ele>
        <time>2016-07-09T04:26:26Z</time>
      </trkpt>
      <trkpt lat="48.60023" lon="7.12278">
        <ele>354</ele>
        <time>2016-07-09T04:28:26Z</time>
      </trkpt>
      <trkpt lat="48.60083" lon="7.12315">
        <ele>358</ele>
        <time>2016-07-09T04:30:26Z</time>
      </trkpt>
      <trkpt lat="48.60109" lon="7.12335">
        <ele>357</ele>
        <time>2016-07-09T04:32:26Z</time>
      </trkpt>
      <trkpt lat="48.60131" lon="7.12355">
        <ele>357</ele>
        <time>2016-07-09T04:34:26Z</time>
      </trkpt>
      <trkpt lat="48.6015" lon="7.12376">
        <ele>356</ele>
        <time>2016-07-09T04:36:26Z</time>
      </trkpt>
      <trkpt lat="48.60163" lon="7.12397">
        <ele>354</ele>
        <time>2016-07-09T04:38:26Z</time>
      </trkpt>
      <trkpt lat="48.60175" lon="7.12422">
        <ele>354</ele>
        <time>2016-07-09T04:40:26Z</time>
      </trkpt>
      <trkpt lat="48.60188" lon="7.12464">
        <ele>355</ele>
        <time>2016-07-09T04:42:26Z</time>
      </trkpt>
      <trkpt lat="48.60205" lon="7.12521">
        <ele>353</ele>
        <time>2016-07-09T04:44:26Z</time>
      </trkpt>
      <trkpt lat="48.60212" lon="7.12546">
        <ele>351</ele>
        <time>2016-07-09T04:46:26Z</time>
      </trkpt>
      <trkpt lat="48.60213" lon="7.1256">
        <ele>351</ele>
        <time>2016-07-09T04:48:26Z</time>
      </trkpt>
      <trkpt lat="48.60213" lon="7.12573">
        <ele>350</ele>
        <time>2016-07-09T04:50:26Z</time>
      </trkpt>
      <trkpt lat="48.60211" lon="7.12588">
        <ele>350</ele>
        <time>2016-07-09T04:52:26Z</time>
      </trkpt>
      <trkpt lat="48.60207" lon="7.12601">
        <ele>351</ele>
        <time>2016-07-09T04:54:26Z</time>
      </trkpt>
      <trkpt lat="48.60201" lon="7.12617">
        <ele>351</ele>
        <time>2016-07-09T04:56:26Z</time>
      </trkpt>
      <trkpt lat="48.60177" lon="7.12671">
        <ele>351</ele>
        <time>2016-07-09T04:58:26Z</time>
      </trkpt>
      <trkpt lat="48.60172" lon="7.12687">
        <ele>351</ele>
        <time>2016-07-09T05:00:26Z</time>
      </trkpt>
      <trkpt lat="48.6017" lon="7.12696">
        <ele>351</ele>
        <time>2016-07-09T05:02:26Z</time>
      </trkpt>
      <trkpt lat="48.60169" lon="7.12702">
        <ele>351</ele>
        <time>2016-07-09T05:04:26Z</time>
      </trkpt>
      <trkpt lat="48.60168" lon="7.12708">
        <ele>351</ele>
        <time>2016-07-09T05:06:26Z</time>
      </trkpt>
      <trkpt lat="48.60168" lon="7.12718">
        <ele>351</ele>
        <time>2016-07-09T05:08:26Z</time>
      </trkpt>
      <trkpt lat="48.60169" lon="7.12727">
        <ele>351</ele>
        <time>2016-07-09T05:10:26Z</time>
      </trkpt>
      <trkpt lat="48.60171" lon="7.12736">
        <ele>351</ele>
        <time>2016-07-09T05:12:26Z</time>
      </trkpt>
      <trkpt lat="48.60175" lon="7.12746">
        <ele>350</ele>
        <time>2016-07-09T05:14:26Z</time>
      </trkpt>
      <trkpt lat="48.60178" lon="7.12752">
        <ele>350</ele>
        <time>2016-07-09T05:16:26Z</time>
      </trkpt>
      <trkpt lat="48.60181" lon="7.12758">
        <ele>351</ele>
        <time>2016-07-09T05:18:26Z</time>
      </trkpt>
      <trkpt lat="48.60186" lon="7.12765">
        <ele>353</ele>
        <time>2016-07-09T05:20:26Z</time>
      </trkpt>
      <trkpt lat="48.60191" lon="7.12772">
        <ele>354</ele>
        <time>2016-07-09T05:22:26Z</time>
      </trkpt>
      <trkpt lat="48.60197" lon="7.12778">
        <ele>355</ele>
        <time>2016-07-09T05:24:26Z</time>
      </trkpt>
      <trkpt lat="48.60203" lon="7.12783">
        <ele>356</ele>
        <time>2016-07-09T05:26:26Z</time>
      </trkpt>
      <trkpt lat="48.60213" lon="7.12791">
        <ele>357</ele>
        <time>2016-07-09T05:28:26Z</time>
      </trkpt>
      <trkpt lat="48.60222" lon="7.12797">
        <ele>358</ele>
        <time>2016-07-09T05:30:26Z</time>
      </trkpt>
      <trkpt lat="48.6023" lon="7.12801">
        <ele>358</ele>
        <time>2016-07-09T05:32:26Z</time>
      </trkpt>
      <trkpt lat="48.60233" lon="7.12803">
        <ele>358</ele>
        <time>2016-07-09T05:34:26Z</time>
      </trkpt>
      <trkpt lat="48.60235" lon="7.12803">
        <ele>358</ele>
        <time>2016-07-09T05:36:26Z</time>
      </trkpt>
      <trkpt lat="48.60247" lon="7.12807">
        <ele>358</ele>
        <time>2016-07-09T05:38:26Z</time>
      </trkpt>
      <trkpt lat="48.60256" lon="7.12807">
        <ele>358</ele>
        <time>2016-07-09T05:40:26Z</time>
      </trkpt>
      <trkpt lat="48.60267" lon="7.12805">
        <ele>358</ele>
        <time>2016-07-09T05:42:26Z</time>
      </trkpt>
      <trkpt lat="48.60278" lon="7.12802">
        <ele>358</ele>
        <time>2016-07-09T05:44:26Z</time>
      </trkpt>
      <trkpt lat="48.60287" lon="7.12798">
        <ele>357</ele>
        <time>2016-07-09T05:46:26Z</time>
      </trkpt>
      <trkpt lat="48.60301" lon="7.12788">
        <ele>355</ele>
        <time>2016-07-09T05:48:26Z</time>
      </trkpt>
      <trkpt lat="48.60323" lon="7.1277">
        <ele>352</ele>
        <time>2016-07-09T05:50:26Z</time>
      </trkpt>
      <trkpt lat="48.60346" lon="7.12747">
        <ele>349</ele>
        <time>2016-07-09T05:52:26Z</time>
      </trkpt>
      <trkpt lat="48.60368" lon="7.12728">
        <ele>350</ele>
        <time>2016-07-09T05:54:26Z</time>
      </trkpt>
      <trkpt lat="48.60394" lon="7.127">
        <ele>349</ele>
        <time>2016-07-09T05:56:26Z</time>
      </trkpt>
      <trkpt lat="48.60416" lon="7.12685">
        <ele>348</ele>
        <time>2016-07-09T05:58:26Z</time>
      </trkpt>
      <trkpt lat="48.60437" lon="7.12678">
        <ele>347</ele>
        <time>2016-07-09T06:00:26Z</time>
      </trkpt>
      <trkpt lat="48.60448" lon="7.12676">
        <ele>346</ele>
        <time>2016-07-09T06:02:26Z</time>
      </trkpt>
      <trkpt lat="48.60456" lon="7.12676">
        <ele>346</ele>
        <time>2016-07-09T06:04:26Z</time>
      </trkpt>
      <trkpt lat="48.60474" lon="7.12676">
        <ele>346</ele>
        <time>2016-07-09T06:06:26Z</time>
      </trkpt>
      <trkpt lat="48.60492" lon="7.12676">
        <ele>346</ele>
        <time>2016-07-09T06:08:26Z</time>
      </trkpt>
      <trkpt lat="48.60508" lon="7.12677">
        <ele>346</ele>
        <time>2016-07-09T06:10:26Z</time>
      </trkpt>
      <trkpt lat="48.60525" lon="7.12679">
        <ele>346</ele>
        <time>2016-07-09T06:12:26Z</time>
      </trkpt>
      <trkpt lat="48.60536" lon="7.12681">
        <ele>346</ele>
        <time>2016-07-09T06:14:26Z</time>
      </trkpt>
      <trkpt lat="48.60545" lon="7.12683">
        <ele>346</ele>
        <time>2016-07-09T06:16:26Z</time>
      </trkpt>
      <trkpt lat="48.60555" lon="7.12686">
        <ele>345</ele>
        <time>2016-07-09T06:18:26Z</time>
      </trkpt>
      <trkpt lat="48.60574" lon="7.12695">
        <ele>345</ele>
        <time>2016-07-09T06:20:26Z</time>
      </trkpt>
      <trkpt lat="48.60581" lon="7.127">
        <ele>344</ele>
        <time>2016-07-09T06:22:26Z</time>
      </trkpt>
      <trkpt lat="48.60603" lon="7.12715">
        <ele>342</ele>
        <time>2016-07-09T06:24:26Z</time>
      </trkpt>
      <trkpt lat="48.60605" lon="7.12716">
        <ele>342</ele>
        <time>2016-07-09T06:26:26Z</time>
      </trkpt>
      <trkpt lat="48.60613" lon="7.12721">
        <ele>342</ele>
        <time>2016-07-09T06:28:26Z</time>
      </trkpt>
      <trkpt lat="48.60618" lon="7.12724">
        <ele>341</ele>
        <time>2016-07-09T06:30:26Z</time>
      </trkpt>
      <trkpt lat="48.60621" lon="7.12725">
        <ele>341</ele>
        <time>2016-07-09T06:32:26Z</time>
      </trkpt>
      <trkpt lat="48.60627" lon="7.12728">
        <ele>340</ele>
        <time>2016-07-09T06:34:26Z</time>
      </trkpt>
      <trkpt lat="48.60652" lon="7.12739">
        <ele>338</ele>
        <time>2016-07-09T06:36:26Z</time>
      </trkpt>
      <trkpt lat="48.60661" lon="7.12742">
        <ele>337</ele>
        <time>2016-07-09T06:38:26Z</time>
      </trkpt>
      <trkpt lat="48.60679" lon="7.12746">
        <ele>337</ele>
        <time>2016-07-09T06:40:26Z</time>
      </trkpt>
      <trkpt lat="48.60718" lon="7.12759">
        <ele>339</ele>
        <time>2016-07-09T06:42:26Z</time>
      </trkpt>
      <trkpt lat="48.60734" lon="7.12767">
        <ele>341</ele>
        <time>2016-07-09T06:44:26Z</time>
      </trkpt>
      <trkpt lat="48.60767" lon="7.12785">
        <ele>345</ele>
        <time>2016-07-09T06:46:26Z</time>
      </trkpt>
      <trkpt lat="48.60795" lon="7.12801">
        <ele>346</ele>
        <time>2016-07-09T06:48:26Z</time>
      </trkpt>
      <trkpt lat="48.60818" lon="7.12811">
        <ele>346</ele>
        <time>2016-07-09T06:50:26Z</time>
      </trkpt>
      <trkpt lat="48.60836" lon="7.12818">
        <ele>347</ele>
        <time>2016-07-09T06:52:26Z</time>
      </trkpt>
      <trkpt lat="48.60848" lon="7.1282">
        <ele>347</ele>
        <time>2016-07-09T06:54:26Z</time>
      </trkpt>
      <trkpt lat="48.60855" lon="7.12821">
        <ele>347</ele>
        <time>2016-07-09T06:56:26Z</time>
      </trkpt>
      <trkpt lat="48.60864" lon="7.12821">
        <ele>348</ele>
        <time>2016-07-09T06:58:26Z</time>
      </trkpt>
      <trkpt lat="48.60871" lon="7.12821">
        <ele>348</ele>
        <time>2016-07-09T07:00:26Z</time>
      </trkpt>
      <trkpt lat="48.60885" lon="7.12817">
        <ele>347</ele>
        <time>2016-07-09T07:02:26Z</time>
      </trkpt>
      <trkpt lat="48.60893" lon="7.12812">
        <ele>346</ele>
        <time>2016-07-09T07:04:26Z</time>
      </trkpt>
      <trkpt lat="48.60919" lon="7.12792">
        <ele>342</ele>
        <time>2016-07-09T07:06:26Z</time>
      </trkpt>
      <trkpt lat="48.60929" lon="7.12785">
        <ele>341</ele>
        <time>2016-07-09T07:08:26Z</time>
      </trkpt>
      <trkpt lat="48.60943" lon="7.12778">
        <ele>339</ele>
        <time>2016-07-09T07:10:26Z</time>
      </trkpt>
      <trkpt lat="48.60949" lon="7.12775">
        <ele>339</ele>
        <time>2016-07-09T07:12:26Z</time>
      </trkpt>
      <trkpt lat="48.60956" lon="7.12774">
        <ele>338</ele>
        <time>2016-07-09T07:14:26Z</time>
      </trkpt>
      <trkpt lat="48.60968" lon="7.12774">
        <ele>339</ele>
        <time>2016-07-09T07:16:26Z</time>
      </trkpt>
      <trkpt lat="48.60977" lon="7.12778">
        <ele>339</ele>
        <time>2016-07-09T07:18:26Z</time>
      </trkpt>
      <trkpt lat="48.6099" lon="7.12787">
        <ele>341</ele>
        <time>2016-07-09T07:20:26Z</time>
      </trkpt>
      <trkpt lat="48.61037" lon="7.12839">
        <ele>343</ele>
        <time>2016-07-09T07:22:26Z</time>
      </trkpt>
      <trkpt lat="48.61055" lon="7.12858">
        <ele>343</ele>
        <time>2016-07-09T07:24:26Z</time>
      </trkpt>
      <trkpt lat="48.61077" lon="7.12876">
        <ele>341</ele>
        <time>2016-07-09T07:26:26Z</time>
      </trkpt>
      <trkpt lat="48.61092" lon="7.12886">
        <ele>340</ele>
        <time>2016-07-09T07:28:26Z</time>
      </trkpt>
      <trkpt lat="48.61103" lon="7.12891">
        <ele>340</ele>
        <time>2016-07-09T07:30:26Z</time>
      </trkpt>
      <trkpt lat="48.61117" lon="7.12892">
        <ele>340</ele>
        <time>2016-07-09T07:32:26Z</time>
      </trkpt>
      <trkpt lat="48.61127" lon="7.12892">
        <ele>339</ele>
        <time>2016-07-09T07:34:26Z</time>
      </trkpt>
      <trkpt lat="48.6114" lon="7.1289">
        <ele>338</ele>
        <time>2016-07-09T07:36:26Z</time>
      </trkpt>
      <trkpt lat="48.61211" lon="7.12875">
        <ele>334</ele>
        <time>2016-07-09T07:38:26Z</time>
      </trkpt>
      <trkpt lat="48.6124" lon="7.12869">
        <ele>333</ele>
        <time>2016-07-09T07:40:26Z</time>
      </trkpt>
      <trkpt lat="48.61311" lon="7.12855">
        <ele>332</ele>
        <time>2016-07-09T07:42:26Z</time>
      </trkpt>
      <trkpt lat="48.61321" lon="7.12854">
        <ele>332</ele>
        <time>2016-07-09T07:44:26Z</time>
      </trkpt>
      <trkpt lat="48.61336" lon="7.12858">
        <ele>333</ele>
        <time>2016-07-09T07:46:26Z</time>
      </trkpt>
      <trkpt lat="48.6135" lon="7.12865">
        <ele>334</ele>
        <time>2016-07-09T07:48:26Z</time>
      </trkpt>
      <trkpt lat="48.61363" lon="7.12873">
        <ele>334</ele>
        <time>2016-07-09T07:50:26Z</time>
      </trkpt>
      <trkpt lat="48.61394" lon="7.12898">
        <ele>335</ele>
        <time>2016-07-09T07:52:26Z</time>
      </trkpt>
      <trkpt lat="48.61422" lon="7.1292">
        <ele>333</ele>
        <time>2016-07-09T07:54:26Z</time>
      </trkpt>
      <trkpt lat="48.61456" lon="7.12949">
        <ele>338</ele>
        <time>2016-07-09T07:56:26Z</time>
      </trkpt>
      <trkpt lat="48.61484" lon="7.12968">
        <ele>341</ele>
        <time>2016-07-09T07:58:26Z</time>
      </trkpt>
      <trkpt lat="48.6152" lon="7.12986">
        <ele>342</ele>
        <time>2016-07-09T08:00:26Z</time>
      </trkpt>
      <trkpt lat="48.61546" lon="7.12998">
        <ele>341</ele>
        <time>2016-07-09T08:02:26Z</time>
      </trkpt>
      <trkpt lat="48.61581" lon="7.1301">
        <ele>340</ele>
        <time>2016-07-09T08:04:26Z</time>
      </trkpt>
      <trkpt lat="48.61599" lon="7.13012">
        <ele>340</ele>
        <time>2016-07-09T08:06:26Z</time>
      </trkpt>
      <trkpt lat="48.61617" lon="7.13014">
        <ele>341</ele>
        <time>2016-07-09T08:08:26Z</time>
      </trkpt>
      <trkpt lat="48.6164" lon="7.13011">
        <ele>340</ele>
        <time>2016-07-09T08:10:26Z</time>
      </trkpt>
      <trkpt lat="48.61658" lon="7.13005">
        <ele>338</ele>
        <time>2016-07-09T08:12:26Z</time>
      </trkpt>
      <trkpt lat="48.61674" lon="7.12999">
        <ele>338</ele>
        <time>2016-07-09T08:14:26Z</time>
      </trkpt>
      <trkpt lat="48.61687" lon="7.12992">
        <ele>339</ele>
        <time>2016-07-09T08:16:26Z</time>
      </trkpt>
      <trkpt lat="48.61695" lon="7.12987">
        <ele>339</ele>
        <time>2016-07-09T08:18:26Z</time>
      </trkpt>
      <trkpt lat="48.61702" lon="7.12981">
        <ele>339</ele>
        <time>2016-07-09T08:20:26Z</time>
      </trkpt>
      <trkpt lat="48.61709" lon="7.12974">
        <ele>339</ele>
        <time>2016-07-09T08:22:26Z</time>
      </trkpt>
      <trkpt lat="48.61718" lon="7.12962">
        <ele>338</ele>
        <time>2016-07-09T08:24:26Z</time>
      </trkpt>
      <trkpt lat="48.61732" lon="7.12942">
        <ele>336</ele>
        <time>2016-07-09T08:26:26Z</time>
      </trkpt>
      <trkpt lat="48.61739" lon="7.12927">
        <ele>334</ele>
        <time>2016-07-09T08:28:26Z</time>
      </trkpt>
      <trkpt lat="48.61746" lon="7.12908">
        <ele>332</ele>
        <time>2016-07-09T08:30:26Z</time>
      </trkpt>
      <trkpt lat="48.61759" lon="7.12861">
        <ele>328</ele>
        <time>2016-07-09T08:32:26Z</time>
      </trkpt>
      <trkpt lat="48.61763" lon="7.12849">
        <ele>327</ele>
        <time>2016-07-09T08:34:26Z</time>
      </trkpt>
      <trkpt lat="48.61769" lon="7.12836">
        <ele>326</ele>
        <time>2016-07-09T08:36:26Z</time>
      </trkpt>
      <trkpt lat="48.61777" lon="7.12824">
        <ele>325</ele>
        <time>2016-07-09T08:38:26Z</time>
      </trkpt>
      <trkpt lat="48.61785" lon="7.12817">
        <ele>324</ele>
        <time>2016-07-09T08:40:26Z</time>
      </trkpt>
      <trkpt lat="48.61796" lon="7.12815">
        <ele>324</ele>
        <time>2016-07-09T08:42:26Z</time>
      </trkpt>
      <trkpt lat="48.61805" lon="7.12815">
        <ele>325</ele>
        <time>2016-07-09T08:44:26Z</time>
      </trkpt>
      <trkpt lat="48.61816" lon="7.1282">
        <ele>325</ele>
        <time>2016-07-09T08:46:26Z</time>
      </trkpt>
      <trkpt lat="48.61826" lon="7.12826">
        <ele>325</ele>
        <time>2016-07-09T08:48:26Z</time>
      </trkpt>
      <trkpt lat="48.61835" lon="7.12835">
        <ele>326</ele>
        <time>2016-07-09T08:50:26Z</time>
      </trkpt>
      <trkpt lat="48.61849" lon="7.12851">
        <ele>327</ele>
        <time>2016-07-09T08:52:26Z</time>
      </trkpt>
      <trkpt lat="48.61874" lon="7.12885">
        <ele>328</ele>
        <time>2016-07-09T08:54:26Z</time>
      </trkpt>
      <trkpt lat="48.61894" lon="7.12911">
        <ele>328</ele>
        <time>2016-07-09T08:56:26Z</time>
      </trkpt>
      <trkpt lat="48.6191" lon="7.12921">
        <ele>326</ele>
        <time>2016-07-09T08:58:26Z</time>
      </trkpt>
      <trkpt lat="48.61924" lon="7.12932">
        <ele>327</ele>
        <time>2016-07-09T09:00:26Z</time>
      </trkpt>
      <trkpt lat="48.61937" lon="7.1294">
        <ele>328</ele>
        <time>2016-07-09T09:02:26Z</time>
      </trkpt>
      <trkpt lat="48.61946" lon="7.12945">
        <ele>329</ele>
        <time>2016-07-09T09:04:26Z</time>
      </trkpt>
      <trkpt lat="48.61958" lon="7.1295">
        <ele>329</ele>
        <time>2016-07-09T09:06:26Z</time>
      </trkpt>
      <trkpt lat="48.6197" lon="7.12953">
        <ele>329</ele>
        <time>2016-07-09T09:08:26Z</time>
      </trkpt>
      <trkpt lat="48.61987" lon="7.12957">
        <ele>329</ele>
        <time>2016-07-09T09:10:26Z</time>
      </trkpt>
      <trkpt lat="48.62006" lon="7.1296">
        <ele>329</ele>
        <time>2016-07-09T09:12:26Z</time>
      </trkpt>
      <trkpt lat="48.62026" lon="7.12962">
        <ele>328</ele>
        <time>2016-07-09T09:14:26Z</time>
      </trkpt>
      <trkpt lat="48.6204" lon="7.12962">
        <ele>327</ele>
        <time>2016-07-09T09:16:26Z</time>
      </trkpt>
      <trkpt lat="48.62056" lon="7.12962">
        <ele>327</ele>
        <time>2016-07-09T09:18:26Z</time>
      </trkpt>
      <trkpt lat="48.62066" lon="7.12959">
        <ele>326</ele>
        <time>2016-07-09T09:20:26Z</time>
      </trkpt>
      <trkpt lat="48.62076" lon="7.12956">
        <ele>324</ele>
        <time>2016-07-09T09:22:26Z</time>
      </trkpt>
      <trkpt lat="48.621" lon="7.12942">
        <ele>322</ele>
        <time>2016-07-09T09:24:26Z</time>
      </trkpt>
      <trkpt lat="48.62128" lon="7.12919">
        <ele>318</ele>
        <time>2016-07-09T09:26:26Z</time>
      </trkpt>
      <trkpt lat="48.62155" lon="7.12899">
        <ele>317</ele>
        <time>2016-07-09T09:28:26Z</time>
      </trkpt>
      <trkpt lat="48.62173" lon="7.12889">
        <ele>315</ele>
        <time>2016-07-09T09:30:26Z</time>
      </trkpt>
      <trkpt lat="48.6219" lon="7.12887">
        <ele>314</ele>
        <time>2016-07-09T09:32:26Z</time>
      </trkpt>
      <trkpt lat="48.622" lon="7.12887">
        <ele>313</ele>
        <time>2016-07-09T09:34:26Z</time>
      </trkpt>
      <trkpt lat="48.62208" lon="7.1289">
        <ele>313</ele>
        <time>2016-07-09T09:36:26Z</time>
      </trkpt>
      <trkpt lat="48.62215" lon="7.12894">
        <ele>312</ele>
        <time>2016-07-09T09:38:26Z</time>
      </trkpt>
      <trkpt lat="48.62217" lon="7.12894">
        <ele>312</ele>
        <time>2016-07-09T09:40:26Z</time>
      </trkpt>
      <trkpt lat="48.62225" lon="7.12902">
        <ele>312</ele>
        <time>2016-07-09T09:42:26Z</time>
      </trkpt>
      <trkpt lat="48.62247" lon="7.12928">
        <ele>310</ele>
        <time>2016-07-09T09:44:26Z</time>
      </trkpt>
      <trkpt lat="48.62253" lon="7.12935">
        <ele>309</ele>
        <time>2016-07-09T09:46:26Z</time>
      </trkpt>
      <trkpt lat="48.62296" lon="7.12974">
        <ele>309</ele>
        <time>2016-07-09T09:48:26Z</time>
      </trkpt>
      <trkpt lat="48.62323" lon="7.12999">
        <ele>308</ele>
        <time>2016-07-09T09:50:26Z</time>
      </trkpt>
      <trkpt lat="48.62328" lon="7.13004">
        <ele>308</ele>
        <time>2016-07-09T09:52:26Z</time>
      </trkpt>
      <trkpt lat="48.62338" lon="7.13013">
        <ele>309</ele>
        <time>2016-07-09T09:54:26Z</time>
      </trkpt>
      <trkpt lat="48.62351" lon="7.13023">
        <ele>310</ele>
        <time>2016-07-09T09:56:26Z</time>
      </trkpt>
      <trkpt lat="48.62373" lon="7.13038">
        <ele>313</ele>
        <time>2016-07-09T09:58:26Z</time>
      </trkpt>
      <trkpt lat="48.62412" lon="7.13057">
        <ele>318</ele>
        <time>2016-07-09T10:00:26Z</time>
      </trkpt>
      <trkpt lat="48.62435" lon="7.13065">
        <ele>320</ele>
        <time>2016-07-09T10:02:26Z</time>
      </trkpt>
      <trkpt lat="48.62448" lon="7.13066">
        <ele>320</ele>
        <time>2016-07-09T10:04:26Z</time>
      </trkpt>
      <trkpt lat="48.62459" lon="7.13065">
        <ele>321</ele>
        <time>2016-07-09T10:06:26Z</time>
      </trkpt>
      <trkpt lat="48.62481" lon="7.13058">
        <ele>320</ele>
        <time>2016-07-09T10:08:26Z</time>
      </trkpt>
      <trkpt lat="48.62497" lon="7.13047">
        <ele>319</ele>
        <time>2016-07-09T10:10:26Z</time>
      </trkpt>
      <trkpt lat="48.62517" lon="7.13035">
        <ele>320</ele>
        <time>2016-07-09T10:12:26Z</time>
      </trkpt>
      <trkpt lat="48.6253" lon="7.13023">
        <ele>321</ele>
        <time>2016-07-09T10:14:26Z</time>
      </trkpt>
      <trkpt lat="48.62543" lon="7.13008">
        <ele>322</ele>
        <time>2016-07-09T10:16:26Z</time>
      </trkpt>
      <trkpt lat="48.62553" lon="7.12986">
        <ele>322</ele>
        <time>2016-07-09T10:18:26Z</time>
      </trkpt>
      <trkpt lat="48.6256" lon="7.12967">
        <ele>322</ele>
        <time>2016-07-09T10:20:26Z</time>
      </trkpt>
      <trkpt lat="48.62566" lon="7.12951">
        <ele>322</ele>
        <time>2016-07-09T10:22:26Z</time>
      </trkpt>
      <trkpt lat="48.6257" lon="7.1291">
        <ele>319</ele>
        <time>2016-07-09T10:24:26Z</time>
      </trkpt>
      <trkpt lat="48.62574" lon="7.12859">
        <ele>319</ele>
        <time>2016-07-09T10:26:26Z</time>
      </trkpt>
      <trkpt lat="48.62575" lon="7.12809">
        <ele>321</ele>
        <time>2016-07-09T10:28:26Z</time>
      </trkpt>
      <trkpt lat="48.62573" lon="7.12782">
        <ele>322</ele>
        <time>2016-07-09T10:30:26Z</time>
      </trkpt>
      <trkpt lat="48.6257" lon="7.12756">
        <ele>322</ele>
        <time>2016-07-09T10:32:26Z</time>
      </trkpt>
      <trkpt lat="48.62564" lon="7.12717">
        <ele>321</ele>
        <time>2016-07-09T10:34:26Z</time>
      </trkpt>
      <trkpt lat="48.62562" lon="7.12702">
        <ele>321</ele>
        <time>2016-07-09T10:36:26Z</time>
      </trkpt>
      <trkpt lat="48.62561" lon="7.12692">
        <ele>321</ele>
        <time>2016-07-09T10:38:26Z</time>
      </trkpt>
      <trkpt lat="48.6256" lon="7.12687">
        <ele>320</ele>
        <time>2016-07-09T10:40:26Z</time>
      </trkpt>
      <trkpt lat="48.62559" lon="7.12679">
        <ele>320</ele>
        <time>2016-07-09T10:42:26Z</time>
      </trkpt>
      <trkpt lat="48.62558" lon="7.12666">
        <ele>320</ele>
        <time>2016-07-09T10:44:26Z</time>
      </trkpt>
      <trkpt lat="48.62558" lon="7.12657">
        <ele>320</ele>
        <time>2016-07-09T10:46:26Z</time>
      </trkpt>
      <trkpt lat="48.62558" lon="7.12645">
        <ele>319</ele>
        <time>2016-07-09T10:48:26Z</time>
      </trkpt>
      <trkpt lat="48.62558" lon="7.12637">
        <ele>319</ele>
        <time>2016-07-09T10:50:26Z</time>
      </trkpt>
      <trkpt lat="48.62558" lon="7.12632">
        <ele>319</ele>
        <time>2016-07-09T10:52:26Z</time>
      </trkpt>
      <trkpt lat="48.62558" lon="7.12627">
        <ele>318</ele>
        <time>2016-07-09T10:54:26Z</time>
      </trkpt>
      <trkpt lat="48.62559" lon="7.12615">
        <ele>318</ele>
        <time>2016-07-09T10:56:26Z</time>
      </trkpt>
      <trkpt lat="48.62562" lon="7.1259">
        <ele>317</ele>
        <time>2016-07-09T10:58:26Z</time>
      </trkpt>
      <trkpt lat="48.62567" lon="7.12568">
        <ele>318</ele>
        <time>2016-07-09T11:00:26Z</time>
      </trkpt>
      <trkpt lat="48.62574" lon="7.12546">
        <ele>318</ele>
        <time>2016-07-09T11:02:26Z</time>
      </trkpt>
      <trkpt lat="48.62578" lon="7.12537">
        <ele>318</ele>
        <time>2016-07-09T11:04:26Z</time>
      </trkpt>
      <trkpt lat="48.62583" lon="7.12528">
        <ele>318</ele>
        <time>2016-07-09T11:06:26Z</time>
      </trkpt>
      <trkpt lat="48.62589" lon="7.12521">
        <ele>318</ele>
        <time>2016-07-09T11:08:26Z</time>
      </trkpt>
      <trkpt lat="48.62597" lon="7.12514">
        <ele>318</ele>
        <time>2016-07-09T11:10:26Z</time>
      </trkpt>
      <trkpt lat="48.62604" lon="7.12509">
        <ele>318</ele>
        <time>2016-07-09T11:12:26Z</time>
      </trkpt>
      <trkpt lat="48.62612" lon="7.12504">
        <ele>317</ele>
        <time>2016-07-09T11:14:26Z</time>
      </trkpt>
      <trkpt lat="48.62629" lon="7.125">
        <ele>317</ele>
        <time>2016-07-09T11:16:26Z</time>
      </trkpt>
      <trkpt lat="48.62638" lon="7.12499">
        <ele>317</ele>
        <time>2016-07-09T11:18:26Z</time>
      </trkpt>
      <trkpt lat="48.62658" lon="7.12497">
        <ele>318</ele>
        <time>2016-07-09T11:20:26Z</time>
      </trkpt>
      <trkpt lat="48.62687" lon="7.12495">
        <ele>317</ele>
        <time>2016-07-09T11:22:26Z</time>
      </trkpt>
      <trkpt lat="48.627" lon="7.12493">
        <ele>316</ele>
        <time>2016-07-09T11:24:26Z</time>
      </trkpt>
      <trkpt lat="48.62721" lon="7.12486">
        <ele>315</ele>
        <time>2016-07-09T11:26:26Z</time>
      </trkpt>
      <trkpt lat="48.62751" lon="7.12473">
        <ele>312</ele>
        <time>2016-07-09T11:28:26Z</time>
      </trkpt>
      <trkpt lat="48.6276" lon="7.12468">
        <ele>313</ele>
        <time>2016-07-09T11:30:26Z</time>
      </trkpt>
      <trkpt lat="48.6277" lon="7.1246">
        <ele>313</ele>
        <time>2016-07-09T11:32:26Z</time>
      </trkpt>
      <trkpt lat="48.62786" lon="7.12445">
        <ele>314</ele>
        <time>2016-07-09T11:34:26Z</time>
      </trkpt>
      <trkpt lat="48.62794" lon="7.12437">
        <ele>314</ele>
        <time>2016-07-09T11:36:26Z</time>
      </trkpt>
      <trkpt lat="48.628" lon="7.1243">
        <ele>313</ele>
        <time>2016-07-09T11:38:26Z</time>
      </trkpt>
      <trkpt lat="48.6281" lon="7.12417">
        <ele>313</ele>
        <time>2016-07-09T11:40:26Z</time>
      </trkpt>
      <trkpt lat="48.62817" lon="7.12406">
        <ele>313</ele>
        <time>2016-07-09T11:42:26Z</time>
      </trkpt>
      <trkpt lat="48.62823" lon="7.12394">
        <ele>314</ele>
        <time>2016-07-09T11:44:26Z</time>
      </trkpt>
      <trkpt lat="48.62831" lon="7.12377">
        <ele>314</ele>
        <time>2016-07-09T11:46:26Z</time>
      </trkpt>
      <trkpt lat="48.62838" lon="7.12355">
        <ele>315</ele>
        <time>2016-07-09T11:48:26Z</time>
      </trkpt>
      <trkpt lat="48.62843" lon="7.12331">
        <ele>316</ele>
        <time>2016-07-09T11:50:26Z</time>
      </trkpt>
      <trkpt lat="48.62845" lon="7.12318">
        <ele>317</ele>
        <time>2016-07-09T11:52:26Z</time>
      </trkpt>
      <trkpt lat="48.62846" lon="7.12294">
        <ele>317</ele>
        <time>2016-07-09T11:54:26Z</time>
      </trkpt>
      <trkpt lat="48.62846" lon="7.12255">
        <ele>318</ele>
        <time>2016-07-09T11:56:26Z</time>
      </trkpt>
      <trkpt lat="48.62845" lon="7.12192">
        <ele>316</ele>
        <time>2016-07-09T11:58:26Z</time>
      </trkpt>
      <trkpt lat="48.62842" lon="7.12133">
        <ele>313</ele>
        <time>2016-07-09T12:00:26Z</time>
      </trkpt>
      <trkpt lat="48.62842" lon="7.12114">
        <ele>312</ele>
        <time>2016-07-09T12:02:26Z</time>
      </trkpt>
      <trkpt lat="48.62843" lon="7.12104">
        <ele>311</ele>
        <time>2016-07-09T12:04:26Z</time>
      </trkpt>
      <trkpt lat="48.6285" lon="7.12072">
        <ele>311</ele>
        <time>2016-07-09T12:06:26Z</time>
      </trkpt>
      <trkpt lat="48.62859" lon="7.12047">
        <ele>312</ele>
        <time>2016-07-09T12:08:26Z</time>
      </trkpt>
      <trkpt lat="48.6287" lon="7.12021">
        <ele>313</ele>
        <time>2016-07-09T12:10:26Z</time>
      </trkpt>
      <trkpt lat="48.62885" lon="7.11987">
        <ele>314</ele>
        <time>2016-07-09T12:12:26Z</time>
      </trkpt>
      <trkpt lat="48.62896" lon="7.11964">
        <ele>312</ele>
        <time>2016-07-09T12:14:26Z</time>
      </trkpt>
      <trkpt lat="48.62903" lon="7.11951">
        <ele>311</ele>
        <time>2016-07-09T12:16:26Z</time>
      </trkpt>
      <trkpt lat="48.6291" lon="7.11942">
        <ele>310</ele>
        <time>2016-07-09T12:18:26Z</time>
      </trkpt>
      <trkpt lat="48.62919" lon="7.11933">
        <ele>309</ele>
        <time>2016-07-09T12:20:26Z</time>
      </trkpt>
      <trkpt lat="48.62926" lon="7.11925">
        <ele>308</ele>
        <time>2016-07-09T12:22:26Z</time>
      </trkpt>
      <trkpt lat="48.62932" lon="7.11921">
        <ele>307</ele>
        <time>2016-07-09T12:24:26Z</time>
      </trkpt>
      <trkpt lat="48.62946" lon="7.1191">
        <ele>306</ele>
        <time>2016-07-09T12:26:26Z</time>
      </trkpt>
      <trkpt lat="48.62952" lon="7.11906">
        <ele>306</ele>
        <time>2016-07-09T12:28:26Z</time>
      </trkpt>
      <trkpt lat="48.62958" lon="7.11901">
        <ele>306</ele>
        <time>2016-07-09T12:30:26Z</time>
      </trkpt>
      <trkpt lat="48.62962" lon="7.11897">
        <ele>305</ele>
        <time>2016-07-09T12:32:26Z</time>
      </trkpt>
      <trkpt lat="48.62968" lon="7.11891">
        <ele>305</ele>
        <time>2016-07-09T12:34:26Z</time>
      </trkpt>
      <trkpt lat="48.6298" lon="7.11875">
        <ele>304</ele>
        <time>2016-07-09T12:36:26Z</time>
      </trkpt>
      <trkpt lat="48.62985" lon="7.11868">
        <ele>304</ele>
        <time>2016-07-09T12:38:26Z</time>
      </trkpt>
      <trkpt lat="48.62989" lon="7.1186">
        <ele>303</ele>
        <time>2016-07-09T12:40:26Z</time>
      </trkpt>
      <trkpt lat="48.62994" lon="7.11851">
        <ele>302</ele>
        <time>2016-07-09T12:42:26Z</time>
      </trkpt>
      <trkpt lat="48.62997" lon="7.11844">
        <ele>302</ele>
        <time>2016-07-09T12:44:26Z</time>
      </trkpt>
      <trkpt lat="48.63007" lon="7.11822">
        <ele>302</ele>
        <time>2016-07-09T12:46:26Z</time>
      </trkpt>
      <trkpt lat="48.6301" lon="7.11812">
        <ele>302</ele>
        <time>2016-07-09T12:48:26Z</time>
      </trkpt>
      <trkpt lat="48.63016" lon="7.11798">
        <ele>304</ele>
        <time>2016-07-09T12:50:26Z</time>
      </trkpt>
      <trkpt lat="48.63024" lon="7.11772">
        <ele>306</ele>
        <time>2016-07-09T12:52:26Z</time>
      </trkpt>
      <trkpt lat="48.63025" lon="7.11768">
        <ele>306</ele>
        <time>2016-07-09T12:54:26Z</time>
      </trkpt>
      <trkpt lat="48.63026" lon="7.11757">
        <ele>306</ele>
        <time>2016-07-09T12:56:26Z</time>
      </trkpt>
      <trkpt lat="48.63026" lon="7.11757">
        <ele>306</ele>
        <time>2016-07-09T12:58:26Z</time>
      </trkpt>
      <trkpt lat="48.6303" lon="7.1176">
        <ele>307</ele>
        <time>2016-07-09T13:00:26Z</time>
      </trkpt>
      <trkpt lat="48.63031" lon="7.11761">
        <ele>307</ele>
        <time>2016-07-09T13:02:26Z</time>
      </trkpt>
      <trkpt lat="48.63085" lon="7.11818">
        <ele>311</ele>
        <time>2016-07-09T13:04:26Z</time>
      </trkpt>
      <trkpt lat="48.63101" lon="7.11833">
        <ele>312</ele>
        <time>2016-07-09T13:06:26Z</time>
      </trkpt>
      <trkpt lat="48.63117" lon="7.11847">
        <ele>314</ele>
        <time>2016-07-09T13:08:26Z</time>
      </trkpt>
      <trkpt lat="48.63128" lon="7.11855">
        <ele>315</ele>
        <time>2016-07-09T13:10:26Z</time>
      </trkpt>
      <trkpt lat="48.63158" lon="7.11875">
        <ele>316</ele>
        <time>2016-07-09T13:12:26Z</time>
      </trkpt>
      <trkpt lat="48.63246" lon="7.1193">
        <ele>324</ele>
        <time>2016-07-09T13:14:26Z</time>
      </trkpt>
      <trkpt lat="48.63264" lon="7.11942">
        <ele>326</ele>
        <time>2016-07-09T13:16:26Z</time>
      </trkpt>
      <trkpt lat="48.63283" lon="7.11958">
        <ele>328</ele>
        <time>2016-07-09T13:18:26Z</time>
      </trkpt>
      <trkpt lat="48.63307" lon="7.11981">
        <ele>329</ele>
        <time>2016-07-09T13:20:26Z</time>
      </trkpt>
      <trkpt lat="48.63327" lon="7.12003">
        <ele>330</ele>
        <time>2016-07-09T13:22:26Z</time>
      </trkpt>
      <trkpt lat="48.63363" lon="7.12044">
        <ele>329</ele>
        <time>2016-07-09T13:24:26Z</time>
      </trkpt>
      <trkpt lat="48.63385" lon="7.12073">
        <ele>327</ele>
        <time>2016-07-09T13:26:26Z</time>
      </trkpt>
      <trkpt lat="48.63401" lon="7.12096">
        <ele>326</ele>
        <time>2016-07-09T13:28:26Z</time>
      </trkpt>
      <trkpt lat="48.63422" lon="7.12135">
        <ele>323</ele>
        <time>2016-07-09T13:30:26Z</time>
      </trkpt>
      <trkpt lat="48.63444" lon="7.12177">
        <ele>321</ele>
        <time>2016-07-09T13:32:26Z</time>
      </trkpt>
      <trkpt lat="48.63477" lon="7.12247">
        <ele>321</ele>
        <time>2016-07-09T13:34:26Z</time>
      </trkpt>
      <trkpt lat="48.63492" lon="7.12282">
        <ele>322</ele>
        <time>2016-07-09T13:36:26Z</time>
      </trkpt>
      <trkpt lat="48.63503" lon="7.12309">
        <ele>322</ele>
        <time>2016-07-09T13:38:26Z</time>
      </trkpt>
      <trkpt lat="48.63515" lon="7.12338">
        <ele>324</ele>
        <time>2016-07-09T13:40:26Z</time>
      </trkpt>
      <trkpt lat="48.63529" lon="7.12381">
        <ele>325</ele>
        <time>2016-07-09T13:42:26Z</time>
      </trkpt>
      <trkpt lat="48.63542" lon="7.12425">
        <ele>326</ele>
        <time>2016-07-09T13:44:26Z</time>
      </trkpt>
      <trkpt lat="48.6355" lon="7.12454">
        <ele>326</ele>
        <time>2016-07-09T13:46:26Z</time>
      </trkpt>
      <trkpt lat="48.6356" lon="7.12498">
        <ele>324</ele>
        <time>2016-07-09T13:48:26Z</time>
      </trkpt>
      <trkpt lat="48.63566" lon="7.12529">
        <ele>325</ele>
        <time>2016-07-09T13:50:26Z</time>
      </trkpt>
      <trkpt lat="48.63568" lon="7.12544">
        <ele>325</ele>
        <time>2016-07-09T13:52:26Z</time>
      </trkpt>
      <trkpt lat="48.6357" lon="7.12559">
        <ele>325</ele>
        <time>2016-07-09T13:54:26Z</time>
      </trkpt>
      <trkpt lat="48.63574" lon="7.12591">
        <ele>324</ele>
        <time>2016-07-09T13:56:26Z</time>
      </trkpt>
      <trkpt lat="48.63582" lon="7.1265">
        <ele>324</ele>
        <time>2016-07-09T13:58:26Z</time>
      </trkpt>
      <trkpt lat="48.63598" lon="7.12783">
        <ele>324</ele>
        <time>2016-07-09T14:00:26Z</time>
      </trkpt>
      <trkpt lat="48.63603" lon="7.12813">
        <ele>324</ele>
        <time>2016-07-09T14:02:26Z</time>
      </trkpt>
      <trkpt lat="48.63609" lon="7.12849">
        <ele>324</ele>
        <time>2016-07-09T14:04:26Z</time>
      </trkpt>
      <trkpt lat="48.63614" lon="7.12872">
        <ele>324</ele>
        <time>2016-07-09T14:06:26Z</time>
      </trkpt>
      <trkpt lat="48.63623" lon="7.12905">
        <ele>324</ele>
        <time>2016-07-09T14:08:26Z</time>
      </trkpt>
      <trkpt lat="48.6363" lon="7.12926">
        <ele>324</ele>
        <time>2016-07-09T14:10:26Z</time>
      </trkpt>
      <trkpt lat="48.63651" lon="7.12984">
        <ele>324</ele>
        <time>2016-07-09T14:12:26Z</time>
      </trkpt>
      <trkpt lat="48.63665" lon="7.13019">
        <ele>323</ele>
        <time>2016-07-09T14:14:26Z</time>
      </trkpt>
      <trkpt lat="48.63675" lon="7.13043">
        <ele>324</ele>
        <time>2016-07-09T14:16:26Z</time>
      </trkpt>
      <trkpt lat="48.63683" lon="7.13057">
        <ele>324</ele>
        <time>2016-07-09T14:18:26Z</time>
      </trkpt>
      <trkpt lat="48.637" lon="7.1308">
        <ele>324</ele>
        <time>2016-07-09T14:20:26Z</time>
      </trkpt>
      <trkpt lat="48.63714" lon="7.13094">
        <ele>325</ele>
        <time>2016-07-09T14:22:26Z</time>
      </trkpt>
      <trkpt lat="48.63732" lon="7.13112">
        <ele>325</ele>
        <time>2016-07-09T14:24:26Z</time>
      </trkpt>
      <trkpt lat="48.6374" lon="7.13119">
        <ele>325</ele>
        <time>2016-07-09T14:26:26Z</time>
      </trkpt>
      <trkpt lat="48.63755" lon="7.13125">
        <ele>326</ele>
        <time>2016-07-09T14:28:26Z</time>
      </trkpt>
      <trkpt lat="48.63763" lon="7.13132">
        <ele>327</ele>
        <time>2016-07-09T14:30:26Z</time>
      </trkpt>
      <trkpt lat="48.63778" lon="7.13155">
        <ele>328</ele>
        <time>2016-07-09T14:32:26Z</time>
      </trkpt>
      <trkpt lat="48.63799" lon="7.13179">
        <ele>328</ele>
        <time>2016-07-09T14:34:26Z</time>
      </trkpt>
      <trkpt lat="48.63828" lon="7.13205">
        <ele>329</ele>
        <time>2016-07-09T14:36:26Z</time>
      </trkpt>
      <trkpt lat="48.63836" lon="7.13212">
        <ele>329</ele>
        <time>2016-07-09T14:38:26Z</time>
      </trkpt>
      <trkpt lat="48.63848" lon="7.13223">
        <ele>330</ele>
        <time>2016-07-09T14:40:26Z</time>
      </trkpt>
      <trkpt lat="48.63862" lon="7.13243">
        <ele>331</ele>
        <time>2016-07-09T14:42:26Z</time>
      </trkpt>
      <trkpt lat="48.63883" lon="7.13275">
        <ele>333</ele>
        <time>2016-07-09T14:44:26Z</time>
      </trkpt>
      <trkpt lat="48.63902" lon="7.13305">
        <ele>335</ele>
        <time>2016-07-09T14:46:26Z</time>
      </trkpt>
      <trkpt lat="48.63931" lon="7.13345">
        <ele>336</ele>
        <time>2016-07-09T14:48:26Z</time>
      </trkpt>
      <trkpt lat="48.63991" lon="7.13414">
        <ele>335</ele>
        <time>2016-07-09T14:50:26Z</time>
      </trkpt>
      <trkpt lat="48.64022" lon="7.13452">
        <ele>340</ele>
        <time>2016-07-09T14:52:26Z</time>
      </trkpt>
      <trkpt lat="48.64031" lon="7.13466">
        <ele>342</ele>
        <time>2016-07-09T14:54:26Z</time>
      </trkpt>
      <trkpt lat="48.64038" lon="7.13483">
        <ele>344</ele>
        <time>2016-07-09T14:56:26Z</time>
      </trkpt>
      <trkpt lat="48.64049" lon="7.13508">
        <ele>346</ele>
        <time>2016-07-09T14:58:26Z</time>
      </trkpt>
      <trkpt lat="48.64058" lon="7.13529">
        <ele>349</ele>
        <time>2016-07-09T15:00:26Z</time>
      </trkpt>
      <trkpt lat="48.64059" lon="7.13532">
        <ele>349</ele>
        <time>2016-07-09T15:02:26Z</time>
      </trkpt>
      <trkpt lat="48.64075" lon="7.1358">
        <ele>352</ele>
        <time>2016-07-09T15:04:26Z</time>
      </trkpt>
      <trkpt lat="48.64088" lon="7.13613">
        <ele>356</ele>
        <time>2016-07-09T15:06:26Z</time>
      </trkpt>
      <trkpt lat="48.64095" lon="7.13632">
        <ele>358</ele>
        <time>2016-07-09T15:08:26Z</time>
      </trkpt>
      <trkpt lat="48.64099" lon="7.13644">
        <ele>359</ele>
        <time>2016-07-09T15:10:26Z</time>
      </trkpt>
      <trkpt lat="48.64104" lon="7.13657">
        <ele>360</ele>
        <time>2016-07-09T15:12:26Z</time>
      </trkpt>
      <trkpt lat="48.64112" lon="7.13673">
        <ele>362</ele>
        <time>2016-07-09T15:14:26Z</time>
      </trkpt>
      <trkpt lat="48.64125" lon="7.1369">
        <ele>364</ele>
        <time>2016-07-09T15:16:26Z</time>
      </trkpt>
      <trkpt lat="48.64132" lon="7.13696">
        <ele>365</ele>
        <time>2016-07-09T15:18:26Z</time>
      </trkpt>
      <trkpt lat="48.64139" lon="7.13701">
        <ele>366</ele>
        <time>2016-07-09T15:20:26Z</time>
      </trkpt>
      <trkpt lat="48.64148" lon="7.13706">
        <ele>367</ele>
        <time>2016-07-09T15:22:26Z</time>
      </trkpt>
      <trkpt lat="48.64156" lon="7.13709">
        <ele>368</ele>
        <time>2016-07-09T15:24:26Z</time>
      </trkpt>
      <trkpt lat="48.64163" lon="7.13709">
        <ele>369</ele>
        <time>2016-07-09T15:26:26Z</time>
      </trkpt>
      <trkpt lat="48.64172" lon="7.1371">
        <ele>371</ele>
        <time>2016-07-09T15:28:26Z</time>
      </trkpt>
      <trkpt lat="48.64182" lon="7.13706">
        <ele>372</ele>
        <time>2016-07-09T15:30:26Z</time>
      </trkpt>
      <trkpt lat="48.64188" lon="7.13705">
        <ele>373</ele>
        <time>2016-07-09T15:32:26Z</time>
      </trkpt>
      <trkpt lat="48.64198" lon="7.13699">
        <ele>376</ele>
        <time>2016-07-09T15:34:26Z</time>
      </trkpt>
      <trkpt lat="48.64208" lon="7.13694">
        <ele>378</ele>
        <time>2016-07-09T15:36:26Z</time>
      </trkpt>
      <trkpt lat="48.64223" lon="7.13686">
        <ele>381</ele>
        <time>2016-07-09T15:38:26Z</time>
      </trkpt>
      <trkpt lat="48.64242" lon="7.13685">
        <ele>384</ele>
        <time>2016-07-09T15:40:26Z</time>
      </trkpt>
      <trkpt lat="48.64248" lon="7.13684">
        <ele>385</ele>
        <time>2016-07-09T15:42:26Z</time>
      </trkpt>
      <trkpt lat="48.64255" lon="7.13687">
        <ele>386</ele>
        <time>2016-07-09T15:44:26Z</time>
      </trkpt>
      <trkpt lat="48.64264" lon="7.13687">
        <ele>388</ele>
        <time>2016-07-09T15:46:26Z</time>
      </trkpt>
      <trkpt lat="48.6429" lon="7.13711">
        <ele>389</ele>
        <time>2016-07-09T15:48:26Z</time>
      </trkpt>
      <trkpt lat="48.64311" lon="7.13729">
        <ele>390</ele>
        <time>2016-07-09T15:50:26Z</time>
      </trkpt>
      <trkpt lat="48.64324" lon="7.13748">
        <ele>390</ele>
        <time>2016-07-09T15:52:26Z</time>
      </trkpt>
      <trkpt lat="48.6433" lon="7.13758">
        <ele>390</ele>
        <time>2016-07-09T15:54:26Z</time>
      </trkpt>
      <trkpt lat="48.64339" lon="7.1378">
        <ele>391</ele>
        <time>2016-07-09T15:56:26Z</time>
      </trkpt>
      <trkpt lat="48.64342" lon="7.13791">
        <ele>392</ele>
        <time>2016-07-09T15:58:26Z</time>
      </trkpt>
      <trkpt lat="48.64343" lon="7.13801">
        <ele>392</ele>
        <time>2016-07-09T16:00:26Z</time>
      </trkpt>
      <trkpt lat="48.64346" lon="7.13816">
        <ele>392</ele>
        <time>2016-07-09T16:02:26Z</time>
      </trkpt>
      <trkpt lat="48.64346" lon="7.13828">
        <ele>392</ele>
        <time>2016-07-09T16:04:26Z</time>
      </trkpt>
      <trkpt lat="48.64346" lon="7.13843">
        <ele>392</ele>
        <time>2016-07-09T16:06:26Z</time>
      </trkpt>
      <trkpt lat="48.64345" lon="7.13859">
        <ele>393</ele>
        <time>2016-07-09T16:08:26Z</time>
      </trkpt>
      <trkpt lat="48.64341" lon="7.13884">
        <ele>394</ele>
        <time>2016-07-09T16:10:26Z</time>
      </trkpt>
      <trkpt lat="48.64338" lon="7.139">
        <ele>394</ele>
        <time>2016-07-09T16:12:26Z</time>
      </trkpt>
      <trkpt lat="48.64336" lon="7.13917">
        <ele>395</ele>
        <time>2016-07-09T16:14:26Z</time>
      </trkpt>
      <trkpt lat="48.64331" lon="7.13946">
        <ele>397</ele>
        <time>2016-07-09T16:16:26Z</time>
      </trkpt>
      <trkpt lat="48.64328" lon="7.13973">
        <ele>400</ele>
        <time>2016-07-09T16:18:26Z</time>
      </trkpt>
      <trkpt lat="48.64324" lon="7.13993">
        <ele>402</ele>
        <time>2016-07-09T16:20:26Z</time>
      </trkpt>
      <trkpt lat="48.6432" lon="7.14006">
        <ele>404</ele>
        <time>2016-07-09T16:22:26Z</time>
      </trkpt>
      <trkpt lat="48.64313" lon="7.14027">
        <ele>406</ele>
        <time>2016-07-09T16:24:26Z</time>
      </trkpt>
      <trkpt lat="48.64282" lon="7.14073">
        <ele>409</ele>
        <time>2016-07-09T16:26:26Z</time>
      </trkpt>
      <trkpt lat="48.64258" lon="7.14098">
        <ele>411</ele>
        <time>2016-07-09T16:28:26Z</time>
      </trkpt>
      <trkpt lat="48.64248" lon="7.14106">
        <ele>412</ele>
        <time>2016-07-09T16:30:26Z</time>
      </trkpt>
      <trkpt lat="48.64239" lon="7.14113">
        <ele>414</ele>
        <time>2016-07-09T16:32:26Z</time>
      </trkpt>
      <trkpt lat="48.6423" lon="7.14119">
        <ele>416</ele>
        <time>2016-07-09T16:34:26Z</time>
      </trkpt>
      <trkpt lat="48.64221" lon="7.14125">
        <ele>418</ele>
        <time>2016-07-09T16:36:26Z</time>
      </trkpt>
      <trkpt lat="48.64207" lon="7.14126">
        <ele>418</ele>
        <time>2016-07-09T16:38:26Z</time>
      </trkpt>
      <trkpt lat="48.64184" lon="7.14125">
        <ele>419</ele>
        <time>2016-07-09T16:40:26Z</time>
      </trkpt>
      <trkpt lat="48.64161" lon="7.14121">
        <ele>418</ele>
        <time>2016-07-09T16:42:26Z</time>
      </trkpt>
      <trkpt lat="48.64133" lon="7.1412">
        <ele>417</ele>
        <time>2016-07-09T16:44:26Z</time>
      </trkpt>
      <trkpt lat="48.64117" lon="7.14123">
        <ele>417</ele>
        <time>2016-07-09T16:46:26Z</time>
      </trkpt>
      <trkpt lat="48.64101" lon="7.14131">
        <ele>419</ele>
        <time>2016-07-09T16:48:26Z</time>
      </trkpt>
      <trkpt lat="48.64094" lon="7.14139">
        <ele>420</ele>
        <time>2016-07-09T16:50:26Z</time>
      </trkpt>
      <trkpt lat="48.64081" lon="7.14154">
        <ele>421</ele>
        <time>2016-07-09T16:52:26Z</time>
      </trkpt>
      <trkpt lat="48.64066" lon="7.1418">
        <ele>419</ele>
        <time>2016-07-09T16:54:26Z</time>
      </trkpt>
      <trkpt lat="48.64057" lon="7.14209">
        <ele>419</ele>
        <time>2016-07-09T16:56:26Z</time>
      </trkpt>
      <trkpt lat="48.64045" lon="7.14262">
        <ele>421</ele>
        <time>2016-07-09T16:58:26Z</time>
      </trkpt>
      <trkpt lat="48.64031" lon="7.14321">
        <ele>422</ele>
        <time>2016-07-09T17:00:26Z</time>
      </trkpt>
      <trkpt lat="48.64011" lon="7.144">
        <ele>427</ele>
        <time>2016-07-09T17:02:26Z</time>
      </trkpt>
      <trkpt lat="48.64002" lon="7.14446">
        <ele>431</ele>
        <time>2016-07-09T17:04:26Z</time>
      </trkpt>
      <trkpt lat="48.63996" lon="7.14466">
        <ele>432</ele>
        <time>2016-07-09T17:06:26Z</time>
      </trkpt>
      <trkpt lat="48.6399" lon="7.14486">
        <ele>433</ele>
        <time>2016-07-09T17:08:26Z</time>
      </trkpt>
      <trkpt lat="48.63983" lon="7.14508">
        <ele>434</ele>
        <time>2016-07-09T17:10:26Z</time>
      </trkpt>
      <trkpt lat="48.63976" lon="7.14529">
        <ele>435</ele>
        <time>2016-07-09T17:12:26Z</time>
      </trkpt>
      <trkpt lat="48.63962" lon="7.14563">
        <ele>437</ele>
        <time>2016-07-09T17:14:26Z</time>
      </trkpt>
      <trkpt lat="48.63952" lon="7.14589">
        <ele>438</ele>
        <time>2016-07-09T17:16:26Z</time>
      </trkpt>
      <trkpt lat="48.63939" lon="7.14624">
        <ele>439</ele>
        <time>2016-07-09T17:18:26Z</time>
      </trkpt>
      <trkpt lat="48.63931" lon="7.14645">
        <ele>440</ele>
        <time>2016-07-09T17:20:26Z</time>
      </trkpt>
      <trkpt lat="48.63923" lon="7.1467">
        <ele>441</ele>
        <time>2016-07-09T17:22:26Z</time>
      </trkpt>
      <trkpt lat="48.63916" lon="7.14692">
        <ele>441</ele>
        <time>2016-07-09T17:24:26Z</time>
      </trkpt>
      <trkpt lat="48.63909" lon="7.14719">
        <ele>444</ele>
        <time>2016-07-09T17:26:26Z</time>
      </trkpt>
      <trkpt lat="48.63909" lon="7.14749">
        <ele>447</ele>
        <time>2016-07-09T17:28:26Z</time>
      </trkpt>
      <trkpt lat="48.63908" lon="7.14771">
        <ele>446</ele>
        <time>2016-07-09T17:30:26Z</time>
      </trkpt>
      <trkpt lat="48.63907" lon="7.1478">
        <ele>446</ele>
        <time>2016-07-09T17:32:26Z</time>
      </trkpt>
      <trkpt lat="48.63905" lon="7.14804">
        <ele>446</ele>
        <time>2016-07-09T17:34:26Z</time>
      </trkpt>
      <trkpt lat="48.63903" lon="7.14829">
        <ele>446</ele>
        <time>2016-07-09T17:36:26Z</time>
      </trkpt>
      <trkpt lat="48.63904" lon="7.14846">
        <ele>446</ele>
        <time>2016-07-09T17:38:26Z</time>
      </trkpt>
      <trkpt lat="48.63906" lon="7.14869">
        <ele>445</ele>
        <time>2016-07-09T17:40:26Z</time>
      </trkpt>
      <trkpt lat="48.63912" lon="7.1489">
        <ele>444</ele>
        <time>2016-07-09T17:42:26Z</time>
      </trkpt>
      <trkpt lat="48.63917" lon="7.14906">
        <ele>442</ele>
        <time>2016-07-09T17:44:26Z</time>
      </trkpt>
      <trkpt lat="48.63927" lon="7.14933">
        <ele>439</ele>
        <time>2016-07-09T17:46:26Z</time>
      </trkpt>
      <trkpt lat="48.63943" lon="7.14966">
        <ele>436</ele>
        <time>2016-07-09T17:48:26Z</time>
      </trkpt>
      <trkpt lat="48.63966" lon="7.15005">
        <ele>431</ele>
        <time>2016-07-09T17:50:26Z</time>
      </trkpt>
      <trkpt lat="48.63981" lon="7.15025">
        <ele>429</ele>
        <time>2016-07-09T17:52:26Z</time>
      </trkpt>
      <trkpt lat="48.63999" lon="7.1505">
        <ele>428</ele>
        <time>2016-07-09T17:54:26Z</time>
      </trkpt>
      <trkpt lat="48.6401" lon="7.15067">
        <ele>428</ele>
        <time>2016-07-09T17:56:26Z</time>
      </trkpt>
      <trkpt lat="48.64021" lon="7.1508">
        <ele>427</ele>
        <time>2016-07-09T17:58:26Z</time>
      </trkpt>
      <trkpt lat="48.6403" lon="7.15091">
        <ele>427</ele>
        <time>2016-07-09T18:00:26Z</time>
      </trkpt>
      <trkpt lat="48.64042" lon="7.15103">
        <ele>427</ele>
        <time>2016-07-09T18:02:26Z</time>
      </trkpt>
      <trkpt lat="48.64046" lon="7.15106">
        <ele>426</ele>
        <time>2016-07-09T18:04:26Z</time>
      </trkpt>
      <trkpt lat="48.64053" lon="7.15112">
        <ele>426</ele>
        <time>2016-07-09T18:06:26Z</time>
      </trkpt>
      <trkpt lat="48.64062" lon="7.15116">
        <ele>425</ele>
        <time>2016-07-09T18:08:26Z</time>
      </trkpt>
      <trkpt lat="48.64073" lon="7.15126">
        <ele>426</ele>
        <time>2016-07-09T18:10:26Z</time>
      </trkpt>
      <trkpt lat="48.6409" lon="7.15136">
        <ele>425</ele>
        <time>2016-07-09T18:12:26Z</time>
      </trkpt>
      <trkpt lat="48.6412" lon="7.15151">
        <ele>422</ele>
        <time>2016-07-09T18:14:26Z</time>
      </trkpt>
      <trkpt lat="48.64138" lon="7.15159">
        <ele>419</ele>
        <time>2016-07-09T18:16:26Z</time>
      </trkpt>
      <trkpt lat="48.64158" lon="7.15168">
        <ele>416</ele>
        <time>2016-07-09T18:18:26Z</time>
      </trkpt>
      <trkpt lat="48.64173" lon="7.15174">
        <ele>413</ele>
        <time>2016-07-09T18:20:26Z</time>
      </trkpt>
      <trkpt lat="48.64189" lon="7.15179">
        <ele>411</ele>
        <time>2016-07-09T18:22:26Z</time>
      </trkpt>
      <trkpt lat="48.64211" lon="7.15186">
        <ele>408</ele>
        <time>2016-07-09T18:24:26Z</time>
      </trkpt>
      <trkpt lat="48.6423" lon="7.15189">
        <ele>405</ele>
        <time>2016-07-09T18:26:26Z</time>
      </trkpt>
      <trkpt lat="48.64245" lon="7.15192">
        <ele>402</ele>
        <time>2016-07-09T18:28:26Z</time>
      </trkpt>
      <trkpt lat="48.64257" lon="7.15193">
        <ele>401</ele>
        <time>2016-07-09T18:30:26Z</time>
      </trkpt>
      <trkpt lat="48.64263" lon="7.15194">
        <ele>400</ele>
        <time>2016-07-09T18:32:26Z</time>
      </trkpt>
      <trkpt lat="48.64285" lon="7.15194">
        <ele>398</ele>
        <time>2016-07-09T18:34:26Z</time>
      </trkpt>
      <trkpt lat="48.64307" lon="7.15195">
        <ele>397</ele>
        <time>2016-07-09T18:36:26Z</time>
      </trkpt>
      <trkpt lat="48.64324" lon="7.15195">
        <ele>395</ele>
        <time>2016-07-09T18:38:26Z</time>
      </trkpt>
      <trkpt lat="48.64336" lon="7.15197">
        <ele>394</ele>
        <time>2016-07-09T18:40:26Z</time>
      </trkpt>
      <trkpt lat="48.64352" lon="7.152">
        <ele>392</ele>
        <time>2016-07-09T18:42:26Z</time>
      </trkpt>
      <trkpt lat="48.64361" lon="7.15202">
        <ele>390</ele>
        <time>2016-07-09T18:44:26Z</time>
      </trkpt>
      <trkpt lat="48.64374" lon="7.15207">
        <ele>388</ele>
        <time>2016-07-09T18:46:26Z</time>
      </trkpt>
      <trkpt lat="48.64386" lon="7.15213">
        <ele>387</ele>
        <time>2016-07-09T18:48:26Z</time>
      </trkpt>
      <trkpt lat="48.64397" lon="7.1522">
        <ele>386</ele>
        <time>2016-07-09T18:50:26Z</time>
      </trkpt>
      <trkpt lat="48.64407" lon="7.15228">
        <ele>385</ele>
        <time>2016-07-09T18:52:26Z</time>
      </trkpt>
      <trkpt lat="48.64423" lon="7.15243">
        <ele>383</ele>
        <time>2016-07-09T18:54:26Z</time>
      </trkpt>
      <trkpt lat="48.64435" lon="7.15258">
        <ele>381</ele>
        <time>2016-07-09T18:56:26Z</time>
      </trkpt>
      <trkpt lat="48.6445" lon="7.15281">
        <ele>378</ele>
        <time>2016-07-09T18:58:26Z</time>
      </trkpt>
      <trkpt lat="48.64462" lon="7.15304">
        <ele>375</ele>
        <time>2016-07-09T19:00:26Z</time>
      </trkpt>
      <trkpt lat="48.64468" lon="7.1532">
        <ele>373</ele>
        <time>2016-07-09T19:02:26Z</time>
      </trkpt>
      <trkpt lat="48.64471" lon="7.15334">
        <ele>373</ele>
        <time>2016-07-09T19:04:26Z</time>
      </trkpt>
      <trkpt lat="48.64473" lon="7.15346">
        <ele>371</ele>
        <time>2016-07-09T19:06:26Z</time>
      </trkpt>
      <trkpt lat="48.64473" lon="7.15353">
        <ele>371</ele>
        <time>2016-07-09T19:08:26Z</time>
      </trkpt>
      <trkpt lat="48.64472" lon="7.15366">
        <ele>371</ele>
        <time>2016-07-09T19:10:26Z</time>
      </trkpt>
      <trkpt lat="48.6447" lon="7.15381">
        <ele>370</ele>
        <time>2016-07-09T19:12:26Z</time>
      </trkpt>
      <trkpt lat="48.64468" lon="7.1539">
        <ele>370</ele>
        <time>2016-07-09T19:14:26Z</time>
      </trkpt>
      <trkpt lat="48.64465" lon="7.15398">
        <ele>370</ele>
        <time>2016-07-09T19:16:26Z</time>
      </trkpt>
      <trkpt lat="48.64462" lon="7.15404">
        <ele>371</ele>
        <time>2016-07-09T19:18:26Z</time>
      </trkpt>
      <trkpt lat="48.64459" lon="7.1541">
        <ele>371</ele>
        <time>2016-07-09T19:20:26Z</time>
      </trkpt>
      <trkpt lat="48.64455" lon="7.15415">
        <ele>371</ele>
        <time>2016-07-09T19:22:26Z</time>
      </trkpt>
      <trkpt lat="48.64451" lon="7.1542">
        <ele>371</ele>
        <time>2016-07-09T19:24:26Z</time>
      </trkpt>
      <trkpt lat="48.64447" lon="7.15425">
        <ele>371</ele>
        <time>2016-07-09T19:26:26Z</time>
      </trkpt>
      <trkpt lat="48.64443" lon="7.15428">
        <ele>372</ele>
        <time>2016-07-09T19:28:26Z</time>
      </trkpt>
      <trkpt lat="48.64439" lon="7.15432">
        <ele>372</ele>
        <time>2016-07-09T19:30:26Z</time>
      </trkpt>
      <trkpt lat="48.64433" lon="7.15434">
        <ele>372</ele>
        <time>2016-07-09T19:32:26Z</time>
      </trkpt>
      <trkpt lat="48.64426" lon="7.15438">
        <ele>373</ele>
        <time>2016-07-09T19:34:26Z</time>
      </trkpt>
      <trkpt lat="48.6442" lon="7.15441">
        <ele>373</ele>
        <time>2016-07-09T19:36:26Z</time>
      </trkpt>
      <trkpt lat="48.64412" lon="7.15445">
        <ele>374</ele>
        <time>2016-07-09T19:38:26Z</time>
      </trkpt>
      <trkpt lat="48.64409" lon="7.15447">
        <ele>375</ele>
        <time>2016-07-09T19:40:26Z</time>
      </trkpt>
      <trkpt lat="48.64407" lon="7.1545">
        <ele>374</ele>
        <time>2016-07-09T19:42:26Z</time>
      </trkpt>
      <trkpt lat="48.64403" lon="7.15454">
        <ele>374</ele>
        <time>2016-07-09T19:44:26Z</time>
      </trkpt>
      <trkpt lat="48.64399" lon="7.15461">
        <ele>374</ele>
        <time>2016-07-09T19:46:26Z</time>
      </trkpt>
      <trkpt lat="48.64398" lon="7.15467">
        <ele>373</ele>
        <time>2016-07-09T19:48:26Z</time>
      </trkpt>
      <trkpt lat="48.64398" lon="7.15467">
        <ele>373</ele>
        <time>2016-07-09T19:50:26Z</time>
      </trkpt>
      <trkpt lat="48.64397" lon="7.15473">
        <ele>372</ele>
        <time>2016-07-09T19:52:26Z</time>
      </trkpt>
      <trkpt lat="48.64398" lon="7.15477">
        <ele>371</ele>
        <time>2016-07-09T19:54:26Z</time>
      </trkpt>
      <trkpt lat="48.644" lon="7.15483">
        <ele>369</ele>
        <time>2016-07-09T19:56:26Z</time>
      </trkpt>
      <trkpt lat="48.64404" lon="7.15489">
        <ele>367</ele>
        <time>2016-07-09T19:58:26Z</time>
      </trkpt>
      <trkpt lat="48.64409" lon="7.15494">
        <ele>365</ele>
        <time>2016-07-09T20:00:26Z</time>
      </trkpt>
      <trkpt lat="48.64415" lon="7.15495">
        <ele>363</ele>
        <time>2016-07-09T20:02:26Z</time>
      </trkpt>
      <trkpt lat="48.6442" lon="7.15496">
        <ele>362</ele>
        <time>2016-07-09T20:04:26Z</time>
      </trkpt>
      <trkpt lat="48.64425" lon="7.15496">
        <ele>362</ele>
        <time>2016-07-09T20:06:26Z</time>
      </trkpt>
      <trkpt lat="48.64425" lon="7.15496">
        <ele>362</ele>
        <time>2016-07-09T20:08:26Z</time>
      </trkpt>
      <trkpt lat="48.64432" lon="7.15494">
        <ele>362</ele>
        <time>2016-07-09T20:10:26Z</time>
      </trkpt>
      <trkpt lat="48.64446" lon="7.1549">
        <ele>361</ele>
        <time>2016-07-09T20:12:26Z</time>
      </trkpt>
      <trkpt lat="48.64461" lon="7.15485">
        <ele>360</ele>
        <time>2016-07-09T20:14:26Z</time>
      </trkpt>
      <trkpt lat="48.64471" lon="7.15481">
        <ele>359</ele>
        <time>2016-07-09T20:16:26Z</time>
      </trkpt>
      <trkpt lat="48.64481" lon="7.15477">
        <ele>359</ele>
        <time>2016-07-09T20:18:26Z</time>
      </trkpt>
      <trkpt lat="48.6449" lon="7.15472">
        <ele>358</ele>
        <time>2016-07-09T20:20:26Z</time>
      </trkpt>
      <trkpt lat="48.64503" lon="7.15469">
        <ele>357</ele>
        <time>2016-07-09T20:22:26Z</time>
      </trkpt>
      <trkpt lat="48.64516" lon="7.15465">
        <ele>355</ele>
        <time>2016-07-09T20:24:26Z</time>
      </trkpt>
      <trkpt lat="48.64526" lon="7.15459">
        <ele>355</ele>
        <time>2016-07-09T20:26:26Z</time>
      </trkpt>
      <trkpt lat="48.64535" lon="7.15455">
        <ele>354</ele>
        <time>2016-07-09T20:28:26Z</time>
      </trkpt>
      <trkpt lat="48.64545" lon="7.1545">
        <ele>353</ele>
        <time>2016-07-09T20:30:26Z</time>
      </trkpt>
      <trkpt lat="48.64553" lon="7.15445">
        <ele>352</ele>
        <time>2016-07-09T20:32:26Z</time>
      </trkpt>
      <trkpt lat="48.64563" lon="7.15437">
        <ele>351</ele>
        <time>2016-07-09T20:34:26Z</time>
      </trkpt>
      <trkpt lat="48.64571" lon="7.15431">
        <ele>350</ele>
        <time>2016-07-09T20:36:26Z</time>
      </trkpt>
      <trkpt lat="48.64579" lon="7.15426">
        <ele>349</ele>
        <time>2016-07-09T20:38:26Z</time>
      </trkpt>
      <trkpt lat="48.64585" lon="7.15422">
        <ele>349</ele>
        <time>2016-07-09T20:40:26Z</time>
      </trkpt>
      <trkpt lat="48.64588" lon="7.15421">
        <ele>348</ele>
        <time>2016-07-09T20:42:26Z</time>
      </trkpt>
      <trkpt lat="48.6459" lon="7.1542">
        <ele>348</ele>
        <time>2016-07-09T20:44:26Z</time>
      </trkpt>
      <trkpt lat="48.64597" lon="7.1542">
        <ele>348</ele>
        <time>2016-07-09T20:46:26Z</time>
      </trkpt>
      <trkpt lat="48.64605" lon="7.15419">
        <ele>347</ele>
        <time>2016-07-09T20:48:26Z</time>
      </trkpt>
      <trkpt lat="48.64632" lon="7.15422">
        <ele>345</ele>
        <time>2016-07-09T20:50:26Z</time>
      </trkpt>
      <trkpt lat="48.64658" lon="7.15427">
        <ele>342</ele>
        <time>2016-07-09T20:52:26Z</time>
      </trkpt>
      <trkpt lat="48.64686" lon="7.15432">
        <ele>339</ele>
        <time>2016-07-09T20:54:26Z</time>
      </trkpt>
      <trkpt lat="48.64707" lon="7.15436">
        <ele>337</ele>
        <time>2016-07-09T20:56:26Z</time>
      </trkpt>
      <trkpt lat="48.64726" lon="7.1544">
        <ele>335</ele>
        <time>2016-07-09T20:58:26Z</time>
      </trkpt>
      <trkpt lat="48.64741" lon="7.15443">
        <ele>333</ele>
        <time>2016-07-09T21:00:26Z</time>
      </trkpt>
      <trkpt lat="48.64753" lon="7.15446">
        <ele>332</ele>
        <time>2016-07-09T21:02:26Z</time>
      </trkpt>
      <trkpt lat="48.64765" lon="7.15451">
        <ele>332</ele>
        <time>2016-07-09T21:04:26Z</time>
      </trkpt>
      <trkpt lat="48.64774" lon="7.15456">
        <ele>333</ele>
        <time>2016-07-09T21:06:26Z</time>
      </trkpt>
      <trkpt lat="48.64783" lon="7.15462">
        <ele>333</ele>
        <time>2016-07-09T21:08:26Z</time>
      </trkpt>
      <trkpt lat="48.64785" lon="7.15463">
        <ele>333</ele>
        <time>2016-07-09T21:10:26Z</time>
      </trkpt>
      <trkpt lat="48.64796" lon="7.15468">
        <ele>334</ele>
        <time>2016-07-09T21:12:26Z</time>
      </trkpt>
      <trkpt lat="48.64804" lon="7.15471">
        <ele>334</ele>
        <time>2016-07-09T21:14:26Z</time>
      </trkpt>
      <trkpt lat="48.64811" lon="7.15472">
        <ele>335</ele>
        <time>2016-07-09T21:16:26Z</time>
      </trkpt>
      <trkpt lat="48.64819" lon="7.15475">
        <ele>335</ele>
        <time>2016-07-09T21:18:26Z</time>
      </trkpt>
      <trkpt lat="48.64826" lon="7.15475">
        <ele>336</ele>
        <time>2016-07-09T21:20:26Z</time>
      </trkpt>
      <trkpt lat="48.64837" lon="7.15475">
        <ele>338</ele>
        <time>2016-07-09T21:22:26Z</time>
      </trkpt>
      <trkpt lat="48.6484" lon="7.15471">
        <ele>338</ele>
        <time>2016-07-09T21:24:26Z</time>
      </trkpt>
      <trkpt lat="48.64845" lon="7.15467">
        <ele>340</ele>
        <time>2016-07-09T21:26:26Z</time>
      </trkpt>
      <trkpt lat="48.64849" lon="7.15458">
        <ele>340</ele>
        <time>2016-07-09T21:28:26Z</time>
      </trkpt>
      <trkpt lat="48.64854" lon="7.15442">
        <ele>340</ele>
        <time>2016-07-09T21:30:26Z</time>
      </trkpt>
      <trkpt lat="48.64859" lon="7.15425">
        <ele>340</ele>
        <time>2016-07-09T21:32:26Z</time>
      </trkpt>
      <trkpt lat="48.64867" lon="7.15401">
        <ele>340</ele>
        <time>2016-07-09T21:34:26Z</time>
      </trkpt>
      <trkpt lat="48.64875" lon="7.15382">
        <ele>339</ele>
        <time>2016-07-09T21:36:26Z</time>
      </trkpt>
      <trkpt lat="48.64884" lon="7.15363">
        <ele>338</ele>
        <time>2016-07-09T21:38:26Z</time>
      </trkpt>
      <trkpt lat="48.64898" lon="7.15341">
        <ele>336</ele>
        <time>2016-07-09T21:40:26Z</time>
      </trkpt>
      <trkpt lat="48.64907" lon="7.15328">
        <ele>335</ele>
        <time>2016-07-09T21:42:26Z</time>
      </trkpt>
      <trkpt lat="48.64917" lon="7.15312">
        <ele>334</ele>
        <time>2016-07-09T21:44:26Z</time>
      </trkpt>
      <trkpt lat="48.6493" lon="7.15298">
        <ele>336</ele>
        <time>2016-07-09T21:46:26Z</time>
      </trkpt>
      <trkpt lat="48.64945" lon="7.15281">
        <ele>337</ele>
        <time>2016-07-09T21:48:26Z</time>
      </trkpt>
      <trkpt lat="48.64975" lon="7.15247">
        <ele>334</ele>
        <time>2016-07-09T21:50:26Z</time>
      </trkpt>
      <trkpt lat="48.65013" lon="7.15202">
        <ele>334</ele>
        <time>2016-07-09T21:52:26Z</time>
      </trkpt>
      <trkpt lat="48.65016" lon="7.15198">
        <ele>333</ele>
        <time>2016-07-09T21:54:26Z</time>
      </trkpt>
      <trkpt lat="48.65021" lon="7.15192">
        <ele>333</ele>
        <time>2016-07-09T21:56:26Z</time>
      </trkpt>
      <trkpt lat="48.6504" lon="7.15171">
        <ele>331</ele>
        <time>2016-07-09T21:58:26Z</time>
      </trkpt>
      <trkpt lat="48.65061" lon="7.15146">
        <ele>331</ele>
        <time>2016-07-09T22:00:26Z</time>
      </trkpt>
      <trkpt lat="48.65078" lon="7.15128">
        <ele>331</ele>
        <time>2016-07-09T22:02:26Z</time>
      </trkpt>
      <trkpt lat="48.65089" lon="7.15116">
        <ele>330</ele>
        <time>2016-07-09T22:04:26Z</time>
      </trkpt>
      <trkpt lat="48.65099" lon="7.15106">
        <ele>330</ele>
        <time>2016-07-09T22:06:26Z</time>
      </trkpt>
      <trkpt lat="48.6511" lon="7.15096">
        <ele>329</ele>
        <time>2016-07-09T22:08:26Z</time>
      </trkpt>
      <trkpt lat="48.65126" lon="7.15085">
        <ele>328</ele>
        <time>2016-07-09T22:10:26Z</time>
      </trkpt>
      <trkpt lat="48.65138" lon="7.15074">
        <ele>328</ele>
        <time>2016-07-09T22:12:26Z</time>
      </trkpt>
      <trkpt lat="48.65153" lon="7.15065">
        <ele>328</ele>
        <time>2016-07-09T22:14:26Z</time>
      </trkpt>
      <trkpt lat="48.65174" lon="7.15051">
        <ele>327</ele>
        <time>2016-07-09T22:16:26Z</time>
      </trkpt>
      <trkpt lat="48.65192" lon="7.1504">
        <ele>327</ele>
        <time>2016-07-09T22:18:26Z</time>
      </trkpt>
      <trkpt lat="48.65205" lon="7.15033">
        <ele>327</ele>
        <time>2016-07-09T22:20:26Z</time>
      </trkpt>
      <trkpt lat="48.65219" lon="7.15026">
        <ele>327</ele>
        <time>2016-07-09T22:22:26Z</time>
      </trkpt>
      <trkpt lat="48.65228" lon="7.15022">
        <ele>327</ele>
        <time>2016-07-09T22:24:26Z</time>
      </trkpt>
      <trkpt lat="48.65238" lon="7.1502">
        <ele>328</ele>
        <time>2016-07-09T22:26:26Z</time>
      </trkpt>
      <trkpt lat="48.65239" lon="7.1502">
        <ele>328</ele>
        <time>2016-07-09T22:28:26Z</time>
      </trkpt>
      <trkpt lat="48.65248" lon="7.15019">
        <ele>328</ele>
        <time>2016-07-09T22:30:26Z</time>
      </trkpt>
      <trkpt lat="48.65258" lon="7.15018">
        <ele>328</ele>
        <time>2016-07-09T22:32:26Z</time>
      </trkpt>
      <trkpt lat="48.65263" lon="7.15018">
        <ele>328</ele>
        <time>2016-07-09T22:34:26Z</time>
      </trkpt>
      <trkpt lat="48.65272" lon="7.15018">
        <ele>327</ele>
        <time>2016-07-09T22:36:26Z</time>
      </trkpt>
      <trkpt lat="48.65293" lon="7.15018">
        <ele>327</ele>
        <time>2016-07-09T22:38:26Z</time>
      </trkpt>
      <trkpt lat="48.65315" lon="7.15019">
        <ele>327</ele>
        <time>2016-07-09T22:40:26Z</time>
      </trkpt>
      <trkpt lat="48.65326" lon="7.15019">
        <ele>327</ele>
        <time>2016-07-09T22:42:26Z</time>
      </trkpt>
      <trkpt lat="48.65334" lon="7.1502">
        <ele>327</ele>
        <time>2016-07-09T22:44:26Z</time>
      </trkpt>
      <trkpt lat="48.6534" lon="7.15022">
        <ele>327</ele>
        <time>2016-07-09T22:46:26Z</time>
      </trkpt>
      <trkpt lat="48.65345" lon="7.15024">
        <ele>328</ele>
        <time>2016-07-09T22:48:26Z</time>
      </trkpt>
      <trkpt lat="48.6535" lon="7.15025">
        <ele>328</ele>
        <time>2016-07-09T22:50:26Z</time>
      </trkpt>
      <trkpt lat="48.65353" lon="7.15024">
        <ele>328</ele>
        <time>2016-07-09T22:52:26Z</time>
      </trkpt>
      <trkpt lat="48.65356" lon="7.15023">
        <ele>328</ele>
        <time>2016-07-09T22:54:26Z</time>
      </trkpt>
      <trkpt lat="48.65357" lon="7.15021">
        <ele>328</ele>
        <time>2016-07-09T22:56:26Z</time>
      </trkpt>
      <trkpt lat="48.65359" lon="7.15017">
        <ele>328</ele>
        <time>2016-07-09T22:58:26Z</time>
      </trkpt>
      <trkpt lat="48.65361" lon="7.15009">
        <ele>327</ele>
        <time>2016-07-09T23:00:26Z</time>
      </trkpt>
      <trkpt lat="48.65363" lon="7.14999">
        <ele>327</ele>
        <time>2016-07-09T23:02:26Z</time>
      </trkpt>
      <trkpt lat="48.65366" lon="7.1499">
        <ele>327</ele>
        <time>2016-07-09T23:04:26Z</time>
      </trkpt>
      <trkpt lat="48.65371" lon="7.14966">
        <ele>326</ele>
        <time>2016-07-09T23:06:26Z</time>
      </trkpt>
      <trkpt lat="48.65376" lon="7.1495">
        <ele>325</ele>
        <time>2016-07-09T23:08:26Z</time>
      </trkpt>
      <trkpt lat="48.65382" lon="7.14938">
        <ele>325</ele>
        <time>2016-07-09T23:10:26Z</time>
      </trkpt>
      <trkpt lat="48.65387" lon="7.14929">
        <ele>324</ele>
        <time>2016-07-09T23:12:26Z</time>
      </trkpt>
      <trkpt lat="48.65391" lon="7.14924">
        <ele>324</ele>
        <time>2016-07-09T23:14:26Z</time>
      </trkpt>
      <trkpt lat="48.65395" lon="7.14921">
        <ele>324</ele>
        <time>2016-07-09T23:16:26Z</time>
      </trkpt>
      <trkpt lat="48.654" lon="7.14918">
        <ele>324</ele>
        <time>2016-07-09T23:18:26Z</time>
      </trkpt>
      <trkpt lat="48.65405" lon="7.14917">
        <ele>324</ele>
        <time>2016-07-09T23:20:26Z</time>
      </trkpt>
      <trkpt lat="48.65422" lon="7.14918">
        <ele>324</ele>
        <time>2016-07-09T23:22:26Z</time>
      </trkpt>
      <trkpt lat="48.65434" lon="7.1492">
        <ele>325</ele>
        <time>2016-07-09T23:24:26Z</time>
      </trkpt>
      <trkpt lat="48.65441" lon="7.14919">
        <ele>325</ele>
        <time>2016-07-09T23:26:26Z</time>
      </trkpt>
      <trkpt lat="48.65448" lon="7.14918">
        <ele>325</ele>
        <time>2016-07-09T23:28:26Z</time>
      </trkpt>
      <trkpt lat="48.65459" lon="7.14914">
        <ele>325</ele>
        <time>2016-07-09T23:30:26Z</time>
      </trkpt>
      <trkpt lat="48.65481" lon="7.14905">
        <ele>326</ele>
        <time>2016-07-09T23:32:26Z</time>
      </trkpt>
      <trkpt lat="48.65508" lon="7.14895">
        <ele>326</ele>
        <time>2016-07-09T23:34:26Z</time>
      </trkpt>
      <trkpt lat="48.65511" lon="7.14894">
        <ele>326</ele>
        <time>2016-07-09T23:36:26Z</time>
      </trkpt>
      <trkpt lat="48.65532" lon="7.14887">
        <ele>327</ele>
        <time>2016-07-09T23:38:26Z</time>
      </trkpt>
      <trkpt lat="48.65542" lon="7.14885">
        <ele>328</ele>
        <time>2016-07-09T23:40:26Z</time>
      </trkpt>
      <trkpt lat="48.65551" lon="7.14882">
        <ele>328</ele>
        <time>2016-07-09T23:42:26Z</time>
      </trkpt>
      <trkpt lat="48.65561" lon="7.14879">
        <ele>328</ele>
        <time>2016-07-09T23:44:26Z</time>
      </trkpt>
      <trkpt lat="48.65571" lon="7.14874">
        <ele>329</ele>
        <time>2016-07-09T23:46:26Z</time>
      </trkpt>
      <trkpt lat="48.65583" lon="7.14865">
        <ele>328</ele>
        <time>2016-07-09T23:48:26Z</time>
      </trkpt>
      <trkpt lat="48.65606" lon="7.14852">
        <ele>328</ele>
        <time>2016-07-09T23:50:26Z</time>
      </trkpt>
      <trkpt lat="48.65612" lon="7.14848">
        <ele>328</ele>
        <time>2016-07-09T23:52:26Z</time>
      </trkpt>
      <trkpt lat="48.65627" lon="7.1484">
        <ele>327</ele>
        <time>2016-07-09T23:54:26Z</time>
      </trkpt>
      <trkpt lat="48.65644" lon="7.14831">
        <ele>326</ele>
        <time>2016-07-09T23:56:26Z</time>
      </trkpt>
      <trkpt lat="48.65659" lon="7.14823">
        <ele>326</ele>
        <time>2016-07-09T23:58:26Z</time>
      </trkpt>
      <trkpt lat="48.65669" lon="7.14818">
        <ele>326</ele>
        <time>2016-07-10T00:00:26Z</time>
      </trkpt>
      <trkpt lat="48.65678" lon="7.14814">
        <ele>325</ele>
        <time>2016-07-10T00:02:26Z</time>
      </trkpt>
      <trkpt lat="48.6569" lon="7.1481">
        <ele>325</ele>
        <time>2016-07-10T00:04:26Z</time>
      </trkpt>
      <trkpt lat="48.65699" lon="7.14807">
        <ele>325</ele>
        <time>2016-07-10T00:06:26Z</time>
      </trkpt>
      <trkpt lat="48.65712" lon="7.14805">
        <ele>325</ele>
        <time>2016-07-10T00:08:26Z</time>
      </trkpt>
      <trkpt lat="48.6573" lon="7.14804">
        <ele>325</ele>
        <time>2016-07-10T00:10:26Z</time>
      </trkpt>
      <trkpt lat="48.65753" lon="7.14803">
        <ele>324</ele>
        <time>2016-07-10T00:12:26Z</time>
      </trkpt>
      <trkpt lat="48.65779" lon="7.14802">
        <ele>323</ele>
        <time>2016-07-10T00:14:26Z</time>
      </trkpt>
      <trkpt lat="48.65795" lon="7.148">
        <ele>323</ele>
        <time>2016-07-10T00:16:26Z</time>
      </trkpt>
      <trkpt lat="48.65806" lon="7.14797">
        <ele>322</ele>
        <time>2016-07-10T00:18:26Z</time>
      </trkpt>
      <trkpt lat="48.6581" lon="7.14797">
        <ele>322</ele>
        <time>2016-07-10T00:20:26Z</time>
      </trkpt>
      <trkpt lat="48.65821" lon="7.14793">
        <ele>321</ele>
        <time>2016-07-10T00:22:26Z</time>
      </trkpt>
      <trkpt lat="48.65837" lon="7.14787">
        <ele>321</ele>
        <time>2016-07-10T00:24:26Z</time>
      </trkpt>
      <trkpt lat="48.65854" lon="7.14778">
        <ele>321</ele>
        <time>2016-07-10T00:26:26Z</time>
      </trkpt>
      <trkpt lat="48.65874" lon="7.14768">
        <ele>322</ele>
        <time>2016-07-10T00:28:26Z</time>
      </trkpt>
      <trkpt lat="48.65902" lon="7.14752">
        <ele>322</ele>
        <time>2016-07-10T00:30:26Z</time>
      </trkpt>
      <trkpt lat="48.65928" lon="7.14738">
        <ele>322</ele>
        <time>2016-07-10T00:32:26Z</time>
      </trkpt>
      <trkpt lat="48.65947" lon="7.1473">
        <ele>322</ele>
        <time>2016-07-10T00:34:26Z</time>
      </trkpt>
      <trkpt lat="48.65965" lon="7.14722">
        <ele>321</ele>
        <time>2016-07-10T00:36:26Z</time>
      </trkpt>
      <trkpt lat="48.65972" lon="7.1472">
        <ele>322</ele>
        <time>2016-07-10T00:38:26Z</time>
      </trkpt>
      <trkpt lat="48.66025" lon="7.14698">
        <ele>322</ele>
        <time>2016-07-10T00:40:26Z</time>
      </trkpt>
      <trkpt lat="48.66035" lon="7.14694">
        <ele>322</ele>
        <time>2016-07-10T00:42:26Z</time>
      </trkpt>
      <trkpt lat="48.66053" lon="7.14687">
        <ele>322</ele>
        <time>2016-07-10T00:44:26Z</time>
      </trkpt>
      <trkpt lat="48.66088" lon="7.14671">
        <ele>321</ele>
        <time>2016-07-10T00:46:26Z</time>
      </trkpt>
      <trkpt lat="48.66121" lon="7.14654">
        <ele>323</ele>
        <time>2016-07-10T00:48:26Z</time>
      </trkpt>
      <trkpt lat="48.66157" lon="7.14636">
        <ele>323</ele>
        <time>2016-07-10T00:50:26Z</time>
      </trkpt>
      <trkpt lat="48.6619" lon="7.14613">
        <ele>323</ele>
        <time>2016-07-10T00:52:26Z</time>
      </trkpt>
      <trkpt lat="48.66215" lon="7.14595">
        <ele>321</ele>
        <time>2016-07-10T00:54:26Z</time>
      </trkpt>
      <trkpt lat="48.66223" lon="7.14588">
        <ele>320</ele>
        <time>2016-07-10T00:56:26Z</time>
      </trkpt>
      <trkpt lat="48.66233" lon="7.14579">
        <ele>320</ele>
        <time>2016-07-10T00:58:26Z</time>
      </trkpt>
      <trkpt lat="48.66246" lon="7.14566">
        <ele>320</ele>
        <time>2016-07-10T01:00:26Z</time>
      </trkpt>
      <trkpt lat="48.66259" lon="7.1455">
        <ele>320</ele>
        <time>2016-07-10T01:02:26Z</time>
      </trkpt>
      <trkpt lat="48.66268" lon="7.14538">
        <ele>320</ele>
        <time>2016-07-10T01:04:26Z</time>
      </trkpt>
      <trkpt lat="48.66275" lon="7.14527">
        <ele>319</ele>
        <time>2016-07-10T01:06:26Z</time>
      </trkpt>
      <trkpt lat="48.66281" lon="7.14518">
        <ele>318</ele>
        <time>2016-07-10T01:08:26Z</time>
      </trkpt>
      <trkpt lat="48.66289" lon="7.145">
        <ele>316</ele>
        <time>2016-07-10T01:10:26Z</time>
      </trkpt>
      <trkpt lat="48.66296" lon="7.14485">
        <ele>317</ele>
        <time>2016-07-10T01:12:26Z</time>
      </trkpt>
      <trkpt lat="48.66303" lon="7.14468">
        <ele>317</ele>
        <time>2016-07-10T01:14:26Z</time>
      </trkpt>
      <trkpt lat="48.66308" lon="7.14458">
        <ele>317</ele>
        <time>2016-07-10T01:16:26Z</time>
      </trkpt>
      <trkpt lat="48.66312" lon="7.14447">
        <ele>318</ele>
        <time>2016-07-10T01:18:26Z</time>
      </trkpt>
      <trkpt lat="48.66324" lon="7.14423">
        <ele>318</ele>
        <time>2016-07-10T01:20:26Z</time>
      </trkpt>
      <trkpt lat="48.66332" lon="7.14412">
        <ele>318</ele>
        <time>2016-07-10T01:22:26Z</time>
      </trkpt>
      <trkpt lat="48.66334" lon="7.14411">
        <ele>318</ele>
        <time>2016-07-10T01:24:26Z</time>
      </trkpt>
      <trkpt lat="48.66342" lon="7.14403">
        <ele>319</ele>
        <time>2016-07-10T01:26:26Z</time>
      </trkpt>
      <trkpt lat="48.66353" lon="7.14394">
        <ele>320</ele>
        <time>2016-07-10T01:28:26Z</time>
      </trkpt>
      <trkpt lat="48.66364" lon="7.14387">
        <ele>322</ele>
        <time>2016-07-10T01:30:26Z</time>
      </trkpt>
      <trkpt lat="48.66374" lon="7.14384">
        <ele>322</ele>
        <time>2016-07-10T01:32:26Z</time>
      </trkpt>
      <trkpt lat="48.66383" lon="7.14382">
        <ele>323</ele>
        <time>2016-07-10T01:34:26Z</time>
      </trkpt>
      <trkpt lat="48.66399" lon="7.14382">
        <ele>323</ele>
        <time>2016-07-10T01:36:26Z</time>
      </trkpt>
      <trkpt lat="48.66422" lon="7.14384">
        <ele>323</ele>
        <time>2016-07-10T01:38:26Z</time>
      </trkpt>
      <trkpt lat="48.6645" lon="7.14387">
        <ele>323</ele>
        <time>2016-07-10T01:40:26Z</time>
      </trkpt>
      <trkpt lat="48.665" lon="7.1439">
        <ele>322</ele>
        <time>2016-07-10T01:42:26Z</time>
      </trkpt>
      <trkpt lat="48.66535" lon="7.14393">
        <ele>320</ele>
        <time>2016-07-10T01:44:26Z</time>
      </trkpt>
      <trkpt lat="48.66577" lon="7.14395">
        <ele>318</ele>
        <time>2016-07-10T01:46:26Z</time>
      </trkpt>
      <trkpt lat="48.6659" lon="7.14395">
        <ele>317</ele>
        <time>2016-07-10T01:48:26Z</time>
      </trkpt>
      <trkpt lat="48.666" lon="7.14394">
        <ele>317</ele>
        <time>2016-07-10T01:50:26Z</time>
      </trkpt>
      <trkpt lat="48.66615" lon="7.14391">
        <ele>317</ele>
        <time>2016-07-10T01:52:26Z</time>
      </trkpt>
      <trkpt lat="48.66631" lon="7.14387">
        <ele>317</ele>
        <time>2016-07-10T01:54:26Z</time>
      </trkpt>
      <trkpt lat="48.66646" lon="7.14386">
        <ele>317</ele>
        <time>2016-07-10T01:56:26Z</time>
      </trkpt>
      <trkpt lat="48.66649" lon="7.14385">
        <ele>317</ele>
        <time>2016-07-10T01:58:26Z</time>
      </trkpt>
      <trkpt lat="48.66689" lon="7.14375">
        <ele>318</ele>
        <time>2016-07-10T02:00:26Z</time>
      </trkpt>
      <trkpt lat="48.66735" lon="7.14365">
        <ele>318</ele>
        <time>2016-07-10T02:02:26Z</time>
      </trkpt>
      <trkpt lat="48.66743" lon="7.14363">
        <ele>318</ele>
        <time>2016-07-10T02:04:26Z</time>
      </trkpt>
      <trkpt lat="48.66774" lon="7.14356">
        <ele>317</ele>
        <time>2016-07-10T02:06:26Z</time>
      </trkpt>
      <trkpt lat="48.66823" lon="7.14346">
        <ele>315</ele>
        <time>2016-07-10T02:08:26Z</time>
      </trkpt>
      <trkpt lat="48.66852" lon="7.14339">
        <ele>314</ele>
        <time>2016-07-10T02:10:26Z</time>
      </trkpt>
      <trkpt lat="48.66862" lon="7.14335">
        <ele>314</ele>
        <time>2016-07-10T02:12:26Z</time>
      </trkpt>
      <trkpt lat="48.6687" lon="7.1433">
        <ele>314</ele>
        <time>2016-07-10T02:14:26Z</time>
      </trkpt>
      <trkpt lat="48.66882" lon="7.14323">
        <ele>314</ele>
        <time>2016-07-10T02:16:26Z</time>
      </trkpt>
      <trkpt lat="48.6689" lon="7.14315">
        <ele>314</ele>
        <time>2016-07-10T02:18:26Z</time>
      </trkpt>
      <trkpt lat="48.66902" lon="7.14305">
        <ele>314</ele>
        <time>2016-07-10T02:20:26Z</time>
      </trkpt>
      <trkpt lat="48.66912" lon="7.14292">
        <ele>314</ele>
        <time>2016-07-10T02:22:26Z</time>
      </trkpt>
      <trkpt lat="48.66916" lon="7.14288">
        <ele>314</ele>
        <time>2016-07-10T02:24:26Z</time>
      </trkpt>
      <trkpt lat="48.66927" lon="7.14273">
        <ele>315</ele>
        <time>2016-07-10T02:26:26Z</time>
      </trkpt>
      <trkpt lat="48.6693" lon="7.14271">
        <ele>314</ele>
        <time>2016-07-10T02:28:26Z</time>
      </trkpt>
      <trkpt lat="48.66943" lon="7.14255">
        <ele>314</ele>
        <time>2016-07-10T02:30:26Z</time>
      </trkpt>
      <trkpt lat="48.66959" lon="7.14238">
        <ele>313</ele>
        <time>2016-07-10T02:32:26Z</time>
      </trkpt>
      <trkpt lat="48.66965" lon="7.14232">
        <ele>313</ele>
        <time>2016-07-10T02:34:26Z</time>
      </trkpt>
      <trkpt lat="48.66977" lon="7.1422">
        <ele>313</ele>
        <time>2016-07-10T02:36:26Z</time>
      </trkpt>
      <trkpt lat="48.66998" lon="7.14202">
        <ele>314</ele>
        <time>2016-07-10T02:38:26Z</time>
      </trkpt>
      <trkpt lat="48.67023" lon="7.14183">
        <ele>315</ele>
        <time>2016-07-10T02:40:26Z</time>
      </trkpt>
      <trkpt lat="48.67038" lon="7.14171">
        <ele>315</ele>
        <time>2016-07-10T02:42:26Z</time>
      </trkpt>
      <trkpt lat="48.6705" lon="7.14162">
        <ele>316</ele>
        <time>2016-07-10T02:44:26Z</time>
      </trkpt>
      <trkpt lat="48.67066" lon="7.14153">
        <ele>317</ele>
        <time>2016-07-10T02:46:26Z</time>
      </trkpt>
      <trkpt lat="48.67082" lon="7.14145">
        <ele>318</ele>
        <time>2016-07-10T02:48:26Z</time>
      </trkpt>
      <trkpt lat="48.67094" lon="7.14139">
        <ele>318</ele>
        <time>2016-07-10T02:50:26Z</time>
      </trkpt>
      <trkpt lat="48.67105" lon="7.14132">
        <ele>318</ele>
        <time>2016-07-10T02:52:26Z</time>
      </trkpt>
      <trkpt lat="48.67117" lon="7.14124">
        <ele>318</ele>
        <time>2016-07-10T02:54:26Z</time>
      </trkpt>
      <trkpt lat="48.67138" lon="7.14107">
        <ele>317</ele>
        <time>2016-07-10T02:56:26Z</time>
      </trkpt>
      <trkpt lat="48.67141" lon="7.14104">
        <ele>317</ele>
        <time>2016-07-10T02:58:26Z</time>
      </trkpt>
      <trkpt lat="48.67163" lon="7.14085">
        <ele>315</ele>
        <time>2016-07-10T03:00:26Z</time>
      </trkpt>
      <trkpt lat="48.67181" lon="7.14071">
        <ele>314</ele>
        <time>2016-07-10T03:02:26Z</time>
      </trkpt>
      <trkpt lat="48.67189" lon="7.14066">
        <ele>314</ele>
        <time>2016-07-10T03:04:26Z</time>
      </trkpt>
      <trkpt lat="48.67198" lon="7.14064">
        <ele>312</ele>
        <time>2016-07-10T03:06:26Z</time>
      </trkpt>
      <trkpt lat="48.67206" lon="7.14063">
        <ele>311</ele>
        <time>2016-07-10T03:08:26Z</time>
      </trkpt>
      <trkpt lat="48.67216" lon="7.14063">
        <ele>309</ele>
        <time>2016-07-10T03:10:26Z</time>
      </trkpt>
      <trkpt lat="48.67228" lon="7.14064">
        <ele>307</ele>
        <time>2016-07-10T03:12:26Z</time>
      </trkpt>
      <trkpt lat="48.67241" lon="7.14066">
        <ele>305</ele>
        <time>2016-07-10T03:14:26Z</time>
      </trkpt>
      <trkpt lat="48.67251" lon="7.14066">
        <ele>304</ele>
        <time>2016-07-10T03:16:26Z</time>
      </trkpt>
      <trkpt lat="48.67258" lon="7.14065">
        <ele>304</ele>
        <time>2016-07-10T03:18:26Z</time>
      </trkpt>
      <trkpt lat="48.67266" lon="7.14064">
        <ele>305</ele>
        <time>2016-07-10T03:20:26Z</time>
      </trkpt>
      <trkpt lat="48.67275" lon="7.14059">
        <ele>306</ele>
        <time>2016-07-10T03:22:26Z</time>
      </trkpt>
      <trkpt lat="48.67283" lon="7.14053">
        <ele>307</ele>
        <time>2016-07-10T03:24:26Z</time>
      </trkpt>
      <trkpt lat="48.6729" lon="7.14047">
        <ele>307</ele>
        <time>2016-07-10T03:26:26Z</time>
      </trkpt>
      <trkpt lat="48.67304" lon="7.14028">
        <ele>307</ele>
        <time>2016-07-10T03:28:26Z</time>
      </trkpt>
      <trkpt lat="48.67322" lon="7.14003">
        <ele>305</ele>
        <time>2016-07-10T03:30:26Z</time>
      </trkpt>
      <trkpt lat="48.67329" lon="7.13993">
        <ele>305</ele>
        <time>2016-07-10T03:32:26Z</time>
      </trkpt>
      <trkpt lat="48.67342" lon="7.13977">
        <ele>305</ele>
        <time>2016-07-10T03:34:26Z</time>
      </trkpt>
      <trkpt lat="48.67349" lon="7.13968">
        <ele>305</ele>
        <time>2016-07-10T03:36:26Z</time>
      </trkpt>
      <trkpt lat="48.67358" lon="7.13961">
        <ele>305</ele>
        <time>2016-07-10T03:38:26Z</time>
      </trkpt>
      <trkpt lat="48.67366" lon="7.13957">
        <ele>306</ele>
        <time>2016-07-10T03:40:26Z</time>
      </trkpt>
      <trkpt lat="48.67373" lon="7.13953">
        <ele>306</ele>
        <time>2016-07-10T03:42:26Z</time>
      </trkpt>
      <trkpt lat="48.67381" lon="7.13949">
        <ele>306</ele>
        <time>2016-07-10T03:44:26Z</time>
      </trkpt>
      <trkpt lat="48.67394" lon="7.13944">
        <ele>307</ele>
        <time>2016-07-10T03:46:26Z</time>
      </trkpt>
      <trkpt lat="48.67405" lon="7.1394">
        <ele>307</ele>
        <time>2016-07-10T03:48:26Z</time>
      </trkpt>
      <trkpt lat="48.67412" lon="7.13937">
        <ele>307</ele>
        <time>2016-07-10T03:50:26Z</time>
      </trkpt>
      <trkpt lat="48.67416" lon="7.13936">
        <ele>307</ele>
        <time>2016-07-10T03:52:26Z</time>
      </trkpt>
      <trkpt lat="48.67424" lon="7.13932">
        <ele>307</ele>
        <time>2016-07-10T03:54:26Z</time>
      </trkpt>
      <trkpt lat="48.67432" lon="7.13928">
        <ele>308</ele>
        <time>2016-07-10T03:56:26Z</time>
      </trkpt>
      <trkpt lat="48.67436" lon="7.13923">
        <ele>308</ele>
        <time>2016-07-10T03:58:26Z</time>
      </trkpt>
      <trkpt lat="48.67441" lon="7.13918">
        <ele>308</ele>
        <time>2016-07-10T04:00:26Z</time>
      </trkpt>
      <trkpt lat="48.67442" lon="7.13916">
        <ele>308</ele>
        <time>2016-07-10T04:02:26Z</time>
      </trkpt>
      <trkpt lat="48.67442" lon="7.13916">
        <ele>308</ele>
        <time>2016-07-10T04:04:26Z</time>
      </trkpt>
      <trkpt lat="48.67449" lon="7.13935">
        <ele>310</ele>
        <time>2016-07-10T04:06:26Z</time>
      </trkpt>
      <trkpt lat="48.67466" lon="7.13981">
        <ele>314</ele>
        <time>2016-07-10T04:08:26Z</time>
      </trkpt>
      <trkpt lat="48.67483" lon="7.14031">
        <ele>317</ele>
        <time>2016-07-10T04:10:26Z</time>
      </trkpt>
      <trkpt lat="48.67489" lon="7.14045">
        <ele>317</ele>
        <time>2016-07-10T04:12:26Z</time>
      </trkpt>
      <trkpt lat="48.675" lon="7.14075">
        <ele>318</ele>
        <time>2016-07-10T04:14:26Z</time>
      </trkpt>
      <trkpt lat="48.67507" lon="7.14094">
        <ele>319</ele>
        <time>2016-07-10T04:16:26Z</time>
      </trkpt>
      <trkpt lat="48.6751" lon="7.14102">
        <ele>320</ele>
        <time>2016-07-10T04:18:26Z</time>
      </trkpt>
      <trkpt lat="48.67517" lon="7.14111">
        <ele>321</ele>
        <time>2016-07-10T04:20:26Z</time>
      </trkpt>
      <trkpt lat="48.67528" lon="7.14124">
        <ele>322</ele>
        <time>2016-07-10T04:22:26Z</time>
      </trkpt>
      <trkpt lat="48.67535" lon="7.14132">
        <ele>323</ele>
        <time>2016-07-10T04:24:26Z</time>
      </trkpt>
      <trkpt lat="48.6754" lon="7.14141">
        <ele>324</ele>
        <time>2016-07-10T04:26:26Z</time>
      </trkpt>
      <trkpt lat="48.67544" lon="7.14155">
        <ele>324</ele>
        <time>2016-07-10T04:28:26Z</time>
      </trkpt>
      <trkpt lat="48.6755" lon="7.14179">
        <ele>326</ele>
        <time>2016-07-10T04:30:26Z</time>
      </trkpt>
      <trkpt lat="48.67553" lon="7.14198">
        <ele>326</ele>
        <time>2016-07-10T04:32:26Z</time>
      </trkpt>
      <trkpt lat="48.67554" lon="7.14215">
        <ele>327</ele>
        <time>2016-07-10T04:34:26Z</time>
      </trkpt>
      <trkpt lat="48.67553" lon="7.14234">
        <ele>327</ele>
        <time>2016-07-10T04:36:26Z</time>
      </trkpt>
      <trkpt lat="48.67549" lon="7.14265">
        <ele>328</ele>
        <time>2016-07-10T04:38:26Z</time>
      </trkpt>
      <trkpt lat="48.67537" lon="7.14328">
        <ele>331</ele>
        <time>2016-07-10T04:40:26Z</time>
      </trkpt>
      <trkpt lat="48.67523" lon="7.14394">
        <ele>334</ele>
        <time>2016-07-10T04:42:26Z</time>
      </trkpt>
      <trkpt lat="48.67511" lon="7.1445">
        <ele>337</ele>
        <time>2016-07-10T04:44:26Z</time>
      </trkpt>
      <trkpt lat="48.67504" lon="7.14481">
        <ele>337</ele>
        <time>2016-07-10T04:46:26Z</time>
      </trkpt>
      <trkpt lat="48.67502" lon="7.14492">
        <ele>338</ele>
        <time>2016-07-10T04:48:26Z</time>
      </trkpt>
      <trkpt lat="48.67502" lon="7.14505">
        <ele>338</ele>
        <time>2016-07-10T04:50:26Z</time>
      </trkpt>
      <trkpt lat="48.67504" lon="7.14529">
        <ele>339</ele>
        <time>2016-07-10T04:52:26Z</time>
      </trkpt>
      <trkpt lat="48.67511" lon="7.1456">
        <ele>340</ele>
        <time>2016-07-10T04:54:26Z</time>
      </trkpt>
      <trkpt lat="48.6752" lon="7.14598">
        <ele>342</ele>
        <time>2016-07-10T04:56:26Z</time>
      </trkpt>
      <trkpt lat="48.67534" lon="7.14655">
        <ele>348</ele>
        <time>2016-07-10T04:58:26Z</time>
      </trkpt>
      <trkpt lat="48.67538" lon="7.14678">
        <ele>350</ele>
        <time>2016-07-10T05:00:26Z</time>
      </trkpt>
      <trkpt lat="48.6754" lon="7.14698">
        <ele>351</ele>
        <time>2016-07-10T05:02:26Z</time>
      </trkpt>
      <trkpt lat="48.6754" lon="7.14724">
        <ele>353</ele>
        <time>2016-07-10T05:04:26Z</time>
      </trkpt>
      <trkpt lat="48.67539" lon="7.14755">
        <ele>355</ele>
        <time>2016-07-10T05:06:26Z</time>
      </trkpt>
      <trkpt lat="48.67537" lon="7.14783">
        <ele>355</ele>
        <time>2016-07-10T05:08:26Z</time>
      </trkpt>
      <trkpt lat="48.67537" lon="7.14817">
        <ele>356</ele>
        <time>2016-07-10T05:10:26Z</time>
      </trkpt>
      <trkpt lat="48.67538" lon="7.14842">
        <ele>357</ele>
        <time>2016-07-10T05:12:26Z</time>
      </trkpt>
      <trkpt lat="48.67538" lon="7.14843">
        <ele>357</ele>
        <time>2016-07-10T05:14:26Z</time>
      </trkpt>
      <trkpt lat="48.67545" lon="7.14878">
        <ele>360</ele>
        <time>2016-07-10T05:16:26Z</time>
      </trkpt>
      <trkpt lat="48.67546" lon="7.14884">
        <ele>360</ele>
        <time>2016-07-10T05:18:26Z</time>
      </trkpt>
      <trkpt lat="48.67551" lon="7.14904">
        <ele>362</ele>
        <time>2016-07-10T05:20:26Z</time>
      </trkpt>
      <trkpt lat="48.67564" lon="7.14937">
        <ele>365</ele>
        <time>2016-07-10T05:22:26Z</time>
      </trkpt>
      <trkpt lat="48.6757" lon="7.14958">
        <ele>366</ele>
        <time>2016-07-10T05:24:26Z</time>
      </trkpt>
      <trkpt lat="48.67579" lon="7.14982">
        <ele>368</ele>
        <time>2016-07-10T05:26:26Z</time>
      </trkpt>
      <trkpt lat="48.67586" lon="7.15008">
        <ele>369</ele>
        <time>2016-07-10T05:28:26Z</time>
      </trkpt>
      <trkpt lat="48.67593" lon="7.15042">
        <ele>370</ele>
        <time>2016-07-10T05:30:26Z</time>
      </trkpt>
      <trkpt lat="48.67596" lon="7.15073">
        <ele>371</ele>
        <time>2016-07-10T05:32:26Z</time>
      </trkpt>
      <trkpt lat="48.67597" lon="7.15104">
        <ele>371</ele>
        <time>2016-07-10T05:34:26Z</time>
      </trkpt>
      <trkpt lat="48.67597" lon="7.15134">
        <ele>370</ele>
        <time>2016-07-10T05:36:26Z</time>
      </trkpt>
      <trkpt lat="48.67595" lon="7.15181">
        <ele>370</ele>
        <time>2016-07-10T05:38:26Z</time>
      </trkpt>
      <trkpt lat="48.67592" lon="7.15257">
        <ele>371</ele>
        <time>2016-07-10T05:40:26Z</time>
      </trkpt>
      <trkpt lat="48.67592" lon="7.15301">
        <ele>372</ele>
        <time>2016-07-10T05:42:26Z</time>
      </trkpt>
      <trkpt lat="48.67592" lon="7.15332">
        <ele>373</ele>
        <time>2016-07-10T05:44:26Z</time>
      </trkpt>
      <trkpt lat="48.67592" lon="7.15355">
        <ele>372</ele>
        <time>2016-07-10T05:46:26Z</time>
      </trkpt>
      <trkpt lat="48.67594" lon="7.15391">
        <ele>372</ele>
        <time>2016-07-10T05:48:26Z</time>
      </trkpt>
      <trkpt lat="48.67598" lon="7.15425">
        <ele>373</ele>
        <time>2016-07-10T05:50:26Z</time>
      </trkpt>
      <trkpt lat="48.67602" lon="7.15449">
        <ele>375</ele>
        <time>2016-07-10T05:52:26Z</time>
      </trkpt>
      <trkpt lat="48.67607" lon="7.15468">
        <ele>376</ele>
        <time>2016-07-10T05:54:26Z</time>
      </trkpt>
      <trkpt lat="48.67613" lon="7.15485">
        <ele>378</ele>
        <time>2016-07-10T05:56:26Z</time>
      </trkpt>
      <trkpt lat="48.67623" lon="7.15505">
        <ele>380</ele>
        <time>2016-07-10T05:58:26Z</time>
      </trkpt>
      <trkpt lat="48.6763" lon="7.15516">
        <ele>381</ele>
        <time>2016-07-10T06:00:26Z</time>
      </trkpt>
      <trkpt lat="48.67633" lon="7.1552">
        <ele>381</ele>
        <time>2016-07-10T06:02:26Z</time>
      </trkpt>
      <trkpt lat="48.67638" lon="7.15533">
        <ele>382</ele>
        <time>2016-07-10T06:04:26Z</time>
      </trkpt>
      <trkpt lat="48.67641" lon="7.15547">
        <ele>382</ele>
        <time>2016-07-10T06:06:26Z</time>
      </trkpt>
      <trkpt lat="48.67643" lon="7.15559">
        <ele>382</ele>
        <time>2016-07-10T06:08:26Z</time>
      </trkpt>
      <trkpt lat="48.67642" lon="7.15571">
        <ele>382</ele>
        <time>2016-07-10T06:10:26Z</time>
      </trkpt>
      <trkpt lat="48.6764" lon="7.15582">
        <ele>381</ele>
        <time>2016-07-10T06:12:26Z</time>
      </trkpt>
      <trkpt lat="48.67636" lon="7.15597">
        <ele>381</ele>
        <time>2016-07-10T06:14:26Z</time>
      </trkpt>
      <trkpt lat="48.6763" lon="7.15614">
        <ele>380</ele>
        <time>2016-07-10T06:16:26Z</time>
      </trkpt>
      <trkpt lat="48.67613" lon="7.15651">
        <ele>379</ele>
        <time>2016-07-10T06:18:26Z</time>
      </trkpt>
      <trkpt lat="48.67613" lon="7.15651">
        <ele>379</ele>
        <time>2016-07-10T06:20:26Z</time>
      </trkpt>
      <trkpt lat="48.67613" lon="7.15655">
        <ele>379</ele>
        <time>2016-07-10T06:22:26Z</time>
      </trkpt>
      <trkpt lat="48.67614" lon="7.15664">
        <ele>379</ele>
        <time>2016-07-10T06:24:26Z</time>
      </trkpt>
      <trkpt lat="48.67617" lon="7.1568">
        <ele>380</ele>
        <time>2016-07-10T06:26:26Z</time>
      </trkpt>
      <trkpt lat="48.67621" lon="7.15696">
        <ele>381</ele>
        <time>2016-07-10T06:28:26Z</time>
      </trkpt>
      <trkpt lat="48.67621" lon="7.15696">
        <ele>381</ele>
        <time>2016-07-10T06:30:26Z</time>
      </trkpt>
      <trkpt lat="48.67616" lon="7.15692">
        <ele>380</ele>
        <time>2016-07-10T06:32:26Z</time>
      </trkpt>
      <trkpt lat="48.6761" lon="7.15689">
        <ele>380</ele>
        <time>2016-07-10T06:34:26Z</time>
      </trkpt>
      <trkpt lat="48.67602" lon="7.15689">
        <ele>379</ele>
        <time>2016-07-10T06:36:26Z</time>
      </trkpt>
      <trkpt lat="48.67594" lon="7.1569">
        <ele>379</ele>
        <time>2016-07-10T06:38:26Z</time>
      </trkpt>
      <trkpt lat="48.67594" lon="7.1569">
        <ele>379</ele>
        <time>2016-07-10T06:40:26Z</time>
      </trkpt>
      <trkpt lat="48.67582" lon="7.1571">
        <ele>380</ele>
        <time>2016-07-10T06:42:26Z</time>
      </trkpt>
      <trkpt lat="48.67558" lon="7.15743">
        <ele>381</ele>
        <time>2016-07-10T06:44:26Z</time>
      </trkpt>
      <trkpt lat="48.6754" lon="7.15767">
        <ele>382</ele>
        <time>2016-07-10T06:46:26Z</time>
      </trkpt>
      <trkpt lat="48.67528" lon="7.15786">
        <ele>383</ele>
        <time>2016-07-10T06:48:26Z</time>
      </trkpt>
      <trkpt lat="48.67517" lon="7.15806">
        <ele>384</ele>
        <time>2016-07-10T06:50:26Z</time>
      </trkpt>
      <trkpt lat="48.67505" lon="7.15825">
        <ele>386</ele>
        <time>2016-07-10T06:52:26Z</time>
      </trkpt>
      <trkpt lat="48.67499" lon="7.15835">
        <ele>386</ele>
        <time>2016-07-10T06:54:26Z</time>
      </trkpt>
      <trkpt lat="48.67443" lon="7.15899">
        <ele>390</ele>
        <time>2016-07-10T06:56:26Z</time>
      </trkpt>
      <trkpt lat="48.6743" lon="7.15916">
        <ele>392</ele>
        <time>2016-07-10T06:58:26Z</time>
      </trkpt>
      <trkpt lat="48.67421" lon="7.1593">
        <ele>392</ele>
        <time>2016-07-10T07:00:26Z</time>
      </trkpt>
      <trkpt lat="48.67414" lon="7.15944">
        <ele>393</ele>
        <time>2016-07-10T07:02:26Z</time>
      </trkpt>
      <trkpt lat="48.67407" lon="7.15961">
        <ele>393</ele>
        <time>2016-07-10T07:04:26Z</time>
      </trkpt>
      <trkpt lat="48.67401" lon="7.15981">
        <ele>393</ele>
        <time>2016-07-10T07:06:26Z</time>
      </trkpt>
      <trkpt lat="48.67398" lon="7.15992">
        <ele>393</ele>
        <time>2016-07-10T07:08:26Z</time>
      </trkpt>
      <trkpt lat="48.67396" lon="7.16007">
        <ele>394</ele>
        <time>2016-07-10T07:10:26Z</time>
      </trkpt>
      <trkpt lat="48.67395" lon="7.16029">
        <ele>396</ele>
        <time>2016-07-10T07:12:26Z</time>
      </trkpt>
      <trkpt lat="48.67396" lon="7.16058">
        <ele>400</ele>
        <time>2016-07-10T07:14:26Z</time>
      </trkpt>
      <trkpt lat="48.674" lon="7.16088">
        <ele>403</ele>
        <time>2016-07-10T07:16:26Z</time>
      </trkpt>
      <trkpt lat="48.67405" lon="7.16113">
        <ele>404</ele>
        <time>2016-07-10T07:18:26Z</time>
      </trkpt>
      <trkpt lat="48.67413" lon="7.16158">
        <ele>406</ele>
        <time>2016-07-10T07:20:26Z</time>
      </trkpt>
      <trkpt lat="48.67415" lon="7.16179">
        <ele>406</ele>
        <time>2016-07-10T07:22:26Z</time>
      </trkpt>
      <trkpt lat="48.67417" lon="7.16208">
        <ele>406</ele>
        <time>2016-07-10T07:24:26Z</time>
      </trkpt>
      <trkpt lat="48.67416" lon="7.16222">
        <ele>406</ele>
        <time>2016-07-10T07:26:26Z</time>
      </trkpt>
      <trkpt lat="48.67414" lon="7.16239">
        <ele>405</ele>
        <time>2016-07-10T07:28:26Z</time>
      </trkpt>
      <trkpt lat="48.67414" lon="7.16243">
        <ele>405</ele>
        <time>2016-07-10T07:30:26Z</time>
      </trkpt>
      <trkpt lat="48.67411" lon="7.16257">
        <ele>404</ele>
        <time>2016-07-10T07:32:26Z</time>
      </trkpt>
      <trkpt lat="48.67408" lon="7.16278">
        <ele>404</ele>
        <time>2016-07-10T07:34:26Z</time>
      </trkpt>
      <trkpt lat="48.67403" lon="7.16296">
        <ele>404</ele>
        <time>2016-07-10T07:36:26Z</time>
      </trkpt>
      <trkpt lat="48.67397" lon="7.16315">
        <ele>403</ele>
        <time>2016-07-10T07:38:26Z</time>
      </trkpt>
      <trkpt lat="48.67387" lon="7.16335">
        <ele>403</ele>
        <time>2016-07-10T07:40:26Z</time>
      </trkpt>
      <trkpt lat="48.6738" lon="7.16347">
        <ele>403</ele>
        <time>2016-07-10T07:42:26Z</time>
      </trkpt>
      <trkpt lat="48.67378" lon="7.16351">
        <ele>403</ele>
        <time>2016-07-10T07:44:26Z</time>
      </trkpt>
      <trkpt lat="48.67369" lon="7.16365">
        <ele>403</ele>
        <time>2016-07-10T07:46:26Z</time>
      </trkpt>
      <trkpt lat="48.67359" lon="7.16376">
        <ele>403</ele>
        <time>2016-07-10T07:48:26Z</time>
      </trkpt>
      <trkpt lat="48.67355" lon="7.16381">
        <ele>403</ele>
        <time>2016-07-10T07:50:26Z</time>
      </trkpt>
      <trkpt lat="48.67336" lon="7.164">
        <ele>402</ele>
        <time>2016-07-10T07:52:26Z</time>
      </trkpt>
      <trkpt lat="48.67336" lon="7.16401">
        <ele>402</ele>
        <time>2016-07-10T07:54:26Z</time>
      </trkpt>
      <trkpt lat="48.6732" lon="7.16411">
        <ele>403</ele>
        <time>2016-07-10T07:56:26Z</time>
      </trkpt>
      <trkpt lat="48.67306" lon="7.16419">
        <ele>403</ele>
        <time>2016-07-10T07:58:26Z</time>
      </trkpt>
      <trkpt lat="48.67281" lon="7.16426">
        <ele>404</ele>
        <time>2016-07-10T08:00:26Z</time>
      </trkpt>
      <trkpt lat="48.67254" lon="7.16433">
        <ele>405</ele>
        <time>2016-07-10T08:02:26Z</time>
      </trkpt>
      <trkpt lat="48.67228" lon="7.16442">
        <ele>405</ele>
        <time>2016-07-10T08:04:26Z</time>
      </trkpt>
      <trkpt lat="48.67202" lon="7.16454">
        <ele>406</ele>
        <time>2016-07-10T08:06:26Z</time>
      </trkpt>
      <trkpt lat="48.67183" lon="7.16464">
        <ele>407</ele>
        <time>2016-07-10T08:08:26Z</time>
      </trkpt>
      <trkpt lat="48.67163" lon="7.16474">
        <ele>407</ele>
        <time>2016-07-10T08:10:26Z</time>
      </trkpt>
      <trkpt lat="48.67147" lon="7.16483">
        <ele>408</ele>
        <time>2016-07-10T08:12:26Z</time>
      </trkpt>
      <trkpt lat="48.6713" lon="7.16492">
        <ele>409</ele>
        <time>2016-07-10T08:14:26Z</time>
      </trkpt>
      <trkpt lat="48.67121" lon="7.16498">
        <ele>410</ele>
        <time>2016-07-10T08:16:26Z</time>
      </trkpt>
      <trkpt lat="48.67109" lon="7.16506">
        <ele>410</ele>
        <time>2016-07-10T08:18:26Z</time>
      </trkpt>
      <trkpt lat="48.671" lon="7.16516">
        <ele>411</ele>
        <time>2016-07-10T08:20:26Z</time>
      </trkpt>
      <trkpt lat="48.67089" lon="7.16532">
        <ele>412</ele>
        <time>2016-07-10T08:22:26Z</time>
      </trkpt>
      <trkpt lat="48.67077" lon="7.16554">
        <ele>413</ele>
        <time>2016-07-10T08:24:26Z</time>
      </trkpt>
      <trkpt lat="48.67071" lon="7.16565">
        <ele>413</ele>
        <time>2016-07-10T08:26:26Z</time>
      </trkpt>
      <trkpt lat="48.67066" lon="7.16575">
        <ele>413</ele>
        <time>2016-07-10T08:28:26Z</time>
      </trkpt>
      <trkpt lat="48.67048" lon="7.16616">
        <ele>413</ele>
        <time>2016-07-10T08:30:26Z</time>
      </trkpt>
      <trkpt lat="48.67043" lon="7.16632">
        <ele>413</ele>
        <time>2016-07-10T08:32:26Z</time>
      </trkpt>
      <trkpt lat="48.67041" lon="7.16644">
        <ele>414</ele>
        <time>2016-07-10T08:34:26Z</time>
      </trkpt>
      <trkpt lat="48.67041" lon="7.16644">
        <ele>414</ele>
        <time>2016-07-10T08:36:26Z</time>
      </trkpt>
      <trkpt lat="48.67039" lon="7.16659">
        <ele>414</ele>
        <time>2016-07-10T08:38:26Z</time>
      </trkpt>
      <trkpt lat="48.67036" lon="7.16686">
        <ele>415</ele>
        <time>2016-07-10T08:40:26Z</time>
      </trkpt>
      <trkpt lat="48.67032" lon="7.16719">
        <ele>416</ele>
        <time>2016-07-10T08:42:26Z</time>
      </trkpt>
      <trkpt lat="48.67031" lon="7.16742">
        <ele>417</ele>
        <time>2016-07-10T08:44:26Z</time>
      </trkpt>
      <trkpt lat="48.67033" lon="7.16763">
        <ele>418</ele>
        <time>2016-07-10T08:46:26Z</time>
      </trkpt>
      <trkpt lat="48.67035" lon="7.16772">
        <ele>418</ele>
        <time>2016-07-10T08:48:26Z</time>
      </trkpt>
      <trkpt lat="48.6704" lon="7.16787">
        <ele>418</ele>
        <time>2016-07-10T08:50:26Z</time>
      </trkpt>
      <trkpt lat="48.6705" lon="7.16806">
        <ele>418</ele>
        <time>2016-07-10T08:52:26Z</time>
      </trkpt>
      <trkpt lat="48.67066" lon="7.16832">
        <ele>417</ele>
        <time>2016-07-10T08:54:26Z</time>
      </trkpt>
      <trkpt lat="48.67083" lon="7.16858">
        <ele>417</ele>
        <time>2016-07-10T08:56:26Z</time>
      </trkpt>
      <trkpt lat="48.67092" lon="7.16875">
        <ele>416</ele>
        <time>2016-07-10T08:58:26Z</time>
      </trkpt>
      <trkpt lat="48.671" lon="7.16893">
        <ele>415</ele>
        <time>2016-07-10T09:00:26Z</time>
      </trkpt>
      <trkpt lat="48.67108" lon="7.16915">
        <ele>414</ele>
        <time>2016-07-10T09:02:26Z</time>
      </trkpt>
      <trkpt lat="48.67118" lon="7.16945">
        <ele>415</ele>
        <time>2016-07-10T09:04:26Z</time>
      </trkpt>
      <trkpt lat="48.6713" lon="7.16985">
        <ele>417</ele>
        <time>2016-07-10T09:06:26Z</time>
      </trkpt>
      <trkpt lat="48.67138" lon="7.17009">
        <ele>417</ele>
        <time>2016-07-10T09:08:26Z</time>
      </trkpt>
      <trkpt lat="48.67142" lon="7.17029">
        <ele>417</ele>
        <time>2016-07-10T09:10:26Z</time>
      </trkpt>
      <trkpt lat="48.6715" lon="7.17071">
        <ele>418</ele>
        <time>2016-07-10T09:12:26Z</time>
      </trkpt>
      <trkpt lat="48.67157" lon="7.17109">
        <ele>418</ele>
        <time>2016-07-10T09:14:26Z</time>
      </trkpt>
      <trkpt lat="48.67162" lon="7.17143">
        <ele>418</ele>
        <time>2016-07-10T09:16:26Z</time>
      </trkpt>
      <trkpt lat="48.67166" lon="7.17164">
        <ele>418</ele>
        <time>2016-07-10T09:18:26Z</time>
      </trkpt>
      <trkpt lat="48.67172" lon="7.17189">
        <ele>419</ele>
        <time>2016-07-10T09:20:26Z</time>
      </trkpt>
      <trkpt lat="48.6718" lon="7.17212">
        <ele>420</ele>
        <time>2016-07-10T09:22:26Z</time>
      </trkpt>
      <trkpt lat="48.67186" lon="7.17229">
        <ele>421</ele>
        <time>2016-07-10T09:24:26Z</time>
      </trkpt>
      <trkpt lat="48.67194" lon="7.17244">
        <ele>421</ele>
        <time>2016-07-10T09:26:26Z</time>
      </trkpt>
      <trkpt lat="48.67203" lon="7.17261">
        <ele>421</ele>
        <time>2016-07-10T09:28:26Z</time>
      </trkpt>
      <trkpt lat="48.67217" lon="7.17278">
        <ele>420</ele>
        <time>2016-07-10T09:30:26Z</time>
      </trkpt>
      <trkpt lat="48.67224" lon="7.17283">
        <ele>419</ele>
        <time>2016-07-10T09:32:26Z</time>
      </trkpt>
      <trkpt lat="48.6723" lon="7.17288">
        <ele>418</ele>
        <time>2016-07-10T09:34:26Z</time>
      </trkpt>
      <trkpt lat="48.67248" lon="7.17299">
        <ele>416</ele>
        <time>2016-07-10T09:36:26Z</time>
      </trkpt>
      <trkpt lat="48.67275" lon="7.17314">
        <ele>414</ele>
        <time>2016-07-10T09:38:26Z</time>
      </trkpt>
      <trkpt lat="48.67297" lon="7.17325">
        <ele>413</ele>
        <time>2016-07-10T09:40:26Z</time>
      </trkpt>
      <trkpt lat="48.67315" lon="7.17336">
        <ele>412</ele>
        <time>2016-07-10T09:42:26Z</time>
      </trkpt>
      <trkpt lat="48.67333" lon="7.17345">
        <ele>412</ele>
        <time>2016-07-10T09:44:26Z</time>
      </trkpt>
      <trkpt lat="48.67344" lon="7.17352">
        <ele>412</ele>
        <time>2016-07-10T09:46:26Z</time>
      </trkpt>
      <trkpt lat="48.67352" lon="7.17357">
        <ele>412</ele>
        <time>2016-07-10T09:48:26Z</time>
      </trkpt>
      <trkpt lat="48.6736" lon="7.17362">
        <ele>412</ele>
        <time>2016-07-10T09:50:26Z</time>
      </trkpt>
      <trkpt lat="48.67368" lon="7.1737">
        <ele>412</ele>
        <time>2016-07-10T09:52:26Z</time>
      </trkpt>
      <trkpt lat="48.67372" lon="7.17376">
        <ele>412</ele>
        <time>2016-07-10T09:54:26Z</time>
      </trkpt>
      <trkpt lat="48.67377" lon="7.17386">
        <ele>412</ele>
        <time>2016-07-10T09:56:26Z</time>
      </trkpt>
      <trkpt lat="48.67381" lon="7.174">
        <ele>413</ele>
        <time>2016-07-10T09:58:26Z</time>
      </trkpt>
      <trkpt lat="48.67384" lon="7.17412">
        <ele>414</ele>
        <time>2016-07-10T10:00:26Z</time>
      </trkpt>
      <trkpt lat="48.67385" lon="7.17432">
        <ele>414</ele>
        <time>2016-07-10T10:02:26Z</time>
      </trkpt>
      <trkpt lat="48.67383" lon="7.17461">
        <ele>415</ele>
        <time>2016-07-10T10:04:26Z</time>
      </trkpt>
      <trkpt lat="48.67381" lon="7.17488">
        <ele>416</ele>
        <time>2016-07-10T10:06:26Z</time>
      </trkpt>
      <trkpt lat="48.67382" lon="7.17508">
        <ele>416</ele>
        <time>2016-07-10T10:08:26Z</time>
      </trkpt>
      <trkpt lat="48.67384" lon="7.1753">
        <ele>416</ele>
        <time>2016-07-10T10:10:26Z</time>
      </trkpt>
      <trkpt lat="48.67393" lon="7.17573">
        <ele>414</ele>
        <time>2016-07-10T10:12:26Z</time>
      </trkpt>
      <trkpt lat="48.67405" lon="7.1762">
        <ele>412</ele>
        <time>2016-07-10T10:14:26Z</time>
      </trkpt>
      <trkpt lat="48.67415" lon="7.17664">
        <ele>412</ele>
        <time>2016-07-10T10:16:26Z</time>
      </trkpt>
      <trkpt lat="48.67424" lon="7.17704">
        <ele>413</ele>
        <time>2016-07-10T10:18:26Z</time>
      </trkpt>
      <trkpt lat="48.67432" lon="7.17735">
        <ele>414</ele>
        <time>2016-07-10T10:20:26Z</time>
      </trkpt>
      <trkpt lat="48.67437" lon="7.17746">
        <ele>414</ele>
        <time>2016-07-10T10:22:26Z</time>
      </trkpt>
      <trkpt lat="48.67442" lon="7.17754">
        <ele>414</ele>
        <time>2016-07-10T10:24:26Z</time>
      </trkpt>
      <trkpt lat="48.6745" lon="7.17762">
        <ele>414</ele>
        <time>2016-07-10T10:26:26Z</time>
      </trkpt>
      <trkpt lat="48.6746" lon="7.17769">
        <ele>414</ele>
        <time>2016-07-10T10:28:26Z</time>
      </trkpt>
      <trkpt lat="48.67476" lon="7.17777">
        <ele>413</ele>
        <time>2016-07-10T10:30:26Z</time>
      </trkpt>
      <trkpt lat="48.675" lon="7.17786">
        <ele>411</ele>
        <time>2016-07-10T10:32:26Z</time>
      </trkpt>
      <trkpt lat="48.67512" lon="7.17789">
        <ele>411</ele>
        <time>2016-07-10T10:34:26Z</time>
      </trkpt>
      <trkpt lat="48.67527" lon="7.1779">
        <ele>411</ele>
        <time>2016-07-10T10:36:26Z</time>
      </trkpt>
      <trkpt lat="48.67536" lon="7.1779">
        <ele>411</ele>
        <time>2016-07-10T10:38:26Z</time>
      </trkpt>
      <trkpt lat="48.67548" lon="7.17787">
        <ele>411</ele>
        <time>2016-07-10T10:40:26Z</time>
      </trkpt>
      <trkpt lat="48.67567" lon="7.17783">
        <ele>410</ele>
        <time>2016-07-10T10:42:26Z</time>
      </trkpt>
      <trkpt lat="48.67586" lon="7.17778">
        <ele>409</ele>
        <time>2016-07-10T10:44:26Z</time>
      </trkpt>
      <trkpt lat="48.67596" lon="7.17775">
        <ele>408</ele>
        <time>2016-07-10T10:46:26Z</time>
      </trkpt>
      <trkpt lat="48.67598" lon="7.17773">
        <ele>408</ele>
        <time>2016-07-10T10:48:26Z</time>
      </trkpt>
      <trkpt lat="48.67601" lon="7.1777">
        <ele>408</ele>
        <time>2016-07-10T10:50:26Z</time>
      </trkpt>
      <trkpt lat="48.67607" lon="7.1776">
        <ele>406</ele>
        <time>2016-07-10T10:52:26Z</time>
      </trkpt>
      <trkpt lat="48.67614" lon="7.17745">
        <ele>404</ele>
        <time>2016-07-10T10:54:26Z</time>
      </trkpt>
      <trkpt lat="48.67623" lon="7.17734">
        <ele>403</ele>
        <time>2016-07-10T10:56:26Z</time>
      </trkpt>
      <trkpt lat="48.67635" lon="7.17724">
        <ele>402</ele>
        <time>2016-07-10T10:58:26Z</time>
      </trkpt>
      <trkpt lat="48.67645" lon="7.17719">
        <ele>402</ele>
        <time>2016-07-10T11:00:26Z</time>
      </trkpt>
      <trkpt lat="48.67651" lon="7.17718">
        <ele>402</ele>
        <time>2016-07-10T11:02:26Z</time>
      </trkpt>
      <trkpt lat="48.67657" lon="7.17719">
        <ele>402</ele>
        <time>2016-07-10T11:04:26Z</time>
      </trkpt>
      <trkpt lat="48.67665" lon="7.17723">
        <ele>402</ele>
        <time>2016-07-10T11:06:26Z</time>
      </trkpt>
      <trkpt lat="48.67683" lon="7.17737">
        <ele>402</ele>
        <time>2016-07-10T11:08:26Z</time>
      </trkpt>
      <trkpt lat="48.67696" lon="7.17748">
        <ele>401</ele>
        <time>2016-07-10T11:10:26Z</time>
      </trkpt>
      <trkpt lat="48.67703" lon="7.17754">
        <ele>401</ele>
        <time>2016-07-10T11:12:26Z</time>
      </trkpt>
      <trkpt lat="48.67716" lon="7.1777">
        <ele>401</ele>
        <time>2016-07-10T11:14:26Z</time>
      </trkpt>
      <trkpt lat="48.67734" lon="7.17793">
        <ele>402</ele>
        <time>2016-07-10T11:16:26Z</time>
      </trkpt>
      <trkpt lat="48.67756" lon="7.17822">
        <ele>402</ele>
        <time>2016-07-10T11:18:26Z</time>
      </trkpt>
      <trkpt lat="48.67776" lon="7.17848">
        <ele>400</ele>
        <time>2016-07-10T11:20:26Z</time>
      </trkpt>
      <trkpt lat="48.67787" lon="7.17864">
        <ele>400</ele>
        <time>2016-07-10T11:22:26Z</time>
      </trkpt>
      <trkpt lat="48.67798" lon="7.1788">
        <ele>400</ele>
        <time>2016-07-10T11:24:26Z</time>
      </trkpt>
      <trkpt lat="48.67807" lon="7.17894">
        <ele>400</ele>
        <time>2016-07-10T11:26:26Z</time>
      </trkpt>
      <trkpt lat="48.67816" lon="7.17909">
        <ele>401</ele>
        <time>2016-07-10T11:28:26Z</time>
      </trkpt>
      <trkpt lat="48.67826" lon="7.17922">
        <ele>401</ele>
        <time>2016-07-10T11:30:26Z</time>
      </trkpt>
      <trkpt lat="48.67832" lon="7.1793">
        <ele>401</ele>
        <time>2016-07-10T11:32:26Z</time>
      </trkpt>
      <trkpt lat="48.6784" lon="7.17938">
        <ele>401</ele>
        <time>2016-07-10T11:34:26Z</time>
      </trkpt>
      <trkpt lat="48.67854" lon="7.17947">
        <ele>400</ele>
        <time>2016-07-10T11:36:26Z</time>
      </trkpt>
      <trkpt lat="48.67871" lon="7.17956">
        <ele>400</ele>
        <time>2016-07-10T11:38:26Z</time>
      </trkpt>
      <trkpt lat="48.67895" lon="7.17967">
        <ele>399</ele>
        <time>2016-07-10T11:40:26Z</time>
      </trkpt>
      <trkpt lat="48.67912" lon="7.17974">
        <ele>399</ele>
        <time>2016-07-10T11:42:26Z</time>
      </trkpt>
      <trkpt lat="48.6792" lon="7.17976">
        <ele>398</ele>
        <time>2016-07-10T11:44:26Z</time>
      </trkpt>
      <trkpt lat="48.67932" lon="7.17978">
        <ele>398</ele>
        <time>2016-07-10T11:46:26Z</time>
      </trkpt>
      <trkpt lat="48.67946" lon="7.17979">
        <ele>397</ele>
        <time>2016-07-10T11:48:26Z</time>
      </trkpt>
      <trkpt lat="48.67961" lon="7.17979">
        <ele>396</ele>
        <time>2016-07-10T11:50:26Z</time>
      </trkpt>
      <trkpt lat="48.67973" lon="7.17978">
        <ele>394</ele>
        <time>2016-07-10T11:52:26Z</time>
      </trkpt>
      <trkpt lat="48.67987" lon="7.17976">
        <ele>393</ele>
        <time>2016-07-10T11:54:26Z</time>
      </trkpt>
      <trkpt lat="48.67999" lon="7.17973">
        <ele>392</ele>
        <time>2016-07-10T11:56:26Z</time>
      </trkpt>
      <trkpt lat="48.68012" lon="7.17965">
        <ele>389</ele>
        <time>2016-07-10T11:58:26Z</time>
      </trkpt>
      <trkpt lat="48.68022" lon="7.17958">
        <ele>388</ele>
        <time>2016-07-10T12:00:26Z</time>
      </trkpt>
      <trkpt lat="48.68033" lon="7.1795">
        <ele>386</ele>
        <time>2016-07-10T12:02:26Z</time>
      </trkpt>
      <trkpt lat="48.68043" lon="7.17944">
        <ele>385</ele>
        <time>2016-07-10T12:04:26Z</time>
      </trkpt>
      <trkpt lat="48.68047" lon="7.17943">
        <ele>384</ele>
        <time>2016-07-10T12:06:26Z</time>
      </trkpt>
      <trkpt lat="48.68047" lon="7.17943">
        <ele>384</ele>
        <time>2016-07-10T12:08:26Z</time>
      </trkpt>
      <trkpt lat="48.68048" lon="7.17922">
        <ele>383</ele>
        <time>2016-07-10T12:10:26Z</time>
      </trkpt>
      <trkpt lat="48.68049" lon="7.17904">
        <ele>382</ele>
        <time>2016-07-10T12:12:26Z</time>
      </trkpt>
      <trkpt lat="48.68048" lon="7.17885">
        <ele>381</ele>
        <time>2016-07-10T12:14:26Z</time>
      </trkpt>
      <trkpt lat="48.68047" lon="7.17864">
        <ele>380</ele>
        <time>2016-07-10T12:16:26Z</time>
      </trkpt>
      <trkpt lat="48.68046" lon="7.1785">
        <ele>380</ele>
        <time>2016-07-10T12:18:26Z</time>
      </trkpt>
      <trkpt lat="48.68043" lon="7.17835">
        <ele>379</ele>
        <time>2016-07-10T12:20:26Z</time>
      </trkpt>
      <trkpt lat="48.68042" lon="7.17826">
        <ele>378</ele>
        <time>2016-07-10T12:22:26Z</time>
      </trkpt>
      <trkpt lat="48.68041" lon="7.17814">
        <ele>377</ele>
        <time>2016-07-10T12:24:26Z</time>
      </trkpt>
      <trkpt lat="48.68038" lon="7.17794">
        <ele>375</ele>
        <time>2016-07-10T12:26:26Z</time>
      </trkpt>
      <trkpt lat="48.6804" lon="7.17733">
        <ele>370</ele>
        <time>2016-07-10T12:28:26Z</time>
      </trkpt>
      <trkpt lat="48.68046" lon="7.17653">
        <ele>363</ele>
        <time>2016-07-10T12:30:26Z</time>
      </trkpt>
      <trkpt lat="48.68059" lon="7.17593">
        <ele>356</ele>
        <time>2016-07-10T12:32:26Z</time>
      </trkpt>
      <trkpt lat="48.6808" lon="7.17527">
        <ele>347</ele>
        <time>2016-07-10T12:34:26Z</time>
      </trkpt>
      <trkpt lat="48.68118" lon="7.17473">
        <ele>337</ele>
        <time>2016-07-10T12:36:26Z</time>
      </trkpt>
      <trkpt lat="48.68143" lon="7.17446">
        <ele>332</ele>
        <time>2016-07-10T12:38:26Z</time>
      </trkpt>
      <trkpt lat="48.6817" lon="7.17431">
        <ele>330</ele>
        <time>2016-07-10T12:40:26Z</time>
      </trkpt>
      <trkpt lat="48.68208" lon="7.17437">
        <ele>323</ele>
        <time>2016-07-10T12:42:26Z</time>
      </trkpt>
      <trkpt lat="48.68265" lon="7.17451">
        <ele>315</ele>
        <time>2016-07-10T12:44:26Z</time>
      </trkpt>
      <trkpt lat="48.68315" lon="7.17472">
        <ele>305</ele>
        <time>2016-07-10T12:46:26Z</time>
      </trkpt>
      <trkpt lat="48.68366" lon="7.17502">
        <ele>297</ele>
        <time>2016-07-10T12:48:26Z</time>
      </trkpt>
      <trkpt lat="48.68401" lon="7.17539">
        <ele>294</ele>
        <time>2016-07-10T12:50:26Z</time>
      </trkpt>
      <trkpt lat="48.68418" lon="7.17555">
        <ele>290</ele>
        <time>2016-07-10T12:52:26Z</time>
      </trkpt>
      <trkpt lat="48.68446" lon="7.17589">
        <ele>286</ele>
        <time>2016-07-10T12:54:26Z</time>
      </trkpt>
      <trkpt lat="48.68472" lon="7.17617">
        <ele>283</ele>
        <time>2016-07-10T12:56:26Z</time>
      </trkpt>
      <trkpt lat="48.68499" lon="7.17648">
        <ele>276</ele>
        <time>2016-07-10T12:58:26Z</time>
      </trkpt>
      <trkpt lat="48.68503" lon="7.17655">
        <ele>276</ele>
        <time>2016-07-10T13:00:26Z</time>
      </trkpt>
      <trkpt lat="48.68522" lon="7.177">
        <ele>276</ele>
        <time>2016-07-10T13:02:26Z</time>
      </trkpt>
      <trkpt lat="48.6853" lon="7.17732">
        <ele>276</ele>
        <time>2016-07-10T13:04:26Z</time>
      </trkpt>
      <trkpt lat="48.68533" lon="7.1775">
        <ele>276</ele>
        <time>2016-07-10T13:06:26Z</time>
      </trkpt>
      <trkpt lat="48.68535" lon="7.17759">
        <ele>276</ele>
        <time>2016-07-10T13:08:26Z</time>
      </trkpt>
      <trkpt lat="48.68535" lon="7.17759">
        <ele>276</ele>
        <time>2016-07-10T13:10:26Z</time>
      </trkpt>
      <trkpt lat="48.68529" lon="7.17774">
        <ele>277</ele>
        <time>2016-07-10T13:12:26Z</time>
      </trkpt>
      <trkpt lat="48.68526" lon="7.17817">
        <ele>278</ele>
        <time>2016-07-10T13:14:26Z</time>
      </trkpt>
      <trkpt lat="48.68526" lon="7.1787">
        <ele>277</ele>
        <time>2016-07-10T13:16:26Z</time>
      </trkpt>
      <trkpt lat="48.68527" lon="7.17916">
        <ele>276</ele>
        <time>2016-07-10T13:18:26Z</time>
      </trkpt>
      <trkpt lat="48.68529" lon="7.17983">
        <ele>275</ele>
        <time>2016-07-10T13:20:26Z</time>
      </trkpt>
      <trkpt lat="48.68537" lon="7.18085">
        <ele>273</ele>
        <time>2016-07-10T13:22:26Z</time>
      </trkpt>
      <trkpt lat="48.68544" lon="7.18178">
        <ele>274</ele>
        <time>2016-07-10T13:24:26Z</time>
      </trkpt>
      <trkpt lat="48.68545" lon="7.1822">
        <ele>274</ele>
        <time>2016-07-10T13:26:26Z</time>
      </trkpt>
      <trkpt lat="48.68544" lon="7.18314">
        <ele>272</ele>
        <time>2016-07-10T13:28:26Z</time>
      </trkpt>
      <trkpt lat="48.68541" lon="7.18399">
        <ele>269</ele>
        <time>2016-07-10T13:30:26Z</time>
      </trkpt>
      <trkpt lat="48.68537" lon="7.18448">
        <ele>267</ele>
        <time>2016-07-10T13:32:26Z</time>
      </trkpt>
      <trkpt lat="48.68531" lon="7.18496">
        <ele>265</ele>
        <time>2016-07-10T13:34:26Z</time>
      </trkpt>
      <trkpt lat="48.68527" lon="7.18527">
        <ele>264</ele>
        <time>2016-07-10T13:36:26Z</time>
      </trkpt>
      <trkpt lat="48.68525" lon="7.18565">
        <ele>263</ele>
        <time>2016-07-10T13:38:26Z</time>
      </trkpt>
      <trkpt lat="48.68526" lon="7.18615">
        <ele>263</ele>
        <time>2016-07-10T13:40:26Z</time>
      </trkpt>
      <trkpt lat="48.68526" lon="7.1863">
        <ele>264</ele>
        <time>2016-07-10T13:42:26Z</time>
      </trkpt>
      <trkpt lat="48.68524" lon="7.18659">
        <ele>264</ele>
        <time>2016-07-10T13:44:26Z</time>
      </trkpt>
      <trkpt lat="48.6852" lon="7.187">
        <ele>265</ele>
        <time>2016-07-10T13:46:26Z</time>
      </trkpt>
      <trkpt lat="48.68519" lon="7.18725">
        <ele>266</ele>
        <time>2016-07-10T13:48:26Z</time>
      </trkpt>
      <trkpt lat="48.68518" lon="7.18746">
        <ele>266</ele>
        <time>2016-07-10T13:50:26Z</time>
      </trkpt>
      <trkpt lat="48.68517" lon="7.18756">
        <ele>266</ele>
        <time>2016-07-10T13:52:26Z</time>
      </trkpt>
      <trkpt lat="48.68515" lon="7.18796">
        <ele>263</ele>
        <time>2016-07-10T13:54:26Z</time>
      </trkpt>
      <trkpt lat="48.68514" lon="7.18896">
        <ele>263</ele>
        <time>2016-07-10T13:56:26Z</time>
      </trkpt>
      <trkpt lat="48.68516" lon="7.18924">
        <ele>263</ele>
        <time>2016-07-10T13:58:26Z</time>
      </trkpt>
      <trkpt lat="48.68525" lon="7.18986">
        <ele>264</ele>
        <time>2016-07-10T14:00:26Z</time>
      </trkpt>
      <trkpt lat="48.68542" lon="7.19052">
        <ele>263</ele>
        <time>2016-07-10T14:02:26Z</time>
      </trkpt>
      <trkpt lat="48.68552" lon="7.1908">
        <ele>261</ele>
        <time>2016-07-10T14:04:26Z</time>
      </trkpt>
      <trkpt lat="48.68575" lon="7.19149">
        <ele>257</ele>
        <time>2016-07-10T14:06:26Z</time>
      </trkpt>
      <trkpt lat="48.68583" lon="7.19189">
        <ele>255</ele>
        <time>2016-07-10T14:08:26Z</time>
      </trkpt>
      <trkpt lat="48.68596" lon="7.19245">
        <ele>255</ele>
        <time>2016-07-10T14:10:26Z</time>
      </trkpt>
      <trkpt lat="48.68603" lon="7.19272">
        <ele>253</ele>
        <time>2016-07-10T14:12:26Z</time>
      </trkpt>
      <trkpt lat="48.68605" lon="7.19279">
        <ele>253</ele>
        <time>2016-07-10T14:14:26Z</time>
      </trkpt>
      <trkpt lat="48.68612" lon="7.1932">
        <ele>249</ele>
        <time>2016-07-10T14:16:26Z</time>
      </trkpt>
      <trkpt lat="48.68616" lon="7.19338">
        <ele>248</ele>
        <time>2016-07-10T14:18:26Z</time>
      </trkpt>
      <trkpt lat="48.68619" lon="7.1937">
        <ele>246</ele>
        <time>2016-07-10T14:20:26Z</time>
      </trkpt>
      <trkpt lat="48.6862" lon="7.19396">
        <ele>244</ele>
        <time>2016-07-10T14:22:26Z</time>
      </trkpt>
      <trkpt lat="48.68622" lon="7.19429">
        <ele>243</ele>
        <time>2016-07-10T14:24:26Z</time>
      </trkpt>
      <trkpt lat="48.68624" lon="7.19452">
        <ele>242</ele>
        <time>2016-07-10T14:26:26Z</time>
      </trkpt>
      <trkpt lat="48.68624" lon="7.19479">
        <ele>241</ele>
        <time>2016-07-10T14:28:26Z</time>
      </trkpt>
      <trkpt lat="48.68618" lon="7.19527">
        <ele>241</ele>
        <time>2016-07-10T14:30:26Z</time>
      </trkpt>
      <trkpt lat="48.68614" lon="7.19547">
        <ele>241</ele>
        <time>2016-07-10T14:32:26Z</time>
      </trkpt>
      <trkpt lat="48.68608" lon="7.1958">
        <ele>241</ele>
        <time>2016-07-10T14:34:26Z</time>
      </trkpt>
      <trkpt lat="48.68602" lon="7.19611">
        <ele>246</ele>
        <time>2016-07-10T14:36:26Z</time>
      </trkpt>
      <trkpt lat="48.68591" lon="7.1967">
        <ele>259</ele>
        <time>2016-07-10T14:38:26Z</time>
      </trkpt>
      <trkpt lat="48.6859" lon="7.19676">
        <ele>261</ele>
        <time>2016-07-10T14:40:26Z</time>
      </trkpt>
      <trkpt lat="48.6859" lon="7.19676">
        <ele>261</ele>
        <time>2016-07-10T14:42:26Z</time>
      </trkpt>
      <trkpt lat="48.68596" lon="7.19678">
        <ele>260</ele>
        <time>2016-07-10T14:44:26Z</time>
      </trkpt>
      <trkpt lat="48.68639" lon="7.19697">
        <ele>257</ele>
        <time>2016-07-10T14:46:26Z</time>
      </trkpt>
      <trkpt lat="48.68685" lon="7.19723">
        <ele>255</ele>
        <time>2016-07-10T14:48:26Z</time>
      </trkpt>
      <trkpt lat="48.68701" lon="7.19734">
        <ele>255</ele>
        <time>2016-07-10T14:50:26Z</time>
      </trkpt>
      <trkpt lat="48.68717" lon="7.19745">
        <ele>253</ele>
        <time>2016-07-10T14:52:26Z</time>
      </trkpt>
      <trkpt lat="48.68756" lon="7.19776">
        <ele>253</ele>
        <time>2016-07-10T14:54:26Z</time>
      </trkpt>
      <trkpt lat="48.68768" lon="7.19788">
        <ele>254</ele>
        <time>2016-07-10T14:56:26Z</time>
      </trkpt>
      <trkpt lat="48.6877" lon="7.1979">
        <ele>254</ele>
        <time>2016-07-10T14:58:26Z</time>
      </trkpt>
      <trkpt lat="48.6878" lon="7.19799">
        <ele>254</ele>
        <time>2016-07-10T15:00:26Z</time>
      </trkpt>
      <trkpt lat="48.68788" lon="7.19808">
        <ele>255</ele>
        <time>2016-07-10T15:02:26Z</time>
      </trkpt>
      <trkpt lat="48.68816" lon="7.19833">
        <ele>251</ele>
        <time>2016-07-10T15:04:26Z</time>
      </trkpt>
      <trkpt lat="48.68845" lon="7.1986">
        <ele>251</ele>
        <time>2016-07-10T15:06:26Z</time>
      </trkpt>
      <trkpt lat="48.6886" lon="7.19877">
        <ele>253</ele>
        <time>2016-07-10T15:08:26Z</time>
      </trkpt>
      <trkpt lat="48.68865" lon="7.19882">
        <ele>253</ele>
        <time>2016-07-10T15:10:26Z</time>
      </trkpt>
      <trkpt lat="48.68928" lon="7.19948">
        <ele>253</ele>
        <time>2016-07-10T15:12:26Z</time>
      </trkpt>
      <trkpt lat="48.68963" lon="7.19977">
        <ele>254</ele>
        <time>2016-07-10T15:14:26Z</time>
      </trkpt>
      <trkpt lat="48.68978" lon="7.19989">
        <ele>254</ele>
        <time>2016-07-10T15:16:26Z</time>
      </trkpt>
      <trkpt lat="48.69007" lon="7.20013">
        <ele>253</ele>
        <time>2016-07-10T15:18:26Z</time>
      </trkpt>
      <trkpt lat="48.69037" lon="7.2004">
        <ele>253</ele>
        <time>2016-07-10T15:20:26Z</time>
      </trkpt>
      <trkpt lat="48.69052" lon="7.20055">
        <ele>253</ele>
        <time>2016-07-10T15:22:26Z</time>
      </trkpt>
      <trkpt lat="48.69077" lon="7.20082">
        <ele>251</ele>
        <time>2016-07-10T15:24:26Z</time>
      </trkpt>
      <trkpt lat="48.69149" lon="7.20164">
        <ele>258</ele>
        <time>2016-07-10T15:26:26Z</time>
      </trkpt>
      <trkpt lat="48.69173" lon="7.20188">
        <ele>259</ele>
        <time>2016-07-10T15:28:26Z</time>
      </trkpt>
      <trkpt lat="48.69233" lon="7.20236">
        <ele>258</ele>
        <time>2016-07-10T15:30:26Z</time>
      </trkpt>
      <trkpt lat="48.69262" lon="7.20257">
        <ele>257</ele>
        <time>2016-07-10T15:32:26Z</time>
      </trkpt>
      <trkpt lat="48.69324" lon="7.20298">
        <ele>257</ele>
        <time>2016-07-10T15:34:26Z</time>
      </trkpt>
      <trkpt lat="48.69336" lon="7.20306">
        <ele>257</ele>
        <time>2016-07-10T15:36:26Z</time>
      </trkpt>
      <trkpt lat="48.69356" lon="7.20323">
        <ele>257</ele>
        <time>2016-07-10T15:38:26Z</time>
      </trkpt>
      <trkpt lat="48.69369" lon="7.20337">
        <ele>257</ele>
        <time>2016-07-10T15:40:26Z</time>
      </trkpt>
      <trkpt lat="48.6941" lon="7.20374">
        <ele>255</ele>
        <time>2016-07-10T15:42:26Z</time>
      </trkpt>
      <trkpt lat="48.69425" lon="7.2039">
        <ele>255</ele>
        <time>2016-07-10T15:44:26Z</time>
      </trkpt>
      <trkpt lat="48.69444" lon="7.20412">
        <ele>255</ele>
        <time>2016-07-10T15:46:26Z</time>
      </trkpt>
      <trkpt lat="48.69486" lon="7.20473">
        <ele>251</ele>
        <time>2016-07-10T15:48:26Z</time>
      </trkpt>
      <trkpt lat="48.69508" lon="7.20499">
        <ele>247</ele>
        <time>2016-07-10T15:50:26Z</time>
      </trkpt>
      <trkpt lat="48.69529" lon="7.2052">
        <ele>247</ele>
        <time>2016-07-10T15:52:26Z</time>
      </trkpt>
      <trkpt lat="48.69543" lon="7.20533">
        <ele>247</ele>
        <time>2016-07-10T15:54:26Z</time>
      </trkpt>
      <trkpt lat="48.69586" lon="7.20575">
        <ele>249</ele>
        <time>2016-07-10T15:56:26Z</time>
      </trkpt>
      <trkpt lat="48.69628" lon="7.20613">
        <ele>250</ele>
        <time>2016-07-10T15:58:26Z</time>
      </trkpt>
      <trkpt lat="48.69658" lon="7.20639">
        <ele>248</ele>
        <time>2016-07-10T16:00:26Z</time>
      </trkpt>
      <trkpt lat="48.69716" lon="7.20691">
        <ele>249</ele>
        <time>2016-07-10T16:02:26Z</time>
      </trkpt>
      <trkpt lat="48.69745" lon="7.2072">
        <ele>250</ele>
        <time>2016-07-10T16:04:26Z</time>
      </trkpt>
      <trkpt lat="48.69764" lon="7.20738">
        <ele>249</ele>
        <time>2016-07-10T16:06:26Z</time>
      </trkpt>
      <trkpt lat="48.69797" lon="7.20773">
        <ele>248</ele>
        <time>2016-07-10T16:08:26Z</time>
      </trkpt>
      <trkpt lat="48.69811" lon="7.20789">
        <ele>247</ele>
        <time>2016-07-10T16:10:26Z</time>
      </trkpt>
      <trkpt lat="48.69861" lon="7.20853">
        <ele>246</ele>
        <time>2016-07-10T16:12:26Z</time>
      </trkpt>
      <trkpt lat="48.69878" lon="7.20878">
        <ele>248</ele>
        <time>2016-07-10T16:14:26Z</time>
      </trkpt>
      <trkpt lat="48.69901" lon="7.20913">
        <ele>249</ele>
        <time>2016-07-10T16:16:26Z</time>
      </trkpt>
      <trkpt lat="48.69924" lon="7.20948">
        <ele>250</ele>
        <time>2016-07-10T16:18:26Z</time>
      </trkpt>
      <trkpt lat="48.69945" lon="7.20982">
        <ele>252</ele>
        <time>2016-07-10T16:20:26Z</time>
      </trkpt>
      <trkpt lat="48.69958" lon="7.21002">
        <ele>252</ele>
        <time>2016-07-10T16:22:26Z</time>
      </trkpt>
      <trkpt lat="48.69971" lon="7.21019">
        <ele>251</ele>
        <time>2016-07-10T16:24:26Z</time>
      </trkpt>
      <trkpt lat="48.70006" lon="7.21065">
        <ele>248</ele>
        <time>2016-07-10T16:26:26Z</time>
      </trkpt>
      <trkpt lat="48.70023" lon="7.21086">
        <ele>249</ele>
        <time>2016-07-10T16:28:26Z</time>
      </trkpt>
      <trkpt lat="48.70033" lon="7.21097">
        <ele>249</ele>
        <time>2016-07-10T16:30:26Z</time>
      </trkpt>
      <trkpt lat="48.7004" lon="7.21104">
        <ele>249</ele>
        <time>2016-07-10T16:32:26Z</time>
      </trkpt>
      <trkpt lat="48.70052" lon="7.21115">
        <ele>249</ele>
        <time>2016-07-10T16:34:26Z</time>
      </trkpt>
      <trkpt lat="48.70074" lon="7.21134">
        <ele>246</ele>
        <time>2016-07-10T16:36:26Z</time>
      </trkpt>
      <trkpt lat="48.70103" lon="7.21154">
        <ele>242</ele>
        <time>2016-07-10T16:38:26Z</time>
      </trkpt>
      <trkpt lat="48.70124" lon="7.21169">
        <ele>238</ele>
        <time>2016-07-10T16:40:26Z</time>
      </trkpt>
      <trkpt lat="48.70137" lon="7.21181">
        <ele>239</ele>
        <time>2016-07-10T16:42:26Z</time>
      </trkpt>
      <trkpt lat="48.70154" lon="7.21196">
        <ele>239</ele>
        <time>2016-07-10T16:44:26Z</time>
      </trkpt>
      <trkpt lat="48.70167" lon="7.21211">
        <ele>240</ele>
        <time>2016-07-10T16:46:26Z</time>
      </trkpt>
      <trkpt lat="48.70181" lon="7.21227">
        <ele>242</ele>
        <time>2016-07-10T16:48:26Z</time>
      </trkpt>
      <trkpt lat="48.7019" lon="7.21238">
        <ele>243</ele>
        <time>2016-07-10T16:50:26Z</time>
      </trkpt>
      <trkpt lat="48.70203" lon="7.21259">
        <ele>244</ele>
        <time>2016-07-10T16:52:26Z</time>
      </trkpt>
      <trkpt lat="48.70214" lon="7.21275">
        <ele>244</ele>
        <time>2016-07-10T16:54:26Z</time>
      </trkpt>
      <trkpt lat="48.70235" lon="7.2131">
        <ele>244</ele>
        <time>2016-07-10T16:56:26Z</time>
      </trkpt>
      <trkpt lat="48.70252" lon="7.21338">
        <ele>244</ele>
        <time>2016-07-10T16:58:26Z</time>
      </trkpt>
      <trkpt lat="48.70256" lon="7.21346">
        <ele>245</ele>
        <time>2016-07-10T17:00:26Z</time>
      </trkpt>
      <trkpt lat="48.70259" lon="7.21356">
        <ele>246</ele>
        <time>2016-07-10T17:02:26Z</time>
      </trkpt>
      <trkpt lat="48.70272" lon="7.21375">
        <ele>246</ele>
        <time>2016-07-10T17:04:26Z</time>
      </trkpt>
      <trkpt lat="48.70279" lon="7.21385">
        <ele>246</ele>
        <time>2016-07-10T17:06:26Z</time>
      </trkpt>
      <trkpt lat="48.70292" lon="7.21404">
        <ele>245</ele>
        <time>2016-07-10T17:08:26Z</time>
      </trkpt>
      <trkpt lat="48.70305" lon="7.21421">
        <ele>243</ele>
        <time>2016-07-10T17:10:26Z</time>
      </trkpt>
      <trkpt lat="48.70323" lon="7.2144">
        <ele>237</ele>
        <time>2016-07-10T17:12:26Z</time>
      </trkpt>
      <trkpt lat="48.70327" lon="7.21444">
        <ele>236</ele>
        <time>2016-07-10T17:14:26Z</time>
      </trkpt>
      <trkpt lat="48.70336" lon="7.21451">
        <ele>234</ele>
        <time>2016-07-10T17:16:26Z</time>
      </trkpt>
      <trkpt lat="48.70352" lon="7.21461">
        <ele>234</ele>
        <time>2016-07-10T17:18:26Z</time>
      </trkpt>
      <trkpt lat="48.70379" lon="7.21474">
        <ele>233</ele>
        <time>2016-07-10T17:20:26Z</time>
      </trkpt>
      <trkpt lat="48.70395" lon="7.21481">
        <ele>233</ele>
        <time>2016-07-10T17:22:26Z</time>
      </trkpt>
      <trkpt lat="48.70429" lon="7.21492">
        <ele>233</ele>
        <time>2016-07-10T17:24:26Z</time>
      </trkpt>
      <trkpt lat="48.70438" lon="7.21494">
        <ele>233</ele>
        <time>2016-07-10T17:26:26Z</time>
      </trkpt>
      <trkpt lat="48.70481" lon="7.21494">
        <ele>234</ele>
        <time>2016-07-10T17:28:26Z</time>
      </trkpt>
      <trkpt lat="48.70486" lon="7.21491">
        <ele>235</ele>
        <time>2016-07-10T17:30:26Z</time>
      </trkpt>
      <trkpt lat="48.70507" lon="7.21489">
        <ele>235</ele>
        <time>2016-07-10T17:32:26Z</time>
      </trkpt>
      <trkpt lat="48.70516" lon="7.21489">
        <ele>236</ele>
        <time>2016-07-10T17:34:26Z</time>
      </trkpt>
      <trkpt lat="48.70531" lon="7.21489">
        <ele>236</ele>
        <time>2016-07-10T17:36:26Z</time>
      </trkpt>
      <trkpt lat="48.70538" lon="7.21489">
        <ele>236</ele>
        <time>2016-07-10T17:38:26Z</time>
      </trkpt>
      <trkpt lat="48.70544" lon="7.2149">
        <ele>236</ele>
        <time>2016-07-10T17:40:26Z</time>
      </trkpt>
      <trkpt lat="48.70548" lon="7.21491">
        <ele>236</ele>
        <time>2016-07-10T17:42:26Z</time>
      </trkpt>
      <trkpt lat="48.70561" lon="7.21492">
        <ele>236</ele>
        <time>2016-07-10T17:44:26Z</time>
      </trkpt>
      <trkpt lat="48.70585" lon="7.21495">
        <ele>236</ele>
        <time>2016-07-10T17:46:26Z</time>
      </trkpt>
      <trkpt lat="48.70622" lon="7.21501">
        <ele>236</ele>
        <time>2016-07-10T17:48:26Z</time>
      </trkpt>
      <trkpt lat="48.70644" lon="7.21506">
        <ele>238</ele>
        <time>2016-07-10T17:50:26Z</time>
      </trkpt>
      <trkpt lat="48.70693" lon="7.21519">
        <ele>239</ele>
        <time>2016-07-10T17:52:26Z</time>
      </trkpt>
      <trkpt lat="48.70727" lon="7.21531">
        <ele>239</ele>
        <time>2016-07-10T17:54:26Z</time>
      </trkpt>
      <trkpt lat="48.70793" lon="7.21556">
        <ele>237</ele>
        <time>2016-07-10T17:56:26Z</time>
      </trkpt>
      <trkpt lat="48.70809" lon="7.21563">
        <ele>236</ele>
        <time>2016-07-10T17:58:26Z</time>
      </trkpt>
      <trkpt lat="48.70838" lon="7.21578">
        <ele>235</ele>
        <time>2016-07-10T18:00:26Z</time>
      </trkpt>
      <trkpt lat="48.70842" lon="7.21581">
        <ele>235</ele>
        <time>2016-07-10T18:02:26Z</time>
      </trkpt>
      <trkpt lat="48.70906" lon="7.21625">
        <ele>241</ele>
        <time>2016-07-10T18:04:26Z</time>
      </trkpt>
      <trkpt lat="48.70919" lon="7.21635">
        <ele>243</ele>
        <time>2016-07-10T18:06:26Z</time>
      </trkpt>
      <trkpt lat="48.70924" lon="7.21643">
        <ele>244</ele>
        <time>2016-07-10T18:08:26Z</time>
      </trkpt>
      <trkpt lat="48.70953" lon="7.21663">
        <ele>247</ele>
        <time>2016-07-10T18:10:26Z</time>
      </trkpt>
      <trkpt lat="48.70984" lon="7.21682">
        <ele>250</ele>
        <time>2016-07-10T18:12:26Z</time>
      </trkpt>
      <trkpt lat="48.71009" lon="7.21693">
        <ele>250</ele>
        <time>2016-07-10T18:14:26Z</time>
      </trkpt>
      <trkpt lat="48.71085" lon="7.21725">
        <ele>249</ele>
        <time>2016-07-10T18:16:26Z</time>
      </trkpt>
      <trkpt lat="48.71092" lon="7.21728">
        <ele>249</ele>
        <time>2016-07-10T18:18:26Z</time>
      </trkpt>
      <trkpt lat="48.71129" lon="7.21742">
        <ele>249</ele>
        <time>2016-07-10T18:20:26Z</time>
      </trkpt>
      <trkpt lat="48.71146" lon="7.21748">
        <ele>248</ele>
        <time>2016-07-10T18:22:26Z</time>
      </trkpt>
      <trkpt lat="48.71163" lon="7.21755">
        <ele>248</ele>
        <time>2016-07-10T18:24:26Z</time>
      </trkpt>
      <trkpt lat="48.71187" lon="7.21765">
        <ele>247</ele>
        <time>2016-07-10T18:26:26Z</time>
      </trkpt>
      <trkpt lat="48.712" lon="7.21771">
        <ele>246</ele>
        <time>2016-07-10T18:28:26Z</time>
      </trkpt>
      <trkpt lat="48.71211" lon="7.21776">
        <ele>245</ele>
        <time>2016-07-10T18:30:26Z</time>
      </trkpt>
      <trkpt lat="48.71219" lon="7.21781">
        <ele>245</ele>
        <time>2016-07-10T18:32:26Z</time>
      </trkpt>
      <trkpt lat="48.71228" lon="7.21786">
        <ele>244</ele>
        <time>2016-07-10T18:34:26Z</time>
      </trkpt>
      <trkpt lat="48.71234" lon="7.21791">
        <ele>245</ele>
        <time>2016-07-10T18:36:26Z</time>
      </trkpt>
      <trkpt lat="48.71242" lon="7.21796">
        <ele>244</ele>
        <time>2016-07-10T18:38:26Z</time>
      </trkpt>
      <trkpt lat="48.71257" lon="7.21808">
        <ele>244</ele>
        <time>2016-07-10T18:40:26Z</time>
      </trkpt>
      <trkpt lat="48.71262" lon="7.2181">
        <ele>243</ele>
        <time>2016-07-10T18:42:26Z</time>
      </trkpt>
      <trkpt lat="48.71312" lon="7.21842">
        <ele>238</ele>
        <time>2016-07-10T18:44:26Z</time>
      </trkpt>
      <trkpt lat="48.71318" lon="7.21847">
        <ele>238</ele>
        <time>2016-07-10T18:46:26Z</time>
      </trkpt>
      <trkpt lat="48.71324" lon="7.21852">
        <ele>237</ele>
        <time>2016-07-10T18:48:26Z</time>
      </trkpt>
      <trkpt lat="48.71332" lon="7.21859">
        <ele>236</ele>
        <time>2016-07-10T18:50:26Z</time>
      </trkpt>
      <trkpt lat="48.71335" lon="7.21863">
        <ele>236</ele>
        <time>2016-07-10T18:52:26Z</time>
      </trkpt>
      <trkpt lat="48.71341" lon="7.2187">
        <ele>236</ele>
        <time>2016-07-10T18:54:26Z</time>
      </trkpt>
      <trkpt lat="48.71348" lon="7.21881">
        <ele>236</ele>
        <time>2016-07-10T18:56:26Z</time>
      </trkpt>
      <trkpt lat="48.7136" lon="7.219">
        <ele>235</ele>
        <time>2016-07-10T18:58:26Z</time>
      </trkpt>
      <trkpt lat="48.71383" lon="7.21958">
        <ele>237</ele>
        <time>2016-07-10T19:00:26Z</time>
      </trkpt>
      <trkpt lat="48.71394" lon="7.21984">
        <ele>238</ele>
        <time>2016-07-10T19:02:26Z</time>
      </trkpt>
      <trkpt lat="48.71403" lon="7.22008">
        <ele>238</ele>
        <time>2016-07-10T19:04:26Z</time>
      </trkpt>
      <trkpt lat="48.71409" lon="7.22019">
        <ele>237</ele>
        <time>2016-07-10T19:06:26Z</time>
      </trkpt>
      <trkpt lat="48.71415" lon="7.2203">
        <ele>236</ele>
        <time>2016-07-10T19:08:26Z</time>
      </trkpt>
      <trkpt lat="48.71421" lon="7.2204">
        <ele>236</ele>
        <time>2016-07-10T19:10:26Z</time>
      </trkpt>
      <trkpt lat="48.71428" lon="7.22051">
        <ele>237</ele>
        <time>2016-07-10T19:12:26Z</time>
      </trkpt>
      <trkpt lat="48.71435" lon="7.2206">
        <ele>236</ele>
        <time>2016-07-10T19:14:26Z</time>
      </trkpt>
      <trkpt lat="48.71442" lon="7.22068">
        <ele>236</ele>
        <time>2016-07-10T19:16:26Z</time>
      </trkpt>
      <trkpt lat="48.7145" lon="7.22076">
        <ele>236</ele>
        <time>2016-07-10T19:18:26Z</time>
      </trkpt>
      <trkpt lat="48.71459" lon="7.22083">
        <ele>235</ele>
        <time>2016-07-10T19:20:26Z</time>
      </trkpt>
      <trkpt lat="48.71468" lon="7.22088">
        <ele>235</ele>
        <time>2016-07-10T19:22:26Z</time>
      </trkpt>
      <trkpt lat="48.71477" lon="7.22093">
        <ele>234</ele>
        <time>2016-07-10T19:24:26Z</time>
      </trkpt>
      <trkpt lat="48.71496" lon="7.221">
        <ele>233</ele>
        <time>2016-07-10T19:26:26Z</time>
      </trkpt>
      <trkpt lat="48.71524" lon="7.2211">
        <ele>233</ele>
        <time>2016-07-10T19:28:26Z</time>
      </trkpt>
      <trkpt lat="48.71533" lon="7.22113">
        <ele>233</ele>
        <time>2016-07-10T19:30:26Z</time>
      </trkpt>
      <trkpt lat="48.71542" lon="7.22117">
        <ele>233</ele>
        <time>2016-07-10T19:32:26Z</time>
      </trkpt>
      <trkpt lat="48.71551" lon="7.22122">
        <ele>233</ele>
        <time>2016-07-10T19:34:26Z</time>
      </trkpt>
      <trkpt lat="48.7156" lon="7.22128">
        <ele>233</ele>
        <time>2016-07-10T19:36:26Z</time>
      </trkpt>
      <trkpt lat="48.71568" lon="7.22135">
        <ele>233</ele>
        <time>2016-07-10T19:38:26Z</time>
      </trkpt>
      <trkpt lat="48.71577" lon="7.22143">
        <ele>234</ele>
        <time>2016-07-10T19:40:26Z</time>
      </trkpt>
      <trkpt lat="48.71594" lon="7.22158">
        <ele>235</ele>
        <time>2016-07-10T19:42:26Z</time>
      </trkpt>
      <trkpt lat="48.71675" lon="7.22243">
        <ele>241</ele>
        <time>2016-07-10T19:44:26Z</time>
      </trkpt>
      <trkpt lat="48.71718" lon="7.2229">
        <ele>242</ele>
        <time>2016-07-10T19:46:26Z</time>
      </trkpt>
      <trkpt lat="48.71764" lon="7.22337">
        <ele>243</ele>
        <time>2016-07-10T19:48:26Z</time>
      </trkpt>
      <trkpt lat="48.71778" lon="7.22354">
        <ele>244</ele>
        <time>2016-07-10T19:50:26Z</time>
      </trkpt>
      <trkpt lat="48.71785" lon="7.22364">
        <ele>244</ele>
        <time>2016-07-10T19:52:26Z</time>
      </trkpt>
      <trkpt lat="48.71791" lon="7.22374">
        <ele>244</ele>
        <time>2016-07-10T19:54:26Z</time>
      </trkpt>
      <trkpt lat="48.71797" lon="7.22385">
        <ele>245</ele>
        <time>2016-07-10T19:56:26Z</time>
      </trkpt>
      <trkpt lat="48.71803" lon="7.22397">
        <ele>245</ele>
        <time>2016-07-10T19:58:26Z</time>
      </trkpt>
      <trkpt lat="48.71808" lon="7.2241">
        <ele>245</ele>
        <time>2016-07-10T20:00:26Z</time>
      </trkpt>
      <trkpt lat="48.71817" lon="7.22434">
        <ele>244</ele>
        <time>2016-07-10T20:02:26Z</time>
      </trkpt>
      <trkpt lat="48.71821" lon="7.22447">
        <ele>243</ele>
        <time>2016-07-10T20:04:26Z</time>
      </trkpt>
      <trkpt lat="48.71833" lon="7.22489">
        <ele>240</ele>
        <time>2016-07-10T20:06:26Z</time>
      </trkpt>
      <trkpt lat="48.71833" lon="7.22489">
        <ele>240</ele>
        <time>2016-07-10T20:08:26Z</time>
      </trkpt>
      <trkpt lat="48.71862" lon="7.22447">
        <ele>233</ele>
        <time>2016-07-10T20:10:26Z</time>
      </trkpt>
      <trkpt lat="48.71874" lon="7.22429">
        <ele>230</ele>
        <time>2016-07-10T20:12:26Z</time>
      </trkpt>
      <trkpt lat="48.71886" lon="7.22411">
        <ele>228</ele>
        <time>2016-07-10T20:14:26Z</time>
      </trkpt>
      <trkpt lat="48.71889" lon="7.22406">
        <ele>227</ele>
        <time>2016-07-10T20:16:26Z</time>
      </trkpt>
      <trkpt lat="48.71899" lon="7.22392">
        <ele>226</ele>
        <time>2016-07-10T20:18:26Z</time>
      </trkpt>
      <trkpt lat="48.71903" lon="7.22385">
        <ele>225</ele>
        <time>2016-07-10T20:20:26Z</time>
      </trkpt>
      <trkpt lat="48.71906" lon="7.22377">
        <ele>225</ele>
        <time>2016-07-10T20:22:26Z</time>
      </trkpt>
      <trkpt lat="48.71908" lon="7.22372">
        <ele>225</ele>
        <time>2016-07-10T20:24:26Z</time>
      </trkpt>
      <trkpt lat="48.71908" lon="7.22372">
        <ele>225</ele>
        <time>2016-07-10T20:26:26Z</time>
      </trkpt>
      <trkpt lat="48.71906" lon="7.22377">
        <ele>225</ele>
        <time>2016-07-10T20:28:26Z</time>
      </trkpt>
      <trkpt lat="48.71903" lon="7.22385">
        <ele>225</ele>
        <time>2016-07-10T20:30:26Z</time>
      </trkpt>
      <trkpt lat="48.71899" lon="7.22392">
        <ele>226</ele>
        <time>2016-07-10T20:32:26Z</time>
      </trkpt>
      <trkpt lat="48.71889" lon="7.22406">
        <ele>227</ele>
        <time>2016-07-10T20:34:26Z</time>
      </trkpt>
      <trkpt lat="48.71889" lon="7.22406">
        <ele>227</ele>
        <time>2016-07-10T20:36:26Z</time>
      </trkpt>
      <trkpt lat="48.71879" lon="7.22392">
        <ele>228</ele>
        <time>2016-07-10T20:38:26Z</time>
      </trkpt>
      <trkpt lat="48.71848" lon="7.2235">
        <ele>227</ele>
        <time>2016-07-10T20:40:26Z</time>
      </trkpt>
      <trkpt lat="48.71838" lon="7.22338">
        <ele>226</ele>
        <time>2016-07-10T20:42:26Z</time>
      </trkpt>
      <trkpt lat="48.71838" lon="7.22338">
        <ele>226</ele>
        <time>2016-07-10T20:44:26Z</time>
      </trkpt>
      <trkpt lat="48.71835" lon="7.22343">
        <ele>227</ele>
        <time>2016-07-10T20:46:26Z</time>
      </trkpt>
      <trkpt lat="48.71835" lon="7.22343">
        <ele>227</ele>
        <time>2016-07-10T20:48:26Z</time>
      </trkpt>
      <trkpt lat="48.71841" lon="7.22352">
        <ele>228</ele>
        <time>2016-07-10T20:50:26Z</time>
      </trkpt>
      <trkpt lat="48.71851" lon="7.22367">
        <ele>229</ele>
        <time>2016-07-10T20:52:26Z</time>
      </trkpt>
      <trkpt lat="48.7187" lon="7.22402">
        <ele>229</ele>
        <time>2016-07-10T20:54:26Z</time>
      </trkpt>
      <trkpt lat="48.71881" lon="7.2242">
        <ele>229</ele>
        <time>2016-07-10T20:56:26Z</time>
      </trkpt>
      <trkpt lat="48.71882" lon="7.22421">
        <ele>228</ele>
        <time>2016-07-10T20:58:26Z</time>
      </trkpt>
      <trkpt lat="48.71884" lon="7.22424">
        <ele>228</ele>
        <time>2016-07-10T21:00:26Z</time>
      </trkpt>
      <trkpt lat="48.71889" lon="7.22431">
        <ele>227</ele>
        <time>2016-07-10T21:02:26Z</time>
      </trkpt>
      <trkpt lat="48.71945" lon="7.22527">
        <ele>223</ele>
        <time>2016-07-10T21:04:26Z</time>
      </trkpt>
      <trkpt lat="48.71966" lon="7.22562">
        <ele>223</ele>
        <time>2016-07-10T21:06:26Z</time>
      </trkpt>
      <trkpt lat="48.72007" lon="7.22639">
        <ele>220</ele>
        <time>2016-07-10T21:08:26Z</time>
      </trkpt>
      <trkpt lat="48.72012" lon="7.22647">
        <ele>221</ele>
        <time>2016-07-10T21:10:26Z</time>
      </trkpt>
      <trkpt lat="48.72014" lon="7.2265">
        <ele>221</ele>
        <time>2016-07-10T21:12:26Z</time>
      </trkpt>
      <trkpt lat="48.72015" lon="7.22652">
        <ele>221</ele>
        <time>2016-07-10T21:14:26Z</time>
      </trkpt>
      <trkpt lat="48.72016" lon="7.22653">
        <ele>221</ele>
        <time>2016-07-10T21:16:26Z</time>
      </trkpt>
      <trkpt lat="48.72018" lon="7.22653">
        <ele>222</ele>
        <time>2016-07-10T21:18:26Z</time>
      </trkpt>
      <trkpt lat="48.72019" lon="7.22653">
        <ele>222</ele>
        <time>2016-07-10T21:20:26Z</time>
      </trkpt>
      <trkpt lat="48.7202" lon="7.22653">
        <ele>222</ele>
        <time>2016-07-10T21:22:26Z</time>
      </trkpt>
      <trkpt lat="48.72022" lon="7.22653">
        <ele>222</ele>
        <time>2016-07-10T21:24:26Z</time>
      </trkpt>
      <trkpt lat="48.72023" lon="7.22652">
        <ele>223</ele>
        <time>2016-07-10T21:26:26Z</time>
      </trkpt>
      <trkpt lat="48.72024" lon="7.22649">
        <ele>223</ele>
        <time>2016-07-10T21:28:26Z</time>
      </trkpt>
      <trkpt lat="48.72025" lon="7.22646">
        <ele>223</ele>
        <time>2016-07-10T21:30:26Z</time>
      </trkpt>
      <trkpt lat="48.72026" lon="7.2264">
        <ele>224</ele>
        <time>2016-07-10T21:32:26Z</time>
      </trkpt>
      <trkpt lat="48.72025" lon="7.22634">
        <ele>224</ele>
        <time>2016-07-10T21:34:26Z</time>
      </trkpt>
      <trkpt lat="48.72025" lon="7.22622">
        <ele>225</ele>
        <time>2016-07-10T21:36:26Z</time>
      </trkpt>
      <trkpt lat="48.72023" lon="7.22614">
        <ele>225</ele>
        <time>2016-07-10T21:38:26Z</time>
      </trkpt>
      <trkpt lat="48.72023" lon="7.22609">
        <ele>226</ele>
        <time>2016-07-10T21:40:26Z</time>
      </trkpt>
      <trkpt lat="48.72023" lon="7.22605">
        <ele>226</ele>
        <time>2016-07-10T21:42:26Z</time>
      </trkpt>
      <trkpt lat="48.72023" lon="7.22605">
        <ele>226</ele>
        <time>2016-07-10T21:44:26Z</time>
      </trkpt>
      <trkpt lat="48.72024" lon="7.22604">
        <ele>226</ele>
        <time>2016-07-10T21:46:26Z</time>
      </trkpt>
      <trkpt lat="48.72027" lon="7.22603">
        <ele>227</ele>
        <time>2016-07-10T21:48:26Z</time>
      </trkpt>
      <trkpt lat="48.72034" lon="7.22601">
        <ele>229</ele>
        <time>2016-07-10T21:50:26Z</time>
      </trkpt>
      <trkpt lat="48.7204" lon="7.22598">
        <ele>231</ele>
        <time>2016-07-10T21:52:26Z</time>
      </trkpt>
      <trkpt lat="48.72046" lon="7.22595">
        <ele>233</ele>
        <time>2016-07-10T21:54:26Z</time>
      </trkpt>
      <trkpt lat="48.72065" lon="7.22667">
        <ele>228</ele>
        <time>2016-07-10T21:56:26Z</time>
      </trkpt>
      <trkpt lat="48.72096" lon="7.22756">
        <ele>225</ele>
        <time>2016-07-10T21:58:26Z</time>
      </trkpt>
      <trkpt lat="48.72121" lon="7.22817">
        <ele>227</ele>
        <time>2016-07-10T22:00:26Z</time>
      </trkpt>
      <trkpt lat="48.72166" lon="7.2291">
        <ele>224</ele>
        <time>2016-07-10T22:02:26Z</time>
      </trkpt>
      <trkpt lat="48.72204" lon="7.22964">
        <ele>229</ele>
        <time>2016-07-10T22:04:26Z</time>
      </trkpt>
      <trkpt lat="48.72217" lon="7.2298">
        <ele>229</ele>
        <time>2016-07-10T22:06:26Z</time>
      </trkpt>
      <trkpt lat="48.7223" lon="7.23">
        <ele>227</ele>
        <time>2016-07-10T22:08:26Z</time>
      </trkpt>
      <trkpt lat="48.7224" lon="7.23017">
        <ele>230</ele>
        <time>2016-07-10T22:10:26Z</time>
      </trkpt>
      <trkpt lat="48.72247" lon="7.23023">
        <ele>230</ele>
        <time>2016-07-10T22:12:26Z</time>
      </trkpt>
      <trkpt lat="48.72255" lon="7.23029">
        <ele>230</ele>
        <time>2016-07-10T22:14:26Z</time>
      </trkpt>
      <trkpt lat="48.72264" lon="7.23029">
        <ele>230</ele>
        <time>2016-07-10T22:16:26Z</time>
      </trkpt>
      <trkpt lat="48.72273" lon="7.23024">
        <ele>229</ele>
        <time>2016-07-10T22:18:26Z</time>
      </trkpt>
      <trkpt lat="48.72277" lon="7.23016">
        <ele>228</ele>
        <time>2016-07-10T22:20:26Z</time>
      </trkpt>
      <trkpt lat="48.72284" lon="7.22996">
        <ele>226</ele>
        <time>2016-07-10T22:22:26Z</time>
      </trkpt>
      <trkpt lat="48.7229" lon="7.22974">
        <ele>229</ele>
        <time>2016-07-10T22:24:26Z</time>
      </trkpt>
      <trkpt lat="48.72294" lon="7.22962">
        <ele>231</ele>
        <time>2016-07-10T22:26:26Z</time>
      </trkpt>
      <trkpt lat="48.72299" lon="7.22956">
        <ele>233</ele>
        <time>2016-07-10T22:28:26Z</time>
      </trkpt>
      <trkpt lat="48.72317" lon="7.2296">
        <ele>233</ele>
        <time>2016-07-10T22:30:26Z</time>
      </trkpt>
      <trkpt lat="48.72343" lon="7.22966">
        <ele>233</ele>
        <time>2016-07-10T22:32:26Z</time>
      </trkpt>
      <trkpt lat="48.724" lon="7.2298">
        <ele>228</ele>
        <time>2016-07-10T22:34:26Z</time>
      </trkpt>
      <trkpt lat="48.72452" lon="7.22995">
        <ele>226</ele>
        <time>2016-07-10T22:36:26Z</time>
      </trkpt>
      <trkpt lat="48.72477" lon="7.23001">
        <ele>227</ele>
        <time>2016-07-10T22:38:26Z</time>
      </trkpt>
      <trkpt lat="48.72508" lon="7.23009">
        <ele>228</ele>
        <time>2016-07-10T22:40:26Z</time>
      </trkpt>
      <trkpt lat="48.72532" lon="7.23015">
        <ele>228</ele>
        <time>2016-07-10T22:42:26Z</time>
      </trkpt>
      <trkpt lat="48.72573" lon="7.23024">
        <ele>227</ele>
        <time>2016-07-10T22:44:26Z</time>
      </trkpt>
      <trkpt lat="48.72606" lon="7.23035">
        <ele>227</ele>
        <time>2016-07-10T22:46:26Z</time>
      </trkpt>
      <trkpt lat="48.72632" lon="7.23048">
        <ele>226</ele>
        <time>2016-07-10T22:48:26Z</time>
      </trkpt>
      <trkpt lat="48.72654" lon="7.23063">
        <ele>225</ele>
        <time>2016-07-10T22:50:26Z</time>
      </trkpt>
      <trkpt lat="48.72683" lon="7.23094">
        <ele>224</ele>
        <time>2016-07-10T22:52:26Z</time>
      </trkpt>
      <trkpt lat="48.727" lon="7.23117">
        <ele>225</ele>
        <time>2016-07-10T22:54:26Z</time>
      </trkpt>
      <trkpt lat="48.72717" lon="7.23149">
        <ele>226</ele>
        <time>2016-07-10T22:56:26Z</time>
      </trkpt>
      <trkpt lat="48.72732" lon="7.23189">
        <ele>226</ele>
        <time>2016-07-10T22:58:26Z</time>
      </trkpt>
      <trkpt lat="48.72743" lon="7.23239">
        <ele>226</ele>
        <time>2016-07-10T23:00:26Z</time>
      </trkpt>
      <trkpt lat="48.72746" lon="7.23253">
        <ele>226</ele>
        <time>2016-07-10T23:02:26Z</time>
      </trkpt>
      <trkpt lat="48.7275" lon="7.23258">
        <ele>226</ele>
        <time>2016-07-10T23:04:26Z</time>
      </trkpt>
      <trkpt lat="48.72755" lon="7.23259">
        <ele>228</ele>
        <time>2016-07-10T23:06:26Z</time>
      </trkpt>
      <trkpt lat="48.72762" lon="7.23259">
        <ele>231</ele>
        <time>2016-07-10T23:08:26Z</time>
      </trkpt>
      <trkpt lat="48.72765" lon="7.2326">
        <ele>232</ele>
        <time>2016-07-10T23:10:26Z</time>
      </trkpt>
      <trkpt lat="48.72767" lon="7.23261">
        <ele>233</ele>
        <time>2016-07-10T23:12:26Z</time>
      </trkpt>
      <trkpt lat="48.72768" lon="7.23263">
        <ele>233</ele>
        <time>2016-07-10T23:14:26Z</time>
      </trkpt>
      <trkpt lat="48.7277" lon="7.23265">
        <ele>234</ele>
        <time>2016-07-10T23:16:26Z</time>
      </trkpt>
      <trkpt lat="48.72775" lon="7.23275">
        <ele>236</ele>
        <time>2016-07-10T23:18:26Z</time>
      </trkpt>
      <trkpt lat="48.72775" lon="7.23275">
        <ele>236</ele>
        <time>2016-07-10T23:20:26Z</time>
      </trkpt>
      <trkpt lat="48.72775" lon="7.2328">
        <ele>236</ele>
        <time>2016-07-10T23:22:26Z</time>
      </trkpt>
      <trkpt lat="48.72773" lon="7.23323">
        <ele>235</ele>
        <time>2016-07-10T23:24:26Z</time>
      </trkpt>
      <trkpt lat="48.72771" lon="7.2334">
        <ele>234</ele>
        <time>2016-07-10T23:26:26Z</time>
      </trkpt>
      <trkpt lat="48.7277" lon="7.23354">
        <ele>234</ele>
        <time>2016-07-10T23:28:26Z</time>
      </trkpt>
      <trkpt lat="48.7277" lon="7.23354">
        <ele>234</ele>
        <time>2016-07-10T23:30:26Z</time>
      </trkpt>
      <trkpt lat="48.72731" lon="7.23358">
        <ele>224</ele>
        <time>2016-07-10T23:32:26Z</time>
      </trkpt>
      <trkpt lat="48.72731" lon="7.23358">
        <ele>224</ele>
        <time>2016-07-10T23:34:26Z</time>
      </trkpt>
      <trkpt lat="48.7273" lon="7.23377">
        <ele>225</ele>
        <time>2016-07-10T23:36:26Z</time>
      </trkpt>
      <trkpt lat="48.7273" lon="7.23383">
        <ele>225</ele>
        <time>2016-07-10T23:38:26Z</time>
      </trkpt>
      <trkpt lat="48.72739" lon="7.23446">
        <ele>225</ele>
        <time>2016-07-10T23:40:26Z</time>
      </trkpt>
      <trkpt lat="48.72744" lon="7.23506">
        <ele>226</ele>
        <time>2016-07-10T23:42:26Z</time>
      </trkpt>
      <trkpt lat="48.72748" lon="7.23543">
        <ele>227</ele>
        <time>2016-07-10T23:44:26Z</time>
      </trkpt>
      <trkpt lat="48.72757" lon="7.23631">
        <ele>229</ele>
        <time>2016-07-10T23:46:26Z</time>
      </trkpt>
      <trkpt lat="48.72762" lon="7.23696">
        <ele>229</ele>
        <time>2016-07-10T23:48:26Z</time>
      </trkpt>
      <trkpt lat="48.72765" lon="7.23732">
        <ele>229</ele>
        <time>2016-07-10T23:50:26Z</time>
      </trkpt>
      <trkpt lat="48.72768" lon="7.23813">
        <ele>229</ele>
        <time>2016-07-10T23:52:26Z</time>
      </trkpt>
      <trkpt lat="48.72768" lon="7.23852">
        <ele>229</ele>
        <time>2016-07-10T23:54:26Z</time>
      </trkpt>
      <trkpt lat="48.72766" lon="7.23887">
        <ele>229</ele>
        <time>2016-07-10T23:56:26Z</time>
      </trkpt>
      <trkpt lat="48.72764" lon="7.23928">
        <ele>229</ele>
        <time>2016-07-10T23:58:26Z</time>
      </trkpt>
      <trkpt lat="48.72764" lon="7.23992">
        <ele>230</ele>
        <time>2016-07-11T00:00:26Z</time>
      </trkpt>
      <trkpt lat="48.72764" lon="7.24035">
        <ele>229</ele>
        <time>2016-07-11T00:02:26Z</time>
      </trkpt>
      <trkpt lat="48.72768" lon="7.24084">
        <ele>227</ele>
        <time>2016-07-11T00:04:26Z</time>
      </trkpt>
      <trkpt lat="48.72775" lon="7.2414">
        <ele>224</ele>
        <time>2016-07-11T00:06:26Z</time>
      </trkpt>
      <trkpt lat="48.72782" lon="7.24185">
        <ele>223</ele>
        <time>2016-07-11T00:08:26Z</time>
      </trkpt>
      <trkpt lat="48.72786" lon="7.24226">
        <ele>222</ele>
        <time>2016-07-11T00:10:26Z</time>
      </trkpt>
      <trkpt lat="48.72793" lon="7.24273">
        <ele>222</ele>
        <time>2016-07-11T00:12:26Z</time>
      </trkpt>
      <trkpt lat="48.728" lon="7.24306">
        <ele>221</ele>
        <time>2016-07-11T00:14:26Z</time>
      </trkpt>
      <trkpt lat="48.72812" lon="7.24348">
        <ele>220</ele>
        <time>2016-07-11T00:16:26Z</time>
      </trkpt>
      <trkpt lat="48.72814" lon="7.24355">
        <ele>220</ele>
        <time>2016-07-11T00:18:26Z</time>
      </trkpt>
      <trkpt lat="48.72838" lon="7.24421">
        <ele>218</ele>
        <time>2016-07-11T00:20:26Z</time>
      </trkpt>
      <trkpt lat="48.72844" lon="7.24436">
        <ele>220</ele>
        <time>2016-07-11T00:22:26Z</time>
      </trkpt>
      <trkpt lat="48.72862" lon="7.24494">
        <ele>221</ele>
        <time>2016-07-11T00:24:26Z</time>
      </trkpt>
      <trkpt lat="48.72882" lon="7.24549">
        <ele>222</ele>
        <time>2016-07-11T00:26:26Z</time>
      </trkpt>
      <trkpt lat="48.72913" lon="7.24638">
        <ele>218</ele>
        <time>2016-07-11T00:28:26Z</time>
      </trkpt>
      <trkpt lat="48.73023" lon="7.24956">
        <ele>221</ele>
        <time>2016-07-11T00:30:26Z</time>
      </trkpt>
      <trkpt lat="48.73029" lon="7.2497">
        <ele>221</ele>
        <time>2016-07-11T00:32:26Z</time>
      </trkpt>
      <trkpt lat="48.73042" lon="7.24998">
        <ele>220</ele>
        <time>2016-07-11T00:34:26Z</time>
      </trkpt>
      <trkpt lat="48.73052" lon="7.25015">
        <ele>220</ele>
        <time>2016-07-11T00:36:26Z</time>
      </trkpt>
      <trkpt lat="48.73064" lon="7.25031">
        <ele>220</ele>
        <time>2016-07-11T00:38:26Z</time>
      </trkpt>
      <trkpt lat="48.73076" lon="7.25043">
        <ele>219</ele>
        <time>2016-07-11T00:40:26Z</time>
      </trkpt>
      <trkpt lat="48.73096" lon="7.25063">
        <ele>217</ele>
        <time>2016-07-11T00:42:26Z</time>
      </trkpt>
      <trkpt lat="48.73116" lon="7.25074">
        <ele>216</ele>
        <time>2016-07-11T00:44:26Z</time>
      </trkpt>
      <trkpt lat="48.73129" lon="7.25081">
        <ele>215</ele>
        <time>2016-07-11T00:46:26Z</time>
      </trkpt>
      <trkpt lat="48.73136" lon="7.25083">
        <ele>214</ele>
        <time>2016-07-11T00:48:26Z</time>
      </trkpt>
      <trkpt lat="48.73141" lon="7.25085">
        <ele>214</ele>
        <time>2016-07-11T00:50:26Z</time>
      </trkpt>
      <trkpt lat="48.7315" lon="7.25086">
        <ele>214</ele>
        <time>2016-07-11T00:52:26Z</time>
      </trkpt>
      <trkpt lat="48.73159" lon="7.25084">
        <ele>214</ele>
        <time>2016-07-11T00:54:26Z</time>
      </trkpt>
      <trkpt lat="48.7318" lon="7.25078">
        <ele>215</ele>
        <time>2016-07-11T00:56:26Z</time>
      </trkpt>
      <trkpt lat="48.73206" lon="7.25068">
        <ele>217</ele>
        <time>2016-07-11T00:58:26Z</time>
      </trkpt>
      <trkpt lat="48.73216" lon="7.25063">
        <ele>217</ele>
        <time>2016-07-11T01:00:26Z</time>
      </trkpt>
      <trkpt lat="48.73226" lon="7.25056">
        <ele>217</ele>
        <time>2016-07-11T01:02:26Z</time>
      </trkpt>
      <trkpt lat="48.73226" lon="7.25056">
        <ele>217</ele>
        <time>2016-07-11T01:04:26Z</time>
      </trkpt>
      <trkpt lat="48.73236" lon="7.2503">
        <ele>218</ele>
        <time>2016-07-11T01:06:26Z</time>
      </trkpt>
      <trkpt lat="48.73247" lon="7.25011">
        <ele>217</ele>
        <time>2016-07-11T01:08:26Z</time>
      </trkpt>
      <trkpt lat="48.73258" lon="7.24993">
        <ele>217</ele>
        <time>2016-07-11T01:10:26Z</time>
      </trkpt>
      <trkpt lat="48.73269" lon="7.24979">
        <ele>216</ele>
        <time>2016-07-11T01:12:26Z</time>
      </trkpt>
      <trkpt lat="48.73283" lon="7.24965">
        <ele>216</ele>
        <time>2016-07-11T01:14:26Z</time>
      </trkpt>
      <trkpt lat="48.73298" lon="7.24954">
        <ele>215</ele>
        <time>2016-07-11T01:16:26Z</time>
      </trkpt>
      <trkpt lat="48.73313" lon="7.24946">
        <ele>213</ele>
        <time>2016-07-11T01:18:26Z</time>
      </trkpt>
      <trkpt lat="48.7333" lon="7.2494">
        <ele>212</ele>
        <time>2016-07-11T01:20:26Z</time>
      </trkpt>
      <trkpt lat="48.73335" lon="7.2494">
        <ele>212</ele>
        <time>2016-07-11T01:22:26Z</time>
      </trkpt>
      <trkpt lat="48.73339" lon="7.24939">
        <ele>212</ele>
        <time>2016-07-11T01:24:26Z</time>
      </trkpt>
      <trkpt lat="48.73343" lon="7.24938">
        <ele>212</ele>
        <time>2016-07-11T01:26:26Z</time>
      </trkpt>
      <trkpt lat="48.73359" lon="7.24938">
        <ele>213</ele>
        <time>2016-07-11T01:28:26Z</time>
      </trkpt>
      <trkpt lat="48.73374" lon="7.24941">
        <ele>214</ele>
        <time>2016-07-11T01:30:26Z</time>
      </trkpt>
      <trkpt lat="48.73387" lon="7.24947">
        <ele>215</ele>
        <time>2016-07-11T01:32:26Z</time>
      </trkpt>
      <trkpt lat="48.73401" lon="7.24955">
        <ele>215</ele>
        <time>2016-07-11T01:34:26Z</time>
      </trkpt>
      <trkpt lat="48.73414" lon="7.24965">
        <ele>215</ele>
        <time>2016-07-11T01:36:26Z</time>
      </trkpt>
      <trkpt lat="48.73425" lon="7.24977">
        <ele>215</ele>
        <time>2016-07-11T01:38:26Z</time>
      </trkpt>
      <trkpt lat="48.73433" lon="7.24988">
        <ele>214</ele>
        <time>2016-07-11T01:40:26Z</time>
      </trkpt>
      <trkpt lat="48.73442" lon="7.25001">
        <ele>213</ele>
        <time>2016-07-11T01:42:26Z</time>
      </trkpt>
      <trkpt lat="48.73449" lon="7.25015">
        <ele>213</ele>
        <time>2016-07-11T01:44:26Z</time>
      </trkpt>
      <trkpt lat="48.73455" lon="7.25028">
        <ele>213</ele>
        <time>2016-07-11T01:46:26Z</time>
      </trkpt>
      <trkpt lat="48.73469" lon="7.25063">
        <ele>212</ele>
        <time>2016-07-11T01:48:26Z</time>
      </trkpt>
      <trkpt lat="48.73474" lon="7.25074">
        <ele>212</ele>
        <time>2016-07-11T01:50:26Z</time>
      </trkpt>
      <trkpt lat="48.73489" lon="7.251">
        <ele>212</ele>
        <time>2016-07-11T01:52:26Z</time>
      </trkpt>
      <trkpt lat="48.73496" lon="7.25119">
        <ele>211</ele>
        <time>2016-07-11T01:54:26Z</time>
      </trkpt>
      <trkpt lat="48.73508" lon="7.25143">
        <ele>211</ele>
        <time>2016-07-11T01:56:26Z</time>
      </trkpt>
      <trkpt lat="48.73516" lon="7.25172">
        <ele>211</ele>
        <time>2016-07-11T01:58:26Z</time>
      </trkpt>
      <trkpt lat="48.73521" lon="7.25193">
        <ele>211</ele>
        <time>2016-07-11T02:00:26Z</time>
      </trkpt>
      <trkpt lat="48.73524" lon="7.25211">
        <ele>211</ele>
        <time>2016-07-11T02:02:26Z</time>
      </trkpt>
      <trkpt lat="48.73528" lon="7.25248">
        <ele>211</ele>
        <time>2016-07-11T02:04:26Z</time>
      </trkpt>
      <trkpt lat="48.73534" lon="7.25308">
        <ele>211</ele>
        <time>2016-07-11T02:06:26Z</time>
      </trkpt>
      <trkpt lat="48.73544" lon="7.25408">
        <ele>212</ele>
        <time>2016-07-11T02:08:26Z</time>
      </trkpt>
      <trkpt lat="48.73559" lon="7.25569">
        <ele>213</ele>
        <time>2016-07-11T02:10:26Z</time>
      </trkpt>
      <trkpt lat="48.73561" lon="7.25585">
        <ele>213</ele>
        <time>2016-07-11T02:12:26Z</time>
      </trkpt>
      <trkpt lat="48.73583" lon="7.25816">
        <ele>211</ele>
        <time>2016-07-11T02:14:26Z</time>
      </trkpt>
      <trkpt lat="48.73587" lon="7.25889">
        <ele>209</ele>
        <time>2016-07-11T02:16:26Z</time>
      </trkpt>
      <trkpt lat="48.73594" lon="7.2594">
        <ele>208</ele>
        <time>2016-07-11T02:18:26Z</time>
      </trkpt>
      <trkpt lat="48.73603" lon="7.25981">
        <ele>207</ele>
        <time>2016-07-11T02:20:26Z</time>
      </trkpt>
      <trkpt lat="48.73675" lon="7.26138">
        <ele>207</ele>
        <time>2016-07-11T02:22:26Z</time>
      </trkpt>
      <trkpt lat="48.73729" lon="7.26261">
        <ele>209</ele>
        <time>2016-07-11T02:24:26Z</time>
      </trkpt>
      <trkpt lat="48.73765" lon="7.26331">
        <ele>210</ele>
        <time>2016-07-11T02:26:26Z</time>
      </trkpt>
      <trkpt lat="48.73777" lon="7.26357">
        <ele>210</ele>
        <time>2016-07-11T02:28:26Z</time>
      </trkpt>
      <trkpt lat="48.73781" lon="7.26367">
        <ele>210</ele>
        <time>2016-07-11T02:30:26Z</time>
      </trkpt>
      <trkpt lat="48.7379" lon="7.26392">
        <ele>210</ele>
        <time>2016-07-11T02:32:26Z</time>
      </trkpt>
      <trkpt lat="48.73799" lon="7.26423">
        <ele>210</ele>
        <time>2016-07-11T02:34:26Z</time>
      </trkpt>
      <trkpt lat="48.73812" lon="7.26491">
        <ele>210</ele>
        <time>2016-07-11T02:36:26Z</time>
      </trkpt>
      <trkpt lat="48.73813" lon="7.26504">
        <ele>210</ele>
        <time>2016-07-11T02:38:26Z</time>
      </trkpt>
      <trkpt lat="48.73814" lon="7.26514">
        <ele>211</ele>
        <time>2016-07-11T02:40:26Z</time>
      </trkpt>
      <trkpt lat="48.73814" lon="7.26519">
        <ele>211</ele>
        <time>2016-07-11T02:42:26Z</time>
      </trkpt>
      <trkpt lat="48.73814" lon="7.26531">
        <ele>212</ele>
        <time>2016-07-11T02:44:26Z</time>
      </trkpt>
      <trkpt lat="48.73815" lon="7.26606">
        <ele>215</ele>
        <time>2016-07-11T02:46:26Z</time>
      </trkpt>
      <trkpt lat="48.73812" lon="7.26696">
        <ele>215</ele>
        <time>2016-07-11T02:48:26Z</time>
      </trkpt>
      <trkpt lat="48.73811" lon="7.26736">
        <ele>215</ele>
        <time>2016-07-11T02:50:26Z</time>
      </trkpt>
      <trkpt lat="48.73807" lon="7.26817">
        <ele>215</ele>
        <time>2016-07-11T02:52:26Z</time>
      </trkpt>
      <trkpt lat="48.738" lon="7.26942">
        <ele>217</ele>
        <time>2016-07-11T02:54:26Z</time>
      </trkpt>
      <trkpt lat="48.73796" lon="7.27025">
        <ele>217</ele>
        <time>2016-07-11T02:56:26Z</time>
      </trkpt>
      <trkpt lat="48.7379" lon="7.27096">
        <ele>218</ele>
        <time>2016-07-11T02:58:26Z</time>
      </trkpt>
      <trkpt lat="48.73788" lon="7.2711">
        <ele>218</ele>
        <time>2016-07-11T03:00:26Z</time>
      </trkpt>
      <trkpt lat="48.73786" lon="7.27121">
        <ele>218</ele>
        <time>2016-07-11T03:02:26Z</time>
      </trkpt>
      <trkpt lat="48.73766" lon="7.27188">
        <ele>215</ele>
        <time>2016-07-11T03:04:26Z</time>
      </trkpt>
      <trkpt lat="48.7375" lon="7.27225">
        <ele>210</ele>
        <time>2016-07-11T03:06:26Z</time>
      </trkpt>
      <trkpt lat="48.73715" lon="7.27292">
        <ele>211</ele>
        <time>2016-07-11T03:08:26Z</time>
      </trkpt>
      <trkpt lat="48.73689" lon="7.27334">
        <ele>210</ele>
        <time>2016-07-11T03:10:26Z</time>
      </trkpt>
      <trkpt lat="48.73651" lon="7.27396">
        <ele>212</ele>
        <time>2016-07-11T03:12:26Z</time>
      </trkpt>
      <trkpt lat="48.73568" lon="7.27533">
        <ele>218</ele>
        <time>2016-07-11T03:14:26Z</time>
      </trkpt>
      <trkpt lat="48.73547" lon="7.27569">
        <ele>220</ele>
        <time>2016-07-11T03:16:26Z</time>
      </trkpt>
      <trkpt lat="48.73535" lon="7.27593">
        <ele>219</ele>
        <time>2016-07-11T03:18:26Z</time>
      </trkpt>
      <trkpt lat="48.73513" lon="7.27643">
        <ele>217</ele>
        <time>2016-07-11T03:20:26Z</time>
      </trkpt>
      <trkpt lat="48.73491" lon="7.27701">
        <ele>214</ele>
        <time>2016-07-11T03:22:26Z</time>
      </trkpt>
      <trkpt lat="48.7342" lon="7.27908">
        <ele>212</ele>
        <time>2016-07-11T03:24:26Z</time>
      </trkpt>
      <trkpt lat="48.73388" lon="7.28001">
        <ele>213</ele>
        <time>2016-07-11T03:26:26Z</time>
      </trkpt>
      <trkpt lat="48.73358" lon="7.28087">
        <ele>210</ele>
        <time>2016-07-11T03:28:26Z</time>
      </trkpt>
      <trkpt lat="48.73317" lon="7.28211">
        <ele>208</ele>
        <time>2016-07-11T03:30:26Z</time>
      </trkpt>
      <trkpt lat="48.73289" lon="7.28287">
        <ele>213</ele>
        <time>2016-07-11T03:32:26Z</time>
      </trkpt>
      <trkpt lat="48.73271" lon="7.28335">
        <ele>213</ele>
        <time>2016-07-11T03:34:26Z</time>
      </trkpt>
      <trkpt lat="48.7326" lon="7.2837">
        <ele>214</ele>
        <time>2016-07-11T03:36:26Z</time>
      </trkpt>
      <trkpt lat="48.73214" lon="7.28502">
        <ele>217</ele>
        <time>2016-07-11T03:38:26Z</time>
      </trkpt>
      <trkpt lat="48.73186" lon="7.28583">
        <ele>213</ele>
        <time>2016-07-11T03:40:26Z</time>
      </trkpt>
      <trkpt lat="48.73173" lon="7.2863">
        <ele>210</ele>
        <time>2016-07-11T03:42:26Z</time>
      </trkpt>
      <trkpt lat="48.73158" lon="7.28689">
        <ele>210</ele>
        <time>2016-07-11T03:44:26Z</time>
      </trkpt>
      <trkpt lat="48.73156" lon="7.28696">
        <ele>210</ele>
        <time>2016-07-11T03:46:26Z</time>
      </trkpt>
      <trkpt lat="48.73154" lon="7.28704">
        <ele>210</ele>
        <time>2016-07-11T03:48:26Z</time>
      </trkpt>
      <trkpt lat="48.73101" lon="7.28933">
        <ele>212</ele>
        <time>2016-07-11T03:50:26Z</time>
      </trkpt>
      <trkpt lat="48.73087" lon="7.28992">
        <ele>208</ele>
        <time>2016-07-11T03:52:26Z</time>
      </trkpt>
      <trkpt lat="48.73075" lon="7.29079">
        <ele>209</ele>
        <time>2016-07-11T03:54:26Z</time>
      </trkpt>
      <trkpt lat="48.73059" lon="7.29161">
        <ele>210</ele>
        <time>2016-07-11T03:56:26Z</time>
      </trkpt>
      <trkpt lat="48.73049" lon="7.29207">
        <ele>211</ele>
        <time>2016-07-11T03:58:26Z</time>
      </trkpt>
      <trkpt lat="48.73038" lon="7.29244">
        <ele>210</ele>
        <time>2016-07-11T04:00:26Z</time>
      </trkpt>
      <trkpt lat="48.73013" lon="7.29326">
        <ele>210</ele>
        <time>2016-07-11T04:02:26Z</time>
      </trkpt>
      <trkpt lat="48.72994" lon="7.29398">
        <ele>210</ele>
        <time>2016-07-11T04:04:26Z</time>
      </trkpt>
      <trkpt lat="48.72969" lon="7.29508">
        <ele>217</ele>
        <time>2016-07-11T04:06:26Z</time>
      </trkpt>
      <trkpt lat="48.72954" lon="7.29577">
        <ele>219</ele>
        <time>2016-07-11T04:08:26Z</time>
      </trkpt>
      <trkpt lat="48.72942" lon="7.29632">
        <ele>216</ele>
        <time>2016-07-11T04:10:26Z</time>
      </trkpt>
      <trkpt lat="48.72904" lon="7.29798">
        <ele>210</ele>
        <time>2016-07-11T04:12:26Z</time>
      </trkpt>
      <trkpt lat="48.72892" lon="7.29829">
        <ele>210</ele>
        <time>2016-07-11T04:14:26Z</time>
      </trkpt>
      <trkpt lat="48.72887" lon="7.29849">
        <ele>212</ele>
        <time>2016-07-11T04:16:26Z</time>
      </trkpt>
      <trkpt lat="48.72869" lon="7.29881">
        <ele>213</ele>
        <time>2016-07-11T04:18:26Z</time>
      </trkpt>
      <trkpt lat="48.72848" lon="7.29899">
        <ele>211</ele>
        <time>2016-07-11T04:20:26Z</time>
      </trkpt>
      <trkpt lat="48.72823" lon="7.29909">
        <ele>209</ele>
        <time>2016-07-11T04:22:26Z</time>
      </trkpt>
      <trkpt lat="48.72798" lon="7.29911">
        <ele>208</ele>
        <time>2016-07-11T04:24:26Z</time>
      </trkpt>
      <trkpt lat="48.72773" lon="7.29904">
        <ele>209</ele>
        <time>2016-07-11T04:26:26Z</time>
      </trkpt>
      <trkpt lat="48.72742" lon="7.29888">
        <ele>210</ele>
        <time>2016-07-11T04:28:26Z</time>
      </trkpt>
      <trkpt lat="48.72715" lon="7.29877">
        <ele>209</ele>
        <time>2016-07-11T04:30:26Z</time>
      </trkpt>
      <trkpt lat="48.72693" lon="7.29875">
        <ele>208</ele>
        <time>2016-07-11T04:32:26Z</time>
      </trkpt>
      <trkpt lat="48.72689" lon="7.29875">
        <ele>208</ele>
        <time>2016-07-11T04:34:26Z</time>
      </trkpt>
      <trkpt lat="48.72678" lon="7.29876">
        <ele>208</ele>
        <time>2016-07-11T04:36:26Z</time>
      </trkpt>
      <trkpt lat="48.72647" lon="7.29888">
        <ele>208</ele>
        <time>2016-07-11T04:38:26Z</time>
      </trkpt>
      <trkpt lat="48.72614" lon="7.29914">
        <ele>205</ele>
        <time>2016-07-11T04:40:26Z</time>
      </trkpt>
      <trkpt lat="48.72592" lon="7.29945">
        <ele>203</ele>
        <time>2016-07-11T04:42:26Z</time>
      </trkpt>
      <trkpt lat="48.72573" lon="7.29987">
        <ele>205</ele>
        <time>2016-07-11T04:44:26Z</time>
      </trkpt>
      <trkpt lat="48.72558" lon="7.30036">
        <ele>210</ele>
        <time>2016-07-11T04:46:26Z</time>
      </trkpt>
      <trkpt lat="48.72524" lon="7.30199">
        <ele>212</ele>
        <time>2016-07-11T04:48:26Z</time>
      </trkpt>
      <trkpt lat="48.72512" lon="7.30246">
        <ele>207</ele>
        <time>2016-07-11T04:50:26Z</time>
      </trkpt>
      <trkpt lat="48.72507" lon="7.30263">
        <ele>206</ele>
        <time>2016-07-11T04:52:26Z</time>
      </trkpt>
      <trkpt lat="48.72507" lon="7.30264">
        <ele>206</ele>
        <time>2016-07-11T04:54:26Z</time>
      </trkpt>
      <trkpt lat="48.72505" lon="7.3027">
        <ele>205</ele>
        <time>2016-07-11T04:56:26Z</time>
      </trkpt>
      <trkpt lat="48.72493" lon="7.30307">
        <ele>206</ele>
        <time>2016-07-11T04:58:26Z</time>
      </trkpt>
      <trkpt lat="48.72483" lon="7.30331">
        <ele>208</ele>
        <time>2016-07-11T05:00:26Z</time>
      </trkpt>
      <trkpt lat="48.72475" lon="7.30349">
        <ele>211</ele>
        <time>2016-07-11T05:02:26Z</time>
      </trkpt>
      <trkpt lat="48.72444" lon="7.30401">
        <ele>213</ele>
        <time>2016-07-11T05:04:26Z</time>
      </trkpt>
      <trkpt lat="48.72408" lon="7.30457">
        <ele>212</ele>
        <time>2016-07-11T05:06:26Z</time>
      </trkpt>
      <trkpt lat="48.72371" lon="7.30506">
        <ele>209</ele>
        <time>2016-07-11T05:08:26Z</time>
      </trkpt>
      <trkpt lat="48.7233" lon="7.30544">
        <ele>206</ele>
        <time>2016-07-11T05:10:26Z</time>
      </trkpt>
      <trkpt lat="48.723" lon="7.30567">
        <ele>205</ele>
        <time>2016-07-11T05:12:26Z</time>
      </trkpt>
      <trkpt lat="48.72273" lon="7.30581">
        <ele>202</ele>
        <time>2016-07-11T05:14:26Z</time>
      </trkpt>
      <trkpt lat="48.7222" lon="7.306">
        <ele>202</ele>
        <time>2016-07-11T05:16:26Z</time>
      </trkpt>
      <trkpt lat="48.72173" lon="7.30618">
        <ele>202</ele>
        <time>2016-07-11T05:18:26Z</time>
      </trkpt>
      <trkpt lat="48.72153" lon="7.30631">
        <ele>203</ele>
        <time>2016-07-11T05:20:26Z</time>
      </trkpt>
      <trkpt lat="48.72132" lon="7.30647">
        <ele>203</ele>
        <time>2016-07-11T05:22:26Z</time>
      </trkpt>
      <trkpt lat="48.72121" lon="7.30662">
        <ele>202</ele>
        <time>2016-07-11T05:24:26Z</time>
      </trkpt>
      <trkpt lat="48.72099" lon="7.307">
        <ele>202</ele>
        <time>2016-07-11T05:26:26Z</time>
      </trkpt>
      <trkpt lat="48.72094" lon="7.30711">
        <ele>201</ele>
        <time>2016-07-11T05:28:26Z</time>
      </trkpt>
      <trkpt lat="48.72091" lon="7.3072">
        <ele>201</ele>
        <time>2016-07-11T05:30:26Z</time>
      </trkpt>
      <trkpt lat="48.72088" lon="7.30726">
        <ele>200</ele>
        <time>2016-07-11T05:32:26Z</time>
      </trkpt>
      <trkpt lat="48.72087" lon="7.30733">
        <ele>200</ele>
        <time>2016-07-11T05:34:26Z</time>
      </trkpt>
      <trkpt lat="48.72086" lon="7.30735">
        <ele>200</ele>
        <time>2016-07-11T05:36:26Z</time>
      </trkpt>
      <trkpt lat="48.72079" lon="7.3076">
        <ele>200</ele>
        <time>2016-07-11T05:38:26Z</time>
      </trkpt>
      <trkpt lat="48.72077" lon="7.30774">
        <ele>200</ele>
        <time>2016-07-11T05:40:26Z</time>
      </trkpt>
      <trkpt lat="48.72076" lon="7.30778">
        <ele>200</ele>
        <time>2016-07-11T05:42:26Z</time>
      </trkpt>
      <trkpt lat="48.72076" lon="7.30782">
        <ele>200</ele>
        <time>2016-07-11T05:44:26Z</time>
      </trkpt>
      <trkpt lat="48.72075" lon="7.30786">
        <ele>200</ele>
        <time>2016-07-11T05:46:26Z</time>
      </trkpt>
      <trkpt lat="48.72074" lon="7.30802">
        <ele>201</ele>
        <time>2016-07-11T05:48:26Z</time>
      </trkpt>
      <trkpt lat="48.72073" lon="7.30818">
        <ele>201</ele>
        <time>2016-07-11T05:50:26Z</time>
      </trkpt>
      <trkpt lat="48.72073" lon="7.30848">
        <ele>202</ele>
        <time>2016-07-11T05:52:26Z</time>
      </trkpt>
      <trkpt lat="48.72074" lon="7.30867">
        <ele>202</ele>
        <time>2016-07-11T05:54:26Z</time>
      </trkpt>
      <trkpt lat="48.72078" lon="7.30937">
        <ele>202</ele>
        <time>2016-07-11T05:56:26Z</time>
      </trkpt>
      <trkpt lat="48.72078" lon="7.30959">
        <ele>202</ele>
        <time>2016-07-11T05:58:26Z</time>
      </trkpt>
      <trkpt lat="48.7208" lon="7.30991">
        <ele>202</ele>
        <time>2016-07-11T06:00:26Z</time>
      </trkpt>
      <trkpt lat="48.72079" lon="7.31024">
        <ele>204</ele>
        <time>2016-07-11T06:02:26Z</time>
      </trkpt>
      <trkpt lat="48.72079" lon="7.3104">
        <ele>205</ele>
        <time>2016-07-11T06:04:26Z</time>
      </trkpt>
      <trkpt lat="48.72078" lon="7.31051">
        <ele>206</ele>
        <time>2016-07-11T06:06:26Z</time>
      </trkpt>
      <trkpt lat="48.72076" lon="7.31079">
        <ele>207</ele>
        <time>2016-07-11T06:08:26Z</time>
      </trkpt>
      <trkpt lat="48.72071" lon="7.31111">
        <ele>208</ele>
        <time>2016-07-11T06:10:26Z</time>
      </trkpt>
      <trkpt lat="48.72063" lon="7.31165">
        <ele>208</ele>
        <time>2016-07-11T06:12:26Z</time>
      </trkpt>
      <trkpt lat="48.72061" lon="7.31191">
        <ele>206</ele>
        <time>2016-07-11T06:14:26Z</time>
      </trkpt>
      <trkpt lat="48.72061" lon="7.3122">
        <ele>205</ele>
        <time>2016-07-11T06:16:26Z</time>
      </trkpt>
      <trkpt lat="48.72061" lon="7.31226">
        <ele>205</ele>
        <time>2016-07-11T06:18:26Z</time>
      </trkpt>
      <trkpt lat="48.72061" lon="7.31229">
        <ele>205</ele>
        <time>2016-07-11T06:20:26Z</time>
      </trkpt>
      <trkpt lat="48.72065" lon="7.31266">
        <ele>203</ele>
        <time>2016-07-11T06:22:26Z</time>
      </trkpt>
      <trkpt lat="48.72066" lon="7.31272">
        <ele>203</ele>
        <time>2016-07-11T06:24:26Z</time>
      </trkpt>
      <trkpt lat="48.72067" lon="7.31279">
        <ele>203</ele>
        <time>2016-07-11T06:26:26Z</time>
      </trkpt>
      <trkpt lat="48.72068" lon="7.31284">
        <ele>203</ele>
        <time>2016-07-11T06:28:26Z</time>
      </trkpt>
      <trkpt lat="48.72083" lon="7.31346">
        <ele>202</ele>
        <time>2016-07-11T06:30:26Z</time>
      </trkpt>
      <trkpt lat="48.72097" lon="7.31392">
        <ele>205</ele>
        <time>2016-07-11T06:32:26Z</time>
      </trkpt>
      <trkpt lat="48.72113" lon="7.31438">
        <ele>206</ele>
        <time>2016-07-11T06:34:26Z</time>
      </trkpt>
      <trkpt lat="48.72129" lon="7.31485">
        <ele>206</ele>
        <time>2016-07-11T06:36:26Z</time>
      </trkpt>
      <trkpt lat="48.72145" lon="7.31538">
        <ele>205</ele>
        <time>2016-07-11T06:38:26Z</time>
      </trkpt>
      <trkpt lat="48.72148" lon="7.31554">
        <ele>204</ele>
        <time>2016-07-11T06:40:26Z</time>
      </trkpt>
      <trkpt lat="48.72152" lon="7.31577">
        <ele>203</ele>
        <time>2016-07-11T06:42:26Z</time>
      </trkpt>
      <trkpt lat="48.72153" lon="7.31581">
        <ele>203</ele>
        <time>2016-07-11T06:44:26Z</time>
      </trkpt>
      <trkpt lat="48.72155" lon="7.31587">
        <ele>202</ele>
        <time>2016-07-11T06:46:26Z</time>
      </trkpt>
      <trkpt lat="48.72162" lon="7.3162">
        <ele>202</ele>
        <time>2016-07-11T06:48:26Z</time>
      </trkpt>
      <trkpt lat="48.72171" lon="7.31687">
        <ele>202</ele>
        <time>2016-07-11T06:50:26Z</time>
      </trkpt>
      <trkpt lat="48.72178" lon="7.31748">
        <ele>203</ele>
        <time>2016-07-11T06:52:26Z</time>
      </trkpt>
      <trkpt lat="48.72182" lon="7.31806">
        <ele>202</ele>
        <time>2016-07-11T06:54:26Z</time>
      </trkpt>
      <trkpt lat="48.72187" lon="7.31858">
        <ele>202</ele>
        <time>2016-07-11T06:56:26Z</time>
      </trkpt>
      <trkpt lat="48.72193" lon="7.31896">
        <ele>204</ele>
        <time>2016-07-11T06:58:26Z</time>
      </trkpt>
      <trkpt lat="48.722" lon="7.31934">
        <ele>204</ele>
        <time>2016-07-11T07:00:26Z</time>
      </trkpt>
      <trkpt lat="48.72214" lon="7.31974">
        <ele>203</ele>
        <time>2016-07-11T07:02:26Z</time>
      </trkpt>
      <trkpt lat="48.72234" lon="7.3203">
        <ele>202</ele>
        <time>2016-07-11T07:04:26Z</time>
      </trkpt>
      <trkpt lat="48.72246" lon="7.32055">
        <ele>201</ele>
        <time>2016-07-11T07:06:26Z</time>
      </trkpt>
      <trkpt lat="48.72284" lon="7.32121">
        <ele>205</ele>
        <time>2016-07-11T07:08:26Z</time>
      </trkpt>
      <trkpt lat="48.72321" lon="7.32178">
        <ele>203</ele>
        <time>2016-07-11T07:10:26Z</time>
      </trkpt>
      <trkpt lat="48.72362" lon="7.32236">
        <ele>202</ele>
        <time>2016-07-11T07:12:26Z</time>
      </trkpt>
      <trkpt lat="48.72397" lon="7.32288">
        <ele>201</ele>
        <time>2016-07-11T07:14:26Z</time>
      </trkpt>
      <trkpt lat="48.72422" lon="7.32313">
        <ele>200</ele>
        <time>2016-07-11T07:16:26Z</time>
      </trkpt>
      <trkpt lat="48.72434" lon="7.32325">
        <ele>200</ele>
        <time>2016-07-11T07:18:26Z</time>
      </trkpt>
      <trkpt lat="48.72445" lon="7.32342">
        <ele>201</ele>
        <time>2016-07-11T07:20:26Z</time>
      </trkpt>
      <trkpt lat="48.72451" lon="7.32355">
        <ele>201</ele>
        <time>2016-07-11T07:22:26Z</time>
      </trkpt>
      <trkpt lat="48.72464" lon="7.32378">
        <ele>201</ele>
        <time>2016-07-11T07:24:26Z</time>
      </trkpt>
      <trkpt lat="48.72573" lon="7.32536">
        <ele>203</ele>
        <time>2016-07-11T07:26:26Z</time>
      </trkpt>
      <trkpt lat="48.72586" lon="7.32553">
        <ele>203</ele>
        <time>2016-07-11T07:28:26Z</time>
      </trkpt>
      <trkpt lat="48.72606" lon="7.32597">
        <ele>206</ele>
        <time>2016-07-11T07:30:26Z</time>
      </trkpt>
      <trkpt lat="48.72627" lon="7.32666">
        <ele>207</ele>
        <time>2016-07-11T07:32:26Z</time>
      </trkpt>
      <trkpt lat="48.72635" lon="7.32718">
        <ele>207</ele>
        <time>2016-07-11T07:34:26Z</time>
      </trkpt>
      <trkpt lat="48.72656" lon="7.32877">
        <ele>204</ele>
        <time>2016-07-11T07:36:26Z</time>
      </trkpt>
      <trkpt lat="48.72665" lon="7.32928">
        <ele>202</ele>
        <time>2016-07-11T07:38:26Z</time>
      </trkpt>
      <trkpt lat="48.72676" lon="7.32971">
        <ele>200</ele>
        <time>2016-07-11T07:40:26Z</time>
      </trkpt>
      <trkpt lat="48.72691" lon="7.33017">
        <ele>199</ele>
        <time>2016-07-11T07:42:26Z</time>
      </trkpt>
      <trkpt lat="48.72709" lon="7.33063">
        <ele>199</ele>
        <time>2016-07-11T07:44:26Z</time>
      </trkpt>
      <trkpt lat="48.7273" lon="7.33102">
        <ele>199</ele>
        <time>2016-07-11T07:46:26Z</time>
      </trkpt>
      <trkpt lat="48.7274" lon="7.33115">
        <ele>199</ele>
        <time>2016-07-11T07:48:26Z</time>
      </trkpt>
      <trkpt lat="48.72775" lon="7.33155">
        <ele>198</ele>
        <time>2016-07-11T07:50:26Z</time>
      </trkpt>
      <trkpt lat="48.72815" lon="7.33192">
        <ele>198</ele>
        <time>2016-07-11T07:52:26Z</time>
      </trkpt>
      <trkpt lat="48.72825" lon="7.33199">
        <ele>198</ele>
        <time>2016-07-11T07:54:26Z</time>
      </trkpt>
      <trkpt lat="48.72858" lon="7.33219">
        <ele>197</ele>
        <time>2016-07-11T07:56:26Z</time>
      </trkpt>
      <trkpt lat="48.72907" lon="7.33237">
        <ele>195</ele>
        <time>2016-07-11T07:58:26Z</time>
      </trkpt>
      <trkpt lat="48.72967" lon="7.33258">
        <ele>198</ele>
        <time>2016-07-11T08:00:26Z</time>
      </trkpt>
      <trkpt lat="48.72978" lon="7.33265">
        <ele>198</ele>
        <time>2016-07-11T08:02:26Z</time>
      </trkpt>
      <trkpt lat="48.73001" lon="7.33279">
        <ele>199</ele>
        <time>2016-07-11T08:04:26Z</time>
      </trkpt>
      <trkpt lat="48.73025" lon="7.33298">
        <ele>199</ele>
        <time>2016-07-11T08:06:26Z</time>
      </trkpt>
      <trkpt lat="48.73043" lon="7.3332">
        <ele>197</ele>
        <time>2016-07-11T08:08:26Z</time>
      </trkpt>
      <trkpt lat="48.73059" lon="7.33352">
        <ele>196</ele>
        <time>2016-07-11T08:10:26Z</time>
      </trkpt>
      <trkpt lat="48.73081" lon="7.33442">
        <ele>196</ele>
        <time>2016-07-11T08:12:26Z</time>
      </trkpt>
      <trkpt lat="48.73091" lon="7.33466">
        <ele>197</ele>
        <time>2016-07-11T08:14:26Z</time>
      </trkpt>
      <trkpt lat="48.73094" lon="7.33479">
        <ele>197</ele>
        <time>2016-07-11T08:16:26Z</time>
      </trkpt>
      <trkpt lat="48.73098" lon="7.33498">
        <ele>198</ele>
        <time>2016-07-11T08:18:26Z</time>
      </trkpt>
      <trkpt lat="48.73105" lon="7.33541">
        <ele>200</ele>
        <time>2016-07-11T08:20:26Z</time>
      </trkpt>
      <trkpt lat="48.7311" lon="7.33568">
        <ele>200</ele>
        <time>2016-07-11T08:22:26Z</time>
      </trkpt>
      <trkpt lat="48.7311" lon="7.33569">
        <ele>200</ele>
        <time>2016-07-11T08:24:26Z</time>
      </trkpt>
      <trkpt lat="48.7311" lon="7.33578">
        <ele>200</ele>
        <time>2016-07-11T08:26:26Z</time>
      </trkpt>
      <trkpt lat="48.7311" lon="7.33594">
        <ele>201</ele>
        <time>2016-07-11T08:28:26Z</time>
      </trkpt>
      <trkpt lat="48.73121" lon="7.33687">
        <ele>201</ele>
        <time>2016-07-11T08:30:26Z</time>
      </trkpt>
      <trkpt lat="48.73126" lon="7.33742">
        <ele>201</ele>
        <time>2016-07-11T08:32:26Z</time>
      </trkpt>
      <trkpt lat="48.73125" lon="7.33777">
        <ele>203</ele>
        <time>2016-07-11T08:34:26Z</time>
      </trkpt>
      <trkpt lat="48.73125" lon="7.33804">
        <ele>204</ele>
        <time>2016-07-11T08:36:26Z</time>
      </trkpt>
      <trkpt lat="48.73126" lon="7.33824">
        <ele>205</ele>
        <time>2016-07-11T08:38:26Z</time>
      </trkpt>
      <trkpt lat="48.73128" lon="7.33843">
        <ele>205</ele>
        <time>2016-07-11T08:40:26Z</time>
      </trkpt>
      <trkpt lat="48.73132" lon="7.33894">
        <ele>207</ele>
        <time>2016-07-11T08:42:26Z</time>
      </trkpt>
      <trkpt lat="48.7314" lon="7.3394">
        <ele>207</ele>
        <time>2016-07-11T08:44:26Z</time>
      </trkpt>
      <trkpt lat="48.73148" lon="7.33972">
        <ele>207</ele>
        <time>2016-07-11T08:46:26Z</time>
      </trkpt>
      <trkpt lat="48.73153" lon="7.33985">
        <ele>206</ele>
        <time>2016-07-11T08:48:26Z</time>
      </trkpt>
      <trkpt lat="48.73162" lon="7.34015">
        <ele>207</ele>
        <time>2016-07-11T08:50:26Z</time>
      </trkpt>
      <trkpt lat="48.73186" lon="7.34062">
        <ele>210</ele>
        <time>2016-07-11T08:52:26Z</time>
      </trkpt>
      <trkpt lat="48.732" lon="7.34081">
        <ele>210</ele>
        <time>2016-07-11T08:54:26Z</time>
      </trkpt>
      <trkpt lat="48.73208" lon="7.34091">
        <ele>211</ele>
        <time>2016-07-11T08:56:26Z</time>
      </trkpt>
      <trkpt lat="48.73238" lon="7.34119">
        <ele>210</ele>
        <time>2016-07-11T08:58:26Z</time>
      </trkpt>
      <trkpt lat="48.73243" lon="7.34125">
        <ele>210</ele>
        <time>2016-07-11T09:00:26Z</time>
      </trkpt>
      <trkpt lat="48.73251" lon="7.3413">
        <ele>209</ele>
        <time>2016-07-11T09:02:26Z</time>
      </trkpt>
      <trkpt lat="48.73271" lon="7.34139">
        <ele>208</ele>
        <time>2016-07-11T09:04:26Z</time>
      </trkpt>
      <trkpt lat="48.73324" lon="7.34164">
        <ele>203</ele>
        <time>2016-07-11T09:06:26Z</time>
      </trkpt>
      <trkpt lat="48.73356" lon="7.34182">
        <ele>201</ele>
        <time>2016-07-11T09:08:26Z</time>
      </trkpt>
      <trkpt lat="48.7337" lon="7.34198">
        <ele>202</ele>
        <time>2016-07-11T09:10:26Z</time>
      </trkpt>
      <trkpt lat="48.73372" lon="7.34203">
        <ele>203</ele>
        <time>2016-07-11T09:12:26Z</time>
      </trkpt>
      <trkpt lat="48.73373" lon="7.34211">
        <ele>204</ele>
        <time>2016-07-11T09:14:26Z</time>
      </trkpt>
      <trkpt lat="48.73374" lon="7.34217">
        <ele>205</ele>
        <time>2016-07-11T09:16:26Z</time>
      </trkpt>
      <trkpt lat="48.73374" lon="7.34226">
        <ele>207</ele>
        <time>2016-07-11T09:18:26Z</time>
      </trkpt>
      <trkpt lat="48.73373" lon="7.34233">
        <ele>208</ele>
        <time>2016-07-11T09:20:26Z</time>
      </trkpt>
      <trkpt lat="48.73372" lon="7.34242">
        <ele>210</ele>
        <time>2016-07-11T09:22:26Z</time>
      </trkpt>
      <trkpt lat="48.73371" lon="7.34252">
        <ele>211</ele>
        <time>2016-07-11T09:24:26Z</time>
      </trkpt>
      <trkpt lat="48.73373" lon="7.34258">
        <ele>212</ele>
        <time>2016-07-11T09:26:26Z</time>
      </trkpt>
      <trkpt lat="48.73375" lon="7.34262">
        <ele>212</ele>
        <time>2016-07-11T09:28:26Z</time>
      </trkpt>
      <trkpt lat="48.73379" lon="7.34266">
        <ele>212</ele>
        <time>2016-07-11T09:30:26Z</time>
      </trkpt>
      <trkpt lat="48.73389" lon="7.34267">
        <ele>211</ele>
        <time>2016-07-11T09:32:26Z</time>
      </trkpt>
      <trkpt lat="48.73403" lon="7.34267">
        <ele>209</ele>
        <time>2016-07-11T09:34:26Z</time>
      </trkpt>
      <trkpt lat="48.7342" lon="7.34266">
        <ele>207</ele>
        <time>2016-07-11T09:36:26Z</time>
      </trkpt>
      <trkpt lat="48.73433" lon="7.34267">
        <ele>205</ele>
        <time>2016-07-11T09:38:26Z</time>
      </trkpt>
      <trkpt lat="48.73438" lon="7.34272">
        <ele>205</ele>
        <time>2016-07-11T09:40:26Z</time>
      </trkpt>
      <trkpt lat="48.73444" lon="7.34278">
        <ele>205</ele>
        <time>2016-07-11T09:42:26Z</time>
      </trkpt>
      <trkpt lat="48.736" lon="7.34521">
        <ele>211</ele>
        <time>2016-07-11T09:44:26Z</time>
      </trkpt>
      <trkpt lat="48.73638" lon="7.34581">
        <ele>210</ele>
        <time>2016-07-11T09:46:26Z</time>
      </trkpt>
      <trkpt lat="48.73667" lon="7.3461">
        <ele>208</ele>
        <time>2016-07-11T09:48:26Z</time>
      </trkpt>
      <trkpt lat="48.73671" lon="7.34615">
        <ele>209</ele>
        <time>2016-07-11T09:50:26Z</time>
      </trkpt>
      <trkpt lat="48.73704" lon="7.34655">
        <ele>212</ele>
        <time>2016-07-11T09:52:26Z</time>
      </trkpt>
      <trkpt lat="48.73717" lon="7.34671">
        <ele>213</ele>
        <time>2016-07-11T09:54:26Z</time>
      </trkpt>
      <trkpt lat="48.73734" lon="7.34688">
        <ele>214</ele>
        <time>2016-07-11T09:56:26Z</time>
      </trkpt>
      <trkpt lat="48.73745" lon="7.34698">
        <ele>214</ele>
        <time>2016-07-11T09:58:26Z</time>
      </trkpt>
      <trkpt lat="48.73795" lon="7.3474">
        <ele>210</ele>
        <time>2016-07-11T10:00:26Z</time>
      </trkpt>
      <trkpt lat="48.73837" lon="7.34774">
        <ele>207</ele>
        <time>2016-07-11T10:02:26Z</time>
      </trkpt>
      <trkpt lat="48.73858" lon="7.34795">
        <ele>209</ele>
        <time>2016-07-11T10:04:26Z</time>
      </trkpt>
      <trkpt lat="48.73996" lon="7.34929">
        <ele>203</ele>
        <time>2016-07-11T10:06:26Z</time>
      </trkpt>
      <trkpt lat="48.7401" lon="7.34943">
        <ele>202</ele>
        <time>2016-07-11T10:08:26Z</time>
      </trkpt>
      <trkpt lat="48.7402" lon="7.34956">
        <ele>201</ele>
        <time>2016-07-11T10:10:26Z</time>
      </trkpt>
      <trkpt lat="48.74034" lon="7.34974">
        <ele>200</ele>
        <time>2016-07-11T10:12:26Z</time>
      </trkpt>
      <trkpt lat="48.74044" lon="7.34991">
        <ele>198</ele>
        <time>2016-07-11T10:14:26Z</time>
      </trkpt>
      <trkpt lat="48.74061" lon="7.3503">
        <ele>196</ele>
        <time>2016-07-11T10:16:26Z</time>
      </trkpt>
      <trkpt lat="48.74073" lon="7.35065">
        <ele>196</ele>
        <time>2016-07-11T10:18:26Z</time>
      </trkpt>
      <trkpt lat="48.74077" lon="7.35078">
        <ele>197</ele>
        <time>2016-07-11T10:20:26Z</time>
      </trkpt>
      <trkpt lat="48.74085" lon="7.35112">
        <ele>196</ele>
        <time>2016-07-11T10:22:26Z</time>
      </trkpt>
      <trkpt lat="48.74089" lon="7.35131">
        <ele>196</ele>
        <time>2016-07-11T10:24:26Z</time>
      </trkpt>
      <trkpt lat="48.74094" lon="7.35173">
        <ele>197</ele>
        <time>2016-07-11T10:26:26Z</time>
      </trkpt>
      <trkpt lat="48.74096" lon="7.35206">
        <ele>195</ele>
        <time>2016-07-11T10:28:26Z</time>
      </trkpt>
      <trkpt lat="48.74097" lon="7.3525">
        <ele>194</ele>
        <time>2016-07-11T10:30:26Z</time>
      </trkpt>
      <trkpt lat="48.74096" lon="7.35331">
        <ele>192</ele>
        <time>2016-07-11T10:32:26Z</time>
      </trkpt>
      <trkpt lat="48.74093" lon="7.35442">
        <ele>193</ele>
        <time>2016-07-11T10:34:26Z</time>
      </trkpt>
      <trkpt lat="48.74093" lon="7.35442">
        <ele>193</ele>
        <time>2016-07-11T10:36:26Z</time>
      </trkpt>
      <trkpt lat="48.74092" lon="7.35457">
        <ele>193</ele>
        <time>2016-07-11T10:38:26Z</time>
      </trkpt>
      <trkpt lat="48.74091" lon="7.35525">
        <ele>194</ele>
        <time>2016-07-11T10:40:26Z</time>
      </trkpt>
      <trkpt lat="48.74091" lon="7.3555">
        <ele>194</ele>
        <time>2016-07-11T10:42:26Z</time>
      </trkpt>
      <trkpt lat="48.74089" lon="7.35614">
        <ele>196</ele>
        <time>2016-07-11T10:44:26Z</time>
      </trkpt>
      <trkpt lat="48.74089" lon="7.35631">
        <ele>196</ele>
        <time>2016-07-11T10:46:26Z</time>
      </trkpt>
      <trkpt lat="48.74092" lon="7.35644">
        <ele>196</ele>
        <time>2016-07-11T10:48:26Z</time>
      </trkpt>
      <trkpt lat="48.74092" lon="7.35652">
        <ele>197</ele>
        <time>2016-07-11T10:50:26Z</time>
      </trkpt>
      <trkpt lat="48.74089" lon="7.35794">
        <ele>197</ele>
        <time>2016-07-11T10:52:26Z</time>
      </trkpt>
      <trkpt lat="48.74088" lon="7.35799">
        <ele>197</ele>
        <time>2016-07-11T10:54:26Z</time>
      </trkpt>
      <trkpt lat="48.74086" lon="7.35915">
        <ele>199</ele>
        <time>2016-07-11T10:56:26Z</time>
      </trkpt>
      <trkpt lat="48.74087" lon="7.3592">
        <ele>199</ele>
        <time>2016-07-11T10:58:26Z</time>
      </trkpt>
      <trkpt lat="48.74107" lon="7.3596">
        <ele>199</ele>
        <time>2016-07-11T11:00:26Z</time>
      </trkpt>
      <trkpt lat="48.74109" lon="7.35964">
        <ele>199</ele>
        <time>2016-07-11T11:02:26Z</time>
      </trkpt>
      <trkpt lat="48.7411" lon="7.35966">
        <ele>198</ele>
        <time>2016-07-11T11:04:26Z</time>
      </trkpt>
      <trkpt lat="48.74116" lon="7.35976">
        <ele>198</ele>
        <time>2016-07-11T11:06:26Z</time>
      </trkpt>
      <trkpt lat="48.74116" lon="7.35976">
        <ele>198</ele>
        <time>2016-07-11T11:08:26Z</time>
      </trkpt>
      <trkpt lat="48.74167" lon="7.36071">
        <ele>198</ele>
        <time>2016-07-11T11:10:26Z</time>
      </trkpt>
      <trkpt lat="48.7417" lon="7.36077">
        <ele>198</ele>
        <time>2016-07-11T11:12:26Z</time>
      </trkpt>
      <trkpt lat="48.74173" lon="7.36079">
        <ele>198</ele>
        <time>2016-07-11T11:14:26Z</time>
      </trkpt>
      <trkpt lat="48.74202" lon="7.36141">
        <ele>195</ele>
        <time>2016-07-11T11:16:26Z</time>
      </trkpt>
      <trkpt lat="48.74202" lon="7.36141">
        <ele>195</ele>
        <time>2016-07-11T11:18:26Z</time>
      </trkpt>
      <trkpt lat="48.74205" lon="7.36137">
        <ele>194</ele>
        <time>2016-07-11T11:20:26Z</time>
      </trkpt>
      <trkpt lat="48.74208" lon="7.36132">
        <ele>194</ele>
        <time>2016-07-11T11:22:26Z</time>
      </trkpt>
      <trkpt lat="48.7421" lon="7.36128">
        <ele>193</ele>
        <time>2016-07-11T11:24:26Z</time>
      </trkpt>
      <trkpt lat="48.74215" lon="7.36119">
        <ele>193</ele>
        <time>2016-07-11T11:26:26Z</time>
      </trkpt>
      <trkpt lat="48.74215" lon="7.36119">
        <ele>193</ele>
        <time>2016-07-11T11:28:26Z</time>
      </trkpt>
      <trkpt lat="48.7423" lon="7.36142">
        <ele>190</ele>
        <time>2016-07-11T11:30:26Z</time>
      </trkpt>
      <trkpt lat="48.74242" lon="7.36165">
        <ele>187</ele>
        <time>2016-07-11T11:32:26Z</time>
      </trkpt>
      <trkpt lat="48.74256" lon="7.36193">
        <ele>186</ele>
        <time>2016-07-11T11:34:26Z</time>
      </trkpt>
      <trkpt lat="48.74256" lon="7.36193">
        <ele>186</ele>
        <time>2016-07-11T11:36:26Z</time>
      </trkpt>
      <trkpt lat="48.74296" lon="7.36183">
        <ele>185</ele>
        <time>2016-07-11T11:38:26Z</time>
      </trkpt>
      <trkpt lat="48.74325" lon="7.36176">
        <ele>185</ele>
        <time>2016-07-11T11:40:26Z</time>
      </trkpt>
      <trkpt lat="48.7433" lon="7.36177">
        <ele>185</ele>
        <time>2016-07-11T11:42:26Z</time>
      </trkpt>
      <trkpt lat="48.74334" lon="7.3618">
        <ele>185</ele>
        <time>2016-07-11T11:44:26Z</time>
      </trkpt>
      <trkpt lat="48.74339" lon="7.36182">
        <ele>185</ele>
        <time>2016-07-11T11:46:26Z</time>
      </trkpt>
      <trkpt lat="48.74342" lon="7.36184">
        <ele>185</ele>
        <time>2016-07-11T11:48:26Z</time>
      </trkpt>
      <trkpt lat="48.74343" lon="7.36184">
        <ele>185</ele>
        <time>2016-07-11T11:50:26Z</time>
      </trkpt>
      <trkpt lat="48.74344" lon="7.36184">
        <ele>185</ele>
        <time>2016-07-11T11:52:26Z</time>
      </trkpt>
      <trkpt lat="48.74345" lon="7.36183">
        <ele>185</ele>
        <time>2016-07-11T11:54:26Z</time>
      </trkpt>
      <trkpt lat="48.74347" lon="7.36181">
        <ele>185</ele>
        <time>2016-07-11T11:56:26Z</time>
      </trkpt>
      <trkpt lat="48.74347" lon="7.36181">
        <ele>185</ele>
        <time>2016-07-11T11:58:26Z</time>
      </trkpt>
      <trkpt lat="48.74348" lon="7.3618">
        <ele>185</ele>
        <time>2016-07-11T12:00:26Z</time>
      </trkpt>
      <trkpt lat="48.74349" lon="7.36179">
        <ele>185</ele>
        <time>2016-07-11T12:02:26Z</time>
      </trkpt>
      <trkpt lat="48.7435" lon="7.36178">
        <ele>185</ele>
        <time>2016-07-11T12:04:26Z</time>
      </trkpt>
      <trkpt lat="48.7435" lon="7.36174">
        <ele>185</ele>
        <time>2016-07-11T12:06:26Z</time>
      </trkpt>
      <trkpt lat="48.74351" lon="7.36171">
        <ele>185</ele>
        <time>2016-07-11T12:08:26Z</time>
      </trkpt>
      <trkpt lat="48.74352" lon="7.36169">
        <ele>185</ele>
        <time>2016-07-11T12:10:26Z</time>
      </trkpt>
      <trkpt lat="48.74352" lon="7.36165">
        <ele>185</ele>
        <time>2016-07-11T12:12:26Z</time>
      </trkpt>
      <trkpt lat="48.74352" lon="7.36161">
        <ele>185</ele>
        <time>2016-07-11T12:14:26Z</time>
      </trkpt>
      <trkpt lat="48.74352" lon="7.36149">
        <ele>185</ele>
        <time>2016-07-11T12:16:26Z</time>
      </trkpt>
      <trkpt lat="48.74352" lon="7.36141">
        <ele>185</ele>
        <time>2016-07-11T12:18:26Z</time>
      </trkpt>
      <trkpt lat="48.74352" lon="7.36129">
        <ele>185</ele>
        <time>2016-07-11T12:20:26Z</time>
      </trkpt>
      <trkpt lat="48.74351" lon="7.36118">
        <ele>185</ele>
        <time>2016-07-11T12:22:26Z</time>
      </trkpt>
      <trkpt lat="48.74351" lon="7.36099">
        <ele>185</ele>
        <time>2016-07-11T12:24:26Z</time>
      </trkpt>
      <trkpt lat="48.74352" lon="7.36088">
        <ele>186</ele>
        <time>2016-07-11T12:26:26Z</time>
      </trkpt>
      <trkpt lat="48.74353" lon="7.36076">
        <ele>186</ele>
        <time>2016-07-11T12:28:26Z</time>
      </trkpt>
      <trkpt lat="48.74353" lon="7.36076">
        <ele>186</ele>
        <time>2016-07-11T12:30:26Z</time>
      </trkpt>
      <trkpt lat="48.74373" lon="7.36101">
        <ele>185</ele>
        <time>2016-07-11T12:32:26Z</time>
      </trkpt>
      <trkpt lat="48.74374" lon="7.36101">
        <ele>185</ele>
        <time>2016-07-11T12:34:26Z</time>
      </trkpt>
      <trkpt lat="48.74382" lon="7.36113">
        <ele>185</ele>
        <time>2016-07-11T12:36:26Z</time>
      </trkpt>
      <trkpt lat="48.74385" lon="7.36116">
        <ele>185</ele>
        <time>2016-07-11T12:38:26Z</time>
      </trkpt>
      <trkpt lat="48.74425" lon="7.36168">
        <ele>185</ele>
        <time>2016-07-11T12:40:26Z</time>
      </trkpt>
      <trkpt lat="48.74425" lon="7.36168">
        <ele>185</ele>
        <time>2016-07-11T12:42:26Z</time>
      </trkpt>
      <trkpt lat="48.74424" lon="7.36172">
        <ele>185</ele>
        <time>2016-07-11T12:44:26Z</time>
      </trkpt>
      <trkpt lat="48.74424" lon="7.36177">
        <ele>185</ele>
        <time>2016-07-11T12:46:26Z</time>
      </trkpt>
      <trkpt lat="48.74424" lon="7.3618">
        <ele>185</ele>
        <time>2016-07-11T12:48:26Z</time>
      </trkpt>
      <trkpt lat="48.74424" lon="7.36184">
        <ele>185</ele>
        <time>2016-07-11T12:50:26Z</time>
      </trkpt>
      <trkpt lat="48.74426" lon="7.36195">
        <ele>185</ele>
        <time>2016-07-11T12:52:26Z</time>
      </trkpt>
      <trkpt lat="48.74428" lon="7.36213">
        <ele>185</ele>
        <time>2016-07-11T12:54:26Z</time>
      </trkpt>
      <trkpt lat="48.74433" lon="7.36243">
        <ele>185</ele>
        <time>2016-07-11T12:56:26Z</time>
      </trkpt>
      <trkpt lat="48.74434" lon="7.36252">
        <ele>185</ele>
        <time>2016-07-11T12:58:26Z</time>
      </trkpt>
      <trkpt lat="48.74437" lon="7.36269">
        <ele>185</ele>
        <time>2016-07-11T13:00:26Z</time>
      </trkpt>
      <trkpt lat="48.74448" lon="7.36349">
        <ele>184</ele>
        <time>2016-07-11T13:02:26Z</time>
      </trkpt>
      <trkpt lat="48.74455" lon="7.36389">
        <ele>184</ele>
        <time>2016-07-11T13:04:26Z</time>
      </trkpt>
      <trkpt lat="48.74456" lon="7.36401">
        <ele>184</ele>
        <time>2016-07-11T13:06:26Z</time>
      </trkpt>
      <trkpt lat="48.74459" lon="7.36413">
        <ele>184</ele>
        <time>2016-07-11T13:08:26Z</time>
      </trkpt>
      <trkpt lat="48.74461" lon="7.3643">
        <ele>184</ele>
        <time>2016-07-11T13:10:26Z</time>
      </trkpt>
      <trkpt lat="48.74463" lon="7.3644">
        <ele>184</ele>
        <time>2016-07-11T13:12:26Z</time>
      </trkpt>
      <trkpt lat="48.74463" lon="7.36442">
        <ele>184</ele>
        <time>2016-07-11T13:14:26Z</time>
      </trkpt>
      <trkpt lat="48.74463" lon="7.36449">
        <ele>184</ele>
        <time>2016-07-11T13:16:26Z</time>
      </trkpt>
      <trkpt lat="48.74461" lon="7.36456">
        <ele>184</ele>
        <time>2016-07-11T13:18:26Z</time>
      </trkpt>
      <trkpt lat="48.74461" lon="7.36456">
        <ele>184</ele>
        <time>2016-07-11T13:20:26Z</time>
      </trkpt>
      <trkpt lat="48.7446" lon="7.36456">
        <ele>184</ele>
        <time>2016-07-11T13:22:26Z</time>
      </trkpt>
      <trkpt lat="48.74458" lon="7.36456">
        <ele>184</ele>
        <time>2016-07-11T13:24:26Z</time>
      </trkpt>
      <trkpt lat="48.74457" lon="7.36457">
        <ele>184</ele>
        <time>2016-07-11T13:26:26Z</time>
      </trkpt>
      <trkpt lat="48.74456" lon="7.36458">
        <ele>184</ele>
        <time>2016-07-11T13:28:26Z</time>
      </trkpt>
      <trkpt lat="48.74455" lon="7.3646">
        <ele>184</ele>
        <time>2016-07-11T13:30:26Z</time>
      </trkpt>
      <trkpt lat="48.74455" lon="7.36462">
        <ele>184</ele>
        <time>2016-07-11T13:32:26Z</time>
      </trkpt>
      <trkpt lat="48.74454" lon="7.36463">
        <ele>184</ele>
        <time>2016-07-11T13:34:26Z</time>
      </trkpt>
      <trkpt lat="48.74454" lon="7.36466">
        <ele>184</ele>
        <time>2016-07-11T13:36:26Z</time>
      </trkpt>
      <trkpt lat="48.74454" lon="7.36468">
        <ele>184</ele>
        <time>2016-07-11T13:38:26Z</time>
      </trkpt>
      <trkpt lat="48.74455" lon="7.36471">
        <ele>184</ele>
        <time>2016-07-11T13:40:26Z</time>
      </trkpt>
      <trkpt lat="48.74456" lon="7.36473">
        <ele>184</ele>
        <time>2016-07-11T13:42:26Z</time>
      </trkpt>
      <trkpt lat="48.74457" lon="7.36475">
        <ele>184</ele>
        <time>2016-07-11T13:44:26Z</time>
      </trkpt>
      <trkpt lat="48.74458" lon="7.36476">
        <ele>184</ele>
        <time>2016-07-11T13:46:26Z</time>
      </trkpt>
      <trkpt lat="48.74441" lon="7.36491">
        <ele>184</ele>
        <time>2016-07-11T13:48:26Z</time>
      </trkpt>
      <trkpt lat="48.74438" lon="7.36496">
        <ele>184</ele>
        <time>2016-07-11T13:50:26Z</time>
      </trkpt>
      <trkpt lat="48.74438" lon="7.36496">
        <ele>184</ele>
        <time>2016-07-11T13:52:26Z</time>
      </trkpt>
      <trkpt lat="48.74432" lon="7.36497">
        <ele>185</ele>
        <time>2016-07-11T13:54:26Z</time>
      </trkpt>
      <trkpt lat="48.74427" lon="7.36498">
        <ele>185</ele>
        <time>2016-07-11T13:56:26Z</time>
      </trkpt>
      <trkpt lat="48.74424" lon="7.36498">
        <ele>185</ele>
        <time>2016-07-11T13:58:26Z</time>
      </trkpt>
      <trkpt lat="48.7442" lon="7.36496">
        <ele>185</ele>
        <time>2016-07-11T14:00:26Z</time>
      </trkpt>
      <trkpt lat="48.74416" lon="7.36493">
        <ele>185</ele>
        <time>2016-07-11T14:02:26Z</time>
      </trkpt>
      <trkpt lat="48.74414" lon="7.36489">
        <ele>185</ele>
        <time>2016-07-11T14:04:26Z</time>
      </trkpt>
      <trkpt lat="48.744" lon="7.36463">
        <ele>185</ele>
        <time>2016-07-11T14:06:26Z</time>
      </trkpt>
      <trkpt lat="48.74396" lon="7.36454">
        <ele>186</ele>
        <time>2016-07-11T14:08:26Z</time>
      </trkpt>
      <trkpt lat="48.74392" lon="7.36446">
        <ele>186</ele>
        <time>2016-07-11T14:10:26Z</time>
      </trkpt>
      <trkpt lat="48.74389" lon="7.36443">
        <ele>186</ele>
        <time>2016-07-11T14:12:26Z</time>
      </trkpt>
    </trkseg>
  </trk>
</gpx>